<?xml version="1.0" encoding="UTF-8" standalone="no" ?>
<gpx xmlns="http://www.topografix.com/GPX/1/1" xmlns:xsi="http://www.w3.org/2001/XMLSchema-instance" xsi:schemaLocation="http://www.topografix.com/GPX/1/1 http://www.topografix.com/GPX/1/1/gpx.xsd" version="1.1" creator="VisuGPX - https://www.visugpx.com">
  <metadata>
    <name>rando vtt hesdin</name>
    <desc><![CDATA[rando 40 km. parcours roulant et sec.]]></desc>
  </metadata>
  <trk>
    <name><![CDATA[Guiom, Didier, Rémi et Bruno]]></name>
    <trkseg>
      <trkpt lat="50.37817" lon="2.0352">
        <ele>20</ele>
        <time>2012-08-22T18:09:26Z</time>
      </trkpt>
      <trkpt lat="50.37816" lon="2.03523">
        <ele>22</ele>
        <time>2012-08-22T18:09:38Z</time>
      </trkpt>
      <trkpt lat="50.37817" lon="2.03523">
        <ele>22</ele>
        <time>2012-08-22T18:09:40Z</time>
      </trkpt>
      <trkpt lat="50.37815" lon="2.03526">
        <ele>22</ele>
        <time>2012-08-22T18:09:46Z</time>
      </trkpt>
      <trkpt lat="50.37814" lon="2.03529">
        <ele>21</ele>
        <time>2012-08-22T18:09:48Z</time>
      </trkpt>
      <trkpt lat="50.37813" lon="2.03531">
        <ele>21</ele>
        <time>2012-08-22T18:09:50Z</time>
      </trkpt>
      <trkpt lat="50.37812" lon="2.03532">
        <ele>21</ele>
        <time>2012-08-22T18:09:52Z</time>
      </trkpt>
      <trkpt lat="50.37812" lon="2.03531">
        <ele>22</ele>
        <time>2012-08-22T18:09:54Z</time>
      </trkpt>
      <trkpt lat="50.37811" lon="2.03529">
        <ele>23</ele>
        <time>2012-08-22T18:09:56Z</time>
      </trkpt>
      <trkpt lat="50.37811" lon="2.03528">
        <ele>22</ele>
        <time>2012-08-22T18:09:58Z</time>
      </trkpt>
      <trkpt lat="50.3781" lon="2.03528">
        <ele>23</ele>
        <time>2012-08-22T18:10:00Z</time>
      </trkpt>
      <trkpt lat="50.37811" lon="2.03529">
        <ele>23</ele>
        <time>2012-08-22T18:10:02Z</time>
      </trkpt>
      <trkpt lat="50.37814" lon="2.03531">
        <ele>27</ele>
        <time>2012-08-22T18:10:14Z</time>
      </trkpt>
      <trkpt lat="50.37814" lon="2.03531">
        <ele>26</ele>
        <time>2012-08-22T18:10:16Z</time>
      </trkpt>
      <trkpt lat="50.37814" lon="2.03531">
        <ele>32</ele>
        <time>2012-08-22T18:10:30Z</time>
      </trkpt>
      <trkpt lat="50.37812" lon="2.03531">
        <ele>34</ele>
        <time>2012-08-22T18:10:32Z</time>
      </trkpt>
      <trkpt lat="50.37812" lon="2.03531">
        <ele>33</ele>
        <time>2012-08-22T18:10:34Z</time>
      </trkpt>
      <trkpt lat="50.37812" lon="2.03532">
        <ele>31</ele>
        <time>2012-08-22T18:10:36Z</time>
      </trkpt>
      <trkpt lat="50.37814" lon="2.03535">
        <ele>31</ele>
        <time>2012-08-22T18:10:38Z</time>
      </trkpt>
      <trkpt lat="50.37815" lon="2.03541">
        <ele>32</ele>
        <time>2012-08-22T18:10:40Z</time>
      </trkpt>
      <trkpt lat="50.37817" lon="2.03548">
        <ele>31</ele>
        <time>2012-08-22T18:10:42Z</time>
      </trkpt>
      <trkpt lat="50.37819" lon="2.03556">
        <ele>33</ele>
        <time>2012-08-22T18:10:44Z</time>
      </trkpt>
      <trkpt lat="50.3782" lon="2.03565">
        <ele>33</ele>
        <time>2012-08-22T18:10:46Z</time>
      </trkpt>
      <trkpt lat="50.37822" lon="2.03573">
        <ele>31</ele>
        <time>2012-08-22T18:10:48Z</time>
      </trkpt>
      <trkpt lat="50.37824" lon="2.03582">
        <ele>31</ele>
        <time>2012-08-22T18:10:50Z</time>
      </trkpt>
      <trkpt lat="50.37827" lon="2.03592">
        <ele>30</ele>
        <time>2012-08-22T18:10:52Z</time>
      </trkpt>
      <trkpt lat="50.37828" lon="2.03603">
        <ele>31</ele>
        <time>2012-08-22T18:10:54Z</time>
      </trkpt>
      <trkpt lat="50.3783" lon="2.03613">
        <ele>31</ele>
        <time>2012-08-22T18:10:56Z</time>
      </trkpt>
      <trkpt lat="50.37831" lon="2.03624">
        <ele>32</ele>
        <time>2012-08-22T18:10:58Z</time>
      </trkpt>
      <trkpt lat="50.37833" lon="2.03634">
        <ele>33</ele>
        <time>2012-08-22T18:11:00Z</time>
      </trkpt>
      <trkpt lat="50.37835" lon="2.03645">
        <ele>32</ele>
        <time>2012-08-22T18:11:02Z</time>
      </trkpt>
      <trkpt lat="50.37838" lon="2.03654">
        <ele>31</ele>
        <time>2012-08-22T18:11:04Z</time>
      </trkpt>
      <trkpt lat="50.37843" lon="2.03662">
        <ele>30</ele>
        <time>2012-08-22T18:11:06Z</time>
      </trkpt>
      <trkpt lat="50.37848" lon="2.03666">
        <ele>28</ele>
        <time>2012-08-22T18:11:08Z</time>
      </trkpt>
      <trkpt lat="50.37854" lon="2.0367">
        <ele>27</ele>
        <time>2012-08-22T18:11:10Z</time>
      </trkpt>
      <trkpt lat="50.37859" lon="2.03672">
        <ele>27</ele>
        <time>2012-08-22T18:11:12Z</time>
      </trkpt>
      <trkpt lat="50.37866" lon="2.03673">
        <ele>27</ele>
        <time>2012-08-22T18:11:14Z</time>
      </trkpt>
      <trkpt lat="50.37873" lon="2.03675">
        <ele>28</ele>
        <time>2012-08-22T18:11:16Z</time>
      </trkpt>
      <trkpt lat="50.37879" lon="2.03678">
        <ele>28</ele>
        <time>2012-08-22T18:11:18Z</time>
      </trkpt>
      <trkpt lat="50.37886" lon="2.03684">
        <ele>29</ele>
        <time>2012-08-22T18:11:20Z</time>
      </trkpt>
      <trkpt lat="50.37891" lon="2.0369">
        <ele>29</ele>
        <time>2012-08-22T18:11:22Z</time>
      </trkpt>
      <trkpt lat="50.37898" lon="2.03694">
        <ele>29</ele>
        <time>2012-08-22T18:11:24Z</time>
      </trkpt>
      <trkpt lat="50.37905" lon="2.03695">
        <ele>28</ele>
        <time>2012-08-22T18:11:26Z</time>
      </trkpt>
      <trkpt lat="50.37912" lon="2.03697">
        <ele>28</ele>
        <time>2012-08-22T18:11:28Z</time>
      </trkpt>
      <trkpt lat="50.3792" lon="2.03701">
        <ele>28</ele>
        <time>2012-08-22T18:11:30Z</time>
      </trkpt>
      <trkpt lat="50.37927" lon="2.03706">
        <ele>28</ele>
        <time>2012-08-22T18:11:32Z</time>
      </trkpt>
      <trkpt lat="50.37933" lon="2.0371">
        <ele>29</ele>
        <time>2012-08-22T18:11:34Z</time>
      </trkpt>
      <trkpt lat="50.37938" lon="2.03714">
        <ele>29</ele>
        <time>2012-08-22T18:11:36Z</time>
      </trkpt>
      <trkpt lat="50.37943" lon="2.03719">
        <ele>29</ele>
        <time>2012-08-22T18:11:38Z</time>
      </trkpt>
      <trkpt lat="50.37949" lon="2.03726">
        <ele>28</ele>
        <time>2012-08-22T18:11:40Z</time>
      </trkpt>
      <trkpt lat="50.37957" lon="2.03733">
        <ele>28</ele>
        <time>2012-08-22T18:11:42Z</time>
      </trkpt>
      <trkpt lat="50.37964" lon="2.03739">
        <ele>28</ele>
        <time>2012-08-22T18:11:44Z</time>
      </trkpt>
      <trkpt lat="50.3797" lon="2.03745">
        <ele>28</ele>
        <time>2012-08-22T18:11:46Z</time>
      </trkpt>
      <trkpt lat="50.37976" lon="2.03752">
        <ele>29</ele>
        <time>2012-08-22T18:11:48Z</time>
      </trkpt>
      <trkpt lat="50.37981" lon="2.03759">
        <ele>31</ele>
        <time>2012-08-22T18:11:50Z</time>
      </trkpt>
      <trkpt lat="50.37985" lon="2.03765">
        <ele>32</ele>
        <time>2012-08-22T18:11:52Z</time>
      </trkpt>
      <trkpt lat="50.37988" lon="2.03771">
        <ele>34</ele>
        <time>2012-08-22T18:11:54Z</time>
      </trkpt>
      <trkpt lat="50.37992" lon="2.03776">
        <ele>34</ele>
        <time>2012-08-22T18:11:56Z</time>
      </trkpt>
      <trkpt lat="50.37996" lon="2.03783">
        <ele>35</ele>
        <time>2012-08-22T18:11:58Z</time>
      </trkpt>
      <trkpt lat="50.38002" lon="2.03793">
        <ele>33</ele>
        <time>2012-08-22T18:12:00Z</time>
      </trkpt>
      <trkpt lat="50.38009" lon="2.03802">
        <ele>33</ele>
        <time>2012-08-22T18:12:02Z</time>
      </trkpt>
      <trkpt lat="50.38015" lon="2.03813">
        <ele>34</ele>
        <time>2012-08-22T18:12:04Z</time>
      </trkpt>
      <trkpt lat="50.38022" lon="2.03822">
        <ele>35</ele>
        <time>2012-08-22T18:12:06Z</time>
      </trkpt>
      <trkpt lat="50.38028" lon="2.03829">
        <ele>35</ele>
        <time>2012-08-22T18:12:08Z</time>
      </trkpt>
      <trkpt lat="50.38035" lon="2.03827">
        <ele>36</ele>
        <time>2012-08-22T18:12:10Z</time>
      </trkpt>
      <trkpt lat="50.38043" lon="2.03818">
        <ele>35</ele>
        <time>2012-08-22T18:12:12Z</time>
      </trkpt>
      <trkpt lat="50.38051" lon="2.03809">
        <ele>36</ele>
        <time>2012-08-22T18:12:14Z</time>
      </trkpt>
      <trkpt lat="50.38059" lon="2.03802">
        <ele>36</ele>
        <time>2012-08-22T18:12:16Z</time>
      </trkpt>
      <trkpt lat="50.38066" lon="2.03797">
        <ele>36</ele>
        <time>2012-08-22T18:12:18Z</time>
      </trkpt>
      <trkpt lat="50.38074" lon="2.03791">
        <ele>36</ele>
        <time>2012-08-22T18:12:20Z</time>
      </trkpt>
      <trkpt lat="50.38081" lon="2.03786">
        <ele>36</ele>
        <time>2012-08-22T18:12:22Z</time>
      </trkpt>
      <trkpt lat="50.3809" lon="2.03781">
        <ele>36</ele>
        <time>2012-08-22T18:12:24Z</time>
      </trkpt>
      <trkpt lat="50.38097" lon="2.03776">
        <ele>36</ele>
        <time>2012-08-22T18:12:26Z</time>
      </trkpt>
      <trkpt lat="50.38105" lon="2.03771">
        <ele>37</ele>
        <time>2012-08-22T18:12:28Z</time>
      </trkpt>
      <trkpt lat="50.38112" lon="2.03766">
        <ele>37</ele>
        <time>2012-08-22T18:12:30Z</time>
      </trkpt>
      <trkpt lat="50.38119" lon="2.03762">
        <ele>37</ele>
        <time>2012-08-22T18:12:32Z</time>
      </trkpt>
      <trkpt lat="50.38126" lon="2.03757">
        <ele>39</ele>
        <time>2012-08-22T18:12:34Z</time>
      </trkpt>
      <trkpt lat="50.38133" lon="2.03754">
        <ele>39</ele>
        <time>2012-08-22T18:12:36Z</time>
      </trkpt>
      <trkpt lat="50.38137" lon="2.0375">
        <ele>38</ele>
        <time>2012-08-22T18:12:38Z</time>
      </trkpt>
      <trkpt lat="50.38143" lon="2.03748">
        <ele>38</ele>
        <time>2012-08-22T18:12:40Z</time>
      </trkpt>
      <trkpt lat="50.38149" lon="2.03746">
        <ele>38</ele>
        <time>2012-08-22T18:12:42Z</time>
      </trkpt>
      <trkpt lat="50.38154" lon="2.03745">
        <ele>39</ele>
        <time>2012-08-22T18:12:44Z</time>
      </trkpt>
      <trkpt lat="50.38159" lon="2.03743">
        <ele>39</ele>
        <time>2012-08-22T18:12:46Z</time>
      </trkpt>
      <trkpt lat="50.38165" lon="2.03739">
        <ele>39</ele>
        <time>2012-08-22T18:12:48Z</time>
      </trkpt>
      <trkpt lat="50.38171" lon="2.03733">
        <ele>39</ele>
        <time>2012-08-22T18:12:50Z</time>
      </trkpt>
      <trkpt lat="50.38176" lon="2.03727">
        <ele>38</ele>
        <time>2012-08-22T18:12:52Z</time>
      </trkpt>
      <trkpt lat="50.38179" lon="2.03721">
        <ele>38</ele>
        <time>2012-08-22T18:12:54Z</time>
      </trkpt>
      <trkpt lat="50.38183" lon="2.03718">
        <ele>39</ele>
        <time>2012-08-22T18:12:56Z</time>
      </trkpt>
      <trkpt lat="50.38187" lon="2.03717">
        <ele>39</ele>
        <time>2012-08-22T18:12:58Z</time>
      </trkpt>
      <trkpt lat="50.38194" lon="2.03715">
        <ele>40</ele>
        <time>2012-08-22T18:13:00Z</time>
      </trkpt>
      <trkpt lat="50.38201" lon="2.03712">
        <ele>41</ele>
        <time>2012-08-22T18:13:02Z</time>
      </trkpt>
      <trkpt lat="50.38207" lon="2.0371">
        <ele>39</ele>
        <time>2012-08-22T18:13:04Z</time>
      </trkpt>
      <trkpt lat="50.38215" lon="2.03708">
        <ele>39</ele>
        <time>2012-08-22T18:13:06Z</time>
      </trkpt>
      <trkpt lat="50.38222" lon="2.03706">
        <ele>37</ele>
        <time>2012-08-22T18:13:08Z</time>
      </trkpt>
      <trkpt lat="50.38229" lon="2.03703">
        <ele>38</ele>
        <time>2012-08-22T18:13:10Z</time>
      </trkpt>
      <trkpt lat="50.38236" lon="2.03701">
        <ele>38</ele>
        <time>2012-08-22T18:13:12Z</time>
      </trkpt>
      <trkpt lat="50.38242" lon="2.03699">
        <ele>38</ele>
        <time>2012-08-22T18:13:14Z</time>
      </trkpt>
      <trkpt lat="50.38248" lon="2.03697">
        <ele>39</ele>
        <time>2012-08-22T18:13:16Z</time>
      </trkpt>
      <trkpt lat="50.38254" lon="2.03695">
        <ele>38</ele>
        <time>2012-08-22T18:13:18Z</time>
      </trkpt>
      <trkpt lat="50.3826" lon="2.03694">
        <ele>37</ele>
        <time>2012-08-22T18:13:20Z</time>
      </trkpt>
      <trkpt lat="50.38266" lon="2.03693">
        <ele>37</ele>
        <time>2012-08-22T18:13:22Z</time>
      </trkpt>
      <trkpt lat="50.38273" lon="2.03691">
        <ele>37</ele>
        <time>2012-08-22T18:13:24Z</time>
      </trkpt>
      <trkpt lat="50.38278" lon="2.0369">
        <ele>37</ele>
        <time>2012-08-22T18:13:26Z</time>
      </trkpt>
      <trkpt lat="50.38282" lon="2.03689">
        <ele>37</ele>
        <time>2012-08-22T18:13:28Z</time>
      </trkpt>
      <trkpt lat="50.38285" lon="2.03686">
        <ele>36</ele>
        <time>2012-08-22T18:13:30Z</time>
      </trkpt>
      <trkpt lat="50.38289" lon="2.03683">
        <ele>36</ele>
        <time>2012-08-22T18:13:32Z</time>
      </trkpt>
      <trkpt lat="50.38293" lon="2.0368">
        <ele>37</ele>
        <time>2012-08-22T18:13:34Z</time>
      </trkpt>
      <trkpt lat="50.38297" lon="2.03676">
        <ele>37</ele>
        <time>2012-08-22T18:13:36Z</time>
      </trkpt>
      <trkpt lat="50.383" lon="2.03674">
        <ele>38</ele>
        <time>2012-08-22T18:13:38Z</time>
      </trkpt>
      <trkpt lat="50.38304" lon="2.03672">
        <ele>38</ele>
        <time>2012-08-22T18:13:40Z</time>
      </trkpt>
      <trkpt lat="50.38308" lon="2.0367">
        <ele>41</ele>
        <time>2012-08-22T18:13:42Z</time>
      </trkpt>
      <trkpt lat="50.38313" lon="2.03667">
        <ele>41</ele>
        <time>2012-08-22T18:13:44Z</time>
      </trkpt>
      <trkpt lat="50.38318" lon="2.03664">
        <ele>40</ele>
        <time>2012-08-22T18:13:46Z</time>
      </trkpt>
      <trkpt lat="50.38321" lon="2.03659">
        <ele>40</ele>
        <time>2012-08-22T18:13:48Z</time>
      </trkpt>
      <trkpt lat="50.38324" lon="2.03653">
        <ele>40</ele>
        <time>2012-08-22T18:13:50Z</time>
      </trkpt>
      <trkpt lat="50.38327" lon="2.03649">
        <ele>39</ele>
        <time>2012-08-22T18:13:52Z</time>
      </trkpt>
      <trkpt lat="50.38332" lon="2.03647">
        <ele>39</ele>
        <time>2012-08-22T18:13:54Z</time>
      </trkpt>
      <trkpt lat="50.38337" lon="2.03644">
        <ele>40</ele>
        <time>2012-08-22T18:13:56Z</time>
      </trkpt>
      <trkpt lat="50.38341" lon="2.03642">
        <ele>38</ele>
        <time>2012-08-22T18:13:58Z</time>
      </trkpt>
      <trkpt lat="50.38345" lon="2.03639">
        <ele>38</ele>
        <time>2012-08-22T18:14:00Z</time>
      </trkpt>
      <trkpt lat="50.3835" lon="2.03635">
        <ele>38</ele>
        <time>2012-08-22T18:14:02Z</time>
      </trkpt>
      <trkpt lat="50.38354" lon="2.03631">
        <ele>37</ele>
        <time>2012-08-22T18:14:04Z</time>
      </trkpt>
      <trkpt lat="50.38359" lon="2.03628">
        <ele>37</ele>
        <time>2012-08-22T18:14:06Z</time>
      </trkpt>
      <trkpt lat="50.38364" lon="2.03622">
        <ele>38</ele>
        <time>2012-08-22T18:14:08Z</time>
      </trkpt>
      <trkpt lat="50.38369" lon="2.03619">
        <ele>40</ele>
        <time>2012-08-22T18:14:10Z</time>
      </trkpt>
      <trkpt lat="50.38372" lon="2.03617">
        <ele>41</ele>
        <time>2012-08-22T18:14:12Z</time>
      </trkpt>
      <trkpt lat="50.38376" lon="2.03615">
        <ele>42</ele>
        <time>2012-08-22T18:14:14Z</time>
      </trkpt>
      <trkpt lat="50.38378" lon="2.03611">
        <ele>45</ele>
        <time>2012-08-22T18:14:16Z</time>
      </trkpt>
      <trkpt lat="50.3838" lon="2.03605">
        <ele>45</ele>
        <time>2012-08-22T18:14:18Z</time>
      </trkpt>
      <trkpt lat="50.38379" lon="2.03596">
        <ele>45</ele>
        <time>2012-08-22T18:14:20Z</time>
      </trkpt>
      <trkpt lat="50.38379" lon="2.03588">
        <ele>45</ele>
        <time>2012-08-22T18:14:22Z</time>
      </trkpt>
      <trkpt lat="50.38379" lon="2.03581">
        <ele>46</ele>
        <time>2012-08-22T18:14:24Z</time>
      </trkpt>
      <trkpt lat="50.38378" lon="2.03574">
        <ele>46</ele>
        <time>2012-08-22T18:14:26Z</time>
      </trkpt>
      <trkpt lat="50.38377" lon="2.03567">
        <ele>46</ele>
        <time>2012-08-22T18:14:28Z</time>
      </trkpt>
      <trkpt lat="50.38377" lon="2.03559">
        <ele>47</ele>
        <time>2012-08-22T18:14:30Z</time>
      </trkpt>
      <trkpt lat="50.38378" lon="2.03551">
        <ele>48</ele>
        <time>2012-08-22T18:14:32Z</time>
      </trkpt>
      <trkpt lat="50.38379" lon="2.03543">
        <ele>48</ele>
        <time>2012-08-22T18:14:34Z</time>
      </trkpt>
      <trkpt lat="50.3838" lon="2.03536">
        <ele>47</ele>
        <time>2012-08-22T18:14:36Z</time>
      </trkpt>
      <trkpt lat="50.38382" lon="2.03528">
        <ele>48</ele>
        <time>2012-08-22T18:14:38Z</time>
      </trkpt>
      <trkpt lat="50.38383" lon="2.03521">
        <ele>49</ele>
        <time>2012-08-22T18:14:40Z</time>
      </trkpt>
      <trkpt lat="50.38385" lon="2.03515">
        <ele>50</ele>
        <time>2012-08-22T18:14:42Z</time>
      </trkpt>
      <trkpt lat="50.38388" lon="2.03508">
        <ele>49</ele>
        <time>2012-08-22T18:14:44Z</time>
      </trkpt>
      <trkpt lat="50.3839" lon="2.03501">
        <ele>50</ele>
        <time>2012-08-22T18:14:46Z</time>
      </trkpt>
      <trkpt lat="50.3839" lon="2.03494">
        <ele>51</ele>
        <time>2012-08-22T18:14:48Z</time>
      </trkpt>
      <trkpt lat="50.38389" lon="2.03487">
        <ele>52</ele>
        <time>2012-08-22T18:14:50Z</time>
      </trkpt>
      <trkpt lat="50.38389" lon="2.03479">
        <ele>50</ele>
        <time>2012-08-22T18:14:52Z</time>
      </trkpt>
      <trkpt lat="50.38389" lon="2.0347">
        <ele>49</ele>
        <time>2012-08-22T18:14:54Z</time>
      </trkpt>
      <trkpt lat="50.38388" lon="2.03462">
        <ele>50</ele>
        <time>2012-08-22T18:14:56Z</time>
      </trkpt>
      <trkpt lat="50.38387" lon="2.03455">
        <ele>49</ele>
        <time>2012-08-22T18:14:58Z</time>
      </trkpt>
      <trkpt lat="50.38385" lon="2.03448">
        <ele>49</ele>
        <time>2012-08-22T18:15:00Z</time>
      </trkpt>
      <trkpt lat="50.38383" lon="2.03441">
        <ele>49</ele>
        <time>2012-08-22T18:15:02Z</time>
      </trkpt>
      <trkpt lat="50.38381" lon="2.03432">
        <ele>52</ele>
        <time>2012-08-22T18:15:04Z</time>
      </trkpt>
      <trkpt lat="50.3838" lon="2.03424">
        <ele>52</ele>
        <time>2012-08-22T18:15:06Z</time>
      </trkpt>
      <trkpt lat="50.38377" lon="2.03417">
        <ele>52</ele>
        <time>2012-08-22T18:15:08Z</time>
      </trkpt>
      <trkpt lat="50.38373" lon="2.0341">
        <ele>51</ele>
        <time>2012-08-22T18:15:10Z</time>
      </trkpt>
      <trkpt lat="50.3837" lon="2.03402">
        <ele>52</ele>
        <time>2012-08-22T18:15:12Z</time>
      </trkpt>
      <trkpt lat="50.38367" lon="2.03391">
        <ele>55</ele>
        <time>2012-08-22T18:15:14Z</time>
      </trkpt>
      <trkpt lat="50.38364" lon="2.03381">
        <ele>57</ele>
        <time>2012-08-22T18:15:16Z</time>
      </trkpt>
      <trkpt lat="50.38364" lon="2.03368">
        <ele>56</ele>
        <time>2012-08-22T18:15:18Z</time>
      </trkpt>
      <trkpt lat="50.38364" lon="2.03356">
        <ele>58</ele>
        <time>2012-08-22T18:15:20Z</time>
      </trkpt>
      <trkpt lat="50.38365" lon="2.03344">
        <ele>58</ele>
        <time>2012-08-22T18:15:22Z</time>
      </trkpt>
      <trkpt lat="50.38366" lon="2.03332">
        <ele>58</ele>
        <time>2012-08-22T18:15:24Z</time>
      </trkpt>
      <trkpt lat="50.38368" lon="2.0332">
        <ele>59</ele>
        <time>2012-08-22T18:15:26Z</time>
      </trkpt>
      <trkpt lat="50.38369" lon="2.03307">
        <ele>59</ele>
        <time>2012-08-22T18:15:28Z</time>
      </trkpt>
      <trkpt lat="50.38371" lon="2.03295">
        <ele>58</ele>
        <time>2012-08-22T18:15:30Z</time>
      </trkpt>
      <trkpt lat="50.38373" lon="2.03284">
        <ele>55</ele>
        <time>2012-08-22T18:15:32Z</time>
      </trkpt>
      <trkpt lat="50.38375" lon="2.03272">
        <ele>56</ele>
        <time>2012-08-22T18:15:34Z</time>
      </trkpt>
      <trkpt lat="50.38377" lon="2.03262">
        <ele>57</ele>
        <time>2012-08-22T18:15:36Z</time>
      </trkpt>
      <trkpt lat="50.3838" lon="2.03252">
        <ele>57</ele>
        <time>2012-08-22T18:15:38Z</time>
      </trkpt>
      <trkpt lat="50.38382" lon="2.03243">
        <ele>57</ele>
        <time>2012-08-22T18:15:40Z</time>
      </trkpt>
      <trkpt lat="50.38385" lon="2.03233">
        <ele>56</ele>
        <time>2012-08-22T18:15:42Z</time>
      </trkpt>
      <trkpt lat="50.38388" lon="2.03223">
        <ele>56</ele>
        <time>2012-08-22T18:15:44Z</time>
      </trkpt>
      <trkpt lat="50.38392" lon="2.03211">
        <ele>56</ele>
        <time>2012-08-22T18:15:46Z</time>
      </trkpt>
      <trkpt lat="50.384" lon="2.03198">
        <ele>56</ele>
        <time>2012-08-22T18:15:48Z</time>
      </trkpt>
      <trkpt lat="50.38403" lon="2.03184">
        <ele>55</ele>
        <time>2012-08-22T18:15:50Z</time>
      </trkpt>
      <trkpt lat="50.38407" lon="2.03171">
        <ele>55</ele>
        <time>2012-08-22T18:15:52Z</time>
      </trkpt>
      <trkpt lat="50.3841" lon="2.03159">
        <ele>54</ele>
        <time>2012-08-22T18:15:54Z</time>
      </trkpt>
      <trkpt lat="50.38411" lon="2.03147">
        <ele>54</ele>
        <time>2012-08-22T18:15:56Z</time>
      </trkpt>
      <trkpt lat="50.38412" lon="2.03135">
        <ele>55</ele>
        <time>2012-08-22T18:15:58Z</time>
      </trkpt>
      <trkpt lat="50.38413" lon="2.03123">
        <ele>55</ele>
        <time>2012-08-22T18:16:00Z</time>
      </trkpt>
      <trkpt lat="50.38413" lon="2.03112">
        <ele>55</ele>
        <time>2012-08-22T18:16:02Z</time>
      </trkpt>
      <trkpt lat="50.38414" lon="2.031">
        <ele>55</ele>
        <time>2012-08-22T18:16:04Z</time>
      </trkpt>
      <trkpt lat="50.38414" lon="2.03088">
        <ele>54</ele>
        <time>2012-08-22T18:16:06Z</time>
      </trkpt>
      <trkpt lat="50.38415" lon="2.03076">
        <ele>55</ele>
        <time>2012-08-22T18:16:08Z</time>
      </trkpt>
      <trkpt lat="50.38415" lon="2.03064">
        <ele>55</ele>
        <time>2012-08-22T18:16:10Z</time>
      </trkpt>
      <trkpt lat="50.38415" lon="2.03052">
        <ele>54</ele>
        <time>2012-08-22T18:16:12Z</time>
      </trkpt>
      <trkpt lat="50.38414" lon="2.03042">
        <ele>54</ele>
        <time>2012-08-22T18:16:14Z</time>
      </trkpt>
      <trkpt lat="50.38413" lon="2.03032">
        <ele>55</ele>
        <time>2012-08-22T18:16:16Z</time>
      </trkpt>
      <trkpt lat="50.38412" lon="2.03022">
        <ele>54</ele>
        <time>2012-08-22T18:16:18Z</time>
      </trkpt>
      <trkpt lat="50.38412" lon="2.03012">
        <ele>54</ele>
        <time>2012-08-22T18:16:20Z</time>
      </trkpt>
      <trkpt lat="50.38412" lon="2.03">
        <ele>54</ele>
        <time>2012-08-22T18:16:22Z</time>
      </trkpt>
      <trkpt lat="50.38412" lon="2.02988">
        <ele>53</ele>
        <time>2012-08-22T18:16:24Z</time>
      </trkpt>
      <trkpt lat="50.38412" lon="2.02974">
        <ele>55</ele>
        <time>2012-08-22T18:16:26Z</time>
      </trkpt>
      <trkpt lat="50.38412" lon="2.0296">
        <ele>56</ele>
        <time>2012-08-22T18:16:28Z</time>
      </trkpt>
      <trkpt lat="50.38412" lon="2.02946">
        <ele>55</ele>
        <time>2012-08-22T18:16:30Z</time>
      </trkpt>
      <trkpt lat="50.38411" lon="2.02933">
        <ele>56</ele>
        <time>2012-08-22T18:16:32Z</time>
      </trkpt>
      <trkpt lat="50.38411" lon="2.0292">
        <ele>56</ele>
        <time>2012-08-22T18:16:34Z</time>
      </trkpt>
      <trkpt lat="50.38411" lon="2.02907">
        <ele>57</ele>
        <time>2012-08-22T18:16:36Z</time>
      </trkpt>
      <trkpt lat="50.38412" lon="2.02894">
        <ele>55</ele>
        <time>2012-08-22T18:16:38Z</time>
      </trkpt>
      <trkpt lat="50.38412" lon="2.02881">
        <ele>55</ele>
        <time>2012-08-22T18:16:40Z</time>
      </trkpt>
      <trkpt lat="50.38413" lon="2.02867">
        <ele>55</ele>
        <time>2012-08-22T18:16:42Z</time>
      </trkpt>
      <trkpt lat="50.38414" lon="2.02854">
        <ele>56</ele>
        <time>2012-08-22T18:16:44Z</time>
      </trkpt>
      <trkpt lat="50.38415" lon="2.02841">
        <ele>56</ele>
        <time>2012-08-22T18:16:46Z</time>
      </trkpt>
      <trkpt lat="50.38416" lon="2.02829">
        <ele>57</ele>
        <time>2012-08-22T18:16:48Z</time>
      </trkpt>
      <trkpt lat="50.38417" lon="2.02817">
        <ele>58</ele>
        <time>2012-08-22T18:16:50Z</time>
      </trkpt>
      <trkpt lat="50.38418" lon="2.02805">
        <ele>58</ele>
        <time>2012-08-22T18:16:52Z</time>
      </trkpt>
      <trkpt lat="50.38419" lon="2.02793">
        <ele>58</ele>
        <time>2012-08-22T18:16:54Z</time>
      </trkpt>
      <trkpt lat="50.3842" lon="2.02781">
        <ele>58</ele>
        <time>2012-08-22T18:16:56Z</time>
      </trkpt>
      <trkpt lat="50.38421" lon="2.0277">
        <ele>58</ele>
        <time>2012-08-22T18:16:58Z</time>
      </trkpt>
      <trkpt lat="50.38421" lon="2.02758">
        <ele>58</ele>
        <time>2012-08-22T18:17:00Z</time>
      </trkpt>
      <trkpt lat="50.38422" lon="2.02747">
        <ele>56</ele>
        <time>2012-08-22T18:17:02Z</time>
      </trkpt>
      <trkpt lat="50.38423" lon="2.02737">
        <ele>55</ele>
        <time>2012-08-22T18:17:04Z</time>
      </trkpt>
      <trkpt lat="50.38425" lon="2.02727">
        <ele>54</ele>
        <time>2012-08-22T18:17:06Z</time>
      </trkpt>
      <trkpt lat="50.38426" lon="2.02716">
        <ele>53</ele>
        <time>2012-08-22T18:17:08Z</time>
      </trkpt>
      <trkpt lat="50.38427" lon="2.02705">
        <ele>53</ele>
        <time>2012-08-22T18:17:10Z</time>
      </trkpt>
      <trkpt lat="50.38427" lon="2.02694">
        <ele>55</ele>
        <time>2012-08-22T18:17:12Z</time>
      </trkpt>
      <trkpt lat="50.38428" lon="2.02683">
        <ele>55</ele>
        <time>2012-08-22T18:17:14Z</time>
      </trkpt>
      <trkpt lat="50.38428" lon="2.02672">
        <ele>55</ele>
        <time>2012-08-22T18:17:16Z</time>
      </trkpt>
      <trkpt lat="50.38429" lon="2.02661">
        <ele>55</ele>
        <time>2012-08-22T18:17:18Z</time>
      </trkpt>
      <trkpt lat="50.3843" lon="2.0265">
        <ele>56</ele>
        <time>2012-08-22T18:17:20Z</time>
      </trkpt>
      <trkpt lat="50.38431" lon="2.0264">
        <ele>56</ele>
        <time>2012-08-22T18:17:22Z</time>
      </trkpt>
      <trkpt lat="50.38431" lon="2.02629">
        <ele>55</ele>
        <time>2012-08-22T18:17:24Z</time>
      </trkpt>
      <trkpt lat="50.3843" lon="2.02617">
        <ele>56</ele>
        <time>2012-08-22T18:17:26Z</time>
      </trkpt>
      <trkpt lat="50.38429" lon="2.02605">
        <ele>55</ele>
        <time>2012-08-22T18:17:28Z</time>
      </trkpt>
      <trkpt lat="50.38428" lon="2.02594">
        <ele>56</ele>
        <time>2012-08-22T18:17:30Z</time>
      </trkpt>
      <trkpt lat="50.38427" lon="2.02583">
        <ele>56</ele>
        <time>2012-08-22T18:17:32Z</time>
      </trkpt>
      <trkpt lat="50.38427" lon="2.02573">
        <ele>56</ele>
        <time>2012-08-22T18:17:34Z</time>
      </trkpt>
      <trkpt lat="50.38427" lon="2.02562">
        <ele>56</ele>
        <time>2012-08-22T18:17:36Z</time>
      </trkpt>
      <trkpt lat="50.38428" lon="2.02552">
        <ele>56</ele>
        <time>2012-08-22T18:17:38Z</time>
      </trkpt>
      <trkpt lat="50.38428" lon="2.02541">
        <ele>58</ele>
        <time>2012-08-22T18:17:40Z</time>
      </trkpt>
      <trkpt lat="50.38428" lon="2.0253">
        <ele>59</ele>
        <time>2012-08-22T18:17:42Z</time>
      </trkpt>
      <trkpt lat="50.38427" lon="2.0252">
        <ele>58</ele>
        <time>2012-08-22T18:17:44Z</time>
      </trkpt>
      <trkpt lat="50.38427" lon="2.02511">
        <ele>59</ele>
        <time>2012-08-22T18:17:46Z</time>
      </trkpt>
      <trkpt lat="50.38425" lon="2.02501">
        <ele>62</ele>
        <time>2012-08-22T18:17:48Z</time>
      </trkpt>
      <trkpt lat="50.38424" lon="2.02491">
        <ele>62</ele>
        <time>2012-08-22T18:17:50Z</time>
      </trkpt>
      <trkpt lat="50.38423" lon="2.02482">
        <ele>61</ele>
        <time>2012-08-22T18:17:52Z</time>
      </trkpt>
      <trkpt lat="50.38423" lon="2.02472">
        <ele>60</ele>
        <time>2012-08-22T18:17:54Z</time>
      </trkpt>
      <trkpt lat="50.38423" lon="2.02463">
        <ele>60</ele>
        <time>2012-08-22T18:17:56Z</time>
      </trkpt>
      <trkpt lat="50.38424" lon="2.02453">
        <ele>60</ele>
        <time>2012-08-22T18:17:58Z</time>
      </trkpt>
      <trkpt lat="50.38424" lon="2.02444">
        <ele>61</ele>
        <time>2012-08-22T18:18:00Z</time>
      </trkpt>
      <trkpt lat="50.38424" lon="2.02434">
        <ele>62</ele>
        <time>2012-08-22T18:18:02Z</time>
      </trkpt>
      <trkpt lat="50.38424" lon="2.02424">
        <ele>58</ele>
        <time>2012-08-22T18:18:04Z</time>
      </trkpt>
      <trkpt lat="50.38424" lon="2.02413">
        <ele>59</ele>
        <time>2012-08-22T18:18:06Z</time>
      </trkpt>
      <trkpt lat="50.38424" lon="2.02404">
        <ele>60</ele>
        <time>2012-08-22T18:18:08Z</time>
      </trkpt>
      <trkpt lat="50.38424" lon="2.02394">
        <ele>59</ele>
        <time>2012-08-22T18:18:10Z</time>
      </trkpt>
      <trkpt lat="50.38424" lon="2.02384">
        <ele>59</ele>
        <time>2012-08-22T18:18:12Z</time>
      </trkpt>
      <trkpt lat="50.38424" lon="2.02374">
        <ele>59</ele>
        <time>2012-08-22T18:18:14Z</time>
      </trkpt>
      <trkpt lat="50.38424" lon="2.02364">
        <ele>60</ele>
        <time>2012-08-22T18:18:16Z</time>
      </trkpt>
      <trkpt lat="50.38422" lon="2.02354">
        <ele>61</ele>
        <time>2012-08-22T18:18:18Z</time>
      </trkpt>
      <trkpt lat="50.38421" lon="2.02345">
        <ele>61</ele>
        <time>2012-08-22T18:18:20Z</time>
      </trkpt>
      <trkpt lat="50.38421" lon="2.02336">
        <ele>60</ele>
        <time>2012-08-22T18:18:22Z</time>
      </trkpt>
      <trkpt lat="50.38421" lon="2.02327">
        <ele>61</ele>
        <time>2012-08-22T18:18:24Z</time>
      </trkpt>
      <trkpt lat="50.38421" lon="2.02319">
        <ele>61</ele>
        <time>2012-08-22T18:18:26Z</time>
      </trkpt>
      <trkpt lat="50.38422" lon="2.0231">
        <ele>61</ele>
        <time>2012-08-22T18:18:28Z</time>
      </trkpt>
      <trkpt lat="50.38424" lon="2.02302">
        <ele>61</ele>
        <time>2012-08-22T18:18:30Z</time>
      </trkpt>
      <trkpt lat="50.38425" lon="2.02293">
        <ele>62</ele>
        <time>2012-08-22T18:18:32Z</time>
      </trkpt>
      <trkpt lat="50.38426" lon="2.02282">
        <ele>61</ele>
        <time>2012-08-22T18:18:34Z</time>
      </trkpt>
      <trkpt lat="50.38426" lon="2.02264">
        <ele>61</ele>
        <time>2012-08-22T18:18:36Z</time>
      </trkpt>
      <trkpt lat="50.38425" lon="2.02246">
        <ele>62</ele>
        <time>2012-08-22T18:18:38Z</time>
      </trkpt>
      <trkpt lat="50.38428" lon="2.02231">
        <ele>62</ele>
        <time>2012-08-22T18:18:40Z</time>
      </trkpt>
      <trkpt lat="50.38432" lon="2.02217">
        <ele>62</ele>
        <time>2012-08-22T18:18:42Z</time>
      </trkpt>
      <trkpt lat="50.38433" lon="2.02203">
        <ele>61</ele>
        <time>2012-08-22T18:18:44Z</time>
      </trkpt>
      <trkpt lat="50.38433" lon="2.02187">
        <ele>62</ele>
        <time>2012-08-22T18:18:46Z</time>
      </trkpt>
      <trkpt lat="50.38436" lon="2.02171">
        <ele>61</ele>
        <time>2012-08-22T18:18:48Z</time>
      </trkpt>
      <trkpt lat="50.38438" lon="2.02156">
        <ele>62</ele>
        <time>2012-08-22T18:18:50Z</time>
      </trkpt>
      <trkpt lat="50.38438" lon="2.02142">
        <ele>63</ele>
        <time>2012-08-22T18:18:52Z</time>
      </trkpt>
      <trkpt lat="50.38438" lon="2.02127">
        <ele>64</ele>
        <time>2012-08-22T18:18:54Z</time>
      </trkpt>
      <trkpt lat="50.38438" lon="2.0211">
        <ele>63</ele>
        <time>2012-08-22T18:18:56Z</time>
      </trkpt>
      <trkpt lat="50.38438" lon="2.02096">
        <ele>62</ele>
        <time>2012-08-22T18:18:58Z</time>
      </trkpt>
      <trkpt lat="50.38439" lon="2.0208">
        <ele>61</ele>
        <time>2012-08-22T18:19:00Z</time>
      </trkpt>
      <trkpt lat="50.3844" lon="2.02063">
        <ele>60</ele>
        <time>2012-08-22T18:19:02Z</time>
      </trkpt>
      <trkpt lat="50.38441" lon="2.02048">
        <ele>61</ele>
        <time>2012-08-22T18:19:04Z</time>
      </trkpt>
      <trkpt lat="50.38441" lon="2.02034">
        <ele>61</ele>
        <time>2012-08-22T18:19:06Z</time>
      </trkpt>
      <trkpt lat="50.38443" lon="2.02017">
        <ele>61</ele>
        <time>2012-08-22T18:19:08Z</time>
      </trkpt>
      <trkpt lat="50.38444" lon="2.02005">
        <ele>60</ele>
        <time>2012-08-22T18:19:10Z</time>
      </trkpt>
      <trkpt lat="50.38445" lon="2.01993">
        <ele>60</ele>
        <time>2012-08-22T18:19:12Z</time>
      </trkpt>
      <trkpt lat="50.38447" lon="2.01981">
        <ele>59</ele>
        <time>2012-08-22T18:19:14Z</time>
      </trkpt>
      <trkpt lat="50.38447" lon="2.01966">
        <ele>59</ele>
        <time>2012-08-22T18:19:16Z</time>
      </trkpt>
      <trkpt lat="50.38448" lon="2.01952">
        <ele>59</ele>
        <time>2012-08-22T18:19:18Z</time>
      </trkpt>
      <trkpt lat="50.38449" lon="2.01938">
        <ele>58</ele>
        <time>2012-08-22T18:19:20Z</time>
      </trkpt>
      <trkpt lat="50.3845" lon="2.01924">
        <ele>59</ele>
        <time>2012-08-22T18:19:22Z</time>
      </trkpt>
      <trkpt lat="50.3845" lon="2.01908">
        <ele>59</ele>
        <time>2012-08-22T18:19:24Z</time>
      </trkpt>
      <trkpt lat="50.38451" lon="2.01897">
        <ele>59</ele>
        <time>2012-08-22T18:19:26Z</time>
      </trkpt>
      <trkpt lat="50.38453" lon="2.01882">
        <ele>58</ele>
        <time>2012-08-22T18:19:28Z</time>
      </trkpt>
      <trkpt lat="50.38453" lon="2.01869">
        <ele>57</ele>
        <time>2012-08-22T18:19:30Z</time>
      </trkpt>
      <trkpt lat="50.38455" lon="2.01856">
        <ele>58</ele>
        <time>2012-08-22T18:19:32Z</time>
      </trkpt>
      <trkpt lat="50.38455" lon="2.01842">
        <ele>57</ele>
        <time>2012-08-22T18:19:34Z</time>
      </trkpt>
      <trkpt lat="50.38453" lon="2.01829">
        <ele>58</ele>
        <time>2012-08-22T18:19:36Z</time>
      </trkpt>
      <trkpt lat="50.38454" lon="2.01816">
        <ele>58</ele>
        <time>2012-08-22T18:19:38Z</time>
      </trkpt>
      <trkpt lat="50.38455" lon="2.01802">
        <ele>58</ele>
        <time>2012-08-22T18:19:40Z</time>
      </trkpt>
      <trkpt lat="50.38456" lon="2.01789">
        <ele>58</ele>
        <time>2012-08-22T18:19:42Z</time>
      </trkpt>
      <trkpt lat="50.38456" lon="2.01776">
        <ele>58</ele>
        <time>2012-08-22T18:19:44Z</time>
      </trkpt>
      <trkpt lat="50.38458" lon="2.01762">
        <ele>57</ele>
        <time>2012-08-22T18:19:46Z</time>
      </trkpt>
      <trkpt lat="50.38459" lon="2.01746">
        <ele>58</ele>
        <time>2012-08-22T18:19:48Z</time>
      </trkpt>
      <trkpt lat="50.3846" lon="2.01735">
        <ele>56</ele>
        <time>2012-08-22T18:19:50Z</time>
      </trkpt>
      <trkpt lat="50.38461" lon="2.0172">
        <ele>56</ele>
        <time>2012-08-22T18:19:52Z</time>
      </trkpt>
      <trkpt lat="50.38462" lon="2.01708">
        <ele>57</ele>
        <time>2012-08-22T18:19:54Z</time>
      </trkpt>
      <trkpt lat="50.38464" lon="2.01696">
        <ele>55</ele>
        <time>2012-08-22T18:19:56Z</time>
      </trkpt>
      <trkpt lat="50.38464" lon="2.01681">
        <ele>55</ele>
        <time>2012-08-22T18:19:58Z</time>
      </trkpt>
      <trkpt lat="50.38465" lon="2.01667">
        <ele>56</ele>
        <time>2012-08-22T18:20:00Z</time>
      </trkpt>
      <trkpt lat="50.38466" lon="2.01652">
        <ele>55</ele>
        <time>2012-08-22T18:20:02Z</time>
      </trkpt>
      <trkpt lat="50.38467" lon="2.01639">
        <ele>55</ele>
        <time>2012-08-22T18:20:04Z</time>
      </trkpt>
      <trkpt lat="50.3847" lon="2.01625">
        <ele>55</ele>
        <time>2012-08-22T18:20:06Z</time>
      </trkpt>
      <trkpt lat="50.38474" lon="2.01609">
        <ele>55</ele>
        <time>2012-08-22T18:20:08Z</time>
      </trkpt>
      <trkpt lat="50.38475" lon="2.01595">
        <ele>55</ele>
        <time>2012-08-22T18:20:10Z</time>
      </trkpt>
      <trkpt lat="50.38476" lon="2.01582">
        <ele>55</ele>
        <time>2012-08-22T18:20:12Z</time>
      </trkpt>
      <trkpt lat="50.38479" lon="2.01568">
        <ele>55</ele>
        <time>2012-08-22T18:20:14Z</time>
      </trkpt>
      <trkpt lat="50.3848" lon="2.01553">
        <ele>55</ele>
        <time>2012-08-22T18:20:16Z</time>
      </trkpt>
      <trkpt lat="50.38481" lon="2.0154">
        <ele>55</ele>
        <time>2012-08-22T18:20:18Z</time>
      </trkpt>
      <trkpt lat="50.38482" lon="2.01523">
        <ele>56</ele>
        <time>2012-08-22T18:20:20Z</time>
      </trkpt>
      <trkpt lat="50.38485" lon="2.01509">
        <ele>56</ele>
        <time>2012-08-22T18:20:22Z</time>
      </trkpt>
      <trkpt lat="50.38485" lon="2.01494">
        <ele>55</ele>
        <time>2012-08-22T18:20:24Z</time>
      </trkpt>
      <trkpt lat="50.38487" lon="2.01483">
        <ele>54</ele>
        <time>2012-08-22T18:20:26Z</time>
      </trkpt>
      <trkpt lat="50.38487" lon="2.01468">
        <ele>54</ele>
        <time>2012-08-22T18:20:28Z</time>
      </trkpt>
      <trkpt lat="50.38485" lon="2.01452">
        <ele>53</ele>
        <time>2012-08-22T18:20:30Z</time>
      </trkpt>
      <trkpt lat="50.38483" lon="2.01435">
        <ele>54</ele>
        <time>2012-08-22T18:20:32Z</time>
      </trkpt>
      <trkpt lat="50.38482" lon="2.01417">
        <ele>55</ele>
        <time>2012-08-22T18:20:34Z</time>
      </trkpt>
      <trkpt lat="50.38483" lon="2.01399">
        <ele>54</ele>
        <time>2012-08-22T18:20:36Z</time>
      </trkpt>
      <trkpt lat="50.38483" lon="2.01382">
        <ele>53</ele>
        <time>2012-08-22T18:20:38Z</time>
      </trkpt>
      <trkpt lat="50.38486" lon="2.01368">
        <ele>51</ele>
        <time>2012-08-22T18:20:40Z</time>
      </trkpt>
      <trkpt lat="50.38483" lon="2.01348">
        <ele>50</ele>
        <time>2012-08-22T18:20:42Z</time>
      </trkpt>
      <trkpt lat="50.38487" lon="2.01329">
        <ele>51</ele>
        <time>2012-08-22T18:20:44Z</time>
      </trkpt>
      <trkpt lat="50.3849" lon="2.01311">
        <ele>51</ele>
        <time>2012-08-22T18:20:46Z</time>
      </trkpt>
      <trkpt lat="50.38493" lon="2.01294">
        <ele>52</ele>
        <time>2012-08-22T18:20:48Z</time>
      </trkpt>
      <trkpt lat="50.38497" lon="2.01276">
        <ele>51</ele>
        <time>2012-08-22T18:20:50Z</time>
      </trkpt>
      <trkpt lat="50.38501" lon="2.01256">
        <ele>51</ele>
        <time>2012-08-22T18:20:52Z</time>
      </trkpt>
      <trkpt lat="50.38507" lon="2.0124">
        <ele>51</ele>
        <time>2012-08-22T18:20:54Z</time>
      </trkpt>
      <trkpt lat="50.38512" lon="2.01224">
        <ele>51</ele>
        <time>2012-08-22T18:20:56Z</time>
      </trkpt>
      <trkpt lat="50.38515" lon="2.01212">
        <ele>51</ele>
        <time>2012-08-22T18:20:58Z</time>
      </trkpt>
      <trkpt lat="50.38518" lon="2.012">
        <ele>50</ele>
        <time>2012-08-22T18:21:00Z</time>
      </trkpt>
      <trkpt lat="50.38523" lon="2.01188">
        <ele>50</ele>
        <time>2012-08-22T18:21:02Z</time>
      </trkpt>
      <trkpt lat="50.38529" lon="2.01176">
        <ele>50</ele>
        <time>2012-08-22T18:21:04Z</time>
      </trkpt>
      <trkpt lat="50.38535" lon="2.01164">
        <ele>49</ele>
        <time>2012-08-22T18:21:06Z</time>
      </trkpt>
      <trkpt lat="50.3854" lon="2.01152">
        <ele>48</ele>
        <time>2012-08-22T18:21:08Z</time>
      </trkpt>
      <trkpt lat="50.38545" lon="2.01141">
        <ele>47</ele>
        <time>2012-08-22T18:21:10Z</time>
      </trkpt>
      <trkpt lat="50.3855" lon="2.01128">
        <ele>46</ele>
        <time>2012-08-22T18:21:12Z</time>
      </trkpt>
      <trkpt lat="50.38554" lon="2.01116">
        <ele>46</ele>
        <time>2012-08-22T18:21:14Z</time>
      </trkpt>
      <trkpt lat="50.38561" lon="2.01096">
        <ele>47</ele>
        <time>2012-08-22T18:21:16Z</time>
      </trkpt>
      <trkpt lat="50.38567" lon="2.0108">
        <ele>47</ele>
        <time>2012-08-22T18:21:18Z</time>
      </trkpt>
      <trkpt lat="50.38574" lon="2.01066">
        <ele>46</ele>
        <time>2012-08-22T18:21:20Z</time>
      </trkpt>
      <trkpt lat="50.3858" lon="2.01053">
        <ele>45</ele>
        <time>2012-08-22T18:21:22Z</time>
      </trkpt>
      <trkpt lat="50.38586" lon="2.01041">
        <ele>45</ele>
        <time>2012-08-22T18:21:24Z</time>
      </trkpt>
      <trkpt lat="50.38593" lon="2.01029">
        <ele>44</ele>
        <time>2012-08-22T18:21:26Z</time>
      </trkpt>
      <trkpt lat="50.386" lon="2.01017">
        <ele>44</ele>
        <time>2012-08-22T18:21:28Z</time>
      </trkpt>
      <trkpt lat="50.38606" lon="2.01008">
        <ele>45</ele>
        <time>2012-08-22T18:21:30Z</time>
      </trkpt>
      <trkpt lat="50.38611" lon="2.00998">
        <ele>45</ele>
        <time>2012-08-22T18:21:32Z</time>
      </trkpt>
      <trkpt lat="50.38617" lon="2.00988">
        <ele>46</ele>
        <time>2012-08-22T18:21:34Z</time>
      </trkpt>
      <trkpt lat="50.38623" lon="2.00982">
        <ele>45</ele>
        <time>2012-08-22T18:21:36Z</time>
      </trkpt>
      <trkpt lat="50.38629" lon="2.00976">
        <ele>46</ele>
        <time>2012-08-22T18:21:38Z</time>
      </trkpt>
      <trkpt lat="50.38634" lon="2.00965">
        <ele>45</ele>
        <time>2012-08-22T18:21:40Z</time>
      </trkpt>
      <trkpt lat="50.38639" lon="2.00949">
        <ele>44</ele>
        <time>2012-08-22T18:21:42Z</time>
      </trkpt>
      <trkpt lat="50.38647" lon="2.00922">
        <ele>44</ele>
        <time>2012-08-22T18:21:44Z</time>
      </trkpt>
      <trkpt lat="50.38655" lon="2.0091">
        <ele>43</ele>
        <time>2012-08-22T18:21:46Z</time>
      </trkpt>
      <trkpt lat="50.38661" lon="2.00898">
        <ele>47</ele>
        <time>2012-08-22T18:21:48Z</time>
      </trkpt>
      <trkpt lat="50.3867" lon="2.00889">
        <ele>47</ele>
        <time>2012-08-22T18:21:50Z</time>
      </trkpt>
      <trkpt lat="50.38679" lon="2.00878">
        <ele>43</ele>
        <time>2012-08-22T18:21:52Z</time>
      </trkpt>
      <trkpt lat="50.3869" lon="2.00871">
        <ele>44</ele>
        <time>2012-08-22T18:21:54Z</time>
      </trkpt>
      <trkpt lat="50.38699" lon="2.0086">
        <ele>44</ele>
        <time>2012-08-22T18:21:56Z</time>
      </trkpt>
      <trkpt lat="50.38708" lon="2.00849">
        <ele>44</ele>
        <time>2012-08-22T18:21:58Z</time>
      </trkpt>
      <trkpt lat="50.38718" lon="2.00837">
        <ele>44</ele>
        <time>2012-08-22T18:22:00Z</time>
      </trkpt>
      <trkpt lat="50.38726" lon="2.00827">
        <ele>44</ele>
        <time>2012-08-22T18:22:02Z</time>
      </trkpt>
      <trkpt lat="50.38733" lon="2.00815">
        <ele>45</ele>
        <time>2012-08-22T18:22:04Z</time>
      </trkpt>
      <trkpt lat="50.38741" lon="2.00804">
        <ele>44</ele>
        <time>2012-08-22T18:22:06Z</time>
      </trkpt>
      <trkpt lat="50.38749" lon="2.00793">
        <ele>43</ele>
        <time>2012-08-22T18:22:08Z</time>
      </trkpt>
      <trkpt lat="50.38757" lon="2.00782">
        <ele>44</ele>
        <time>2012-08-22T18:22:10Z</time>
      </trkpt>
      <trkpt lat="50.38766" lon="2.00774">
        <ele>40</ele>
        <time>2012-08-22T18:22:12Z</time>
      </trkpt>
      <trkpt lat="50.38773" lon="2.00764">
        <ele>40</ele>
        <time>2012-08-22T18:22:14Z</time>
      </trkpt>
      <trkpt lat="50.38779" lon="2.00753">
        <ele>40</ele>
        <time>2012-08-22T18:22:16Z</time>
      </trkpt>
      <trkpt lat="50.38785" lon="2.00742">
        <ele>42</ele>
        <time>2012-08-22T18:22:18Z</time>
      </trkpt>
      <trkpt lat="50.38792" lon="2.00733">
        <ele>42</ele>
        <time>2012-08-22T18:22:20Z</time>
      </trkpt>
      <trkpt lat="50.38798" lon="2.00725">
        <ele>42</ele>
        <time>2012-08-22T18:22:22Z</time>
      </trkpt>
      <trkpt lat="50.38804" lon="2.00717">
        <ele>42</ele>
        <time>2012-08-22T18:22:24Z</time>
      </trkpt>
      <trkpt lat="50.3881" lon="2.0071">
        <ele>39</ele>
        <time>2012-08-22T18:22:26Z</time>
      </trkpt>
      <trkpt lat="50.38814" lon="2.00699">
        <ele>40</ele>
        <time>2012-08-22T18:22:28Z</time>
      </trkpt>
      <trkpt lat="50.38819" lon="2.0069">
        <ele>42</ele>
        <time>2012-08-22T18:22:30Z</time>
      </trkpt>
      <trkpt lat="50.38824" lon="2.00681">
        <ele>42</ele>
        <time>2012-08-22T18:22:32Z</time>
      </trkpt>
      <trkpt lat="50.38829" lon="2.00671">
        <ele>44</ele>
        <time>2012-08-22T18:22:34Z</time>
      </trkpt>
      <trkpt lat="50.38834" lon="2.00662">
        <ele>43</ele>
        <time>2012-08-22T18:22:36Z</time>
      </trkpt>
      <trkpt lat="50.38839" lon="2.00653">
        <ele>45</ele>
        <time>2012-08-22T18:22:38Z</time>
      </trkpt>
      <trkpt lat="50.38844" lon="2.00644">
        <ele>46</ele>
        <time>2012-08-22T18:22:40Z</time>
      </trkpt>
      <trkpt lat="50.38849" lon="2.00635">
        <ele>47</ele>
        <time>2012-08-22T18:22:42Z</time>
      </trkpt>
      <trkpt lat="50.38854" lon="2.00625">
        <ele>45</ele>
        <time>2012-08-22T18:22:44Z</time>
      </trkpt>
      <trkpt lat="50.38859" lon="2.00615">
        <ele>46</ele>
        <time>2012-08-22T18:22:46Z</time>
      </trkpt>
      <trkpt lat="50.38865" lon="2.00605">
        <ele>45</ele>
        <time>2012-08-22T18:22:48Z</time>
      </trkpt>
      <trkpt lat="50.3887" lon="2.00595">
        <ele>43</ele>
        <time>2012-08-22T18:22:50Z</time>
      </trkpt>
      <trkpt lat="50.38874" lon="2.00584">
        <ele>43</ele>
        <time>2012-08-22T18:22:52Z</time>
      </trkpt>
      <trkpt lat="50.38881" lon="2.00574">
        <ele>43</ele>
        <time>2012-08-22T18:22:54Z</time>
      </trkpt>
      <trkpt lat="50.38887" lon="2.00561">
        <ele>45</ele>
        <time>2012-08-22T18:22:56Z</time>
      </trkpt>
      <trkpt lat="50.38894" lon="2.00551">
        <ele>44</ele>
        <time>2012-08-22T18:22:58Z</time>
      </trkpt>
      <trkpt lat="50.389" lon="2.00539">
        <ele>45</ele>
        <time>2012-08-22T18:23:00Z</time>
      </trkpt>
      <trkpt lat="50.38907" lon="2.00526">
        <ele>46</ele>
        <time>2012-08-22T18:23:02Z</time>
      </trkpt>
      <trkpt lat="50.38915" lon="2.00513">
        <ele>45</ele>
        <time>2012-08-22T18:23:04Z</time>
      </trkpt>
      <trkpt lat="50.38922" lon="2.00499">
        <ele>46</ele>
        <time>2012-08-22T18:23:06Z</time>
      </trkpt>
      <trkpt lat="50.38928" lon="2.00484">
        <ele>46</ele>
        <time>2012-08-22T18:23:08Z</time>
      </trkpt>
      <trkpt lat="50.38936" lon="2.00467">
        <ele>46</ele>
        <time>2012-08-22T18:23:10Z</time>
      </trkpt>
      <trkpt lat="50.38944" lon="2.00448">
        <ele>43</ele>
        <time>2012-08-22T18:23:12Z</time>
      </trkpt>
      <trkpt lat="50.38955" lon="2.00428">
        <ele>42</ele>
        <time>2012-08-22T18:23:14Z</time>
      </trkpt>
      <trkpt lat="50.38968" lon="2.00417">
        <ele>42</ele>
        <time>2012-08-22T18:23:16Z</time>
      </trkpt>
      <trkpt lat="50.38979" lon="2.00416">
        <ele>42</ele>
        <time>2012-08-22T18:23:18Z</time>
      </trkpt>
      <trkpt lat="50.38992" lon="2.00413">
        <ele>41</ele>
        <time>2012-08-22T18:23:20Z</time>
      </trkpt>
      <trkpt lat="50.39001" lon="2.00394">
        <ele>40</ele>
        <time>2012-08-22T18:23:22Z</time>
      </trkpt>
      <trkpt lat="50.39007" lon="2.00371">
        <ele>38</ele>
        <time>2012-08-22T18:23:24Z</time>
      </trkpt>
      <trkpt lat="50.39018" lon="2.00353">
        <ele>35</ele>
        <time>2012-08-22T18:23:26Z</time>
      </trkpt>
      <trkpt lat="50.39028" lon="2.00341">
        <ele>37</ele>
        <time>2012-08-22T18:23:28Z</time>
      </trkpt>
      <trkpt lat="50.39038" lon="2.00333">
        <ele>36</ele>
        <time>2012-08-22T18:23:30Z</time>
      </trkpt>
      <trkpt lat="50.39047" lon="2.00326">
        <ele>35</ele>
        <time>2012-08-22T18:23:32Z</time>
      </trkpt>
      <trkpt lat="50.39055" lon="2.00319">
        <ele>35</ele>
        <time>2012-08-22T18:23:34Z</time>
      </trkpt>
      <trkpt lat="50.39061" lon="2.00312">
        <ele>34</ele>
        <time>2012-08-22T18:23:36Z</time>
      </trkpt>
      <trkpt lat="50.39067" lon="2.00306">
        <ele>33</ele>
        <time>2012-08-22T18:23:38Z</time>
      </trkpt>
      <trkpt lat="50.39074" lon="2.00302">
        <ele>34</ele>
        <time>2012-08-22T18:23:40Z</time>
      </trkpt>
      <trkpt lat="50.3908" lon="2.00296">
        <ele>35</ele>
        <time>2012-08-22T18:23:42Z</time>
      </trkpt>
      <trkpt lat="50.39085" lon="2.00291">
        <ele>36</ele>
        <time>2012-08-22T18:23:44Z</time>
      </trkpt>
      <trkpt lat="50.39091" lon="2.00287">
        <ele>35</ele>
        <time>2012-08-22T18:23:46Z</time>
      </trkpt>
      <trkpt lat="50.39096" lon="2.00283">
        <ele>35</ele>
        <time>2012-08-22T18:23:48Z</time>
      </trkpt>
      <trkpt lat="50.391" lon="2.00279">
        <ele>35</ele>
        <time>2012-08-22T18:23:50Z</time>
      </trkpt>
      <trkpt lat="50.39105" lon="2.00274">
        <ele>35</ele>
        <time>2012-08-22T18:23:52Z</time>
      </trkpt>
      <trkpt lat="50.39113" lon="2.00273">
        <ele>40</ele>
        <time>2012-08-22T18:23:54Z</time>
      </trkpt>
      <trkpt lat="50.39118" lon="2.00268">
        <ele>40</ele>
        <time>2012-08-22T18:23:56Z</time>
      </trkpt>
      <trkpt lat="50.39123" lon="2.00263">
        <ele>39</ele>
        <time>2012-08-22T18:23:58Z</time>
      </trkpt>
      <trkpt lat="50.39129" lon="2.00258">
        <ele>40</ele>
        <time>2012-08-22T18:24:00Z</time>
      </trkpt>
      <trkpt lat="50.39134" lon="2.00255">
        <ele>40</ele>
        <time>2012-08-22T18:24:02Z</time>
      </trkpt>
      <trkpt lat="50.39138" lon="2.00248">
        <ele>40</ele>
        <time>2012-08-22T18:24:04Z</time>
      </trkpt>
      <trkpt lat="50.39144" lon="2.00243">
        <ele>39</ele>
        <time>2012-08-22T18:24:06Z</time>
      </trkpt>
      <trkpt lat="50.39149" lon="2.00238">
        <ele>39</ele>
        <time>2012-08-22T18:24:08Z</time>
      </trkpt>
      <trkpt lat="50.39153" lon="2.00234">
        <ele>39</ele>
        <time>2012-08-22T18:24:10Z</time>
      </trkpt>
      <trkpt lat="50.39156" lon="2.00231">
        <ele>37</ele>
        <time>2012-08-22T18:24:12Z</time>
      </trkpt>
      <trkpt lat="50.39158" lon="2.00229">
        <ele>39</ele>
        <time>2012-08-22T18:24:14Z</time>
      </trkpt>
      <trkpt lat="50.39158" lon="2.00225">
        <ele>39</ele>
        <time>2012-08-22T18:24:16Z</time>
      </trkpt>
      <trkpt lat="50.39157" lon="2.00221">
        <ele>39</ele>
        <time>2012-08-22T18:24:18Z</time>
      </trkpt>
      <trkpt lat="50.39156" lon="2.00216">
        <ele>39</ele>
        <time>2012-08-22T18:24:20Z</time>
      </trkpt>
      <trkpt lat="50.39154" lon="2.00209">
        <ele>39</ele>
        <time>2012-08-22T18:24:22Z</time>
      </trkpt>
      <trkpt lat="50.39152" lon="2.002">
        <ele>39</ele>
        <time>2012-08-22T18:24:24Z</time>
      </trkpt>
      <trkpt lat="50.39151" lon="2.00191">
        <ele>38</ele>
        <time>2012-08-22T18:24:26Z</time>
      </trkpt>
      <trkpt lat="50.3915" lon="2.00181">
        <ele>40</ele>
        <time>2012-08-22T18:24:28Z</time>
      </trkpt>
      <trkpt lat="50.3915" lon="2.00173">
        <ele>40</ele>
        <time>2012-08-22T18:24:30Z</time>
      </trkpt>
      <trkpt lat="50.3915" lon="2.00166">
        <ele>39</ele>
        <time>2012-08-22T18:24:32Z</time>
      </trkpt>
      <trkpt lat="50.3915" lon="2.00159">
        <ele>40</ele>
        <time>2012-08-22T18:24:34Z</time>
      </trkpt>
      <trkpt lat="50.3915" lon="2.0015">
        <ele>40</ele>
        <time>2012-08-22T18:24:36Z</time>
      </trkpt>
      <trkpt lat="50.3915" lon="2.00141">
        <ele>40</ele>
        <time>2012-08-22T18:24:38Z</time>
      </trkpt>
      <trkpt lat="50.3915" lon="2.00131">
        <ele>40</ele>
        <time>2012-08-22T18:24:40Z</time>
      </trkpt>
      <trkpt lat="50.3915" lon="2.00122">
        <ele>41</ele>
        <time>2012-08-22T18:24:42Z</time>
      </trkpt>
      <trkpt lat="50.39149" lon="2.00113">
        <ele>42</ele>
        <time>2012-08-22T18:24:44Z</time>
      </trkpt>
      <trkpt lat="50.39147" lon="2.00104">
        <ele>41</ele>
        <time>2012-08-22T18:24:46Z</time>
      </trkpt>
      <trkpt lat="50.39147" lon="2.00093">
        <ele>42</ele>
        <time>2012-08-22T18:24:48Z</time>
      </trkpt>
      <trkpt lat="50.39147" lon="2.00082">
        <ele>44</ele>
        <time>2012-08-22T18:24:50Z</time>
      </trkpt>
      <trkpt lat="50.39147" lon="2.00071">
        <ele>45</ele>
        <time>2012-08-22T18:24:52Z</time>
      </trkpt>
      <trkpt lat="50.39146" lon="2.0006">
        <ele>44</ele>
        <time>2012-08-22T18:24:54Z</time>
      </trkpt>
      <trkpt lat="50.39145" lon="2.00049">
        <ele>46</ele>
        <time>2012-08-22T18:24:56Z</time>
      </trkpt>
      <trkpt lat="50.39144" lon="2.00039">
        <ele>47</ele>
        <time>2012-08-22T18:24:58Z</time>
      </trkpt>
      <trkpt lat="50.39144" lon="2.00029">
        <ele>46</ele>
        <time>2012-08-22T18:25:00Z</time>
      </trkpt>
      <trkpt lat="50.39144" lon="2.00019">
        <ele>46</ele>
        <time>2012-08-22T18:25:02Z</time>
      </trkpt>
      <trkpt lat="50.39145" lon="2.0001">
        <ele>46</ele>
        <time>2012-08-22T18:25:04Z</time>
      </trkpt>
      <trkpt lat="50.39146" lon="2">
        <ele>45</ele>
        <time>2012-08-22T18:25:06Z</time>
      </trkpt>
      <trkpt lat="50.39148" lon="1.9999">
        <ele>46</ele>
        <time>2012-08-22T18:25:08Z</time>
      </trkpt>
      <trkpt lat="50.39149" lon="1.99979">
        <ele>46</ele>
        <time>2012-08-22T18:25:10Z</time>
      </trkpt>
      <trkpt lat="50.39151" lon="1.99969">
        <ele>46</ele>
        <time>2012-08-22T18:25:12Z</time>
      </trkpt>
      <trkpt lat="50.39154" lon="1.99958">
        <ele>46</ele>
        <time>2012-08-22T18:25:14Z</time>
      </trkpt>
      <trkpt lat="50.39155" lon="1.99948">
        <ele>46</ele>
        <time>2012-08-22T18:25:16Z</time>
      </trkpt>
      <trkpt lat="50.39157" lon="1.99938">
        <ele>46</ele>
        <time>2012-08-22T18:25:18Z</time>
      </trkpt>
      <trkpt lat="50.39159" lon="1.99927">
        <ele>47</ele>
        <time>2012-08-22T18:25:20Z</time>
      </trkpt>
      <trkpt lat="50.39161" lon="1.99916">
        <ele>47</ele>
        <time>2012-08-22T18:25:22Z</time>
      </trkpt>
      <trkpt lat="50.39162" lon="1.99904">
        <ele>47</ele>
        <time>2012-08-22T18:25:24Z</time>
      </trkpt>
      <trkpt lat="50.39165" lon="1.99893">
        <ele>47</ele>
        <time>2012-08-22T18:25:26Z</time>
      </trkpt>
      <trkpt lat="50.39167" lon="1.99882">
        <ele>47</ele>
        <time>2012-08-22T18:25:28Z</time>
      </trkpt>
      <trkpt lat="50.3917" lon="1.99872">
        <ele>48</ele>
        <time>2012-08-22T18:25:30Z</time>
      </trkpt>
      <trkpt lat="50.39173" lon="1.99861">
        <ele>49</ele>
        <time>2012-08-22T18:25:32Z</time>
      </trkpt>
      <trkpt lat="50.39175" lon="1.99849">
        <ele>49</ele>
        <time>2012-08-22T18:25:34Z</time>
      </trkpt>
      <trkpt lat="50.39178" lon="1.99836">
        <ele>50</ele>
        <time>2012-08-22T18:25:36Z</time>
      </trkpt>
      <trkpt lat="50.3918" lon="1.99824">
        <ele>48</ele>
        <time>2012-08-22T18:25:38Z</time>
      </trkpt>
      <trkpt lat="50.39183" lon="1.99812">
        <ele>48</ele>
        <time>2012-08-22T18:25:40Z</time>
      </trkpt>
      <trkpt lat="50.39186" lon="1.99801">
        <ele>47</ele>
        <time>2012-08-22T18:25:42Z</time>
      </trkpt>
      <trkpt lat="50.39188" lon="1.99791">
        <ele>47</ele>
        <time>2012-08-22T18:25:44Z</time>
      </trkpt>
      <trkpt lat="50.39192" lon="1.9978">
        <ele>48</ele>
        <time>2012-08-22T18:25:46Z</time>
      </trkpt>
      <trkpt lat="50.39195" lon="1.99769">
        <ele>47</ele>
        <time>2012-08-22T18:25:48Z</time>
      </trkpt>
      <trkpt lat="50.39201" lon="1.99755">
        <ele>37</ele>
        <time>2012-08-22T18:25:50Z</time>
      </trkpt>
      <trkpt lat="50.39203" lon="1.99742">
        <ele>37</ele>
        <time>2012-08-22T18:25:52Z</time>
      </trkpt>
      <trkpt lat="50.39205" lon="1.9973">
        <ele>38</ele>
        <time>2012-08-22T18:25:54Z</time>
      </trkpt>
      <trkpt lat="50.39207" lon="1.99719">
        <ele>38</ele>
        <time>2012-08-22T18:25:56Z</time>
      </trkpt>
      <trkpt lat="50.3921" lon="1.99709">
        <ele>38</ele>
        <time>2012-08-22T18:25:58Z</time>
      </trkpt>
      <trkpt lat="50.39213" lon="1.99697">
        <ele>38</ele>
        <time>2012-08-22T18:26:00Z</time>
      </trkpt>
      <trkpt lat="50.39216" lon="1.99685">
        <ele>36</ele>
        <time>2012-08-22T18:26:02Z</time>
      </trkpt>
      <trkpt lat="50.39217" lon="1.99674">
        <ele>36</ele>
        <time>2012-08-22T18:26:04Z</time>
      </trkpt>
      <trkpt lat="50.39219" lon="1.99663">
        <ele>38</ele>
        <time>2012-08-22T18:26:06Z</time>
      </trkpt>
      <trkpt lat="50.39221" lon="1.99651">
        <ele>38</ele>
        <time>2012-08-22T18:26:08Z</time>
      </trkpt>
      <trkpt lat="50.39222" lon="1.99637">
        <ele>37</ele>
        <time>2012-08-22T18:26:10Z</time>
      </trkpt>
      <trkpt lat="50.39224" lon="1.99624">
        <ele>38</ele>
        <time>2012-08-22T18:26:12Z</time>
      </trkpt>
      <trkpt lat="50.39226" lon="1.9961">
        <ele>38</ele>
        <time>2012-08-22T18:26:14Z</time>
      </trkpt>
      <trkpt lat="50.39228" lon="1.99596">
        <ele>37</ele>
        <time>2012-08-22T18:26:16Z</time>
      </trkpt>
      <trkpt lat="50.3923" lon="1.99584">
        <ele>37</ele>
        <time>2012-08-22T18:26:18Z</time>
      </trkpt>
      <trkpt lat="50.39232" lon="1.99572">
        <ele>36</ele>
        <time>2012-08-22T18:26:20Z</time>
      </trkpt>
      <trkpt lat="50.39234" lon="1.99561">
        <ele>36</ele>
        <time>2012-08-22T18:26:22Z</time>
      </trkpt>
      <trkpt lat="50.39236" lon="1.99549">
        <ele>37</ele>
        <time>2012-08-22T18:26:24Z</time>
      </trkpt>
      <trkpt lat="50.39238" lon="1.99535">
        <ele>37</ele>
        <time>2012-08-22T18:26:26Z</time>
      </trkpt>
      <trkpt lat="50.3924" lon="1.99519">
        <ele>35</ele>
        <time>2012-08-22T18:26:28Z</time>
      </trkpt>
      <trkpt lat="50.39241" lon="1.99504">
        <ele>36</ele>
        <time>2012-08-22T18:26:30Z</time>
      </trkpt>
      <trkpt lat="50.39242" lon="1.99488">
        <ele>36</ele>
        <time>2012-08-22T18:26:32Z</time>
      </trkpt>
      <trkpt lat="50.39245" lon="1.99471">
        <ele>37</ele>
        <time>2012-08-22T18:26:34Z</time>
      </trkpt>
      <trkpt lat="50.39248" lon="1.99451">
        <ele>36</ele>
        <time>2012-08-22T18:26:36Z</time>
      </trkpt>
      <trkpt lat="50.39253" lon="1.99427">
        <ele>36</ele>
        <time>2012-08-22T18:26:38Z</time>
      </trkpt>
      <trkpt lat="50.39257" lon="1.99409">
        <ele>36</ele>
        <time>2012-08-22T18:26:40Z</time>
      </trkpt>
      <trkpt lat="50.39264" lon="1.99391">
        <ele>37</ele>
        <time>2012-08-22T18:26:42Z</time>
      </trkpt>
      <trkpt lat="50.39269" lon="1.99374">
        <ele>35</ele>
        <time>2012-08-22T18:26:44Z</time>
      </trkpt>
      <trkpt lat="50.39275" lon="1.99362">
        <ele>34</ele>
        <time>2012-08-22T18:26:46Z</time>
      </trkpt>
      <trkpt lat="50.3928" lon="1.9935">
        <ele>34</ele>
        <time>2012-08-22T18:26:48Z</time>
      </trkpt>
      <trkpt lat="50.39286" lon="1.99341">
        <ele>33</ele>
        <time>2012-08-22T18:26:50Z</time>
      </trkpt>
      <trkpt lat="50.39289" lon="1.99332">
        <ele>33</ele>
        <time>2012-08-22T18:26:52Z</time>
      </trkpt>
      <trkpt lat="50.39294" lon="1.99323">
        <ele>33</ele>
        <time>2012-08-22T18:26:54Z</time>
      </trkpt>
      <trkpt lat="50.39297" lon="1.99319">
        <ele>35</ele>
        <time>2012-08-22T18:26:56Z</time>
      </trkpt>
      <trkpt lat="50.39301" lon="1.99314">
        <ele>33</ele>
        <time>2012-08-22T18:26:58Z</time>
      </trkpt>
      <trkpt lat="50.39305" lon="1.99309">
        <ele>33</ele>
        <time>2012-08-22T18:27:00Z</time>
      </trkpt>
      <trkpt lat="50.39308" lon="1.99303">
        <ele>31</ele>
        <time>2012-08-22T18:27:02Z</time>
      </trkpt>
      <trkpt lat="50.3931" lon="1.99298">
        <ele>30</ele>
        <time>2012-08-22T18:27:04Z</time>
      </trkpt>
      <trkpt lat="50.39313" lon="1.99292">
        <ele>31</ele>
        <time>2012-08-22T18:27:06Z</time>
      </trkpt>
      <trkpt lat="50.39316" lon="1.99286">
        <ele>31</ele>
        <time>2012-08-22T18:27:08Z</time>
      </trkpt>
      <trkpt lat="50.39319" lon="1.9928">
        <ele>31</ele>
        <time>2012-08-22T18:27:10Z</time>
      </trkpt>
      <trkpt lat="50.3932" lon="1.99276">
        <ele>31</ele>
        <time>2012-08-22T18:27:12Z</time>
      </trkpt>
      <trkpt lat="50.39322" lon="1.99272">
        <ele>31</ele>
        <time>2012-08-22T18:27:14Z</time>
      </trkpt>
      <trkpt lat="50.39324" lon="1.99267">
        <ele>31</ele>
        <time>2012-08-22T18:27:16Z</time>
      </trkpt>
      <trkpt lat="50.39326" lon="1.99263">
        <ele>32</ele>
        <time>2012-08-22T18:27:18Z</time>
      </trkpt>
      <trkpt lat="50.39328" lon="1.99259">
        <ele>32</ele>
        <time>2012-08-22T18:27:20Z</time>
      </trkpt>
      <trkpt lat="50.39331" lon="1.99255">
        <ele>33</ele>
        <time>2012-08-22T18:27:22Z</time>
      </trkpt>
      <trkpt lat="50.39333" lon="1.99251">
        <ele>33</ele>
        <time>2012-08-22T18:27:24Z</time>
      </trkpt>
      <trkpt lat="50.39336" lon="1.99247">
        <ele>34</ele>
        <time>2012-08-22T18:27:26Z</time>
      </trkpt>
      <trkpt lat="50.39338" lon="1.99243">
        <ele>34</ele>
        <time>2012-08-22T18:27:28Z</time>
      </trkpt>
      <trkpt lat="50.39339" lon="1.99238">
        <ele>33</ele>
        <time>2012-08-22T18:27:30Z</time>
      </trkpt>
      <trkpt lat="50.3934" lon="1.99233">
        <ele>34</ele>
        <time>2012-08-22T18:27:32Z</time>
      </trkpt>
      <trkpt lat="50.3934" lon="1.99224">
        <ele>34</ele>
        <time>2012-08-22T18:27:34Z</time>
      </trkpt>
      <trkpt lat="50.39341" lon="1.99216">
        <ele>34</ele>
        <time>2012-08-22T18:27:36Z</time>
      </trkpt>
      <trkpt lat="50.39344" lon="1.99209">
        <ele>32</ele>
        <time>2012-08-22T18:27:38Z</time>
      </trkpt>
      <trkpt lat="50.3935" lon="1.99205">
        <ele>32</ele>
        <time>2012-08-22T18:27:40Z</time>
      </trkpt>
      <trkpt lat="50.39355" lon="1.99199">
        <ele>32</ele>
        <time>2012-08-22T18:27:42Z</time>
      </trkpt>
      <trkpt lat="50.39359" lon="1.99194">
        <ele>31</ele>
        <time>2012-08-22T18:27:44Z</time>
      </trkpt>
      <trkpt lat="50.3936" lon="1.99189">
        <ele>32</ele>
        <time>2012-08-22T18:27:46Z</time>
      </trkpt>
      <trkpt lat="50.39362" lon="1.99183">
        <ele>33</ele>
        <time>2012-08-22T18:27:48Z</time>
      </trkpt>
      <trkpt lat="50.39365" lon="1.99177">
        <ele>35</ele>
        <time>2012-08-22T18:27:50Z</time>
      </trkpt>
      <trkpt lat="50.39367" lon="1.99171">
        <ele>34</ele>
        <time>2012-08-22T18:27:52Z</time>
      </trkpt>
      <trkpt lat="50.39369" lon="1.99165">
        <ele>34</ele>
        <time>2012-08-22T18:27:54Z</time>
      </trkpt>
      <trkpt lat="50.39372" lon="1.99157">
        <ele>35</ele>
        <time>2012-08-22T18:27:56Z</time>
      </trkpt>
      <trkpt lat="50.39376" lon="1.99149">
        <ele>35</ele>
        <time>2012-08-22T18:27:58Z</time>
      </trkpt>
      <trkpt lat="50.3938" lon="1.9914">
        <ele>35</ele>
        <time>2012-08-22T18:28:00Z</time>
      </trkpt>
      <trkpt lat="50.39382" lon="1.99131">
        <ele>35</ele>
        <time>2012-08-22T18:28:02Z</time>
      </trkpt>
      <trkpt lat="50.39385" lon="1.99122">
        <ele>35</ele>
        <time>2012-08-22T18:28:04Z</time>
      </trkpt>
      <trkpt lat="50.3939" lon="1.99112">
        <ele>35</ele>
        <time>2012-08-22T18:28:06Z</time>
      </trkpt>
      <trkpt lat="50.39395" lon="1.99104">
        <ele>35</ele>
        <time>2012-08-22T18:28:08Z</time>
      </trkpt>
      <trkpt lat="50.39402" lon="1.99098">
        <ele>34</ele>
        <time>2012-08-22T18:28:10Z</time>
      </trkpt>
      <trkpt lat="50.3941" lon="1.99092">
        <ele>34</ele>
        <time>2012-08-22T18:28:12Z</time>
      </trkpt>
      <trkpt lat="50.39417" lon="1.99087">
        <ele>35</ele>
        <time>2012-08-22T18:28:14Z</time>
      </trkpt>
      <trkpt lat="50.39424" lon="1.99083">
        <ele>35</ele>
        <time>2012-08-22T18:28:16Z</time>
      </trkpt>
      <trkpt lat="50.39431" lon="1.99081">
        <ele>35</ele>
        <time>2012-08-22T18:28:18Z</time>
      </trkpt>
      <trkpt lat="50.39437" lon="1.99079">
        <ele>36</ele>
        <time>2012-08-22T18:28:20Z</time>
      </trkpt>
      <trkpt lat="50.39441" lon="1.99077">
        <ele>37</ele>
        <time>2012-08-22T18:28:22Z</time>
      </trkpt>
      <trkpt lat="50.39447" lon="1.99076">
        <ele>37</ele>
        <time>2012-08-22T18:28:24Z</time>
      </trkpt>
      <trkpt lat="50.39452" lon="1.99075">
        <ele>38</ele>
        <time>2012-08-22T18:28:26Z</time>
      </trkpt>
      <trkpt lat="50.39458" lon="1.99071">
        <ele>39</ele>
        <time>2012-08-22T18:28:28Z</time>
      </trkpt>
      <trkpt lat="50.39462" lon="1.99066">
        <ele>39</ele>
        <time>2012-08-22T18:28:30Z</time>
      </trkpt>
      <trkpt lat="50.39465" lon="1.99059">
        <ele>38</ele>
        <time>2012-08-22T18:28:32Z</time>
      </trkpt>
      <trkpt lat="50.3947" lon="1.99052">
        <ele>38</ele>
        <time>2012-08-22T18:28:34Z</time>
      </trkpt>
      <trkpt lat="50.39473" lon="1.99046">
        <ele>39</ele>
        <time>2012-08-22T18:28:36Z</time>
      </trkpt>
      <trkpt lat="50.39476" lon="1.9904">
        <ele>40</ele>
        <time>2012-08-22T18:28:38Z</time>
      </trkpt>
      <trkpt lat="50.39479" lon="1.99035">
        <ele>40</ele>
        <time>2012-08-22T18:28:40Z</time>
      </trkpt>
      <trkpt lat="50.39481" lon="1.99032">
        <ele>41</ele>
        <time>2012-08-22T18:28:42Z</time>
      </trkpt>
      <trkpt lat="50.39484" lon="1.99028">
        <ele>41</ele>
        <time>2012-08-22T18:28:44Z</time>
      </trkpt>
      <trkpt lat="50.39487" lon="1.99023">
        <ele>41</ele>
        <time>2012-08-22T18:28:46Z</time>
      </trkpt>
      <trkpt lat="50.39489" lon="1.99017">
        <ele>42</ele>
        <time>2012-08-22T18:28:48Z</time>
      </trkpt>
      <trkpt lat="50.39492" lon="1.99012">
        <ele>43</ele>
        <time>2012-08-22T18:28:50Z</time>
      </trkpt>
      <trkpt lat="50.39494" lon="1.99005">
        <ele>43</ele>
        <time>2012-08-22T18:28:52Z</time>
      </trkpt>
      <trkpt lat="50.39496" lon="1.99001">
        <ele>42</ele>
        <time>2012-08-22T18:28:54Z</time>
      </trkpt>
      <trkpt lat="50.39498" lon="1.98997">
        <ele>43</ele>
        <time>2012-08-22T18:28:56Z</time>
      </trkpt>
      <trkpt lat="50.39499" lon="1.98994">
        <ele>43</ele>
        <time>2012-08-22T18:28:58Z</time>
      </trkpt>
      <trkpt lat="50.39502" lon="1.98989">
        <ele>43</ele>
        <time>2012-08-22T18:29:00Z</time>
      </trkpt>
      <trkpt lat="50.39504" lon="1.98985">
        <ele>44</ele>
        <time>2012-08-22T18:29:02Z</time>
      </trkpt>
      <trkpt lat="50.39505" lon="1.9898">
        <ele>45</ele>
        <time>2012-08-22T18:29:04Z</time>
      </trkpt>
      <trkpt lat="50.39508" lon="1.98975">
        <ele>45</ele>
        <time>2012-08-22T18:29:06Z</time>
      </trkpt>
      <trkpt lat="50.3951" lon="1.98969">
        <ele>46</ele>
        <time>2012-08-22T18:29:08Z</time>
      </trkpt>
      <trkpt lat="50.39514" lon="1.98959">
        <ele>46</ele>
        <time>2012-08-22T18:29:10Z</time>
      </trkpt>
      <trkpt lat="50.39519" lon="1.98949">
        <ele>46</ele>
        <time>2012-08-22T18:29:12Z</time>
      </trkpt>
      <trkpt lat="50.39524" lon="1.98939">
        <ele>47</ele>
        <time>2012-08-22T18:29:14Z</time>
      </trkpt>
      <trkpt lat="50.39531" lon="1.98927">
        <ele>44</ele>
        <time>2012-08-22T18:29:16Z</time>
      </trkpt>
      <trkpt lat="50.39537" lon="1.98917">
        <ele>44</ele>
        <time>2012-08-22T18:29:18Z</time>
      </trkpt>
      <trkpt lat="50.39541" lon="1.98908">
        <ele>43</ele>
        <time>2012-08-22T18:29:20Z</time>
      </trkpt>
      <trkpt lat="50.39545" lon="1.989">
        <ele>44</ele>
        <time>2012-08-22T18:29:22Z</time>
      </trkpt>
      <trkpt lat="50.39549" lon="1.98893">
        <ele>43</ele>
        <time>2012-08-22T18:29:24Z</time>
      </trkpt>
      <trkpt lat="50.39552" lon="1.98886">
        <ele>43</ele>
        <time>2012-08-22T18:29:26Z</time>
      </trkpt>
      <trkpt lat="50.39556" lon="1.9888">
        <ele>43</ele>
        <time>2012-08-22T18:29:28Z</time>
      </trkpt>
      <trkpt lat="50.39559" lon="1.98875">
        <ele>44</ele>
        <time>2012-08-22T18:29:30Z</time>
      </trkpt>
      <trkpt lat="50.39564" lon="1.98868">
        <ele>43</ele>
        <time>2012-08-22T18:29:32Z</time>
      </trkpt>
      <trkpt lat="50.39568" lon="1.98861">
        <ele>43</ele>
        <time>2012-08-22T18:29:34Z</time>
      </trkpt>
      <trkpt lat="50.39573" lon="1.98853">
        <ele>44</ele>
        <time>2012-08-22T18:29:36Z</time>
      </trkpt>
      <trkpt lat="50.39576" lon="1.98846">
        <ele>43</ele>
        <time>2012-08-22T18:29:38Z</time>
      </trkpt>
      <trkpt lat="50.3958" lon="1.98838">
        <ele>43</ele>
        <time>2012-08-22T18:29:40Z</time>
      </trkpt>
      <trkpt lat="50.39584" lon="1.9883">
        <ele>44</ele>
        <time>2012-08-22T18:29:42Z</time>
      </trkpt>
      <trkpt lat="50.39589" lon="1.98819">
        <ele>44</ele>
        <time>2012-08-22T18:29:44Z</time>
      </trkpt>
      <trkpt lat="50.39594" lon="1.98807">
        <ele>45</ele>
        <time>2012-08-22T18:29:46Z</time>
      </trkpt>
      <trkpt lat="50.39598" lon="1.98797">
        <ele>45</ele>
        <time>2012-08-22T18:29:48Z</time>
      </trkpt>
      <trkpt lat="50.39601" lon="1.98784">
        <ele>43</ele>
        <time>2012-08-22T18:29:50Z</time>
      </trkpt>
      <trkpt lat="50.39606" lon="1.9876">
        <ele>45</ele>
        <time>2012-08-22T18:29:52Z</time>
      </trkpt>
      <trkpt lat="50.39616" lon="1.98742">
        <ele>42</ele>
        <time>2012-08-22T18:29:54Z</time>
      </trkpt>
      <trkpt lat="50.39622" lon="1.98725">
        <ele>39</ele>
        <time>2012-08-22T18:29:56Z</time>
      </trkpt>
      <trkpt lat="50.39629" lon="1.98706">
        <ele>36</ele>
        <time>2012-08-22T18:29:58Z</time>
      </trkpt>
      <trkpt lat="50.39636" lon="1.98687">
        <ele>36</ele>
        <time>2012-08-22T18:30:00Z</time>
      </trkpt>
      <trkpt lat="50.39644" lon="1.9867">
        <ele>37</ele>
        <time>2012-08-22T18:30:02Z</time>
      </trkpt>
      <trkpt lat="50.39652" lon="1.98653">
        <ele>37</ele>
        <time>2012-08-22T18:30:04Z</time>
      </trkpt>
      <trkpt lat="50.3966" lon="1.98633">
        <ele>32</ele>
        <time>2012-08-22T18:30:06Z</time>
      </trkpt>
      <trkpt lat="50.39667" lon="1.98607">
        <ele>30</ele>
        <time>2012-08-22T18:30:08Z</time>
      </trkpt>
      <trkpt lat="50.39674" lon="1.98581">
        <ele>30</ele>
        <time>2012-08-22T18:30:10Z</time>
      </trkpt>
      <trkpt lat="50.39683" lon="1.98562">
        <ele>30</ele>
        <time>2012-08-22T18:30:12Z</time>
      </trkpt>
      <trkpt lat="50.39682" lon="1.98579">
        <ele>30</ele>
        <time>2012-08-22T18:30:14Z</time>
      </trkpt>
      <trkpt lat="50.39688" lon="1.98578">
        <ele>31</ele>
        <time>2012-08-22T18:30:16Z</time>
      </trkpt>
      <trkpt lat="50.39692" lon="1.98574">
        <ele>30</ele>
        <time>2012-08-22T18:30:18Z</time>
      </trkpt>
      <trkpt lat="50.39698" lon="1.98567">
        <ele>30</ele>
        <time>2012-08-22T18:30:20Z</time>
      </trkpt>
      <trkpt lat="50.39703" lon="1.98558">
        <ele>31</ele>
        <time>2012-08-22T18:30:22Z</time>
      </trkpt>
      <trkpt lat="50.39708" lon="1.9855">
        <ele>30</ele>
        <time>2012-08-22T18:30:24Z</time>
      </trkpt>
      <trkpt lat="50.39714" lon="1.98541">
        <ele>30</ele>
        <time>2012-08-22T18:30:26Z</time>
      </trkpt>
      <trkpt lat="50.39719" lon="1.98533">
        <ele>29</ele>
        <time>2012-08-22T18:30:28Z</time>
      </trkpt>
      <trkpt lat="50.39724" lon="1.98524">
        <ele>29</ele>
        <time>2012-08-22T18:30:30Z</time>
      </trkpt>
      <trkpt lat="50.39729" lon="1.98515">
        <ele>30</ele>
        <time>2012-08-22T18:30:32Z</time>
      </trkpt>
      <trkpt lat="50.39734" lon="1.98508">
        <ele>31</ele>
        <time>2012-08-22T18:30:34Z</time>
      </trkpt>
      <trkpt lat="50.39737" lon="1.98502">
        <ele>31</ele>
        <time>2012-08-22T18:30:36Z</time>
      </trkpt>
      <trkpt lat="50.39742" lon="1.98496">
        <ele>32</ele>
        <time>2012-08-22T18:30:38Z</time>
      </trkpt>
      <trkpt lat="50.39747" lon="1.9849">
        <ele>33</ele>
        <time>2012-08-22T18:30:40Z</time>
      </trkpt>
      <trkpt lat="50.39752" lon="1.98484">
        <ele>32</ele>
        <time>2012-08-22T18:30:42Z</time>
      </trkpt>
      <trkpt lat="50.39757" lon="1.98477">
        <ele>32</ele>
        <time>2012-08-22T18:30:44Z</time>
      </trkpt>
      <trkpt lat="50.39762" lon="1.98469">
        <ele>32</ele>
        <time>2012-08-22T18:30:46Z</time>
      </trkpt>
      <trkpt lat="50.39767" lon="1.9846">
        <ele>33</ele>
        <time>2012-08-22T18:30:48Z</time>
      </trkpt>
      <trkpt lat="50.39772" lon="1.9845">
        <ele>33</ele>
        <time>2012-08-22T18:30:50Z</time>
      </trkpt>
      <trkpt lat="50.39777" lon="1.98439">
        <ele>34</ele>
        <time>2012-08-22T18:30:52Z</time>
      </trkpt>
      <trkpt lat="50.39782" lon="1.98428">
        <ele>34</ele>
        <time>2012-08-22T18:30:54Z</time>
      </trkpt>
      <trkpt lat="50.39786" lon="1.98418">
        <ele>34</ele>
        <time>2012-08-22T18:30:56Z</time>
      </trkpt>
      <trkpt lat="50.3979" lon="1.98408">
        <ele>35</ele>
        <time>2012-08-22T18:30:58Z</time>
      </trkpt>
      <trkpt lat="50.39795" lon="1.98399">
        <ele>34</ele>
        <time>2012-08-22T18:31:00Z</time>
      </trkpt>
      <trkpt lat="50.39798" lon="1.98389">
        <ele>34</ele>
        <time>2012-08-22T18:31:02Z</time>
      </trkpt>
      <trkpt lat="50.39802" lon="1.98378">
        <ele>35</ele>
        <time>2012-08-22T18:31:04Z</time>
      </trkpt>
      <trkpt lat="50.39805" lon="1.98365">
        <ele>35</ele>
        <time>2012-08-22T18:31:06Z</time>
      </trkpt>
      <trkpt lat="50.39808" lon="1.98352">
        <ele>36</ele>
        <time>2012-08-22T18:31:08Z</time>
      </trkpt>
      <trkpt lat="50.39811" lon="1.98338">
        <ele>36</ele>
        <time>2012-08-22T18:31:10Z</time>
      </trkpt>
      <trkpt lat="50.39815" lon="1.98324">
        <ele>35</ele>
        <time>2012-08-22T18:31:12Z</time>
      </trkpt>
      <trkpt lat="50.39819" lon="1.9831">
        <ele>35</ele>
        <time>2012-08-22T18:31:14Z</time>
      </trkpt>
      <trkpt lat="50.39824" lon="1.98297">
        <ele>35</ele>
        <time>2012-08-22T18:31:16Z</time>
      </trkpt>
      <trkpt lat="50.39829" lon="1.98283">
        <ele>35</ele>
        <time>2012-08-22T18:31:18Z</time>
      </trkpt>
      <trkpt lat="50.39836" lon="1.9827">
        <ele>35</ele>
        <time>2012-08-22T18:31:20Z</time>
      </trkpt>
      <trkpt lat="50.39843" lon="1.98258">
        <ele>35</ele>
        <time>2012-08-22T18:31:22Z</time>
      </trkpt>
      <trkpt lat="50.39849" lon="1.98248">
        <ele>37</ele>
        <time>2012-08-22T18:31:24Z</time>
      </trkpt>
      <trkpt lat="50.39857" lon="1.98239">
        <ele>38</ele>
        <time>2012-08-22T18:31:26Z</time>
      </trkpt>
      <trkpt lat="50.39864" lon="1.98229">
        <ele>38</ele>
        <time>2012-08-22T18:31:28Z</time>
      </trkpt>
      <trkpt lat="50.3987" lon="1.9822">
        <ele>39</ele>
        <time>2012-08-22T18:31:30Z</time>
      </trkpt>
      <trkpt lat="50.39877" lon="1.98212">
        <ele>38</ele>
        <time>2012-08-22T18:31:32Z</time>
      </trkpt>
      <trkpt lat="50.39882" lon="1.98206">
        <ele>40</ele>
        <time>2012-08-22T18:31:34Z</time>
      </trkpt>
      <trkpt lat="50.39887" lon="1.98202">
        <ele>39</ele>
        <time>2012-08-22T18:31:36Z</time>
      </trkpt>
      <trkpt lat="50.39891" lon="1.98202">
        <ele>38</ele>
        <time>2012-08-22T18:31:38Z</time>
      </trkpt>
      <trkpt lat="50.39895" lon="1.98202">
        <ele>37</ele>
        <time>2012-08-22T18:31:40Z</time>
      </trkpt>
      <trkpt lat="50.39899" lon="1.98198">
        <ele>37</ele>
        <time>2012-08-22T18:31:42Z</time>
      </trkpt>
      <trkpt lat="50.39904" lon="1.98191">
        <ele>37</ele>
        <time>2012-08-22T18:31:44Z</time>
      </trkpt>
      <trkpt lat="50.39909" lon="1.98181">
        <ele>39</ele>
        <time>2012-08-22T18:31:46Z</time>
      </trkpt>
      <trkpt lat="50.39916" lon="1.98169">
        <ele>41</ele>
        <time>2012-08-22T18:31:48Z</time>
      </trkpt>
      <trkpt lat="50.39922" lon="1.98156">
        <ele>43</ele>
        <time>2012-08-22T18:31:50Z</time>
      </trkpt>
      <trkpt lat="50.39927" lon="1.98145">
        <ele>43</ele>
        <time>2012-08-22T18:31:52Z</time>
      </trkpt>
      <trkpt lat="50.39933" lon="1.98137">
        <ele>45</ele>
        <time>2012-08-22T18:31:54Z</time>
      </trkpt>
      <trkpt lat="50.39939" lon="1.98131">
        <ele>45</ele>
        <time>2012-08-22T18:31:56Z</time>
      </trkpt>
      <trkpt lat="50.39945" lon="1.98125">
        <ele>44</ele>
        <time>2012-08-22T18:31:58Z</time>
      </trkpt>
      <trkpt lat="50.39949" lon="1.9812">
        <ele>46</ele>
        <time>2012-08-22T18:32:00Z</time>
      </trkpt>
      <trkpt lat="50.39954" lon="1.98115">
        <ele>46</ele>
        <time>2012-08-22T18:32:02Z</time>
      </trkpt>
      <trkpt lat="50.3996" lon="1.98111">
        <ele>45</ele>
        <time>2012-08-22T18:32:04Z</time>
      </trkpt>
      <trkpt lat="50.39966" lon="1.98106">
        <ele>46</ele>
        <time>2012-08-22T18:32:06Z</time>
      </trkpt>
      <trkpt lat="50.39973" lon="1.98101">
        <ele>46</ele>
        <time>2012-08-22T18:32:08Z</time>
      </trkpt>
      <trkpt lat="50.3998" lon="1.98095">
        <ele>46</ele>
        <time>2012-08-22T18:32:10Z</time>
      </trkpt>
      <trkpt lat="50.39988" lon="1.98089">
        <ele>44</ele>
        <time>2012-08-22T18:32:12Z</time>
      </trkpt>
      <trkpt lat="50.39994" lon="1.98082">
        <ele>44</ele>
        <time>2012-08-22T18:32:14Z</time>
      </trkpt>
      <trkpt lat="50.40001" lon="1.98075">
        <ele>42</ele>
        <time>2012-08-22T18:32:16Z</time>
      </trkpt>
      <trkpt lat="50.40008" lon="1.98067">
        <ele>44</ele>
        <time>2012-08-22T18:32:18Z</time>
      </trkpt>
      <trkpt lat="50.40014" lon="1.98058">
        <ele>44</ele>
        <time>2012-08-22T18:32:20Z</time>
      </trkpt>
      <trkpt lat="50.40019" lon="1.98051">
        <ele>43</ele>
        <time>2012-08-22T18:32:22Z</time>
      </trkpt>
      <trkpt lat="50.40023" lon="1.98044">
        <ele>43</ele>
        <time>2012-08-22T18:32:24Z</time>
      </trkpt>
      <trkpt lat="50.40028" lon="1.98039">
        <ele>42</ele>
        <time>2012-08-22T18:32:26Z</time>
      </trkpt>
      <trkpt lat="50.40032" lon="1.98033">
        <ele>44</ele>
        <time>2012-08-22T18:32:28Z</time>
      </trkpt>
      <trkpt lat="50.40038" lon="1.98028">
        <ele>45</ele>
        <time>2012-08-22T18:32:30Z</time>
      </trkpt>
      <trkpt lat="50.40043" lon="1.98023">
        <ele>43</ele>
        <time>2012-08-22T18:32:32Z</time>
      </trkpt>
      <trkpt lat="50.40048" lon="1.98017">
        <ele>43</ele>
        <time>2012-08-22T18:32:34Z</time>
      </trkpt>
      <trkpt lat="50.40053" lon="1.9801">
        <ele>42</ele>
        <time>2012-08-22T18:32:36Z</time>
      </trkpt>
      <trkpt lat="50.40059" lon="1.98002">
        <ele>42</ele>
        <time>2012-08-22T18:32:38Z</time>
      </trkpt>
      <trkpt lat="50.40064" lon="1.97995">
        <ele>41</ele>
        <time>2012-08-22T18:32:40Z</time>
      </trkpt>
      <trkpt lat="50.40067" lon="1.97988">
        <ele>40</ele>
        <time>2012-08-22T18:32:42Z</time>
      </trkpt>
      <trkpt lat="50.40071" lon="1.97981">
        <ele>36</ele>
        <time>2012-08-22T18:32:44Z</time>
      </trkpt>
      <trkpt lat="50.40076" lon="1.97973">
        <ele>36</ele>
        <time>2012-08-22T18:32:46Z</time>
      </trkpt>
      <trkpt lat="50.40081" lon="1.97966">
        <ele>36</ele>
        <time>2012-08-22T18:32:48Z</time>
      </trkpt>
      <trkpt lat="50.40085" lon="1.9796">
        <ele>36</ele>
        <time>2012-08-22T18:32:50Z</time>
      </trkpt>
      <trkpt lat="50.4009" lon="1.97954">
        <ele>35</ele>
        <time>2012-08-22T18:32:52Z</time>
      </trkpt>
      <trkpt lat="50.40094" lon="1.97949">
        <ele>36</ele>
        <time>2012-08-22T18:32:54Z</time>
      </trkpt>
      <trkpt lat="50.40098" lon="1.97943">
        <ele>36</ele>
        <time>2012-08-22T18:32:56Z</time>
      </trkpt>
      <trkpt lat="50.40102" lon="1.97937">
        <ele>35</ele>
        <time>2012-08-22T18:32:58Z</time>
      </trkpt>
      <trkpt lat="50.40108" lon="1.97928">
        <ele>35</ele>
        <time>2012-08-22T18:33:00Z</time>
      </trkpt>
      <trkpt lat="50.40112" lon="1.97921">
        <ele>37</ele>
        <time>2012-08-22T18:33:02Z</time>
      </trkpt>
      <trkpt lat="50.40118" lon="1.97913">
        <ele>35</ele>
        <time>2012-08-22T18:33:04Z</time>
      </trkpt>
      <trkpt lat="50.40126" lon="1.97904">
        <ele>36</ele>
        <time>2012-08-22T18:33:06Z</time>
      </trkpt>
      <trkpt lat="50.40133" lon="1.97895">
        <ele>37</ele>
        <time>2012-08-22T18:33:08Z</time>
      </trkpt>
      <trkpt lat="50.4014" lon="1.97887">
        <ele>37</ele>
        <time>2012-08-22T18:33:10Z</time>
      </trkpt>
      <trkpt lat="50.40147" lon="1.97879">
        <ele>36</ele>
        <time>2012-08-22T18:33:12Z</time>
      </trkpt>
      <trkpt lat="50.40153" lon="1.97871">
        <ele>34</ele>
        <time>2012-08-22T18:33:14Z</time>
      </trkpt>
      <trkpt lat="50.40159" lon="1.97864">
        <ele>34</ele>
        <time>2012-08-22T18:33:16Z</time>
      </trkpt>
      <trkpt lat="50.40165" lon="1.97857">
        <ele>36</ele>
        <time>2012-08-22T18:33:18Z</time>
      </trkpt>
      <trkpt lat="50.40171" lon="1.97852">
        <ele>37</ele>
        <time>2012-08-22T18:33:20Z</time>
      </trkpt>
      <trkpt lat="50.40178" lon="1.97846">
        <ele>37</ele>
        <time>2012-08-22T18:33:22Z</time>
      </trkpt>
      <trkpt lat="50.40185" lon="1.9784">
        <ele>37</ele>
        <time>2012-08-22T18:33:24Z</time>
      </trkpt>
      <trkpt lat="50.40196" lon="1.97838">
        <ele>37</ele>
        <time>2012-08-22T18:33:26Z</time>
      </trkpt>
      <trkpt lat="50.40202" lon="1.97836">
        <ele>37</ele>
        <time>2012-08-22T18:33:28Z</time>
      </trkpt>
      <trkpt lat="50.40206" lon="1.97832">
        <ele>38</ele>
        <time>2012-08-22T18:33:30Z</time>
      </trkpt>
      <trkpt lat="50.40213" lon="1.97829">
        <ele>38</ele>
        <time>2012-08-22T18:33:32Z</time>
      </trkpt>
      <trkpt lat="50.40217" lon="1.97827">
        <ele>38</ele>
        <time>2012-08-22T18:33:34Z</time>
      </trkpt>
      <trkpt lat="50.40223" lon="1.97824">
        <ele>38</ele>
        <time>2012-08-22T18:33:36Z</time>
      </trkpt>
      <trkpt lat="50.40229" lon="1.97823">
        <ele>39</ele>
        <time>2012-08-22T18:33:38Z</time>
      </trkpt>
      <trkpt lat="50.40235" lon="1.97824">
        <ele>38</ele>
        <time>2012-08-22T18:33:40Z</time>
      </trkpt>
      <trkpt lat="50.4024" lon="1.97827">
        <ele>39</ele>
        <time>2012-08-22T18:33:42Z</time>
      </trkpt>
      <trkpt lat="50.40243" lon="1.97833">
        <ele>39</ele>
        <time>2012-08-22T18:33:44Z</time>
      </trkpt>
      <trkpt lat="50.40247" lon="1.97839">
        <ele>39</ele>
        <time>2012-08-22T18:33:46Z</time>
      </trkpt>
      <trkpt lat="50.4025" lon="1.97846">
        <ele>40</ele>
        <time>2012-08-22T18:33:48Z</time>
      </trkpt>
      <trkpt lat="50.40253" lon="1.97852">
        <ele>41</ele>
        <time>2012-08-22T18:33:50Z</time>
      </trkpt>
      <trkpt lat="50.40257" lon="1.97858">
        <ele>42</ele>
        <time>2012-08-22T18:33:52Z</time>
      </trkpt>
      <trkpt lat="50.4026" lon="1.97866">
        <ele>41</ele>
        <time>2012-08-22T18:33:54Z</time>
      </trkpt>
      <trkpt lat="50.40264" lon="1.97873">
        <ele>41</ele>
        <time>2012-08-22T18:33:56Z</time>
      </trkpt>
      <trkpt lat="50.40268" lon="1.9788">
        <ele>42</ele>
        <time>2012-08-22T18:33:58Z</time>
      </trkpt>
      <trkpt lat="50.40271" lon="1.97885">
        <ele>41</ele>
        <time>2012-08-22T18:34:00Z</time>
      </trkpt>
      <trkpt lat="50.40274" lon="1.97889">
        <ele>41</ele>
        <time>2012-08-22T18:34:02Z</time>
      </trkpt>
      <trkpt lat="50.40276" lon="1.97893">
        <ele>41</ele>
        <time>2012-08-22T18:34:04Z</time>
      </trkpt>
      <trkpt lat="50.40279" lon="1.97898">
        <ele>42</ele>
        <time>2012-08-22T18:34:06Z</time>
      </trkpt>
      <trkpt lat="50.40282" lon="1.97902">
        <ele>42</ele>
        <time>2012-08-22T18:34:08Z</time>
      </trkpt>
      <trkpt lat="50.40285" lon="1.97908">
        <ele>42</ele>
        <time>2012-08-22T18:34:10Z</time>
      </trkpt>
      <trkpt lat="50.40287" lon="1.97913">
        <ele>41</ele>
        <time>2012-08-22T18:34:12Z</time>
      </trkpt>
      <trkpt lat="50.40289" lon="1.97918">
        <ele>41</ele>
        <time>2012-08-22T18:34:14Z</time>
      </trkpt>
      <trkpt lat="50.40291" lon="1.97923">
        <ele>41</ele>
        <time>2012-08-22T18:34:16Z</time>
      </trkpt>
      <trkpt lat="50.40292" lon="1.97927">
        <ele>42</ele>
        <time>2012-08-22T18:34:18Z</time>
      </trkpt>
      <trkpt lat="50.40295" lon="1.97931">
        <ele>43</ele>
        <time>2012-08-22T18:34:20Z</time>
      </trkpt>
      <trkpt lat="50.40297" lon="1.97935">
        <ele>44</ele>
        <time>2012-08-22T18:34:22Z</time>
      </trkpt>
      <trkpt lat="50.40299" lon="1.9794">
        <ele>43</ele>
        <time>2012-08-22T18:34:24Z</time>
      </trkpt>
      <trkpt lat="50.40302" lon="1.97944">
        <ele>44</ele>
        <time>2012-08-22T18:34:26Z</time>
      </trkpt>
      <trkpt lat="50.40305" lon="1.97947">
        <ele>44</ele>
        <time>2012-08-22T18:34:28Z</time>
      </trkpt>
      <trkpt lat="50.40308" lon="1.97951">
        <ele>44</ele>
        <time>2012-08-22T18:34:30Z</time>
      </trkpt>
      <trkpt lat="50.40311" lon="1.97955">
        <ele>42</ele>
        <time>2012-08-22T18:34:32Z</time>
      </trkpt>
      <trkpt lat="50.40314" lon="1.97961">
        <ele>43</ele>
        <time>2012-08-22T18:34:34Z</time>
      </trkpt>
      <trkpt lat="50.40317" lon="1.97966">
        <ele>44</ele>
        <time>2012-08-22T18:34:36Z</time>
      </trkpt>
      <trkpt lat="50.40318" lon="1.97971">
        <ele>44</ele>
        <time>2012-08-22T18:34:38Z</time>
      </trkpt>
      <trkpt lat="50.4032" lon="1.97976">
        <ele>45</ele>
        <time>2012-08-22T18:34:40Z</time>
      </trkpt>
      <trkpt lat="50.40323" lon="1.97981">
        <ele>47</ele>
        <time>2012-08-22T18:34:42Z</time>
      </trkpt>
      <trkpt lat="50.40326" lon="1.97985">
        <ele>48</ele>
        <time>2012-08-22T18:34:44Z</time>
      </trkpt>
      <trkpt lat="50.40328" lon="1.97988">
        <ele>48</ele>
        <time>2012-08-22T18:34:46Z</time>
      </trkpt>
      <trkpt lat="50.40329" lon="1.9799">
        <ele>49</ele>
        <time>2012-08-22T18:34:48Z</time>
      </trkpt>
      <trkpt lat="50.4033" lon="1.97991">
        <ele>49</ele>
        <time>2012-08-22T18:34:50Z</time>
      </trkpt>
      <trkpt lat="50.40332" lon="1.97992">
        <ele>49</ele>
        <time>2012-08-22T18:34:52Z</time>
      </trkpt>
      <trkpt lat="50.40336" lon="1.97992">
        <ele>50</ele>
        <time>2012-08-22T18:34:54Z</time>
      </trkpt>
      <trkpt lat="50.4034" lon="1.97992">
        <ele>50</ele>
        <time>2012-08-22T18:34:56Z</time>
      </trkpt>
      <trkpt lat="50.40344" lon="1.97994">
        <ele>51</ele>
        <time>2012-08-22T18:34:58Z</time>
      </trkpt>
      <trkpt lat="50.40346" lon="1.97996">
        <ele>51</ele>
        <time>2012-08-22T18:35:00Z</time>
      </trkpt>
      <trkpt lat="50.40347" lon="1.97997">
        <ele>53</ele>
        <time>2012-08-22T18:35:02Z</time>
      </trkpt>
      <trkpt lat="50.40347" lon="1.97998">
        <ele>54</ele>
        <time>2012-08-22T18:35:04Z</time>
      </trkpt>
      <trkpt lat="50.40348" lon="1.97997">
        <ele>55</ele>
        <time>2012-08-22T18:35:06Z</time>
      </trkpt>
      <trkpt lat="50.4035" lon="1.97997">
        <ele>54</ele>
        <time>2012-08-22T18:35:08Z</time>
      </trkpt>
      <trkpt lat="50.40352" lon="1.97995">
        <ele>54</ele>
        <time>2012-08-22T18:35:10Z</time>
      </trkpt>
      <trkpt lat="50.40355" lon="1.97991">
        <ele>55</ele>
        <time>2012-08-22T18:35:12Z</time>
      </trkpt>
      <trkpt lat="50.40358" lon="1.97987">
        <ele>56</ele>
        <time>2012-08-22T18:35:14Z</time>
      </trkpt>
      <trkpt lat="50.4036" lon="1.97982">
        <ele>57</ele>
        <time>2012-08-22T18:35:16Z</time>
      </trkpt>
      <trkpt lat="50.40361" lon="1.97978">
        <ele>58</ele>
        <time>2012-08-22T18:35:18Z</time>
      </trkpt>
      <trkpt lat="50.40365" lon="1.97977">
        <ele>57</ele>
        <time>2012-08-22T18:35:20Z</time>
      </trkpt>
      <trkpt lat="50.4037" lon="1.97979">
        <ele>56</ele>
        <time>2012-08-22T18:35:22Z</time>
      </trkpt>
      <trkpt lat="50.40375" lon="1.97985">
        <ele>55</ele>
        <time>2012-08-22T18:35:24Z</time>
      </trkpt>
      <trkpt lat="50.40382" lon="1.97994">
        <ele>54</ele>
        <time>2012-08-22T18:35:26Z</time>
      </trkpt>
      <trkpt lat="50.40399" lon="1.98017">
        <ele>53</ele>
        <time>2012-08-22T18:35:28Z</time>
      </trkpt>
      <trkpt lat="50.40412" lon="1.98026">
        <ele>54</ele>
        <time>2012-08-22T18:35:30Z</time>
      </trkpt>
      <trkpt lat="50.40422" lon="1.98037">
        <ele>53</ele>
        <time>2012-08-22T18:35:32Z</time>
      </trkpt>
      <trkpt lat="50.40437" lon="1.98049">
        <ele>53</ele>
        <time>2012-08-22T18:35:34Z</time>
      </trkpt>
      <trkpt lat="50.40452" lon="1.98066">
        <ele>53</ele>
        <time>2012-08-22T18:35:36Z</time>
      </trkpt>
      <trkpt lat="50.40466" lon="1.9809">
        <ele>53</ele>
        <time>2012-08-22T18:35:38Z</time>
      </trkpt>
      <trkpt lat="50.40482" lon="1.98111">
        <ele>54</ele>
        <time>2012-08-22T18:35:40Z</time>
      </trkpt>
      <trkpt lat="50.40487" lon="1.9813">
        <ele>53</ele>
        <time>2012-08-22T18:35:42Z</time>
      </trkpt>
      <trkpt lat="50.40498" lon="1.98137">
        <ele>53</ele>
        <time>2012-08-22T18:35:44Z</time>
      </trkpt>
      <trkpt lat="50.4051" lon="1.98141">
        <ele>54</ele>
        <time>2012-08-22T18:35:46Z</time>
      </trkpt>
      <trkpt lat="50.40524" lon="1.98144">
        <ele>54</ele>
        <time>2012-08-22T18:35:48Z</time>
      </trkpt>
      <trkpt lat="50.40538" lon="1.9815">
        <ele>54</ele>
        <time>2012-08-22T18:35:50Z</time>
      </trkpt>
      <trkpt lat="50.40551" lon="1.98165">
        <ele>54</ele>
        <time>2012-08-22T18:35:52Z</time>
      </trkpt>
      <trkpt lat="50.40563" lon="1.98172">
        <ele>54</ele>
        <time>2012-08-22T18:35:54Z</time>
      </trkpt>
      <trkpt lat="50.40572" lon="1.98181">
        <ele>55</ele>
        <time>2012-08-22T18:35:56Z</time>
      </trkpt>
      <trkpt lat="50.40586" lon="1.98196">
        <ele>54</ele>
        <time>2012-08-22T18:35:58Z</time>
      </trkpt>
      <trkpt lat="50.40595" lon="1.98217">
        <ele>53</ele>
        <time>2012-08-22T18:36:00Z</time>
      </trkpt>
      <trkpt lat="50.40603" lon="1.98239">
        <ele>52</ele>
        <time>2012-08-22T18:36:02Z</time>
      </trkpt>
      <trkpt lat="50.40607" lon="1.98259">
        <ele>51</ele>
        <time>2012-08-22T18:36:04Z</time>
      </trkpt>
      <trkpt lat="50.40614" lon="1.98267">
        <ele>51</ele>
        <time>2012-08-22T18:36:06Z</time>
      </trkpt>
      <trkpt lat="50.40621" lon="1.98269">
        <ele>50</ele>
        <time>2012-08-22T18:36:08Z</time>
      </trkpt>
      <trkpt lat="50.40628" lon="1.98264">
        <ele>50</ele>
        <time>2012-08-22T18:36:10Z</time>
      </trkpt>
      <trkpt lat="50.40631" lon="1.98265">
        <ele>50</ele>
        <time>2012-08-22T18:36:12Z</time>
      </trkpt>
      <trkpt lat="50.40634" lon="1.98268">
        <ele>49</ele>
        <time>2012-08-22T18:36:14Z</time>
      </trkpt>
      <trkpt lat="50.40639" lon="1.98273">
        <ele>47</ele>
        <time>2012-08-22T18:36:16Z</time>
      </trkpt>
      <trkpt lat="50.40641" lon="1.98277">
        <ele>46</ele>
        <time>2012-08-22T18:36:18Z</time>
      </trkpt>
      <trkpt lat="50.40644" lon="1.98282">
        <ele>45</ele>
        <time>2012-08-22T18:36:20Z</time>
      </trkpt>
      <trkpt lat="50.40646" lon="1.98287">
        <ele>44</ele>
        <time>2012-08-22T18:36:22Z</time>
      </trkpt>
      <trkpt lat="50.40648" lon="1.98291">
        <ele>44</ele>
        <time>2012-08-22T18:36:24Z</time>
      </trkpt>
      <trkpt lat="50.40649" lon="1.98295">
        <ele>44</ele>
        <time>2012-08-22T18:36:26Z</time>
      </trkpt>
      <trkpt lat="50.4065" lon="1.983">
        <ele>43</ele>
        <time>2012-08-22T18:36:28Z</time>
      </trkpt>
      <trkpt lat="50.40649" lon="1.98306">
        <ele>42</ele>
        <time>2012-08-22T18:36:30Z</time>
      </trkpt>
      <trkpt lat="50.40649" lon="1.9831">
        <ele>42</ele>
        <time>2012-08-22T18:36:32Z</time>
      </trkpt>
      <trkpt lat="50.40648" lon="1.98313">
        <ele>43</ele>
        <time>2012-08-22T18:36:34Z</time>
      </trkpt>
      <trkpt lat="50.40649" lon="1.98314">
        <ele>43</ele>
        <time>2012-08-22T18:36:36Z</time>
      </trkpt>
      <trkpt lat="50.40651" lon="1.98313">
        <ele>44</ele>
        <time>2012-08-22T18:36:38Z</time>
      </trkpt>
      <trkpt lat="50.40653" lon="1.98312">
        <ele>45</ele>
        <time>2012-08-22T18:36:40Z</time>
      </trkpt>
      <trkpt lat="50.40655" lon="1.98311">
        <ele>45</ele>
        <time>2012-08-22T18:36:42Z</time>
      </trkpt>
      <trkpt lat="50.40657" lon="1.98312">
        <ele>48</ele>
        <time>2012-08-22T18:36:44Z</time>
      </trkpt>
      <trkpt lat="50.40659" lon="1.98309">
        <ele>48</ele>
        <time>2012-08-22T18:36:50Z</time>
      </trkpt>
      <trkpt lat="50.40659" lon="1.98307">
        <ele>47</ele>
        <time>2012-08-22T18:36:52Z</time>
      </trkpt>
      <trkpt lat="50.40657" lon="1.98305">
        <ele>44</ele>
        <time>2012-08-22T18:36:58Z</time>
      </trkpt>
      <trkpt lat="50.40658" lon="1.98303">
        <ele>42</ele>
        <time>2012-08-22T18:37:02Z</time>
      </trkpt>
      <trkpt lat="50.40657" lon="1.98302">
        <ele>37</ele>
        <time>2012-08-22T18:37:18Z</time>
      </trkpt>
      <trkpt lat="50.40658" lon="1.98305">
        <ele>38</ele>
        <time>2012-08-22T18:37:20Z</time>
      </trkpt>
      <trkpt lat="50.4066" lon="1.98309">
        <ele>38</ele>
        <time>2012-08-22T18:37:22Z</time>
      </trkpt>
      <trkpt lat="50.40663" lon="1.98316">
        <ele>37</ele>
        <time>2012-08-22T18:37:24Z</time>
      </trkpt>
      <trkpt lat="50.40666" lon="1.98323">
        <ele>37</ele>
        <time>2012-08-22T18:37:26Z</time>
      </trkpt>
      <trkpt lat="50.40669" lon="1.98329">
        <ele>38</ele>
        <time>2012-08-22T18:37:28Z</time>
      </trkpt>
      <trkpt lat="50.40673" lon="1.98334">
        <ele>37</ele>
        <time>2012-08-22T18:37:30Z</time>
      </trkpt>
      <trkpt lat="50.40676" lon="1.98339">
        <ele>38</ele>
        <time>2012-08-22T18:37:32Z</time>
      </trkpt>
      <trkpt lat="50.40679" lon="1.98343">
        <ele>37</ele>
        <time>2012-08-22T18:37:34Z</time>
      </trkpt>
      <trkpt lat="50.40681" lon="1.98348">
        <ele>37</ele>
        <time>2012-08-22T18:37:36Z</time>
      </trkpt>
      <trkpt lat="50.40682" lon="1.98354">
        <ele>37</ele>
        <time>2012-08-22T18:37:38Z</time>
      </trkpt>
      <trkpt lat="50.40682" lon="1.98359">
        <ele>38</ele>
        <time>2012-08-22T18:37:40Z</time>
      </trkpt>
      <trkpt lat="50.40683" lon="1.98364">
        <ele>38</ele>
        <time>2012-08-22T18:37:42Z</time>
      </trkpt>
      <trkpt lat="50.40685" lon="1.98368">
        <ele>39</ele>
        <time>2012-08-22T18:37:44Z</time>
      </trkpt>
      <trkpt lat="50.40689" lon="1.98374">
        <ele>40</ele>
        <time>2012-08-22T18:37:46Z</time>
      </trkpt>
      <trkpt lat="50.40694" lon="1.98382">
        <ele>39</ele>
        <time>2012-08-22T18:37:48Z</time>
      </trkpt>
      <trkpt lat="50.40699" lon="1.98388">
        <ele>40</ele>
        <time>2012-08-22T18:37:50Z</time>
      </trkpt>
      <trkpt lat="50.40703" lon="1.98393">
        <ele>41</ele>
        <time>2012-08-22T18:37:52Z</time>
      </trkpt>
      <trkpt lat="50.40707" lon="1.98398">
        <ele>40</ele>
        <time>2012-08-22T18:37:54Z</time>
      </trkpt>
      <trkpt lat="50.40709" lon="1.98402">
        <ele>41</ele>
        <time>2012-08-22T18:37:56Z</time>
      </trkpt>
      <trkpt lat="50.4071" lon="1.98408">
        <ele>43</ele>
        <time>2012-08-22T18:37:58Z</time>
      </trkpt>
      <trkpt lat="50.40713" lon="1.98414">
        <ele>43</ele>
        <time>2012-08-22T18:38:00Z</time>
      </trkpt>
      <trkpt lat="50.40716" lon="1.98421">
        <ele>42</ele>
        <time>2012-08-22T18:38:02Z</time>
      </trkpt>
      <trkpt lat="50.4072" lon="1.98429">
        <ele>42</ele>
        <time>2012-08-22T18:38:04Z</time>
      </trkpt>
      <trkpt lat="50.40723" lon="1.98436">
        <ele>43</ele>
        <time>2012-08-22T18:38:06Z</time>
      </trkpt>
      <trkpt lat="50.40727" lon="1.98444">
        <ele>43</ele>
        <time>2012-08-22T18:38:08Z</time>
      </trkpt>
      <trkpt lat="50.4073" lon="1.98452">
        <ele>43</ele>
        <time>2012-08-22T18:38:10Z</time>
      </trkpt>
      <trkpt lat="50.40734" lon="1.9846">
        <ele>45</ele>
        <time>2012-08-22T18:38:12Z</time>
      </trkpt>
      <trkpt lat="50.40738" lon="1.98468">
        <ele>46</ele>
        <time>2012-08-22T18:38:14Z</time>
      </trkpt>
      <trkpt lat="50.40741" lon="1.98475">
        <ele>46</ele>
        <time>2012-08-22T18:38:16Z</time>
      </trkpt>
      <trkpt lat="50.40745" lon="1.9848">
        <ele>44</ele>
        <time>2012-08-22T18:38:18Z</time>
      </trkpt>
      <trkpt lat="50.40747" lon="1.98483">
        <ele>43</ele>
        <time>2012-08-22T18:38:20Z</time>
      </trkpt>
      <trkpt lat="50.40748" lon="1.98488">
        <ele>43</ele>
        <time>2012-08-22T18:38:22Z</time>
      </trkpt>
      <trkpt lat="50.40747" lon="1.98493">
        <ele>43</ele>
        <time>2012-08-22T18:38:24Z</time>
      </trkpt>
      <trkpt lat="50.40748" lon="1.98501">
        <ele>44</ele>
        <time>2012-08-22T18:38:26Z</time>
      </trkpt>
      <trkpt lat="50.40748" lon="1.98509">
        <ele>46</ele>
        <time>2012-08-22T18:38:28Z</time>
      </trkpt>
      <trkpt lat="50.40746" lon="1.98515">
        <ele>45</ele>
        <time>2012-08-22T18:38:30Z</time>
      </trkpt>
      <trkpt lat="50.40744" lon="1.98519">
        <ele>45</ele>
        <time>2012-08-22T18:38:32Z</time>
      </trkpt>
      <trkpt lat="50.40743" lon="1.98524">
        <ele>45</ele>
        <time>2012-08-22T18:38:34Z</time>
      </trkpt>
      <trkpt lat="50.40744" lon="1.98529">
        <ele>44</ele>
        <time>2012-08-22T18:38:36Z</time>
      </trkpt>
      <trkpt lat="50.40748" lon="1.98535">
        <ele>43</ele>
        <time>2012-08-22T18:38:38Z</time>
      </trkpt>
      <trkpt lat="50.40748" lon="1.98542">
        <ele>43</ele>
        <time>2012-08-22T18:38:40Z</time>
      </trkpt>
      <trkpt lat="50.40748" lon="1.98549">
        <ele>43</ele>
        <time>2012-08-22T18:38:42Z</time>
      </trkpt>
      <trkpt lat="50.40748" lon="1.98555">
        <ele>42</ele>
        <time>2012-08-22T18:38:44Z</time>
      </trkpt>
      <trkpt lat="50.40747" lon="1.98562">
        <ele>43</ele>
        <time>2012-08-22T18:38:46Z</time>
      </trkpt>
      <trkpt lat="50.40748" lon="1.98568">
        <ele>42</ele>
        <time>2012-08-22T18:38:48Z</time>
      </trkpt>
      <trkpt lat="50.40749" lon="1.98574">
        <ele>41</ele>
        <time>2012-08-22T18:38:50Z</time>
      </trkpt>
      <trkpt lat="50.40752" lon="1.98581">
        <ele>42</ele>
        <time>2012-08-22T18:38:52Z</time>
      </trkpt>
      <trkpt lat="50.40755" lon="1.98589">
        <ele>44</ele>
        <time>2012-08-22T18:38:54Z</time>
      </trkpt>
      <trkpt lat="50.40757" lon="1.98598">
        <ele>44</ele>
        <time>2012-08-22T18:38:56Z</time>
      </trkpt>
      <trkpt lat="50.40759" lon="1.98607">
        <ele>43</ele>
        <time>2012-08-22T18:38:58Z</time>
      </trkpt>
      <trkpt lat="50.4076" lon="1.98614">
        <ele>43</ele>
        <time>2012-08-22T18:39:00Z</time>
      </trkpt>
      <trkpt lat="50.4076" lon="1.9862">
        <ele>44</ele>
        <time>2012-08-22T18:39:02Z</time>
      </trkpt>
      <trkpt lat="50.40762" lon="1.98627">
        <ele>44</ele>
        <time>2012-08-22T18:39:04Z</time>
      </trkpt>
      <trkpt lat="50.40765" lon="1.98635">
        <ele>46</ele>
        <time>2012-08-22T18:39:06Z</time>
      </trkpt>
      <trkpt lat="50.40768" lon="1.98643">
        <ele>46</ele>
        <time>2012-08-22T18:39:08Z</time>
      </trkpt>
      <trkpt lat="50.40772" lon="1.98652">
        <ele>47</ele>
        <time>2012-08-22T18:39:10Z</time>
      </trkpt>
      <trkpt lat="50.40775" lon="1.98659">
        <ele>46</ele>
        <time>2012-08-22T18:39:12Z</time>
      </trkpt>
      <trkpt lat="50.40777" lon="1.98669">
        <ele>47</ele>
        <time>2012-08-22T18:39:14Z</time>
      </trkpt>
      <trkpt lat="50.40778" lon="1.98678">
        <ele>47</ele>
        <time>2012-08-22T18:39:16Z</time>
      </trkpt>
      <trkpt lat="50.40778" lon="1.98688">
        <ele>48</ele>
        <time>2012-08-22T18:39:18Z</time>
      </trkpt>
      <trkpt lat="50.40776" lon="1.98696">
        <ele>46</ele>
        <time>2012-08-22T18:39:20Z</time>
      </trkpt>
      <trkpt lat="50.40776" lon="1.98704">
        <ele>47</ele>
        <time>2012-08-22T18:39:22Z</time>
      </trkpt>
      <trkpt lat="50.40778" lon="1.98709">
        <ele>48</ele>
        <time>2012-08-22T18:39:24Z</time>
      </trkpt>
      <trkpt lat="50.40781" lon="1.98715">
        <ele>47</ele>
        <time>2012-08-22T18:39:26Z</time>
      </trkpt>
      <trkpt lat="50.40783" lon="1.98721">
        <ele>47</ele>
        <time>2012-08-22T18:39:28Z</time>
      </trkpt>
      <trkpt lat="50.40786" lon="1.98727">
        <ele>45</ele>
        <time>2012-08-22T18:39:30Z</time>
      </trkpt>
      <trkpt lat="50.40788" lon="1.98735">
        <ele>45</ele>
        <time>2012-08-22T18:39:32Z</time>
      </trkpt>
      <trkpt lat="50.40791" lon="1.98742">
        <ele>45</ele>
        <time>2012-08-22T18:39:34Z</time>
      </trkpt>
      <trkpt lat="50.40794" lon="1.98749">
        <ele>46</ele>
        <time>2012-08-22T18:39:36Z</time>
      </trkpt>
      <trkpt lat="50.40796" lon="1.98756">
        <ele>45</ele>
        <time>2012-08-22T18:39:38Z</time>
      </trkpt>
      <trkpt lat="50.40798" lon="1.98764">
        <ele>46</ele>
        <time>2012-08-22T18:39:40Z</time>
      </trkpt>
      <trkpt lat="50.40799" lon="1.98773">
        <ele>48</ele>
        <time>2012-08-22T18:39:42Z</time>
      </trkpt>
      <trkpt lat="50.408" lon="1.98782">
        <ele>48</ele>
        <time>2012-08-22T18:39:44Z</time>
      </trkpt>
      <trkpt lat="50.40801" lon="1.9879">
        <ele>47</ele>
        <time>2012-08-22T18:39:46Z</time>
      </trkpt>
      <trkpt lat="50.40803" lon="1.98799">
        <ele>48</ele>
        <time>2012-08-22T18:39:48Z</time>
      </trkpt>
      <trkpt lat="50.40805" lon="1.98807">
        <ele>49</ele>
        <time>2012-08-22T18:39:50Z</time>
      </trkpt>
      <trkpt lat="50.40806" lon="1.98816">
        <ele>48</ele>
        <time>2012-08-22T18:39:52Z</time>
      </trkpt>
      <trkpt lat="50.40806" lon="1.98823">
        <ele>50</ele>
        <time>2012-08-22T18:39:54Z</time>
      </trkpt>
      <trkpt lat="50.40807" lon="1.9883">
        <ele>51</ele>
        <time>2012-08-22T18:39:56Z</time>
      </trkpt>
      <trkpt lat="50.40807" lon="1.98838">
        <ele>52</ele>
        <time>2012-08-22T18:39:58Z</time>
      </trkpt>
      <trkpt lat="50.40808" lon="1.98846">
        <ele>52</ele>
        <time>2012-08-22T18:40:00Z</time>
      </trkpt>
      <trkpt lat="50.40809" lon="1.98855">
        <ele>53</ele>
        <time>2012-08-22T18:40:02Z</time>
      </trkpt>
      <trkpt lat="50.40809" lon="1.98863">
        <ele>53</ele>
        <time>2012-08-22T18:40:04Z</time>
      </trkpt>
      <trkpt lat="50.40809" lon="1.98871">
        <ele>54</ele>
        <time>2012-08-22T18:40:06Z</time>
      </trkpt>
      <trkpt lat="50.40809" lon="1.98879">
        <ele>54</ele>
        <time>2012-08-22T18:40:08Z</time>
      </trkpt>
      <trkpt lat="50.40809" lon="1.98887">
        <ele>55</ele>
        <time>2012-08-22T18:40:10Z</time>
      </trkpt>
      <trkpt lat="50.4081" lon="1.98893">
        <ele>56</ele>
        <time>2012-08-22T18:40:12Z</time>
      </trkpt>
      <trkpt lat="50.40812" lon="1.989">
        <ele>55</ele>
        <time>2012-08-22T18:40:14Z</time>
      </trkpt>
      <trkpt lat="50.40812" lon="1.98906">
        <ele>55</ele>
        <time>2012-08-22T18:40:16Z</time>
      </trkpt>
      <trkpt lat="50.40812" lon="1.98912">
        <ele>56</ele>
        <time>2012-08-22T18:40:18Z</time>
      </trkpt>
      <trkpt lat="50.40814" lon="1.98918">
        <ele>54</ele>
        <time>2012-08-22T18:40:20Z</time>
      </trkpt>
      <trkpt lat="50.40816" lon="1.98924">
        <ele>55</ele>
        <time>2012-08-22T18:40:22Z</time>
      </trkpt>
      <trkpt lat="50.40817" lon="1.98931">
        <ele>56</ele>
        <time>2012-08-22T18:40:24Z</time>
      </trkpt>
      <trkpt lat="50.40817" lon="1.9894">
        <ele>56</ele>
        <time>2012-08-22T18:40:26Z</time>
      </trkpt>
      <trkpt lat="50.40816" lon="1.98946">
        <ele>57</ele>
        <time>2012-08-22T18:40:28Z</time>
      </trkpt>
      <trkpt lat="50.40815" lon="1.98952">
        <ele>58</ele>
        <time>2012-08-22T18:40:30Z</time>
      </trkpt>
      <trkpt lat="50.40813" lon="1.9896">
        <ele>58</ele>
        <time>2012-08-22T18:40:32Z</time>
      </trkpt>
      <trkpt lat="50.40812" lon="1.9897">
        <ele>60</ele>
        <time>2012-08-22T18:40:34Z</time>
      </trkpt>
      <trkpt lat="50.4081" lon="1.98979">
        <ele>61</ele>
        <time>2012-08-22T18:40:36Z</time>
      </trkpt>
      <trkpt lat="50.40809" lon="1.98991">
        <ele>64</ele>
        <time>2012-08-22T18:40:38Z</time>
      </trkpt>
      <trkpt lat="50.40807" lon="1.99003">
        <ele>63</ele>
        <time>2012-08-22T18:40:40Z</time>
      </trkpt>
      <trkpt lat="50.40806" lon="1.99014">
        <ele>63</ele>
        <time>2012-08-22T18:40:42Z</time>
      </trkpt>
      <trkpt lat="50.40805" lon="1.99028">
        <ele>65</ele>
        <time>2012-08-22T18:40:44Z</time>
      </trkpt>
      <trkpt lat="50.40802" lon="1.99048">
        <ele>69</ele>
        <time>2012-08-22T18:40:46Z</time>
      </trkpt>
      <trkpt lat="50.40796" lon="1.99062">
        <ele>70</ele>
        <time>2012-08-22T18:40:48Z</time>
      </trkpt>
      <trkpt lat="50.40795" lon="1.99074">
        <ele>70</ele>
        <time>2012-08-22T18:40:50Z</time>
      </trkpt>
      <trkpt lat="50.40791" lon="1.99084">
        <ele>71</ele>
        <time>2012-08-22T18:40:52Z</time>
      </trkpt>
      <trkpt lat="50.40788" lon="1.99097">
        <ele>71</ele>
        <time>2012-08-22T18:40:54Z</time>
      </trkpt>
      <trkpt lat="50.40785" lon="1.99107">
        <ele>71</ele>
        <time>2012-08-22T18:40:56Z</time>
      </trkpt>
      <trkpt lat="50.40777" lon="1.99115">
        <ele>72</ele>
        <time>2012-08-22T18:40:58Z</time>
      </trkpt>
      <trkpt lat="50.40772" lon="1.99125">
        <ele>72</ele>
        <time>2012-08-22T18:41:00Z</time>
      </trkpt>
      <trkpt lat="50.40769" lon="1.99133">
        <ele>73</ele>
        <time>2012-08-22T18:41:02Z</time>
      </trkpt>
      <trkpt lat="50.40765" lon="1.9914">
        <ele>74</ele>
        <time>2012-08-22T18:41:04Z</time>
      </trkpt>
      <trkpt lat="50.40763" lon="1.99145">
        <ele>72</ele>
        <time>2012-08-22T18:41:06Z</time>
      </trkpt>
      <trkpt lat="50.4076" lon="1.9915">
        <ele>77</ele>
        <time>2012-08-22T18:41:08Z</time>
      </trkpt>
      <trkpt lat="50.40757" lon="1.99156">
        <ele>74</ele>
        <time>2012-08-22T18:41:10Z</time>
      </trkpt>
      <trkpt lat="50.40752" lon="1.99164">
        <ele>73</ele>
        <time>2012-08-22T18:41:12Z</time>
      </trkpt>
      <trkpt lat="50.40746" lon="1.99172">
        <ele>73</ele>
        <time>2012-08-22T18:41:14Z</time>
      </trkpt>
      <trkpt lat="50.4074" lon="1.99181">
        <ele>73</ele>
        <time>2012-08-22T18:41:16Z</time>
      </trkpt>
      <trkpt lat="50.40734" lon="1.9919">
        <ele>72</ele>
        <time>2012-08-22T18:41:18Z</time>
      </trkpt>
      <trkpt lat="50.40728" lon="1.992">
        <ele>71</ele>
        <time>2012-08-22T18:41:20Z</time>
      </trkpt>
      <trkpt lat="50.40722" lon="1.9921">
        <ele>72</ele>
        <time>2012-08-22T18:41:22Z</time>
      </trkpt>
      <trkpt lat="50.40717" lon="1.99221">
        <ele>74</ele>
        <time>2012-08-22T18:41:24Z</time>
      </trkpt>
      <trkpt lat="50.40712" lon="1.99229">
        <ele>74</ele>
        <time>2012-08-22T18:41:26Z</time>
      </trkpt>
      <trkpt lat="50.40709" lon="1.99238">
        <ele>74</ele>
        <time>2012-08-22T18:41:28Z</time>
      </trkpt>
      <trkpt lat="50.40705" lon="1.99246">
        <ele>75</ele>
        <time>2012-08-22T18:41:30Z</time>
      </trkpt>
      <trkpt lat="50.40701" lon="1.99255">
        <ele>76</ele>
        <time>2012-08-22T18:41:32Z</time>
      </trkpt>
      <trkpt lat="50.40698" lon="1.99266">
        <ele>76</ele>
        <time>2012-08-22T18:41:34Z</time>
      </trkpt>
      <trkpt lat="50.40694" lon="1.99276">
        <ele>76</ele>
        <time>2012-08-22T18:41:36Z</time>
      </trkpt>
      <trkpt lat="50.40693" lon="1.99285">
        <ele>76</ele>
        <time>2012-08-22T18:41:38Z</time>
      </trkpt>
      <trkpt lat="50.4069" lon="1.99293">
        <ele>76</ele>
        <time>2012-08-22T18:41:40Z</time>
      </trkpt>
      <trkpt lat="50.40688" lon="1.99303">
        <ele>75</ele>
        <time>2012-08-22T18:41:42Z</time>
      </trkpt>
      <trkpt lat="50.40684" lon="1.99311">
        <ele>74</ele>
        <time>2012-08-22T18:41:44Z</time>
      </trkpt>
      <trkpt lat="50.4068" lon="1.9932">
        <ele>74</ele>
        <time>2012-08-22T18:41:46Z</time>
      </trkpt>
      <trkpt lat="50.40676" lon="1.99329">
        <ele>74</ele>
        <time>2012-08-22T18:41:48Z</time>
      </trkpt>
      <trkpt lat="50.40672" lon="1.99338">
        <ele>74</ele>
        <time>2012-08-22T18:41:50Z</time>
      </trkpt>
      <trkpt lat="50.40667" lon="1.99347">
        <ele>74</ele>
        <time>2012-08-22T18:41:52Z</time>
      </trkpt>
      <trkpt lat="50.40662" lon="1.99357">
        <ele>75</ele>
        <time>2012-08-22T18:41:54Z</time>
      </trkpt>
      <trkpt lat="50.40656" lon="1.99368">
        <ele>75</ele>
        <time>2012-08-22T18:41:56Z</time>
      </trkpt>
      <trkpt lat="50.40651" lon="1.99379">
        <ele>76</ele>
        <time>2012-08-22T18:41:58Z</time>
      </trkpt>
      <trkpt lat="50.40647" lon="1.99389">
        <ele>77</ele>
        <time>2012-08-22T18:42:00Z</time>
      </trkpt>
      <trkpt lat="50.40643" lon="1.99399">
        <ele>78</ele>
        <time>2012-08-22T18:42:02Z</time>
      </trkpt>
      <trkpt lat="50.4064" lon="1.99408">
        <ele>77</ele>
        <time>2012-08-22T18:42:04Z</time>
      </trkpt>
      <trkpt lat="50.40636" lon="1.99417">
        <ele>76</ele>
        <time>2012-08-22T18:42:06Z</time>
      </trkpt>
      <trkpt lat="50.40633" lon="1.99426">
        <ele>77</ele>
        <time>2012-08-22T18:42:08Z</time>
      </trkpt>
      <trkpt lat="50.40629" lon="1.99434">
        <ele>76</ele>
        <time>2012-08-22T18:42:10Z</time>
      </trkpt>
      <trkpt lat="50.40624" lon="1.99442">
        <ele>77</ele>
        <time>2012-08-22T18:42:12Z</time>
      </trkpt>
      <trkpt lat="50.40619" lon="1.99451">
        <ele>78</ele>
        <time>2012-08-22T18:42:14Z</time>
      </trkpt>
      <trkpt lat="50.40614" lon="1.99461">
        <ele>77</ele>
        <time>2012-08-22T18:42:16Z</time>
      </trkpt>
      <trkpt lat="50.40608" lon="1.99479">
        <ele>79</ele>
        <time>2012-08-22T18:42:18Z</time>
      </trkpt>
      <trkpt lat="50.40604" lon="1.99494">
        <ele>80</ele>
        <time>2012-08-22T18:42:20Z</time>
      </trkpt>
      <trkpt lat="50.40604" lon="1.99509">
        <ele>79</ele>
        <time>2012-08-22T18:42:22Z</time>
      </trkpt>
      <trkpt lat="50.40609" lon="1.99523">
        <ele>77</ele>
        <time>2012-08-22T18:42:24Z</time>
      </trkpt>
      <trkpt lat="50.40612" lon="1.99539">
        <ele>77</ele>
        <time>2012-08-22T18:42:26Z</time>
      </trkpt>
      <trkpt lat="50.40615" lon="1.99554">
        <ele>77</ele>
        <time>2012-08-22T18:42:28Z</time>
      </trkpt>
      <trkpt lat="50.40618" lon="1.99567">
        <ele>76</ele>
        <time>2012-08-22T18:42:30Z</time>
      </trkpt>
      <trkpt lat="50.40618" lon="1.99577">
        <ele>77</ele>
        <time>2012-08-22T18:42:32Z</time>
      </trkpt>
      <trkpt lat="50.40619" lon="1.99593">
        <ele>77</ele>
        <time>2012-08-22T18:42:34Z</time>
      </trkpt>
      <trkpt lat="50.40616" lon="1.99611">
        <ele>77</ele>
        <time>2012-08-22T18:42:36Z</time>
      </trkpt>
      <trkpt lat="50.40616" lon="1.99627">
        <ele>78</ele>
        <time>2012-08-22T18:42:38Z</time>
      </trkpt>
      <trkpt lat="50.40608" lon="1.99641">
        <ele>78</ele>
        <time>2012-08-22T18:42:40Z</time>
      </trkpt>
      <trkpt lat="50.40604" lon="1.99655">
        <ele>78</ele>
        <time>2012-08-22T18:42:42Z</time>
      </trkpt>
      <trkpt lat="50.40603" lon="1.99667">
        <ele>78</ele>
        <time>2012-08-22T18:42:44Z</time>
      </trkpt>
      <trkpt lat="50.40602" lon="1.99684">
        <ele>77</ele>
        <time>2012-08-22T18:42:46Z</time>
      </trkpt>
      <trkpt lat="50.40598" lon="1.99697">
        <ele>77</ele>
        <time>2012-08-22T18:42:48Z</time>
      </trkpt>
      <trkpt lat="50.40596" lon="1.99708">
        <ele>77</ele>
        <time>2012-08-22T18:42:50Z</time>
      </trkpt>
      <trkpt lat="50.40592" lon="1.9972">
        <ele>78</ele>
        <time>2012-08-22T18:42:52Z</time>
      </trkpt>
      <trkpt lat="50.40589" lon="1.9973">
        <ele>78</ele>
        <time>2012-08-22T18:42:54Z</time>
      </trkpt>
      <trkpt lat="50.40587" lon="1.99741">
        <ele>79</ele>
        <time>2012-08-22T18:42:56Z</time>
      </trkpt>
      <trkpt lat="50.40585" lon="1.99752">
        <ele>79</ele>
        <time>2012-08-22T18:42:58Z</time>
      </trkpt>
      <trkpt lat="50.40584" lon="1.99764">
        <ele>80</ele>
        <time>2012-08-22T18:43:00Z</time>
      </trkpt>
      <trkpt lat="50.40583" lon="1.99775">
        <ele>80</ele>
        <time>2012-08-22T18:43:02Z</time>
      </trkpt>
      <trkpt lat="50.40581" lon="1.99786">
        <ele>81</ele>
        <time>2012-08-22T18:43:04Z</time>
      </trkpt>
      <trkpt lat="50.40579" lon="1.99797">
        <ele>81</ele>
        <time>2012-08-22T18:43:06Z</time>
      </trkpt>
      <trkpt lat="50.40575" lon="1.99806">
        <ele>81</ele>
        <time>2012-08-22T18:43:08Z</time>
      </trkpt>
      <trkpt lat="50.40573" lon="1.99816">
        <ele>81</ele>
        <time>2012-08-22T18:43:10Z</time>
      </trkpt>
      <trkpt lat="50.40572" lon="1.99827">
        <ele>82</ele>
        <time>2012-08-22T18:43:12Z</time>
      </trkpt>
      <trkpt lat="50.4057" lon="1.99838">
        <ele>82</ele>
        <time>2012-08-22T18:43:14Z</time>
      </trkpt>
      <trkpt lat="50.40567" lon="1.99851">
        <ele>82</ele>
        <time>2012-08-22T18:43:16Z</time>
      </trkpt>
      <trkpt lat="50.40563" lon="1.99864">
        <ele>82</ele>
        <time>2012-08-22T18:43:18Z</time>
      </trkpt>
      <trkpt lat="50.40559" lon="1.99876">
        <ele>82</ele>
        <time>2012-08-22T18:43:20Z</time>
      </trkpt>
      <trkpt lat="50.40557" lon="1.99888">
        <ele>82</ele>
        <time>2012-08-22T18:43:22Z</time>
      </trkpt>
      <trkpt lat="50.40555" lon="1.999">
        <ele>81</ele>
        <time>2012-08-22T18:43:24Z</time>
      </trkpt>
      <trkpt lat="50.40553" lon="1.99912">
        <ele>80</ele>
        <time>2012-08-22T18:43:26Z</time>
      </trkpt>
      <trkpt lat="50.4055" lon="1.99924">
        <ele>79</ele>
        <time>2012-08-22T18:43:28Z</time>
      </trkpt>
      <trkpt lat="50.40548" lon="1.99935">
        <ele>79</ele>
        <time>2012-08-22T18:43:30Z</time>
      </trkpt>
      <trkpt lat="50.40547" lon="1.99945">
        <ele>80</ele>
        <time>2012-08-22T18:43:32Z</time>
      </trkpt>
      <trkpt lat="50.40546" lon="1.99955">
        <ele>80</ele>
        <time>2012-08-22T18:43:34Z</time>
      </trkpt>
      <trkpt lat="50.40545" lon="1.99964">
        <ele>81</ele>
        <time>2012-08-22T18:43:36Z</time>
      </trkpt>
      <trkpt lat="50.40543" lon="1.99972">
        <ele>79</ele>
        <time>2012-08-22T18:43:38Z</time>
      </trkpt>
      <trkpt lat="50.4054" lon="1.9998">
        <ele>81</ele>
        <time>2012-08-22T18:43:40Z</time>
      </trkpt>
      <trkpt lat="50.40537" lon="1.99989">
        <ele>78</ele>
        <time>2012-08-22T18:43:42Z</time>
      </trkpt>
      <trkpt lat="50.40535" lon="1.99998">
        <ele>77</ele>
        <time>2012-08-22T18:43:44Z</time>
      </trkpt>
      <trkpt lat="50.40533" lon="2.00007">
        <ele>77</ele>
        <time>2012-08-22T18:43:46Z</time>
      </trkpt>
      <trkpt lat="50.40531" lon="2.00018">
        <ele>80</ele>
        <time>2012-08-22T18:43:48Z</time>
      </trkpt>
      <trkpt lat="50.4053" lon="2.00028">
        <ele>80</ele>
        <time>2012-08-22T18:43:50Z</time>
      </trkpt>
      <trkpt lat="50.4053" lon="2.00037">
        <ele>79</ele>
        <time>2012-08-22T18:43:52Z</time>
      </trkpt>
      <trkpt lat="50.40529" lon="2.00048">
        <ele>80</ele>
        <time>2012-08-22T18:43:54Z</time>
      </trkpt>
      <trkpt lat="50.40528" lon="2.00063">
        <ele>80</ele>
        <time>2012-08-22T18:43:56Z</time>
      </trkpt>
      <trkpt lat="50.40527" lon="2.00079">
        <ele>79</ele>
        <time>2012-08-22T18:43:58Z</time>
      </trkpt>
      <trkpt lat="50.40525" lon="2.00094">
        <ele>80</ele>
        <time>2012-08-22T18:44:00Z</time>
      </trkpt>
      <trkpt lat="50.40522" lon="2.00109">
        <ele>81</ele>
        <time>2012-08-22T18:44:02Z</time>
      </trkpt>
      <trkpt lat="50.40513" lon="2.00133">
        <ele>81</ele>
        <time>2012-08-22T18:44:04Z</time>
      </trkpt>
      <trkpt lat="50.40513" lon="2.00155">
        <ele>81</ele>
        <time>2012-08-22T18:44:06Z</time>
      </trkpt>
      <trkpt lat="50.40517" lon="2.00171">
        <ele>82</ele>
        <time>2012-08-22T18:44:08Z</time>
      </trkpt>
      <trkpt lat="50.40522" lon="2.00186">
        <ele>82</ele>
        <time>2012-08-22T18:44:10Z</time>
      </trkpt>
      <trkpt lat="50.40527" lon="2.00198">
        <ele>82</ele>
        <time>2012-08-22T18:44:12Z</time>
      </trkpt>
      <trkpt lat="50.40532" lon="2.00211">
        <ele>82</ele>
        <time>2012-08-22T18:44:14Z</time>
      </trkpt>
      <trkpt lat="50.40534" lon="2.0022">
        <ele>81</ele>
        <time>2012-08-22T18:44:16Z</time>
      </trkpt>
      <trkpt lat="50.40539" lon="2.00231">
        <ele>82</ele>
        <time>2012-08-22T18:44:18Z</time>
      </trkpt>
      <trkpt lat="50.40543" lon="2.00241">
        <ele>80</ele>
        <time>2012-08-22T18:44:20Z</time>
      </trkpt>
      <trkpt lat="50.40546" lon="2.00252">
        <ele>79</ele>
        <time>2012-08-22T18:44:22Z</time>
      </trkpt>
      <trkpt lat="50.40549" lon="2.00261">
        <ele>79</ele>
        <time>2012-08-22T18:44:24Z</time>
      </trkpt>
      <trkpt lat="50.4055" lon="2.0027">
        <ele>80</ele>
        <time>2012-08-22T18:44:26Z</time>
      </trkpt>
      <trkpt lat="50.4055" lon="2.0028">
        <ele>80</ele>
        <time>2012-08-22T18:44:28Z</time>
      </trkpt>
      <trkpt lat="50.40549" lon="2.00292">
        <ele>80</ele>
        <time>2012-08-22T18:44:30Z</time>
      </trkpt>
      <trkpt lat="50.40548" lon="2.00304">
        <ele>80</ele>
        <time>2012-08-22T18:44:32Z</time>
      </trkpt>
      <trkpt lat="50.40548" lon="2.00317">
        <ele>80</ele>
        <time>2012-08-22T18:44:34Z</time>
      </trkpt>
      <trkpt lat="50.40548" lon="2.00329">
        <ele>80</ele>
        <time>2012-08-22T18:44:36Z</time>
      </trkpt>
      <trkpt lat="50.40547" lon="2.00338">
        <ele>79</ele>
        <time>2012-08-22T18:44:38Z</time>
      </trkpt>
      <trkpt lat="50.40546" lon="2.00347">
        <ele>77</ele>
        <time>2012-08-22T18:44:40Z</time>
      </trkpt>
      <trkpt lat="50.40544" lon="2.00359">
        <ele>78</ele>
        <time>2012-08-22T18:44:42Z</time>
      </trkpt>
      <trkpt lat="50.40542" lon="2.00374">
        <ele>81</ele>
        <time>2012-08-22T18:44:44Z</time>
      </trkpt>
      <trkpt lat="50.4054" lon="2.00389">
        <ele>82</ele>
        <time>2012-08-22T18:44:46Z</time>
      </trkpt>
      <trkpt lat="50.40538" lon="2.00401">
        <ele>84</ele>
        <time>2012-08-22T18:44:48Z</time>
      </trkpt>
      <trkpt lat="50.40537" lon="2.00412">
        <ele>84</ele>
        <time>2012-08-22T18:44:50Z</time>
      </trkpt>
      <trkpt lat="50.40535" lon="2.00423">
        <ele>85</ele>
        <time>2012-08-22T18:44:52Z</time>
      </trkpt>
      <trkpt lat="50.40532" lon="2.00433">
        <ele>85</ele>
        <time>2012-08-22T18:44:54Z</time>
      </trkpt>
      <trkpt lat="50.4053" lon="2.00443">
        <ele>84</ele>
        <time>2012-08-22T18:44:56Z</time>
      </trkpt>
      <trkpt lat="50.40527" lon="2.00453">
        <ele>84</ele>
        <time>2012-08-22T18:44:58Z</time>
      </trkpt>
      <trkpt lat="50.40524" lon="2.00462">
        <ele>83</ele>
        <time>2012-08-22T18:45:00Z</time>
      </trkpt>
      <trkpt lat="50.4052" lon="2.00471">
        <ele>83</ele>
        <time>2012-08-22T18:45:02Z</time>
      </trkpt>
      <trkpt lat="50.40516" lon="2.00483">
        <ele>84</ele>
        <time>2012-08-22T18:45:04Z</time>
      </trkpt>
      <trkpt lat="50.40512" lon="2.00495">
        <ele>85</ele>
        <time>2012-08-22T18:45:06Z</time>
      </trkpt>
      <trkpt lat="50.40509" lon="2.00507">
        <ele>86</ele>
        <time>2012-08-22T18:45:08Z</time>
      </trkpt>
      <trkpt lat="50.40506" lon="2.00519">
        <ele>85</ele>
        <time>2012-08-22T18:45:10Z</time>
      </trkpt>
      <trkpt lat="50.40503" lon="2.00531">
        <ele>84</ele>
        <time>2012-08-22T18:45:12Z</time>
      </trkpt>
      <trkpt lat="50.405" lon="2.00543">
        <ele>83</ele>
        <time>2012-08-22T18:45:14Z</time>
      </trkpt>
      <trkpt lat="50.40496" lon="2.00556">
        <ele>84</ele>
        <time>2012-08-22T18:45:16Z</time>
      </trkpt>
      <trkpt lat="50.40495" lon="2.00568">
        <ele>83</ele>
        <time>2012-08-22T18:45:18Z</time>
      </trkpt>
      <trkpt lat="50.40493" lon="2.00579">
        <ele>82</ele>
        <time>2012-08-22T18:45:20Z</time>
      </trkpt>
      <trkpt lat="50.40493" lon="2.00588">
        <ele>84</ele>
        <time>2012-08-22T18:45:22Z</time>
      </trkpt>
      <trkpt lat="50.40493" lon="2.00598">
        <ele>83</ele>
        <time>2012-08-22T18:45:24Z</time>
      </trkpt>
      <trkpt lat="50.40493" lon="2.00608">
        <ele>83</ele>
        <time>2012-08-22T18:45:26Z</time>
      </trkpt>
      <trkpt lat="50.40494" lon="2.00617">
        <ele>84</ele>
        <time>2012-08-22T18:45:28Z</time>
      </trkpt>
      <trkpt lat="50.40494" lon="2.00626">
        <ele>85</ele>
        <time>2012-08-22T18:45:30Z</time>
      </trkpt>
      <trkpt lat="50.40496" lon="2.00638">
        <ele>85</ele>
        <time>2012-08-22T18:45:32Z</time>
      </trkpt>
      <trkpt lat="50.40498" lon="2.00649">
        <ele>84</ele>
        <time>2012-08-22T18:45:34Z</time>
      </trkpt>
      <trkpt lat="50.405" lon="2.00656">
        <ele>84</ele>
        <time>2012-08-22T18:45:36Z</time>
      </trkpt>
      <trkpt lat="50.405" lon="2.00662">
        <ele>84</ele>
        <time>2012-08-22T18:45:38Z</time>
      </trkpt>
      <trkpt lat="50.405" lon="2.00667">
        <ele>84</ele>
        <time>2012-08-22T18:45:40Z</time>
      </trkpt>
      <trkpt lat="50.40501" lon="2.00671">
        <ele>83</ele>
        <time>2012-08-22T18:45:42Z</time>
      </trkpt>
      <trkpt lat="50.40501" lon="2.00675">
        <ele>82</ele>
        <time>2012-08-22T18:45:44Z</time>
      </trkpt>
      <trkpt lat="50.40505" lon="2.00681">
        <ele>81</ele>
        <time>2012-08-22T18:45:46Z</time>
      </trkpt>
      <trkpt lat="50.40509" lon="2.00688">
        <ele>80</ele>
        <time>2012-08-22T18:45:48Z</time>
      </trkpt>
      <trkpt lat="50.40513" lon="2.00697">
        <ele>79</ele>
        <time>2012-08-22T18:45:50Z</time>
      </trkpt>
      <trkpt lat="50.40516" lon="2.00705">
        <ele>78</ele>
        <time>2012-08-22T18:45:52Z</time>
      </trkpt>
      <trkpt lat="50.40519" lon="2.00712">
        <ele>77</ele>
        <time>2012-08-22T18:45:54Z</time>
      </trkpt>
      <trkpt lat="50.40521" lon="2.00718">
        <ele>76</ele>
        <time>2012-08-22T18:45:56Z</time>
      </trkpt>
      <trkpt lat="50.40522" lon="2.00724">
        <ele>76</ele>
        <time>2012-08-22T18:45:58Z</time>
      </trkpt>
      <trkpt lat="50.40524" lon="2.00731">
        <ele>75</ele>
        <time>2012-08-22T18:46:00Z</time>
      </trkpt>
      <trkpt lat="50.40526" lon="2.00738">
        <ele>74</ele>
        <time>2012-08-22T18:46:02Z</time>
      </trkpt>
      <trkpt lat="50.40529" lon="2.00745">
        <ele>74</ele>
        <time>2012-08-22T18:46:04Z</time>
      </trkpt>
      <trkpt lat="50.40532" lon="2.00752">
        <ele>75</ele>
        <time>2012-08-22T18:46:06Z</time>
      </trkpt>
      <trkpt lat="50.40535" lon="2.00759">
        <ele>75</ele>
        <time>2012-08-22T18:46:08Z</time>
      </trkpt>
      <trkpt lat="50.40538" lon="2.00766">
        <ele>76</ele>
        <time>2012-08-22T18:46:10Z</time>
      </trkpt>
      <trkpt lat="50.4054" lon="2.00771">
        <ele>76</ele>
        <time>2012-08-22T18:46:12Z</time>
      </trkpt>
      <trkpt lat="50.40542" lon="2.00777">
        <ele>77</ele>
        <time>2012-08-22T18:46:14Z</time>
      </trkpt>
      <trkpt lat="50.40544" lon="2.00782">
        <ele>77</ele>
        <time>2012-08-22T18:46:16Z</time>
      </trkpt>
      <trkpt lat="50.40547" lon="2.00788">
        <ele>76</ele>
        <time>2012-08-22T18:46:18Z</time>
      </trkpt>
      <trkpt lat="50.4055" lon="2.00794">
        <ele>76</ele>
        <time>2012-08-22T18:46:20Z</time>
      </trkpt>
      <trkpt lat="50.40554" lon="2.00803">
        <ele>76</ele>
        <time>2012-08-22T18:46:22Z</time>
      </trkpt>
      <trkpt lat="50.40559" lon="2.00814">
        <ele>75</ele>
        <time>2012-08-22T18:46:24Z</time>
      </trkpt>
      <trkpt lat="50.40564" lon="2.00825">
        <ele>75</ele>
        <time>2012-08-22T18:46:26Z</time>
      </trkpt>
      <trkpt lat="50.40567" lon="2.00836">
        <ele>75</ele>
        <time>2012-08-22T18:46:28Z</time>
      </trkpt>
      <trkpt lat="50.40569" lon="2.00844">
        <ele>74</ele>
        <time>2012-08-22T18:46:30Z</time>
      </trkpt>
      <trkpt lat="50.40572" lon="2.0085">
        <ele>74</ele>
        <time>2012-08-22T18:46:32Z</time>
      </trkpt>
      <trkpt lat="50.40575" lon="2.00856">
        <ele>74</ele>
        <time>2012-08-22T18:46:34Z</time>
      </trkpt>
      <trkpt lat="50.40578" lon="2.00863">
        <ele>74</ele>
        <time>2012-08-22T18:46:36Z</time>
      </trkpt>
      <trkpt lat="50.4058" lon="2.00869">
        <ele>74</ele>
        <time>2012-08-22T18:46:38Z</time>
      </trkpt>
      <trkpt lat="50.40583" lon="2.00877">
        <ele>74</ele>
        <time>2012-08-22T18:46:40Z</time>
      </trkpt>
      <trkpt lat="50.40585" lon="2.00885">
        <ele>75</ele>
        <time>2012-08-22T18:46:42Z</time>
      </trkpt>
      <trkpt lat="50.40588" lon="2.00894">
        <ele>75</ele>
        <time>2012-08-22T18:46:44Z</time>
      </trkpt>
      <trkpt lat="50.40589" lon="2.00902">
        <ele>75</ele>
        <time>2012-08-22T18:46:46Z</time>
      </trkpt>
      <trkpt lat="50.40591" lon="2.00909">
        <ele>76</ele>
        <time>2012-08-22T18:46:48Z</time>
      </trkpt>
      <trkpt lat="50.40593" lon="2.00915">
        <ele>76</ele>
        <time>2012-08-22T18:46:50Z</time>
      </trkpt>
      <trkpt lat="50.40595" lon="2.00921">
        <ele>77</ele>
        <time>2012-08-22T18:46:52Z</time>
      </trkpt>
      <trkpt lat="50.40597" lon="2.00928">
        <ele>77</ele>
        <time>2012-08-22T18:46:54Z</time>
      </trkpt>
      <trkpt lat="50.40599" lon="2.00934">
        <ele>78</ele>
        <time>2012-08-22T18:46:56Z</time>
      </trkpt>
      <trkpt lat="50.40603" lon="2.00941">
        <ele>76</ele>
        <time>2012-08-22T18:46:58Z</time>
      </trkpt>
      <trkpt lat="50.40612" lon="2.00947">
        <ele>74</ele>
        <time>2012-08-22T18:47:00Z</time>
      </trkpt>
      <trkpt lat="50.40619" lon="2.00955">
        <ele>75</ele>
        <time>2012-08-22T18:47:02Z</time>
      </trkpt>
      <trkpt lat="50.40622" lon="2.00964">
        <ele>75</ele>
        <time>2012-08-22T18:47:04Z</time>
      </trkpt>
      <trkpt lat="50.40623" lon="2.00973">
        <ele>75</ele>
        <time>2012-08-22T18:47:06Z</time>
      </trkpt>
      <trkpt lat="50.40625" lon="2.00982">
        <ele>75</ele>
        <time>2012-08-22T18:47:08Z</time>
      </trkpt>
      <trkpt lat="50.40627" lon="2.00991">
        <ele>76</ele>
        <time>2012-08-22T18:47:10Z</time>
      </trkpt>
      <trkpt lat="50.40629" lon="2.01">
        <ele>76</ele>
        <time>2012-08-22T18:47:12Z</time>
      </trkpt>
      <trkpt lat="50.40631" lon="2.01008">
        <ele>76</ele>
        <time>2012-08-22T18:47:14Z</time>
      </trkpt>
      <trkpt lat="50.40633" lon="2.01015">
        <ele>76</ele>
        <time>2012-08-22T18:47:16Z</time>
      </trkpt>
      <trkpt lat="50.40634" lon="2.01021">
        <ele>77</ele>
        <time>2012-08-22T18:47:18Z</time>
      </trkpt>
      <trkpt lat="50.40636" lon="2.01026">
        <ele>76</ele>
        <time>2012-08-22T18:47:20Z</time>
      </trkpt>
      <trkpt lat="50.40638" lon="2.01032">
        <ele>75</ele>
        <time>2012-08-22T18:47:22Z</time>
      </trkpt>
      <trkpt lat="50.4064" lon="2.01039">
        <ele>74</ele>
        <time>2012-08-22T18:47:24Z</time>
      </trkpt>
      <trkpt lat="50.40641" lon="2.01046">
        <ele>75</ele>
        <time>2012-08-22T18:47:26Z</time>
      </trkpt>
      <trkpt lat="50.40644" lon="2.01051">
        <ele>76</ele>
        <time>2012-08-22T18:47:28Z</time>
      </trkpt>
      <trkpt lat="50.40646" lon="2.01057">
        <ele>76</ele>
        <time>2012-08-22T18:47:30Z</time>
      </trkpt>
      <trkpt lat="50.40648" lon="2.01062">
        <ele>75</ele>
        <time>2012-08-22T18:47:32Z</time>
      </trkpt>
      <trkpt lat="50.4065" lon="2.01069">
        <ele>74</ele>
        <time>2012-08-22T18:47:34Z</time>
      </trkpt>
      <trkpt lat="50.40651" lon="2.01077">
        <ele>73</ele>
        <time>2012-08-22T18:47:36Z</time>
      </trkpt>
      <trkpt lat="50.40652" lon="2.01088">
        <ele>73</ele>
        <time>2012-08-22T18:47:38Z</time>
      </trkpt>
      <trkpt lat="50.40651" lon="2.01099">
        <ele>73</ele>
        <time>2012-08-22T18:47:40Z</time>
      </trkpt>
      <trkpt lat="50.40653" lon="2.0111">
        <ele>73</ele>
        <time>2012-08-22T18:47:42Z</time>
      </trkpt>
      <trkpt lat="50.40657" lon="2.0112">
        <ele>75</ele>
        <time>2012-08-22T18:47:44Z</time>
      </trkpt>
      <trkpt lat="50.40661" lon="2.0113">
        <ele>76</ele>
        <time>2012-08-22T18:47:46Z</time>
      </trkpt>
      <trkpt lat="50.40666" lon="2.01139">
        <ele>76</ele>
        <time>2012-08-22T18:47:48Z</time>
      </trkpt>
      <trkpt lat="50.4067" lon="2.01148">
        <ele>76</ele>
        <time>2012-08-22T18:47:50Z</time>
      </trkpt>
      <trkpt lat="50.40674" lon="2.01157">
        <ele>76</ele>
        <time>2012-08-22T18:47:52Z</time>
      </trkpt>
      <trkpt lat="50.40678" lon="2.01168">
        <ele>76</ele>
        <time>2012-08-22T18:47:54Z</time>
      </trkpt>
      <trkpt lat="50.40682" lon="2.01177">
        <ele>77</ele>
        <time>2012-08-22T18:47:56Z</time>
      </trkpt>
      <trkpt lat="50.40686" lon="2.01182">
        <ele>77</ele>
        <time>2012-08-22T18:47:58Z</time>
      </trkpt>
      <trkpt lat="50.4069" lon="2.01188">
        <ele>76</ele>
        <time>2012-08-22T18:48:00Z</time>
      </trkpt>
      <trkpt lat="50.40694" lon="2.012">
        <ele>76</ele>
        <time>2012-08-22T18:48:02Z</time>
      </trkpt>
      <trkpt lat="50.40699" lon="2.01213">
        <ele>76</ele>
        <time>2012-08-22T18:48:04Z</time>
      </trkpt>
      <trkpt lat="50.40702" lon="2.01227">
        <ele>79</ele>
        <time>2012-08-22T18:48:06Z</time>
      </trkpt>
      <trkpt lat="50.40707" lon="2.01238">
        <ele>79</ele>
        <time>2012-08-22T18:48:08Z</time>
      </trkpt>
      <trkpt lat="50.40712" lon="2.01245">
        <ele>80</ele>
        <time>2012-08-22T18:48:10Z</time>
      </trkpt>
      <trkpt lat="50.40716" lon="2.01251">
        <ele>79</ele>
        <time>2012-08-22T18:48:12Z</time>
      </trkpt>
      <trkpt lat="50.4072" lon="2.01259">
        <ele>79</ele>
        <time>2012-08-22T18:48:14Z</time>
      </trkpt>
      <trkpt lat="50.40724" lon="2.01267">
        <ele>79</ele>
        <time>2012-08-22T18:48:16Z</time>
      </trkpt>
      <trkpt lat="50.40727" lon="2.01275">
        <ele>80</ele>
        <time>2012-08-22T18:48:18Z</time>
      </trkpt>
      <trkpt lat="50.40731" lon="2.01282">
        <ele>79</ele>
        <time>2012-08-22T18:48:20Z</time>
      </trkpt>
      <trkpt lat="50.40733" lon="2.01287">
        <ele>80</ele>
        <time>2012-08-22T18:48:22Z</time>
      </trkpt>
      <trkpt lat="50.40734" lon="2.0129">
        <ele>80</ele>
        <time>2012-08-22T18:48:24Z</time>
      </trkpt>
      <trkpt lat="50.40735" lon="2.01293">
        <ele>81</ele>
        <time>2012-08-22T18:48:24Z</time>
      </trkpt>
      <trkpt lat="50.40737" lon="2.01298">
        <ele>82</ele>
        <time>2012-08-22T18:48:26Z</time>
      </trkpt>
      <trkpt lat="50.40739" lon="2.01303">
        <ele>83</ele>
        <time>2012-08-22T18:48:28Z</time>
      </trkpt>
      <trkpt lat="50.40741" lon="2.01308">
        <ele>83</ele>
        <time>2012-08-22T18:48:30Z</time>
      </trkpt>
      <trkpt lat="50.40741" lon="2.01313">
        <ele>83</ele>
        <time>2012-08-22T18:48:32Z</time>
      </trkpt>
      <trkpt lat="50.40743" lon="2.01318">
        <ele>84</ele>
        <time>2012-08-22T18:48:34Z</time>
      </trkpt>
      <trkpt lat="50.40746" lon="2.01323">
        <ele>84</ele>
        <time>2012-08-22T18:48:36Z</time>
      </trkpt>
      <trkpt lat="50.40749" lon="2.01329">
        <ele>84</ele>
        <time>2012-08-22T18:48:38Z</time>
      </trkpt>
      <trkpt lat="50.40751" lon="2.01334">
        <ele>84</ele>
        <time>2012-08-22T18:48:40Z</time>
      </trkpt>
      <trkpt lat="50.40753" lon="2.0134">
        <ele>84</ele>
        <time>2012-08-22T18:48:42Z</time>
      </trkpt>
      <trkpt lat="50.40755" lon="2.01346">
        <ele>85</ele>
        <time>2012-08-22T18:48:44Z</time>
      </trkpt>
      <trkpt lat="50.40757" lon="2.01354">
        <ele>84</ele>
        <time>2012-08-22T18:48:46Z</time>
      </trkpt>
      <trkpt lat="50.40761" lon="2.01364">
        <ele>83</ele>
        <time>2012-08-22T18:48:48Z</time>
      </trkpt>
      <trkpt lat="50.40765" lon="2.01373">
        <ele>79</ele>
        <time>2012-08-22T18:48:50Z</time>
      </trkpt>
      <trkpt lat="50.4077" lon="2.0138">
        <ele>81</ele>
        <time>2012-08-22T18:48:52Z</time>
      </trkpt>
      <trkpt lat="50.40775" lon="2.01388">
        <ele>83</ele>
        <time>2012-08-22T18:48:54Z</time>
      </trkpt>
      <trkpt lat="50.4078" lon="2.01397">
        <ele>84</ele>
        <time>2012-08-22T18:48:56Z</time>
      </trkpt>
      <trkpt lat="50.40783" lon="2.01405">
        <ele>84</ele>
        <time>2012-08-22T18:48:58Z</time>
      </trkpt>
      <trkpt lat="50.40786" lon="2.01413">
        <ele>84</ele>
        <time>2012-08-22T18:49:00Z</time>
      </trkpt>
      <trkpt lat="50.40789" lon="2.01421">
        <ele>82</ele>
        <time>2012-08-22T18:49:02Z</time>
      </trkpt>
      <trkpt lat="50.40791" lon="2.01429">
        <ele>82</ele>
        <time>2012-08-22T18:49:04Z</time>
      </trkpt>
      <trkpt lat="50.40794" lon="2.01437">
        <ele>82</ele>
        <time>2012-08-22T18:49:06Z</time>
      </trkpt>
      <trkpt lat="50.40797" lon="2.01444">
        <ele>82</ele>
        <time>2012-08-22T18:49:08Z</time>
      </trkpt>
      <trkpt lat="50.408" lon="2.01452">
        <ele>82</ele>
        <time>2012-08-22T18:49:10Z</time>
      </trkpt>
      <trkpt lat="50.40804" lon="2.01459">
        <ele>83</ele>
        <time>2012-08-22T18:49:12Z</time>
      </trkpt>
      <trkpt lat="50.40807" lon="2.01466">
        <ele>82</ele>
        <time>2012-08-22T18:49:14Z</time>
      </trkpt>
      <trkpt lat="50.4081" lon="2.01474">
        <ele>82</ele>
        <time>2012-08-22T18:49:16Z</time>
      </trkpt>
      <trkpt lat="50.40814" lon="2.01481">
        <ele>83</ele>
        <time>2012-08-22T18:49:18Z</time>
      </trkpt>
      <trkpt lat="50.40817" lon="2.01487">
        <ele>82</ele>
        <time>2012-08-22T18:49:20Z</time>
      </trkpt>
      <trkpt lat="50.4082" lon="2.01494">
        <ele>81</ele>
        <time>2012-08-22T18:49:22Z</time>
      </trkpt>
      <trkpt lat="50.40823" lon="2.01501">
        <ele>82</ele>
        <time>2012-08-22T18:49:24Z</time>
      </trkpt>
      <trkpt lat="50.40827" lon="2.01508">
        <ele>83</ele>
        <time>2012-08-22T18:49:26Z</time>
      </trkpt>
      <trkpt lat="50.4083" lon="2.01517">
        <ele>83</ele>
        <time>2012-08-22T18:49:28Z</time>
      </trkpt>
      <trkpt lat="50.40834" lon="2.01525">
        <ele>85</ele>
        <time>2012-08-22T18:49:30Z</time>
      </trkpt>
      <trkpt lat="50.40837" lon="2.01533">
        <ele>84</ele>
        <time>2012-08-22T18:49:32Z</time>
      </trkpt>
      <trkpt lat="50.40839" lon="2.01541">
        <ele>83</ele>
        <time>2012-08-22T18:49:34Z</time>
      </trkpt>
      <trkpt lat="50.40842" lon="2.01549">
        <ele>83</ele>
        <time>2012-08-22T18:49:36Z</time>
      </trkpt>
      <trkpt lat="50.40844" lon="2.01555">
        <ele>84</ele>
        <time>2012-08-22T18:49:38Z</time>
      </trkpt>
      <trkpt lat="50.40846" lon="2.01562">
        <ele>84</ele>
        <time>2012-08-22T18:49:40Z</time>
      </trkpt>
      <trkpt lat="50.40849" lon="2.01569">
        <ele>85</ele>
        <time>2012-08-22T18:49:42Z</time>
      </trkpt>
      <trkpt lat="50.40851" lon="2.01576">
        <ele>84</ele>
        <time>2012-08-22T18:49:44Z</time>
      </trkpt>
      <trkpt lat="50.40853" lon="2.01584">
        <ele>83</ele>
        <time>2012-08-22T18:49:46Z</time>
      </trkpt>
      <trkpt lat="50.40856" lon="2.01591">
        <ele>83</ele>
        <time>2012-08-22T18:49:48Z</time>
      </trkpt>
      <trkpt lat="50.40859" lon="2.01598">
        <ele>83</ele>
        <time>2012-08-22T18:49:50Z</time>
      </trkpt>
      <trkpt lat="50.40861" lon="2.01604">
        <ele>84</ele>
        <time>2012-08-22T18:49:52Z</time>
      </trkpt>
      <trkpt lat="50.40863" lon="2.01612">
        <ele>83</ele>
        <time>2012-08-22T18:49:54Z</time>
      </trkpt>
      <trkpt lat="50.40866" lon="2.0162">
        <ele>82</ele>
        <time>2012-08-22T18:49:56Z</time>
      </trkpt>
      <trkpt lat="50.40868" lon="2.01627">
        <ele>81</ele>
        <time>2012-08-22T18:49:58Z</time>
      </trkpt>
      <trkpt lat="50.40872" lon="2.01632">
        <ele>83</ele>
        <time>2012-08-22T18:50:00Z</time>
      </trkpt>
      <trkpt lat="50.40875" lon="2.01639">
        <ele>83</ele>
        <time>2012-08-22T18:50:02Z</time>
      </trkpt>
      <trkpt lat="50.40879" lon="2.01643">
        <ele>83</ele>
        <time>2012-08-22T18:50:04Z</time>
      </trkpt>
      <trkpt lat="50.40884" lon="2.01645">
        <ele>82</ele>
        <time>2012-08-22T18:50:06Z</time>
      </trkpt>
      <trkpt lat="50.40889" lon="2.01643">
        <ele>82</ele>
        <time>2012-08-22T18:50:08Z</time>
      </trkpt>
      <trkpt lat="50.40894" lon="2.01638">
        <ele>83</ele>
        <time>2012-08-22T18:50:10Z</time>
      </trkpt>
      <trkpt lat="50.40899" lon="2.01634">
        <ele>83</ele>
        <time>2012-08-22T18:50:12Z</time>
      </trkpt>
      <trkpt lat="50.40904" lon="2.01629">
        <ele>84</ele>
        <time>2012-08-22T18:50:14Z</time>
      </trkpt>
      <trkpt lat="50.40909" lon="2.01625">
        <ele>84</ele>
        <time>2012-08-22T18:50:16Z</time>
      </trkpt>
      <trkpt lat="50.40914" lon="2.01622">
        <ele>87</ele>
        <time>2012-08-22T18:50:18Z</time>
      </trkpt>
      <trkpt lat="50.40919" lon="2.01619">
        <ele>87</ele>
        <time>2012-08-22T18:50:20Z</time>
      </trkpt>
      <trkpt lat="50.40923" lon="2.01616">
        <ele>89</ele>
        <time>2012-08-22T18:50:22Z</time>
      </trkpt>
      <trkpt lat="50.40928" lon="2.01614">
        <ele>90</ele>
        <time>2012-08-22T18:50:24Z</time>
      </trkpt>
      <trkpt lat="50.40932" lon="2.01611">
        <ele>90</ele>
        <time>2012-08-22T18:50:26Z</time>
      </trkpt>
      <trkpt lat="50.40937" lon="2.01609">
        <ele>89</ele>
        <time>2012-08-22T18:50:28Z</time>
      </trkpt>
      <trkpt lat="50.40941" lon="2.01607">
        <ele>88</ele>
        <time>2012-08-22T18:50:30Z</time>
      </trkpt>
      <trkpt lat="50.40944" lon="2.01603">
        <ele>88</ele>
        <time>2012-08-22T18:50:32Z</time>
      </trkpt>
      <trkpt lat="50.40948" lon="2.01601">
        <ele>89</ele>
        <time>2012-08-22T18:50:34Z</time>
      </trkpt>
      <trkpt lat="50.40952" lon="2.01599">
        <ele>89</ele>
        <time>2012-08-22T18:50:36Z</time>
      </trkpt>
      <trkpt lat="50.40956" lon="2.01598">
        <ele>92</ele>
        <time>2012-08-22T18:50:38Z</time>
      </trkpt>
      <trkpt lat="50.40959" lon="2.01596">
        <ele>93</ele>
        <time>2012-08-22T18:50:40Z</time>
      </trkpt>
      <trkpt lat="50.40963" lon="2.01593">
        <ele>93</ele>
        <time>2012-08-22T18:50:42Z</time>
      </trkpt>
      <trkpt lat="50.40967" lon="2.01591">
        <ele>93</ele>
        <time>2012-08-22T18:50:44Z</time>
      </trkpt>
      <trkpt lat="50.40972" lon="2.01589">
        <ele>93</ele>
        <time>2012-08-22T18:50:46Z</time>
      </trkpt>
      <trkpt lat="50.40976" lon="2.01586">
        <ele>92</ele>
        <time>2012-08-22T18:50:48Z</time>
      </trkpt>
      <trkpt lat="50.40981" lon="2.01583">
        <ele>92</ele>
        <time>2012-08-22T18:50:50Z</time>
      </trkpt>
      <trkpt lat="50.40987" lon="2.01579">
        <ele>92</ele>
        <time>2012-08-22T18:50:52Z</time>
      </trkpt>
      <trkpt lat="50.40993" lon="2.01576">
        <ele>91</ele>
        <time>2012-08-22T18:50:54Z</time>
      </trkpt>
      <trkpt lat="50.40999" lon="2.01573">
        <ele>90</ele>
        <time>2012-08-22T18:50:56Z</time>
      </trkpt>
      <trkpt lat="50.41006" lon="2.0157">
        <ele>91</ele>
        <time>2012-08-22T18:50:58Z</time>
      </trkpt>
      <trkpt lat="50.41013" lon="2.01566">
        <ele>91</ele>
        <time>2012-08-22T18:51:00Z</time>
      </trkpt>
      <trkpt lat="50.41019" lon="2.01563">
        <ele>90</ele>
        <time>2012-08-22T18:51:02Z</time>
      </trkpt>
      <trkpt lat="50.41026" lon="2.01559">
        <ele>90</ele>
        <time>2012-08-22T18:51:04Z</time>
      </trkpt>
      <trkpt lat="50.41032" lon="2.01556">
        <ele>91</ele>
        <time>2012-08-22T18:51:06Z</time>
      </trkpt>
      <trkpt lat="50.41038" lon="2.01552">
        <ele>92</ele>
        <time>2012-08-22T18:51:08Z</time>
      </trkpt>
      <trkpt lat="50.41043" lon="2.01549">
        <ele>92</ele>
        <time>2012-08-22T18:51:10Z</time>
      </trkpt>
      <trkpt lat="50.41048" lon="2.01546">
        <ele>92</ele>
        <time>2012-08-22T18:51:12Z</time>
      </trkpt>
      <trkpt lat="50.41054" lon="2.01543">
        <ele>93</ele>
        <time>2012-08-22T18:51:14Z</time>
      </trkpt>
      <trkpt lat="50.41059" lon="2.01539">
        <ele>93</ele>
        <time>2012-08-22T18:51:16Z</time>
      </trkpt>
      <trkpt lat="50.41065" lon="2.01536">
        <ele>94</ele>
        <time>2012-08-22T18:51:18Z</time>
      </trkpt>
      <trkpt lat="50.41069" lon="2.01533">
        <ele>95</ele>
        <time>2012-08-22T18:51:20Z</time>
      </trkpt>
      <trkpt lat="50.41074" lon="2.01529">
        <ele>95</ele>
        <time>2012-08-22T18:51:22Z</time>
      </trkpt>
      <trkpt lat="50.4108" lon="2.01526">
        <ele>93</ele>
        <time>2012-08-22T18:51:24Z</time>
      </trkpt>
      <trkpt lat="50.41086" lon="2.01523">
        <ele>94</ele>
        <time>2012-08-22T18:51:26Z</time>
      </trkpt>
      <trkpt lat="50.41092" lon="2.0152">
        <ele>94</ele>
        <time>2012-08-22T18:51:28Z</time>
      </trkpt>
      <trkpt lat="50.41097" lon="2.01518">
        <ele>94</ele>
        <time>2012-08-22T18:51:30Z</time>
      </trkpt>
      <trkpt lat="50.41102" lon="2.01515">
        <ele>93</ele>
        <time>2012-08-22T18:51:32Z</time>
      </trkpt>
      <trkpt lat="50.41107" lon="2.01512">
        <ele>93</ele>
        <time>2012-08-22T18:51:34Z</time>
      </trkpt>
      <trkpt lat="50.41112" lon="2.01508">
        <ele>94</ele>
        <time>2012-08-22T18:51:36Z</time>
      </trkpt>
      <trkpt lat="50.41117" lon="2.01505">
        <ele>95</ele>
        <time>2012-08-22T18:51:38Z</time>
      </trkpt>
      <trkpt lat="50.41122" lon="2.01502">
        <ele>94</ele>
        <time>2012-08-22T18:51:40Z</time>
      </trkpt>
      <trkpt lat="50.41127" lon="2.01499">
        <ele>94</ele>
        <time>2012-08-22T18:51:42Z</time>
      </trkpt>
      <trkpt lat="50.4113" lon="2.01492">
        <ele>92</ele>
        <time>2012-08-22T18:51:44Z</time>
      </trkpt>
      <trkpt lat="50.41132" lon="2.01485">
        <ele>92</ele>
        <time>2012-08-22T18:51:46Z</time>
      </trkpt>
      <trkpt lat="50.4113" lon="2.01477">
        <ele>95</ele>
        <time>2012-08-22T18:51:48Z</time>
      </trkpt>
      <trkpt lat="50.41126" lon="2.01469">
        <ele>96</ele>
        <time>2012-08-22T18:51:50Z</time>
      </trkpt>
      <trkpt lat="50.41122" lon="2.01462">
        <ele>96</ele>
        <time>2012-08-22T18:51:52Z</time>
      </trkpt>
      <trkpt lat="50.41118" lon="2.01453">
        <ele>95</ele>
        <time>2012-08-22T18:51:54Z</time>
      </trkpt>
      <trkpt lat="50.41113" lon="2.01445">
        <ele>95</ele>
        <time>2012-08-22T18:51:56Z</time>
      </trkpt>
      <trkpt lat="50.41109" lon="2.01436">
        <ele>96</ele>
        <time>2012-08-22T18:51:58Z</time>
      </trkpt>
      <trkpt lat="50.41105" lon="2.01427">
        <ele>96</ele>
        <time>2012-08-22T18:52:00Z</time>
      </trkpt>
      <trkpt lat="50.41102" lon="2.01419">
        <ele>96</ele>
        <time>2012-08-22T18:52:02Z</time>
      </trkpt>
      <trkpt lat="50.41098" lon="2.0141">
        <ele>97</ele>
        <time>2012-08-22T18:52:04Z</time>
      </trkpt>
      <trkpt lat="50.41094" lon="2.01401">
        <ele>97</ele>
        <time>2012-08-22T18:52:06Z</time>
      </trkpt>
      <trkpt lat="50.4109" lon="2.01391">
        <ele>97</ele>
        <time>2012-08-22T18:52:08Z</time>
      </trkpt>
      <trkpt lat="50.41085" lon="2.01381">
        <ele>97</ele>
        <time>2012-08-22T18:52:10Z</time>
      </trkpt>
      <trkpt lat="50.4108" lon="2.0137">
        <ele>98</ele>
        <time>2012-08-22T18:52:12Z</time>
      </trkpt>
      <trkpt lat="50.41076" lon="2.0136">
        <ele>98</ele>
        <time>2012-08-22T18:52:14Z</time>
      </trkpt>
      <trkpt lat="50.41071" lon="2.0135">
        <ele>98</ele>
        <time>2012-08-22T18:52:16Z</time>
      </trkpt>
      <trkpt lat="50.41066" lon="2.01339">
        <ele>98</ele>
        <time>2012-08-22T18:52:18Z</time>
      </trkpt>
      <trkpt lat="50.41061" lon="2.01329">
        <ele>97</ele>
        <time>2012-08-22T18:52:20Z</time>
      </trkpt>
      <trkpt lat="50.41056" lon="2.01317">
        <ele>98</ele>
        <time>2012-08-22T18:52:22Z</time>
      </trkpt>
      <trkpt lat="50.41052" lon="2.01306">
        <ele>99</ele>
        <time>2012-08-22T18:52:24Z</time>
      </trkpt>
      <trkpt lat="50.41047" lon="2.01295">
        <ele>99</ele>
        <time>2012-08-22T18:52:26Z</time>
      </trkpt>
      <trkpt lat="50.41042" lon="2.01283">
        <ele>99</ele>
        <time>2012-08-22T18:52:28Z</time>
      </trkpt>
      <trkpt lat="50.41039" lon="2.0127">
        <ele>101</ele>
        <time>2012-08-22T18:52:30Z</time>
      </trkpt>
      <trkpt lat="50.41035" lon="2.01259">
        <ele>103</ele>
        <time>2012-08-22T18:52:32Z</time>
      </trkpt>
      <trkpt lat="50.4103" lon="2.01248">
        <ele>104</ele>
        <time>2012-08-22T18:52:34Z</time>
      </trkpt>
      <trkpt lat="50.41025" lon="2.01237">
        <ele>104</ele>
        <time>2012-08-22T18:52:36Z</time>
      </trkpt>
      <trkpt lat="50.4102" lon="2.01225">
        <ele>102</ele>
        <time>2012-08-22T18:52:38Z</time>
      </trkpt>
      <trkpt lat="50.41016" lon="2.01215">
        <ele>102</ele>
        <time>2012-08-22T18:52:40Z</time>
      </trkpt>
      <trkpt lat="50.41011" lon="2.01204">
        <ele>102</ele>
        <time>2012-08-22T18:52:42Z</time>
      </trkpt>
      <trkpt lat="50.41006" lon="2.01192">
        <ele>102</ele>
        <time>2012-08-22T18:52:44Z</time>
      </trkpt>
      <trkpt lat="50.41001" lon="2.0118">
        <ele>102</ele>
        <time>2012-08-22T18:52:46Z</time>
      </trkpt>
      <trkpt lat="50.40997" lon="2.01167">
        <ele>102</ele>
        <time>2012-08-22T18:52:48Z</time>
      </trkpt>
      <trkpt lat="50.40991" lon="2.01155">
        <ele>102</ele>
        <time>2012-08-22T18:52:50Z</time>
      </trkpt>
      <trkpt lat="50.40984" lon="2.01142">
        <ele>103</ele>
        <time>2012-08-22T18:52:52Z</time>
      </trkpt>
      <trkpt lat="50.40979" lon="2.01128">
        <ele>103</ele>
        <time>2012-08-22T18:52:54Z</time>
      </trkpt>
      <trkpt lat="50.40975" lon="2.01115">
        <ele>103</ele>
        <time>2012-08-22T18:52:56Z</time>
      </trkpt>
      <trkpt lat="50.4097" lon="2.01102">
        <ele>104</ele>
        <time>2012-08-22T18:52:58Z</time>
      </trkpt>
      <trkpt lat="50.40965" lon="2.01091">
        <ele>103</ele>
        <time>2012-08-22T18:53:00Z</time>
      </trkpt>
      <trkpt lat="50.4096" lon="2.0108">
        <ele>103</ele>
        <time>2012-08-22T18:53:02Z</time>
      </trkpt>
      <trkpt lat="50.40955" lon="2.01069">
        <ele>102</ele>
        <time>2012-08-22T18:53:04Z</time>
      </trkpt>
      <trkpt lat="50.40952" lon="2.01056">
        <ele>103</ele>
        <time>2012-08-22T18:53:06Z</time>
      </trkpt>
      <trkpt lat="50.40946" lon="2.01045">
        <ele>102</ele>
        <time>2012-08-22T18:53:08Z</time>
      </trkpt>
      <trkpt lat="50.40941" lon="2.01035">
        <ele>102</ele>
        <time>2012-08-22T18:53:10Z</time>
      </trkpt>
      <trkpt lat="50.40936" lon="2.01024">
        <ele>104</ele>
        <time>2012-08-22T18:53:12Z</time>
      </trkpt>
      <trkpt lat="50.40931" lon="2.01013">
        <ele>103</ele>
        <time>2012-08-22T18:53:14Z</time>
      </trkpt>
      <trkpt lat="50.40925" lon="2.01003">
        <ele>102</ele>
        <time>2012-08-22T18:53:16Z</time>
      </trkpt>
      <trkpt lat="50.40922" lon="2.00991">
        <ele>102</ele>
        <time>2012-08-22T18:53:18Z</time>
      </trkpt>
      <trkpt lat="50.40917" lon="2.0098">
        <ele>102</ele>
        <time>2012-08-22T18:53:20Z</time>
      </trkpt>
      <trkpt lat="50.40912" lon="2.00968">
        <ele>104</ele>
        <time>2012-08-22T18:53:22Z</time>
      </trkpt>
      <trkpt lat="50.40907" lon="2.00957">
        <ele>102</ele>
        <time>2012-08-22T18:53:24Z</time>
      </trkpt>
      <trkpt lat="50.40902" lon="2.00945">
        <ele>101</ele>
        <time>2012-08-22T18:53:26Z</time>
      </trkpt>
      <trkpt lat="50.40898" lon="2.00935">
        <ele>100</ele>
        <time>2012-08-22T18:53:28Z</time>
      </trkpt>
      <trkpt lat="50.40894" lon="2.00926">
        <ele>100</ele>
        <time>2012-08-22T18:53:30Z</time>
      </trkpt>
      <trkpt lat="50.40889" lon="2.00916">
        <ele>100</ele>
        <time>2012-08-22T18:53:32Z</time>
      </trkpt>
      <trkpt lat="50.40885" lon="2.00906">
        <ele>100</ele>
        <time>2012-08-22T18:53:34Z</time>
      </trkpt>
      <trkpt lat="50.40881" lon="2.00896">
        <ele>99</ele>
        <time>2012-08-22T18:53:36Z</time>
      </trkpt>
      <trkpt lat="50.40876" lon="2.00887">
        <ele>99</ele>
        <time>2012-08-22T18:53:38Z</time>
      </trkpt>
      <trkpt lat="50.40873" lon="2.00878">
        <ele>99</ele>
        <time>2012-08-22T18:53:40Z</time>
      </trkpt>
      <trkpt lat="50.40872" lon="2.00869">
        <ele>99</ele>
        <time>2012-08-22T18:53:42Z</time>
      </trkpt>
      <trkpt lat="50.40872" lon="2.0086">
        <ele>100</ele>
        <time>2012-08-22T18:53:44Z</time>
      </trkpt>
      <trkpt lat="50.40875" lon="2.00851">
        <ele>99</ele>
        <time>2012-08-22T18:53:46Z</time>
      </trkpt>
      <trkpt lat="50.40879" lon="2.00841">
        <ele>99</ele>
        <time>2012-08-22T18:53:48Z</time>
      </trkpt>
      <trkpt lat="50.40884" lon="2.0083">
        <ele>100</ele>
        <time>2012-08-22T18:53:50Z</time>
      </trkpt>
      <trkpt lat="50.40889" lon="2.00819">
        <ele>101</ele>
        <time>2012-08-22T18:53:52Z</time>
      </trkpt>
      <trkpt lat="50.40892" lon="2.00808">
        <ele>101</ele>
        <time>2012-08-22T18:53:54Z</time>
      </trkpt>
      <trkpt lat="50.40896" lon="2.00795">
        <ele>101</ele>
        <time>2012-08-22T18:53:56Z</time>
      </trkpt>
      <trkpt lat="50.40899" lon="2.00783">
        <ele>101</ele>
        <time>2012-08-22T18:53:58Z</time>
      </trkpt>
      <trkpt lat="50.40902" lon="2.00771">
        <ele>100</ele>
        <time>2012-08-22T18:54:00Z</time>
      </trkpt>
      <trkpt lat="50.40905" lon="2.0076">
        <ele>99</ele>
        <time>2012-08-22T18:54:02Z</time>
      </trkpt>
      <trkpt lat="50.40908" lon="2.00749">
        <ele>100</ele>
        <time>2012-08-22T18:54:04Z</time>
      </trkpt>
      <trkpt lat="50.40912" lon="2.00738">
        <ele>101</ele>
        <time>2012-08-22T18:54:06Z</time>
      </trkpt>
      <trkpt lat="50.40915" lon="2.00727">
        <ele>102</ele>
        <time>2012-08-22T18:54:08Z</time>
      </trkpt>
      <trkpt lat="50.40919" lon="2.00715">
        <ele>101</ele>
        <time>2012-08-22T18:54:10Z</time>
      </trkpt>
      <trkpt lat="50.40923" lon="2.00703">
        <ele>100</ele>
        <time>2012-08-22T18:54:12Z</time>
      </trkpt>
      <trkpt lat="50.40925" lon="2.00691">
        <ele>100</ele>
        <time>2012-08-22T18:54:14Z</time>
      </trkpt>
      <trkpt lat="50.40928" lon="2.00681">
        <ele>100</ele>
        <time>2012-08-22T18:54:16Z</time>
      </trkpt>
      <trkpt lat="50.40931" lon="2.0067">
        <ele>99</ele>
        <time>2012-08-22T18:54:18Z</time>
      </trkpt>
      <trkpt lat="50.40932" lon="2.00658">
        <ele>99</ele>
        <time>2012-08-22T18:54:20Z</time>
      </trkpt>
      <trkpt lat="50.4093" lon="2.00646">
        <ele>99</ele>
        <time>2012-08-22T18:54:22Z</time>
      </trkpt>
      <trkpt lat="50.40922" lon="2.00631">
        <ele>98</ele>
        <time>2012-08-22T18:54:24Z</time>
      </trkpt>
      <trkpt lat="50.40919" lon="2.00617">
        <ele>97</ele>
        <time>2012-08-22T18:54:26Z</time>
      </trkpt>
      <trkpt lat="50.40915" lon="2.00603">
        <ele>98</ele>
        <time>2012-08-22T18:54:28Z</time>
      </trkpt>
      <trkpt lat="50.4091" lon="2.00589">
        <ele>99</ele>
        <time>2012-08-22T18:54:30Z</time>
      </trkpt>
      <trkpt lat="50.40905" lon="2.00577">
        <ele>99</ele>
        <time>2012-08-22T18:54:32Z</time>
      </trkpt>
      <trkpt lat="50.40902" lon="2.00564">
        <ele>98</ele>
        <time>2012-08-22T18:54:34Z</time>
      </trkpt>
      <trkpt lat="50.40898" lon="2.00553">
        <ele>98</ele>
        <time>2012-08-22T18:54:36Z</time>
      </trkpt>
      <trkpt lat="50.40894" lon="2.00542">
        <ele>99</ele>
        <time>2012-08-22T18:54:38Z</time>
      </trkpt>
      <trkpt lat="50.40891" lon="2.00529">
        <ele>98</ele>
        <time>2012-08-22T18:54:40Z</time>
      </trkpt>
      <trkpt lat="50.40888" lon="2.00517">
        <ele>99</ele>
        <time>2012-08-22T18:54:42Z</time>
      </trkpt>
      <trkpt lat="50.40884" lon="2.00506">
        <ele>99</ele>
        <time>2012-08-22T18:54:44Z</time>
      </trkpt>
      <trkpt lat="50.4088" lon="2.00495">
        <ele>100</ele>
        <time>2012-08-22T18:54:46Z</time>
      </trkpt>
      <trkpt lat="50.40876" lon="2.00483">
        <ele>99</ele>
        <time>2012-08-22T18:54:48Z</time>
      </trkpt>
      <trkpt lat="50.40873" lon="2.00472">
        <ele>99</ele>
        <time>2012-08-22T18:54:50Z</time>
      </trkpt>
      <trkpt lat="50.4087" lon="2.0046">
        <ele>97</ele>
        <time>2012-08-22T18:54:52Z</time>
      </trkpt>
      <trkpt lat="50.40869" lon="2.00448">
        <ele>97</ele>
        <time>2012-08-22T18:54:54Z</time>
      </trkpt>
      <trkpt lat="50.40869" lon="2.00436">
        <ele>96</ele>
        <time>2012-08-22T18:54:56Z</time>
      </trkpt>
      <trkpt lat="50.40876" lon="2.00427">
        <ele>96</ele>
        <time>2012-08-22T18:54:58Z</time>
      </trkpt>
      <trkpt lat="50.40885" lon="2.0042">
        <ele>96</ele>
        <time>2012-08-22T18:55:00Z</time>
      </trkpt>
      <trkpt lat="50.40893" lon="2.00411">
        <ele>96</ele>
        <time>2012-08-22T18:55:02Z</time>
      </trkpt>
      <trkpt lat="50.40902" lon="2.00402">
        <ele>96</ele>
        <time>2012-08-22T18:55:04Z</time>
      </trkpt>
      <trkpt lat="50.40909" lon="2.00393">
        <ele>96</ele>
        <time>2012-08-22T18:55:06Z</time>
      </trkpt>
      <trkpt lat="50.40916" lon="2.00383">
        <ele>96</ele>
        <time>2012-08-22T18:55:08Z</time>
      </trkpt>
      <trkpt lat="50.40923" lon="2.0037">
        <ele>96</ele>
        <time>2012-08-22T18:55:10Z</time>
      </trkpt>
      <trkpt lat="50.40932" lon="2.00359">
        <ele>96</ele>
        <time>2012-08-22T18:55:12Z</time>
      </trkpt>
      <trkpt lat="50.4094" lon="2.00346">
        <ele>95</ele>
        <time>2012-08-22T18:55:14Z</time>
      </trkpt>
      <trkpt lat="50.40947" lon="2.00331">
        <ele>93</ele>
        <time>2012-08-22T18:55:16Z</time>
      </trkpt>
      <trkpt lat="50.40955" lon="2.00316">
        <ele>90</ele>
        <time>2012-08-22T18:55:18Z</time>
      </trkpt>
      <trkpt lat="50.40965" lon="2.00301">
        <ele>88</ele>
        <time>2012-08-22T18:55:20Z</time>
      </trkpt>
      <trkpt lat="50.40974" lon="2.00286">
        <ele>87</ele>
        <time>2012-08-22T18:55:22Z</time>
      </trkpt>
      <trkpt lat="50.40983" lon="2.00271">
        <ele>85</ele>
        <time>2012-08-22T18:55:24Z</time>
      </trkpt>
      <trkpt lat="50.40993" lon="2.00256">
        <ele>84</ele>
        <time>2012-08-22T18:55:26Z</time>
      </trkpt>
      <trkpt lat="50.41002" lon="2.00244">
        <ele>81</ele>
        <time>2012-08-22T18:55:28Z</time>
      </trkpt>
      <trkpt lat="50.41009" lon="2.0023">
        <ele>81</ele>
        <time>2012-08-22T18:55:30Z</time>
      </trkpt>
      <trkpt lat="50.41015" lon="2.00217">
        <ele>79</ele>
        <time>2012-08-22T18:55:32Z</time>
      </trkpt>
      <trkpt lat="50.41016" lon="2.00201">
        <ele>80</ele>
        <time>2012-08-22T18:55:34Z</time>
      </trkpt>
      <trkpt lat="50.41018" lon="2.00182">
        <ele>80</ele>
        <time>2012-08-22T18:55:36Z</time>
      </trkpt>
      <trkpt lat="50.41017" lon="2.00162">
        <ele>80</ele>
        <time>2012-08-22T18:55:38Z</time>
      </trkpt>
      <trkpt lat="50.41018" lon="2.00141">
        <ele>81</ele>
        <time>2012-08-22T18:55:40Z</time>
      </trkpt>
      <trkpt lat="50.41018" lon="2.00119">
        <ele>82</ele>
        <time>2012-08-22T18:55:42Z</time>
      </trkpt>
      <trkpt lat="50.41018" lon="2.00101">
        <ele>81</ele>
        <time>2012-08-22T18:55:44Z</time>
      </trkpt>
      <trkpt lat="50.41018" lon="2.00083">
        <ele>81</ele>
        <time>2012-08-22T18:55:46Z</time>
      </trkpt>
      <trkpt lat="50.41017" lon="2.00062">
        <ele>80</ele>
        <time>2012-08-22T18:55:48Z</time>
      </trkpt>
      <trkpt lat="50.41017" lon="2.00043">
        <ele>78</ele>
        <time>2012-08-22T18:55:50Z</time>
      </trkpt>
      <trkpt lat="50.41016" lon="2.00025">
        <ele>78</ele>
        <time>2012-08-22T18:55:52Z</time>
      </trkpt>
      <trkpt lat="50.41016" lon="2.0001">
        <ele>78</ele>
        <time>2012-08-22T18:55:54Z</time>
      </trkpt>
      <trkpt lat="50.41016" lon="2.00001">
        <ele>78</ele>
        <time>2012-08-22T18:55:56Z</time>
      </trkpt>
      <trkpt lat="50.41018" lon="1.99992">
        <ele>78</ele>
        <time>2012-08-22T18:55:58Z</time>
      </trkpt>
      <trkpt lat="50.41026" lon="1.99986">
        <ele>75</ele>
        <time>2012-08-22T18:56:00Z</time>
      </trkpt>
      <trkpt lat="50.41034" lon="1.99979">
        <ele>72</ele>
        <time>2012-08-22T18:56:02Z</time>
      </trkpt>
      <trkpt lat="50.41047" lon="1.99973">
        <ele>70</ele>
        <time>2012-08-22T18:56:04Z</time>
      </trkpt>
      <trkpt lat="50.41056" lon="1.99969">
        <ele>69</ele>
        <time>2012-08-22T18:56:06Z</time>
      </trkpt>
      <trkpt lat="50.41064" lon="1.99963">
        <ele>66</ele>
        <time>2012-08-22T18:56:08Z</time>
      </trkpt>
      <trkpt lat="50.41073" lon="1.99958">
        <ele>65</ele>
        <time>2012-08-22T18:56:10Z</time>
      </trkpt>
      <trkpt lat="50.41085" lon="1.99951">
        <ele>64</ele>
        <time>2012-08-22T18:56:12Z</time>
      </trkpt>
      <trkpt lat="50.41096" lon="1.99943">
        <ele>64</ele>
        <time>2012-08-22T18:56:14Z</time>
      </trkpt>
      <trkpt lat="50.41114" lon="1.99932">
        <ele>64</ele>
        <time>2012-08-22T18:56:16Z</time>
      </trkpt>
      <trkpt lat="50.41134" lon="1.9992">
        <ele>63</ele>
        <time>2012-08-22T18:56:18Z</time>
      </trkpt>
      <trkpt lat="50.41156" lon="1.99915">
        <ele>62</ele>
        <time>2012-08-22T18:56:20Z</time>
      </trkpt>
      <trkpt lat="50.41176" lon="1.99914">
        <ele>61</ele>
        <time>2012-08-22T18:56:22Z</time>
      </trkpt>
      <trkpt lat="50.41195" lon="1.99923">
        <ele>62</ele>
        <time>2012-08-22T18:56:24Z</time>
      </trkpt>
      <trkpt lat="50.41214" lon="1.99933">
        <ele>59</ele>
        <time>2012-08-22T18:56:26Z</time>
      </trkpt>
      <trkpt lat="50.41229" lon="1.99949">
        <ele>56</ele>
        <time>2012-08-22T18:56:28Z</time>
      </trkpt>
      <trkpt lat="50.41245" lon="1.99967">
        <ele>55</ele>
        <time>2012-08-22T18:56:30Z</time>
      </trkpt>
      <trkpt lat="50.41259" lon="1.99985">
        <ele>55</ele>
        <time>2012-08-22T18:56:32Z</time>
      </trkpt>
      <trkpt lat="50.41276" lon="2.00005">
        <ele>54</ele>
        <time>2012-08-22T18:56:34Z</time>
      </trkpt>
      <trkpt lat="50.41297" lon="2.00019">
        <ele>54</ele>
        <time>2012-08-22T18:56:36Z</time>
      </trkpt>
      <trkpt lat="50.41316" lon="2.00032">
        <ele>54</ele>
        <time>2012-08-22T18:56:38Z</time>
      </trkpt>
      <trkpt lat="50.41336" lon="2.00045">
        <ele>54</ele>
        <time>2012-08-22T18:56:40Z</time>
      </trkpt>
      <trkpt lat="50.41356" lon="2.00056">
        <ele>53</ele>
        <time>2012-08-22T18:56:42Z</time>
      </trkpt>
      <trkpt lat="50.41376" lon="2.00069">
        <ele>53</ele>
        <time>2012-08-22T18:56:44Z</time>
      </trkpt>
      <trkpt lat="50.41395" lon="2.00079">
        <ele>52</ele>
        <time>2012-08-22T18:56:46Z</time>
      </trkpt>
      <trkpt lat="50.41413" lon="2.00091">
        <ele>52</ele>
        <time>2012-08-22T18:56:48Z</time>
      </trkpt>
      <trkpt lat="50.41427" lon="2.00105">
        <ele>52</ele>
        <time>2012-08-22T18:56:50Z</time>
      </trkpt>
      <trkpt lat="50.41438" lon="2.0011">
        <ele>52</ele>
        <time>2012-08-22T18:56:52Z</time>
      </trkpt>
      <trkpt lat="50.41448" lon="2.00113">
        <ele>54</ele>
        <time>2012-08-22T18:56:54Z</time>
      </trkpt>
      <trkpt lat="50.41454" lon="2.00116">
        <ele>54</ele>
        <time>2012-08-22T18:56:56Z</time>
      </trkpt>
      <trkpt lat="50.41452" lon="2.00116">
        <ele>53</ele>
        <time>2012-08-22T18:57:00Z</time>
      </trkpt>
      <trkpt lat="50.41451" lon="2.00116">
        <ele>53</ele>
        <time>2012-08-22T18:57:02Z</time>
      </trkpt>
      <trkpt lat="50.41451" lon="2.00117">
        <ele>53</ele>
        <time>2012-08-22T18:57:04Z</time>
      </trkpt>
      <trkpt lat="50.41452" lon="2.00116">
        <ele>51</ele>
        <time>2012-08-22T18:57:10Z</time>
      </trkpt>
      <trkpt lat="50.41454" lon="2.00113">
        <ele>51</ele>
        <time>2012-08-22T18:57:12Z</time>
      </trkpt>
      <trkpt lat="50.41453" lon="2.00102">
        <ele>51</ele>
        <time>2012-08-22T18:57:14Z</time>
      </trkpt>
      <trkpt lat="50.41445" lon="2.00077">
        <ele>51</ele>
        <time>2012-08-22T18:57:16Z</time>
      </trkpt>
      <trkpt lat="50.41441" lon="2.00063">
        <ele>52</ele>
        <time>2012-08-22T18:57:18Z</time>
      </trkpt>
      <trkpt lat="50.41437" lon="2.00049">
        <ele>51</ele>
        <time>2012-08-22T18:57:20Z</time>
      </trkpt>
      <trkpt lat="50.41433" lon="2.00032">
        <ele>50</ele>
        <time>2012-08-22T18:57:22Z</time>
      </trkpt>
      <trkpt lat="50.41429" lon="2.00016">
        <ele>50</ele>
        <time>2012-08-22T18:57:24Z</time>
      </trkpt>
      <trkpt lat="50.41426" lon="1.99997">
        <ele>50</ele>
        <time>2012-08-22T18:57:26Z</time>
      </trkpt>
      <trkpt lat="50.41421" lon="1.99979">
        <ele>50</ele>
        <time>2012-08-22T18:57:28Z</time>
      </trkpt>
      <trkpt lat="50.41417" lon="1.99962">
        <ele>50</ele>
        <time>2012-08-22T18:57:30Z</time>
      </trkpt>
      <trkpt lat="50.41414" lon="1.99945">
        <ele>51</ele>
        <time>2012-08-22T18:57:32Z</time>
      </trkpt>
      <trkpt lat="50.41409" lon="1.99929">
        <ele>48</ele>
        <time>2012-08-22T18:57:34Z</time>
      </trkpt>
      <trkpt lat="50.41406" lon="1.99913">
        <ele>47</ele>
        <time>2012-08-22T18:57:36Z</time>
      </trkpt>
      <trkpt lat="50.41401" lon="1.99895">
        <ele>46</ele>
        <time>2012-08-22T18:57:38Z</time>
      </trkpt>
      <trkpt lat="50.41398" lon="1.99878">
        <ele>45</ele>
        <time>2012-08-22T18:57:40Z</time>
      </trkpt>
      <trkpt lat="50.41393" lon="1.9986">
        <ele>47</ele>
        <time>2012-08-22T18:57:42Z</time>
      </trkpt>
      <trkpt lat="50.41387" lon="1.99844">
        <ele>46</ele>
        <time>2012-08-22T18:57:44Z</time>
      </trkpt>
      <trkpt lat="50.41383" lon="1.99829">
        <ele>45</ele>
        <time>2012-08-22T18:57:46Z</time>
      </trkpt>
      <trkpt lat="50.41379" lon="1.99815">
        <ele>45</ele>
        <time>2012-08-22T18:57:48Z</time>
      </trkpt>
      <trkpt lat="50.41374" lon="1.99801">
        <ele>45</ele>
        <time>2012-08-22T18:57:50Z</time>
      </trkpt>
      <trkpt lat="50.41369" lon="1.99787">
        <ele>47</ele>
        <time>2012-08-22T18:57:52Z</time>
      </trkpt>
      <trkpt lat="50.41366" lon="1.99773">
        <ele>48</ele>
        <time>2012-08-22T18:57:54Z</time>
      </trkpt>
      <trkpt lat="50.41362" lon="1.9976">
        <ele>48</ele>
        <time>2012-08-22T18:57:56Z</time>
      </trkpt>
      <trkpt lat="50.41358" lon="1.99748">
        <ele>49</ele>
        <time>2012-08-22T18:57:58Z</time>
      </trkpt>
      <trkpt lat="50.41354" lon="1.99736">
        <ele>50</ele>
        <time>2012-08-22T18:58:00Z</time>
      </trkpt>
      <trkpt lat="50.41349" lon="1.99723">
        <ele>49</ele>
        <time>2012-08-22T18:58:02Z</time>
      </trkpt>
      <trkpt lat="50.41345" lon="1.99712">
        <ele>49</ele>
        <time>2012-08-22T18:58:04Z</time>
      </trkpt>
      <trkpt lat="50.41339" lon="1.99702">
        <ele>49</ele>
        <time>2012-08-22T18:58:06Z</time>
      </trkpt>
      <trkpt lat="50.41333" lon="1.99693">
        <ele>49</ele>
        <time>2012-08-22T18:58:08Z</time>
      </trkpt>
      <trkpt lat="50.41329" lon="1.99683">
        <ele>50</ele>
        <time>2012-08-22T18:58:10Z</time>
      </trkpt>
      <trkpt lat="50.41324" lon="1.99673">
        <ele>51</ele>
        <time>2012-08-22T18:58:12Z</time>
      </trkpt>
      <trkpt lat="50.41319" lon="1.99663">
        <ele>53</ele>
        <time>2012-08-22T18:58:14Z</time>
      </trkpt>
      <trkpt lat="50.41315" lon="1.99652">
        <ele>53</ele>
        <time>2012-08-22T18:58:16Z</time>
      </trkpt>
      <trkpt lat="50.4131" lon="1.9964">
        <ele>52</ele>
        <time>2012-08-22T18:58:18Z</time>
      </trkpt>
      <trkpt lat="50.41305" lon="1.99628">
        <ele>51</ele>
        <time>2012-08-22T18:58:20Z</time>
      </trkpt>
      <trkpt lat="50.41301" lon="1.99614">
        <ele>50</ele>
        <time>2012-08-22T18:58:22Z</time>
      </trkpt>
      <trkpt lat="50.41297" lon="1.99601">
        <ele>49</ele>
        <time>2012-08-22T18:58:24Z</time>
      </trkpt>
      <trkpt lat="50.41295" lon="1.99589">
        <ele>49</ele>
        <time>2012-08-22T18:58:26Z</time>
      </trkpt>
      <trkpt lat="50.41292" lon="1.99576">
        <ele>48</ele>
        <time>2012-08-22T18:58:28Z</time>
      </trkpt>
      <trkpt lat="50.41288" lon="1.99563">
        <ele>47</ele>
        <time>2012-08-22T18:58:30Z</time>
      </trkpt>
      <trkpt lat="50.41284" lon="1.99553">
        <ele>47</ele>
        <time>2012-08-22T18:58:32Z</time>
      </trkpt>
      <trkpt lat="50.41281" lon="1.99542">
        <ele>47</ele>
        <time>2012-08-22T18:58:34Z</time>
      </trkpt>
      <trkpt lat="50.41279" lon="1.99528">
        <ele>48</ele>
        <time>2012-08-22T18:58:36Z</time>
      </trkpt>
      <trkpt lat="50.41277" lon="1.99513">
        <ele>45</ele>
        <time>2012-08-22T18:58:38Z</time>
      </trkpt>
      <trkpt lat="50.41274" lon="1.99502">
        <ele>46</ele>
        <time>2012-08-22T18:58:40Z</time>
      </trkpt>
      <trkpt lat="50.41272" lon="1.9949">
        <ele>45</ele>
        <time>2012-08-22T18:58:42Z</time>
      </trkpt>
      <trkpt lat="50.41269" lon="1.99476">
        <ele>45</ele>
        <time>2012-08-22T18:58:44Z</time>
      </trkpt>
      <trkpt lat="50.41266" lon="1.99462">
        <ele>44</ele>
        <time>2012-08-22T18:58:46Z</time>
      </trkpt>
      <trkpt lat="50.41262" lon="1.99447">
        <ele>43</ele>
        <time>2012-08-22T18:58:48Z</time>
      </trkpt>
      <trkpt lat="50.41258" lon="1.99431">
        <ele>42</ele>
        <time>2012-08-22T18:58:50Z</time>
      </trkpt>
      <trkpt lat="50.41253" lon="1.99415">
        <ele>42</ele>
        <time>2012-08-22T18:58:52Z</time>
      </trkpt>
      <trkpt lat="50.41247" lon="1.99399">
        <ele>41</ele>
        <time>2012-08-22T18:58:54Z</time>
      </trkpt>
      <trkpt lat="50.41241" lon="1.99386">
        <ele>42</ele>
        <time>2012-08-22T18:58:56Z</time>
      </trkpt>
      <trkpt lat="50.41234" lon="1.99372">
        <ele>40</ele>
        <time>2012-08-22T18:58:58Z</time>
      </trkpt>
      <trkpt lat="50.41227" lon="1.99358">
        <ele>42</ele>
        <time>2012-08-22T18:59:00Z</time>
      </trkpt>
      <trkpt lat="50.41226" lon="1.9934">
        <ele>42</ele>
        <time>2012-08-22T18:59:02Z</time>
      </trkpt>
      <trkpt lat="50.41229" lon="1.99324">
        <ele>43</ele>
        <time>2012-08-22T18:59:04Z</time>
      </trkpt>
      <trkpt lat="50.41236" lon="1.9931">
        <ele>43</ele>
        <time>2012-08-22T18:59:06Z</time>
      </trkpt>
      <trkpt lat="50.41242" lon="1.99304">
        <ele>42</ele>
        <time>2012-08-22T18:59:08Z</time>
      </trkpt>
      <trkpt lat="50.41248" lon="1.99304">
        <ele>42</ele>
        <time>2012-08-22T18:59:10Z</time>
      </trkpt>
      <trkpt lat="50.41254" lon="1.99309">
        <ele>39</ele>
        <time>2012-08-22T18:59:12Z</time>
      </trkpt>
      <trkpt lat="50.4126" lon="1.99316">
        <ele>38</ele>
        <time>2012-08-22T18:59:14Z</time>
      </trkpt>
      <trkpt lat="50.41267" lon="1.99322">
        <ele>37</ele>
        <time>2012-08-22T18:59:16Z</time>
      </trkpt>
      <trkpt lat="50.41274" lon="1.99323">
        <ele>36</ele>
        <time>2012-08-22T18:59:18Z</time>
      </trkpt>
      <trkpt lat="50.41281" lon="1.99307">
        <ele>34</ele>
        <time>2012-08-22T18:59:20Z</time>
      </trkpt>
      <trkpt lat="50.41288" lon="1.99295">
        <ele>34</ele>
        <time>2012-08-22T18:59:22Z</time>
      </trkpt>
      <trkpt lat="50.41295" lon="1.99284">
        <ele>33</ele>
        <time>2012-08-22T18:59:24Z</time>
      </trkpt>
      <trkpt lat="50.41303" lon="1.99273">
        <ele>34</ele>
        <time>2012-08-22T18:59:26Z</time>
      </trkpt>
      <trkpt lat="50.41309" lon="1.99265">
        <ele>33</ele>
        <time>2012-08-22T18:59:28Z</time>
      </trkpt>
      <trkpt lat="50.41314" lon="1.9926">
        <ele>34</ele>
        <time>2012-08-22T18:59:30Z</time>
      </trkpt>
      <trkpt lat="50.41319" lon="1.99251">
        <ele>33</ele>
        <time>2012-08-22T18:59:32Z</time>
      </trkpt>
      <trkpt lat="50.41325" lon="1.99242">
        <ele>33</ele>
        <time>2012-08-22T18:59:34Z</time>
      </trkpt>
      <trkpt lat="50.41331" lon="1.99234">
        <ele>31</ele>
        <time>2012-08-22T18:59:36Z</time>
      </trkpt>
      <trkpt lat="50.41336" lon="1.99226">
        <ele>30</ele>
        <time>2012-08-22T18:59:38Z</time>
      </trkpt>
      <trkpt lat="50.41343" lon="1.99215">
        <ele>30</ele>
        <time>2012-08-22T18:59:40Z</time>
      </trkpt>
      <trkpt lat="50.41349" lon="1.99205">
        <ele>30</ele>
        <time>2012-08-22T18:59:42Z</time>
      </trkpt>
      <trkpt lat="50.41357" lon="1.99195">
        <ele>29</ele>
        <time>2012-08-22T18:59:44Z</time>
      </trkpt>
      <trkpt lat="50.41365" lon="1.99183">
        <ele>29</ele>
        <time>2012-08-22T18:59:46Z</time>
      </trkpt>
      <trkpt lat="50.41373" lon="1.99171">
        <ele>29</ele>
        <time>2012-08-22T18:59:48Z</time>
      </trkpt>
      <trkpt lat="50.41383" lon="1.9916">
        <ele>29</ele>
        <time>2012-08-22T18:59:50Z</time>
      </trkpt>
      <trkpt lat="50.41389" lon="1.99146">
        <ele>29</ele>
        <time>2012-08-22T18:59:52Z</time>
      </trkpt>
      <trkpt lat="50.41398" lon="1.99137">
        <ele>27</ele>
        <time>2012-08-22T18:59:54Z</time>
      </trkpt>
      <trkpt lat="50.41402" lon="1.99122">
        <ele>26</ele>
        <time>2012-08-22T18:59:56Z</time>
      </trkpt>
      <trkpt lat="50.41403" lon="1.99108">
        <ele>25</ele>
        <time>2012-08-22T18:59:58Z</time>
      </trkpt>
      <trkpt lat="50.41398" lon="1.99094">
        <ele>24</ele>
        <time>2012-08-22T19:00:00Z</time>
      </trkpt>
      <trkpt lat="50.41391" lon="1.99083">
        <ele>26</ele>
        <time>2012-08-22T19:00:02Z</time>
      </trkpt>
      <trkpt lat="50.41385" lon="1.99073">
        <ele>25</ele>
        <time>2012-08-22T19:00:04Z</time>
      </trkpt>
      <trkpt lat="50.41377" lon="1.99065">
        <ele>26</ele>
        <time>2012-08-22T19:00:06Z</time>
      </trkpt>
      <trkpt lat="50.41369" lon="1.99057">
        <ele>26</ele>
        <time>2012-08-22T19:00:08Z</time>
      </trkpt>
      <trkpt lat="50.41362" lon="1.99046">
        <ele>26</ele>
        <time>2012-08-22T19:00:10Z</time>
      </trkpt>
      <trkpt lat="50.41356" lon="1.99036">
        <ele>26</ele>
        <time>2012-08-22T19:00:12Z</time>
      </trkpt>
      <trkpt lat="50.4135" lon="1.99023">
        <ele>27</ele>
        <time>2012-08-22T19:00:14Z</time>
      </trkpt>
      <trkpt lat="50.41349" lon="1.99007">
        <ele>27</ele>
        <time>2012-08-22T19:00:16Z</time>
      </trkpt>
      <trkpt lat="50.41349" lon="1.9899">
        <ele>28</ele>
        <time>2012-08-22T19:00:18Z</time>
      </trkpt>
      <trkpt lat="50.41349" lon="1.98975">
        <ele>27</ele>
        <time>2012-08-22T19:00:20Z</time>
      </trkpt>
      <trkpt lat="50.41349" lon="1.98959">
        <ele>27</ele>
        <time>2012-08-22T19:00:22Z</time>
      </trkpt>
      <trkpt lat="50.41349" lon="1.98943">
        <ele>27</ele>
        <time>2012-08-22T19:00:24Z</time>
      </trkpt>
      <trkpt lat="50.4135" lon="1.9893">
        <ele>28</ele>
        <time>2012-08-22T19:00:26Z</time>
      </trkpt>
      <trkpt lat="50.4135" lon="1.98917">
        <ele>28</ele>
        <time>2012-08-22T19:00:28Z</time>
      </trkpt>
      <trkpt lat="50.41351" lon="1.98903">
        <ele>27</ele>
        <time>2012-08-22T19:00:30Z</time>
      </trkpt>
      <trkpt lat="50.41352" lon="1.98887">
        <ele>28</ele>
        <time>2012-08-22T19:00:32Z</time>
      </trkpt>
      <trkpt lat="50.41362" lon="1.9888">
        <ele>30</ele>
        <time>2012-08-22T19:00:34Z</time>
      </trkpt>
      <trkpt lat="50.41371" lon="1.98881">
        <ele>30</ele>
        <time>2012-08-22T19:00:36Z</time>
      </trkpt>
      <trkpt lat="50.41379" lon="1.98889">
        <ele>32</ele>
        <time>2012-08-22T19:00:38Z</time>
      </trkpt>
      <trkpt lat="50.41386" lon="1.98898">
        <ele>32</ele>
        <time>2012-08-22T19:00:40Z</time>
      </trkpt>
      <trkpt lat="50.41393" lon="1.98905">
        <ele>33</ele>
        <time>2012-08-22T19:00:42Z</time>
      </trkpt>
      <trkpt lat="50.414" lon="1.98914">
        <ele>33</ele>
        <time>2012-08-22T19:00:44Z</time>
      </trkpt>
      <trkpt lat="50.41407" lon="1.98921">
        <ele>32</ele>
        <time>2012-08-22T19:00:46Z</time>
      </trkpt>
      <trkpt lat="50.41414" lon="1.98925">
        <ele>32</ele>
        <time>2012-08-22T19:00:48Z</time>
      </trkpt>
      <trkpt lat="50.41423" lon="1.98928">
        <ele>33</ele>
        <time>2012-08-22T19:00:50Z</time>
      </trkpt>
      <trkpt lat="50.41432" lon="1.98933">
        <ele>32</ele>
        <time>2012-08-22T19:00:52Z</time>
      </trkpt>
      <trkpt lat="50.41441" lon="1.98935">
        <ele>32</ele>
        <time>2012-08-22T19:00:54Z</time>
      </trkpt>
      <trkpt lat="50.41449" lon="1.98939">
        <ele>32</ele>
        <time>2012-08-22T19:00:56Z</time>
      </trkpt>
      <trkpt lat="50.41455" lon="1.98942">
        <ele>31</ele>
        <time>2012-08-22T19:00:58Z</time>
      </trkpt>
      <trkpt lat="50.41462" lon="1.98945">
        <ele>31</ele>
        <time>2012-08-22T19:01:00Z</time>
      </trkpt>
      <trkpt lat="50.41468" lon="1.98949">
        <ele>32</ele>
        <time>2012-08-22T19:01:02Z</time>
      </trkpt>
      <trkpt lat="50.41475" lon="1.98953">
        <ele>32</ele>
        <time>2012-08-22T19:01:04Z</time>
      </trkpt>
      <trkpt lat="50.41481" lon="1.98956">
        <ele>33</ele>
        <time>2012-08-22T19:01:06Z</time>
      </trkpt>
      <trkpt lat="50.41488" lon="1.98957">
        <ele>33</ele>
        <time>2012-08-22T19:01:08Z</time>
      </trkpt>
      <trkpt lat="50.41495" lon="1.98952">
        <ele>32</ele>
        <time>2012-08-22T19:01:10Z</time>
      </trkpt>
      <trkpt lat="50.41502" lon="1.98946">
        <ele>31</ele>
        <time>2012-08-22T19:01:12Z</time>
      </trkpt>
      <trkpt lat="50.41511" lon="1.98947">
        <ele>31</ele>
        <time>2012-08-22T19:01:14Z</time>
      </trkpt>
      <trkpt lat="50.41518" lon="1.98957">
        <ele>31</ele>
        <time>2012-08-22T19:01:16Z</time>
      </trkpt>
      <trkpt lat="50.41523" lon="1.9897">
        <ele>31</ele>
        <time>2012-08-22T19:01:18Z</time>
      </trkpt>
      <trkpt lat="50.41528" lon="1.9898">
        <ele>31</ele>
        <time>2012-08-22T19:01:20Z</time>
      </trkpt>
      <trkpt lat="50.41534" lon="1.98991">
        <ele>30</ele>
        <time>2012-08-22T19:01:22Z</time>
      </trkpt>
      <trkpt lat="50.4154" lon="1.99003">
        <ele>28</ele>
        <time>2012-08-22T19:01:24Z</time>
      </trkpt>
      <trkpt lat="50.41546" lon="1.99014">
        <ele>30</ele>
        <time>2012-08-22T19:01:26Z</time>
      </trkpt>
      <trkpt lat="50.41551" lon="1.99024">
        <ele>30</ele>
        <time>2012-08-22T19:01:28Z</time>
      </trkpt>
      <trkpt lat="50.41557" lon="1.99034">
        <ele>30</ele>
        <time>2012-08-22T19:01:30Z</time>
      </trkpt>
      <trkpt lat="50.41562" lon="1.99044">
        <ele>30</ele>
        <time>2012-08-22T19:01:32Z</time>
      </trkpt>
      <trkpt lat="50.41566" lon="1.99052">
        <ele>29</ele>
        <time>2012-08-22T19:01:34Z</time>
      </trkpt>
      <trkpt lat="50.4157" lon="1.99059">
        <ele>29</ele>
        <time>2012-08-22T19:01:36Z</time>
      </trkpt>
      <trkpt lat="50.41574" lon="1.99066">
        <ele>29</ele>
        <time>2012-08-22T19:01:38Z</time>
      </trkpt>
      <trkpt lat="50.41576" lon="1.99074">
        <ele>30</ele>
        <time>2012-08-22T19:01:40Z</time>
      </trkpt>
      <trkpt lat="50.41576" lon="1.99083">
        <ele>30</ele>
        <time>2012-08-22T19:01:42Z</time>
      </trkpt>
      <trkpt lat="50.41572" lon="1.99093">
        <ele>30</ele>
        <time>2012-08-22T19:01:44Z</time>
      </trkpt>
      <trkpt lat="50.41571" lon="1.99103">
        <ele>29</ele>
        <time>2012-08-22T19:01:46Z</time>
      </trkpt>
      <trkpt lat="50.41573" lon="1.9911">
        <ele>29</ele>
        <time>2012-08-22T19:01:48Z</time>
      </trkpt>
      <trkpt lat="50.41575" lon="1.99118">
        <ele>29</ele>
        <time>2012-08-22T19:01:50Z</time>
      </trkpt>
      <trkpt lat="50.41579" lon="1.99126">
        <ele>30</ele>
        <time>2012-08-22T19:01:52Z</time>
      </trkpt>
      <trkpt lat="50.41584" lon="1.99136">
        <ele>32</ele>
        <time>2012-08-22T19:01:54Z</time>
      </trkpt>
      <trkpt lat="50.41588" lon="1.99147">
        <ele>32</ele>
        <time>2012-08-22T19:01:56Z</time>
      </trkpt>
      <trkpt lat="50.4159" lon="1.99158">
        <ele>32</ele>
        <time>2012-08-22T19:01:58Z</time>
      </trkpt>
      <trkpt lat="50.41591" lon="1.99169">
        <ele>32</ele>
        <time>2012-08-22T19:02:00Z</time>
      </trkpt>
      <trkpt lat="50.41593" lon="1.9918">
        <ele>31</ele>
        <time>2012-08-22T19:02:02Z</time>
      </trkpt>
      <trkpt lat="50.41595" lon="1.99191">
        <ele>33</ele>
        <time>2012-08-22T19:02:04Z</time>
      </trkpt>
      <trkpt lat="50.41597" lon="1.992">
        <ele>33</ele>
        <time>2012-08-22T19:02:06Z</time>
      </trkpt>
      <trkpt lat="50.41599" lon="1.99208">
        <ele>34</ele>
        <time>2012-08-22T19:02:08Z</time>
      </trkpt>
      <trkpt lat="50.416" lon="1.99215">
        <ele>34</ele>
        <time>2012-08-22T19:02:10Z</time>
      </trkpt>
      <trkpt lat="50.41604" lon="1.99223">
        <ele>34</ele>
        <time>2012-08-22T19:02:12Z</time>
      </trkpt>
      <trkpt lat="50.41606" lon="1.99232">
        <ele>34</ele>
        <time>2012-08-22T19:02:14Z</time>
      </trkpt>
      <trkpt lat="50.41607" lon="1.99238">
        <ele>34</ele>
        <time>2012-08-22T19:02:16Z</time>
      </trkpt>
      <trkpt lat="50.41609" lon="1.99244">
        <ele>33</ele>
        <time>2012-08-22T19:02:18Z</time>
      </trkpt>
      <trkpt lat="50.41612" lon="1.99252">
        <ele>33</ele>
        <time>2012-08-22T19:02:20Z</time>
      </trkpt>
      <trkpt lat="50.41616" lon="1.99262">
        <ele>31</ele>
        <time>2012-08-22T19:02:22Z</time>
      </trkpt>
      <trkpt lat="50.4162" lon="1.99272">
        <ele>30</ele>
        <time>2012-08-22T19:02:24Z</time>
      </trkpt>
      <trkpt lat="50.41626" lon="1.99279">
        <ele>30</ele>
        <time>2012-08-22T19:02:26Z</time>
      </trkpt>
      <trkpt lat="50.41632" lon="1.99285">
        <ele>32</ele>
        <time>2012-08-22T19:02:28Z</time>
      </trkpt>
      <trkpt lat="50.41639" lon="1.99288">
        <ele>32</ele>
        <time>2012-08-22T19:02:30Z</time>
      </trkpt>
      <trkpt lat="50.41646" lon="1.99291">
        <ele>34</ele>
        <time>2012-08-22T19:02:32Z</time>
      </trkpt>
      <trkpt lat="50.41653" lon="1.99294">
        <ele>33</ele>
        <time>2012-08-22T19:02:34Z</time>
      </trkpt>
      <trkpt lat="50.41661" lon="1.99297">
        <ele>33</ele>
        <time>2012-08-22T19:02:36Z</time>
      </trkpt>
      <trkpt lat="50.41673" lon="1.99299">
        <ele>33</ele>
        <time>2012-08-22T19:02:38Z</time>
      </trkpt>
      <trkpt lat="50.41682" lon="1.99299">
        <ele>32</ele>
        <time>2012-08-22T19:02:40Z</time>
      </trkpt>
      <trkpt lat="50.41689" lon="1.99301">
        <ele>32</ele>
        <time>2012-08-22T19:02:42Z</time>
      </trkpt>
      <trkpt lat="50.41696" lon="1.993">
        <ele>31</ele>
        <time>2012-08-22T19:02:44Z</time>
      </trkpt>
      <trkpt lat="50.41703" lon="1.99302">
        <ele>31</ele>
        <time>2012-08-22T19:02:46Z</time>
      </trkpt>
      <trkpt lat="50.41707" lon="1.99304">
        <ele>33</ele>
        <time>2012-08-22T19:02:48Z</time>
      </trkpt>
      <trkpt lat="50.41711" lon="1.99307">
        <ele>33</ele>
        <time>2012-08-22T19:02:50Z</time>
      </trkpt>
      <trkpt lat="50.41716" lon="1.99309">
        <ele>35</ele>
        <time>2012-08-22T19:02:52Z</time>
      </trkpt>
      <trkpt lat="50.41721" lon="1.99311">
        <ele>34</ele>
        <time>2012-08-22T19:02:54Z</time>
      </trkpt>
      <trkpt lat="50.41727" lon="1.99315">
        <ele>33</ele>
        <time>2012-08-22T19:02:56Z</time>
      </trkpt>
      <trkpt lat="50.41734" lon="1.99321">
        <ele>31</ele>
        <time>2012-08-22T19:02:58Z</time>
      </trkpt>
      <trkpt lat="50.41741" lon="1.99328">
        <ele>30</ele>
        <time>2012-08-22T19:03:00Z</time>
      </trkpt>
      <trkpt lat="50.41748" lon="1.99334">
        <ele>30</ele>
        <time>2012-08-22T19:03:02Z</time>
      </trkpt>
      <trkpt lat="50.41755" lon="1.99339">
        <ele>28</ele>
        <time>2012-08-22T19:03:04Z</time>
      </trkpt>
      <trkpt lat="50.41761" lon="1.99344">
        <ele>28</ele>
        <time>2012-08-22T19:03:06Z</time>
      </trkpt>
      <trkpt lat="50.41766" lon="1.99348">
        <ele>29</ele>
        <time>2012-08-22T19:03:08Z</time>
      </trkpt>
      <trkpt lat="50.41772" lon="1.99353">
        <ele>30</ele>
        <time>2012-08-22T19:03:10Z</time>
      </trkpt>
      <trkpt lat="50.41777" lon="1.99356">
        <ele>31</ele>
        <time>2012-08-22T19:03:12Z</time>
      </trkpt>
      <trkpt lat="50.41782" lon="1.99355">
        <ele>31</ele>
        <time>2012-08-22T19:03:14Z</time>
      </trkpt>
      <trkpt lat="50.41787" lon="1.99351">
        <ele>32</ele>
        <time>2012-08-22T19:03:16Z</time>
      </trkpt>
      <trkpt lat="50.4179" lon="1.99346">
        <ele>32</ele>
        <time>2012-08-22T19:03:18Z</time>
      </trkpt>
      <trkpt lat="50.41793" lon="1.99338">
        <ele>31</ele>
        <time>2012-08-22T19:03:20Z</time>
      </trkpt>
      <trkpt lat="50.41795" lon="1.99331">
        <ele>31</ele>
        <time>2012-08-22T19:03:22Z</time>
      </trkpt>
      <trkpt lat="50.41797" lon="1.99323">
        <ele>31</ele>
        <time>2012-08-22T19:03:24Z</time>
      </trkpt>
      <trkpt lat="50.41799" lon="1.99316">
        <ele>32</ele>
        <time>2012-08-22T19:03:26Z</time>
      </trkpt>
      <trkpt lat="50.41801" lon="1.99309">
        <ele>33</ele>
        <time>2012-08-22T19:03:28Z</time>
      </trkpt>
      <trkpt lat="50.41802" lon="1.99303">
        <ele>39</ele>
        <time>2012-08-22T19:03:30Z</time>
      </trkpt>
      <trkpt lat="50.41804" lon="1.99297">
        <ele>39</ele>
        <time>2012-08-22T19:03:32Z</time>
      </trkpt>
      <trkpt lat="50.41806" lon="1.99292">
        <ele>39</ele>
        <time>2012-08-22T19:03:34Z</time>
      </trkpt>
      <trkpt lat="50.41808" lon="1.99286">
        <ele>41</ele>
        <time>2012-08-22T19:03:36Z</time>
      </trkpt>
      <trkpt lat="50.4181" lon="1.99279">
        <ele>43</ele>
        <time>2012-08-22T19:03:38Z</time>
      </trkpt>
      <trkpt lat="50.41812" lon="1.99272">
        <ele>43</ele>
        <time>2012-08-22T19:03:40Z</time>
      </trkpt>
      <trkpt lat="50.41815" lon="1.99265">
        <ele>43</ele>
        <time>2012-08-22T19:03:42Z</time>
      </trkpt>
      <trkpt lat="50.41818" lon="1.99258">
        <ele>43</ele>
        <time>2012-08-22T19:03:44Z</time>
      </trkpt>
      <trkpt lat="50.41819" lon="1.99254">
        <ele>44</ele>
        <time>2012-08-22T19:03:46Z</time>
      </trkpt>
      <trkpt lat="50.4182" lon="1.99251">
        <ele>44</ele>
        <time>2012-08-22T19:03:46Z</time>
      </trkpt>
      <trkpt lat="50.41822" lon="1.99245">
        <ele>43</ele>
        <time>2012-08-22T19:03:48Z</time>
      </trkpt>
      <trkpt lat="50.41824" lon="1.9924">
        <ele>43</ele>
        <time>2012-08-22T19:03:50Z</time>
      </trkpt>
      <trkpt lat="50.41826" lon="1.99234">
        <ele>44</ele>
        <time>2012-08-22T19:03:52Z</time>
      </trkpt>
      <trkpt lat="50.41827" lon="1.99227">
        <ele>44</ele>
        <time>2012-08-22T19:03:54Z</time>
      </trkpt>
      <trkpt lat="50.41827" lon="1.99221">
        <ele>44</ele>
        <time>2012-08-22T19:03:56Z</time>
      </trkpt>
      <trkpt lat="50.41829" lon="1.99215">
        <ele>45</ele>
        <time>2012-08-22T19:03:58Z</time>
      </trkpt>
      <trkpt lat="50.4183" lon="1.99209">
        <ele>47</ele>
        <time>2012-08-22T19:04:00Z</time>
      </trkpt>
      <trkpt lat="50.41832" lon="1.99203">
        <ele>49</ele>
        <time>2012-08-22T19:04:02Z</time>
      </trkpt>
      <trkpt lat="50.41833" lon="1.99196">
        <ele>50</ele>
        <time>2012-08-22T19:04:04Z</time>
      </trkpt>
      <trkpt lat="50.41834" lon="1.99189">
        <ele>52</ele>
        <time>2012-08-22T19:04:06Z</time>
      </trkpt>
      <trkpt lat="50.41834" lon="1.99183">
        <ele>52</ele>
        <time>2012-08-22T19:04:08Z</time>
      </trkpt>
      <trkpt lat="50.41834" lon="1.99176">
        <ele>53</ele>
        <time>2012-08-22T19:04:10Z</time>
      </trkpt>
      <trkpt lat="50.41836" lon="1.99168">
        <ele>55</ele>
        <time>2012-08-22T19:04:12Z</time>
      </trkpt>
      <trkpt lat="50.41837" lon="1.9916">
        <ele>57</ele>
        <time>2012-08-22T19:04:14Z</time>
      </trkpt>
      <trkpt lat="50.41838" lon="1.99152">
        <ele>56</ele>
        <time>2012-08-22T19:04:16Z</time>
      </trkpt>
      <trkpt lat="50.41837" lon="1.99144">
        <ele>55</ele>
        <time>2012-08-22T19:04:18Z</time>
      </trkpt>
      <trkpt lat="50.41838" lon="1.99135">
        <ele>55</ele>
        <time>2012-08-22T19:04:20Z</time>
      </trkpt>
      <trkpt lat="50.41838" lon="1.99128">
        <ele>56</ele>
        <time>2012-08-22T19:04:22Z</time>
      </trkpt>
      <trkpt lat="50.41839" lon="1.99122">
        <ele>54</ele>
        <time>2012-08-22T19:04:24Z</time>
      </trkpt>
      <trkpt lat="50.41841" lon="1.99119">
        <ele>56</ele>
        <time>2012-08-22T19:04:26Z</time>
      </trkpt>
      <trkpt lat="50.41845" lon="1.9912">
        <ele>56</ele>
        <time>2012-08-22T19:04:28Z</time>
      </trkpt>
      <trkpt lat="50.4185" lon="1.99124">
        <ele>56</ele>
        <time>2012-08-22T19:04:30Z</time>
      </trkpt>
      <trkpt lat="50.41855" lon="1.99127">
        <ele>56</ele>
        <time>2012-08-22T19:04:32Z</time>
      </trkpt>
      <trkpt lat="50.41859" lon="1.99128">
        <ele>58</ele>
        <time>2012-08-22T19:04:34Z</time>
      </trkpt>
      <trkpt lat="50.41863" lon="1.99129">
        <ele>57</ele>
        <time>2012-08-22T19:04:36Z</time>
      </trkpt>
      <trkpt lat="50.41867" lon="1.9913">
        <ele>56</ele>
        <time>2012-08-22T19:04:38Z</time>
      </trkpt>
      <trkpt lat="50.41872" lon="1.9913">
        <ele>56</ele>
        <time>2012-08-22T19:04:40Z</time>
      </trkpt>
      <trkpt lat="50.41886" lon="1.99134">
        <ele>55</ele>
        <time>2012-08-22T19:04:42Z</time>
      </trkpt>
      <trkpt lat="50.41897" lon="1.99138">
        <ele>55</ele>
        <time>2012-08-22T19:04:44Z</time>
      </trkpt>
      <trkpt lat="50.41907" lon="1.99142">
        <ele>58</ele>
        <time>2012-08-22T19:04:46Z</time>
      </trkpt>
      <trkpt lat="50.41919" lon="1.99143">
        <ele>57</ele>
        <time>2012-08-22T19:04:48Z</time>
      </trkpt>
      <trkpt lat="50.4193" lon="1.99144">
        <ele>58</ele>
        <time>2012-08-22T19:04:50Z</time>
      </trkpt>
      <trkpt lat="50.4194" lon="1.99147">
        <ele>58</ele>
        <time>2012-08-22T19:04:52Z</time>
      </trkpt>
      <trkpt lat="50.4195" lon="1.9915">
        <ele>56</ele>
        <time>2012-08-22T19:04:54Z</time>
      </trkpt>
      <trkpt lat="50.41959" lon="1.9915">
        <ele>56</ele>
        <time>2012-08-22T19:04:56Z</time>
      </trkpt>
      <trkpt lat="50.41967" lon="1.9915">
        <ele>56</ele>
        <time>2012-08-22T19:04:58Z</time>
      </trkpt>
      <trkpt lat="50.41975" lon="1.99151">
        <ele>55</ele>
        <time>2012-08-22T19:05:00Z</time>
      </trkpt>
      <trkpt lat="50.4198" lon="1.99154">
        <ele>55</ele>
        <time>2012-08-22T19:05:02Z</time>
      </trkpt>
      <trkpt lat="50.41982" lon="1.99154">
        <ele>57</ele>
        <time>2012-08-22T19:05:04Z</time>
      </trkpt>
      <trkpt lat="50.41988" lon="1.99155">
        <ele>57</ele>
        <time>2012-08-22T19:05:06Z</time>
      </trkpt>
      <trkpt lat="50.41995" lon="1.99158">
        <ele>59</ele>
        <time>2012-08-22T19:05:08Z</time>
      </trkpt>
      <trkpt lat="50.42004" lon="1.99161">
        <ele>60</ele>
        <time>2012-08-22T19:05:10Z</time>
      </trkpt>
      <trkpt lat="50.42016" lon="1.99162">
        <ele>57</ele>
        <time>2012-08-22T19:05:12Z</time>
      </trkpt>
      <trkpt lat="50.42027" lon="1.99166">
        <ele>57</ele>
        <time>2012-08-22T19:05:14Z</time>
      </trkpt>
      <trkpt lat="50.42036" lon="1.99167">
        <ele>56</ele>
        <time>2012-08-22T19:05:16Z</time>
      </trkpt>
      <trkpt lat="50.42046" lon="1.99167">
        <ele>55</ele>
        <time>2012-08-22T19:05:18Z</time>
      </trkpt>
      <trkpt lat="50.42056" lon="1.99169">
        <ele>55</ele>
        <time>2012-08-22T19:05:20Z</time>
      </trkpt>
      <trkpt lat="50.42064" lon="1.99171">
        <ele>56</ele>
        <time>2012-08-22T19:05:22Z</time>
      </trkpt>
      <trkpt lat="50.42072" lon="1.99172">
        <ele>57</ele>
        <time>2012-08-22T19:05:24Z</time>
      </trkpt>
      <trkpt lat="50.42079" lon="1.99178">
        <ele>57</ele>
        <time>2012-08-22T19:05:26Z</time>
      </trkpt>
      <trkpt lat="50.42088" lon="1.9918">
        <ele>59</ele>
        <time>2012-08-22T19:05:28Z</time>
      </trkpt>
      <trkpt lat="50.42096" lon="1.99184">
        <ele>59</ele>
        <time>2012-08-22T19:05:30Z</time>
      </trkpt>
      <trkpt lat="50.42104" lon="1.99188">
        <ele>59</ele>
        <time>2012-08-22T19:05:32Z</time>
      </trkpt>
      <trkpt lat="50.42112" lon="1.99191">
        <ele>58</ele>
        <time>2012-08-22T19:05:34Z</time>
      </trkpt>
      <trkpt lat="50.4212" lon="1.99194">
        <ele>59</ele>
        <time>2012-08-22T19:05:36Z</time>
      </trkpt>
      <trkpt lat="50.42129" lon="1.99197">
        <ele>60</ele>
        <time>2012-08-22T19:05:38Z</time>
      </trkpt>
      <trkpt lat="50.42138" lon="1.99199">
        <ele>60</ele>
        <time>2012-08-22T19:05:40Z</time>
      </trkpt>
      <trkpt lat="50.42145" lon="1.99199">
        <ele>60</ele>
        <time>2012-08-22T19:05:42Z</time>
      </trkpt>
      <trkpt lat="50.42151" lon="1.99197">
        <ele>60</ele>
        <time>2012-08-22T19:05:44Z</time>
      </trkpt>
      <trkpt lat="50.42156" lon="1.99195">
        <ele>60</ele>
        <time>2012-08-22T19:05:46Z</time>
      </trkpt>
      <trkpt lat="50.42161" lon="1.99191">
        <ele>61</ele>
        <time>2012-08-22T19:05:48Z</time>
      </trkpt>
      <trkpt lat="50.42167" lon="1.99188">
        <ele>61</ele>
        <time>2012-08-22T19:05:50Z</time>
      </trkpt>
      <trkpt lat="50.42173" lon="1.99186">
        <ele>62</ele>
        <time>2012-08-22T19:05:52Z</time>
      </trkpt>
      <trkpt lat="50.42178" lon="1.99187">
        <ele>62</ele>
        <time>2012-08-22T19:05:54Z</time>
      </trkpt>
      <trkpt lat="50.42185" lon="1.9919">
        <ele>62</ele>
        <time>2012-08-22T19:05:56Z</time>
      </trkpt>
      <trkpt lat="50.42193" lon="1.99196">
        <ele>59</ele>
        <time>2012-08-22T19:05:58Z</time>
      </trkpt>
      <trkpt lat="50.422" lon="1.992">
        <ele>60</ele>
        <time>2012-08-22T19:06:00Z</time>
      </trkpt>
      <trkpt lat="50.42208" lon="1.99203">
        <ele>60</ele>
        <time>2012-08-22T19:06:02Z</time>
      </trkpt>
      <trkpt lat="50.42216" lon="1.99203">
        <ele>61</ele>
        <time>2012-08-22T19:06:04Z</time>
      </trkpt>
      <trkpt lat="50.42222" lon="1.99203">
        <ele>60</ele>
        <time>2012-08-22T19:06:06Z</time>
      </trkpt>
      <trkpt lat="50.42228" lon="1.99202">
        <ele>60</ele>
        <time>2012-08-22T19:06:08Z</time>
      </trkpt>
      <trkpt lat="50.42233" lon="1.992">
        <ele>60</ele>
        <time>2012-08-22T19:06:10Z</time>
      </trkpt>
      <trkpt lat="50.42238" lon="1.99198">
        <ele>61</ele>
        <time>2012-08-22T19:06:12Z</time>
      </trkpt>
      <trkpt lat="50.42242" lon="1.99196">
        <ele>61</ele>
        <time>2012-08-22T19:06:14Z</time>
      </trkpt>
      <trkpt lat="50.42244" lon="1.99192">
        <ele>62</ele>
        <time>2012-08-22T19:06:16Z</time>
      </trkpt>
      <trkpt lat="50.42249" lon="1.99187">
        <ele>62</ele>
        <time>2012-08-22T19:06:18Z</time>
      </trkpt>
      <trkpt lat="50.42255" lon="1.99183">
        <ele>64</ele>
        <time>2012-08-22T19:06:20Z</time>
      </trkpt>
      <trkpt lat="50.4226" lon="1.99179">
        <ele>66</ele>
        <time>2012-08-22T19:06:22Z</time>
      </trkpt>
      <trkpt lat="50.42266" lon="1.99176">
        <ele>66</ele>
        <time>2012-08-22T19:06:24Z</time>
      </trkpt>
      <trkpt lat="50.42271" lon="1.99173">
        <ele>66</ele>
        <time>2012-08-22T19:06:26Z</time>
      </trkpt>
      <trkpt lat="50.42275" lon="1.99168">
        <ele>66</ele>
        <time>2012-08-22T19:06:28Z</time>
      </trkpt>
      <trkpt lat="50.42279" lon="1.99163">
        <ele>66</ele>
        <time>2012-08-22T19:06:30Z</time>
      </trkpt>
      <trkpt lat="50.42283" lon="1.99158">
        <ele>67</ele>
        <time>2012-08-22T19:06:32Z</time>
      </trkpt>
      <trkpt lat="50.42286" lon="1.99154">
        <ele>67</ele>
        <time>2012-08-22T19:06:34Z</time>
      </trkpt>
      <trkpt lat="50.42287" lon="1.9915">
        <ele>68</ele>
        <time>2012-08-22T19:06:36Z</time>
      </trkpt>
      <trkpt lat="50.42289" lon="1.99148">
        <ele>69</ele>
        <time>2012-08-22T19:06:38Z</time>
      </trkpt>
      <trkpt lat="50.42291" lon="1.99146">
        <ele>69</ele>
        <time>2012-08-22T19:06:40Z</time>
      </trkpt>
      <trkpt lat="50.42292" lon="1.99146">
        <ele>69</ele>
        <time>2012-08-22T19:06:42Z</time>
      </trkpt>
      <trkpt lat="50.42293" lon="1.99148">
        <ele>69</ele>
        <time>2012-08-22T19:06:44Z</time>
      </trkpt>
      <trkpt lat="50.42295" lon="1.99149">
        <ele>68</ele>
        <time>2012-08-22T19:06:46Z</time>
      </trkpt>
      <trkpt lat="50.42298" lon="1.99148">
        <ele>67</ele>
        <time>2012-08-22T19:06:48Z</time>
      </trkpt>
      <trkpt lat="50.42301" lon="1.99146">
        <ele>65</ele>
        <time>2012-08-22T19:06:50Z</time>
      </trkpt>
      <trkpt lat="50.42304" lon="1.99144">
        <ele>62</ele>
        <time>2012-08-22T19:06:52Z</time>
      </trkpt>
      <trkpt lat="50.42307" lon="1.99141">
        <ele>63</ele>
        <time>2012-08-22T19:06:54Z</time>
      </trkpt>
      <trkpt lat="50.4231" lon="1.99139">
        <ele>64</ele>
        <time>2012-08-22T19:06:56Z</time>
      </trkpt>
      <trkpt lat="50.42313" lon="1.99137">
        <ele>66</ele>
        <time>2012-08-22T19:06:58Z</time>
      </trkpt>
      <trkpt lat="50.42316" lon="1.99135">
        <ele>66</ele>
        <time>2012-08-22T19:07:00Z</time>
      </trkpt>
      <trkpt lat="50.42319" lon="1.99133">
        <ele>65</ele>
        <time>2012-08-22T19:07:02Z</time>
      </trkpt>
      <trkpt lat="50.42322" lon="1.99129">
        <ele>65</ele>
        <time>2012-08-22T19:07:04Z</time>
      </trkpt>
      <trkpt lat="50.42325" lon="1.99126">
        <ele>65</ele>
        <time>2012-08-22T19:07:06Z</time>
      </trkpt>
      <trkpt lat="50.42327" lon="1.99124">
        <ele>64</ele>
        <time>2012-08-22T19:07:08Z</time>
      </trkpt>
      <trkpt lat="50.42329" lon="1.99122">
        <ele>63</ele>
        <time>2012-08-22T19:07:10Z</time>
      </trkpt>
      <trkpt lat="50.4233" lon="1.9912">
        <ele>63</ele>
        <time>2012-08-22T19:07:12Z</time>
      </trkpt>
      <trkpt lat="50.42332" lon="1.99118">
        <ele>64</ele>
        <time>2012-08-22T19:07:14Z</time>
      </trkpt>
      <trkpt lat="50.42333" lon="1.99116">
        <ele>66</ele>
        <time>2012-08-22T19:07:16Z</time>
      </trkpt>
      <trkpt lat="50.42334" lon="1.99113">
        <ele>65</ele>
        <time>2012-08-22T19:07:18Z</time>
      </trkpt>
      <trkpt lat="50.42334" lon="1.99111">
        <ele>65</ele>
        <time>2012-08-22T19:07:20Z</time>
      </trkpt>
      <trkpt lat="50.42335" lon="1.99109">
        <ele>65</ele>
        <time>2012-08-22T19:07:22Z</time>
      </trkpt>
      <trkpt lat="50.42336" lon="1.9911">
        <ele>64</ele>
        <time>2012-08-22T19:07:24Z</time>
      </trkpt>
      <trkpt lat="50.42338" lon="1.9911">
        <ele>65</ele>
        <time>2012-08-22T19:07:26Z</time>
      </trkpt>
      <trkpt lat="50.4234" lon="1.99108">
        <ele>66</ele>
        <time>2012-08-22T19:07:28Z</time>
      </trkpt>
      <trkpt lat="50.42343" lon="1.99106">
        <ele>67</ele>
        <time>2012-08-22T19:07:30Z</time>
      </trkpt>
      <trkpt lat="50.42346" lon="1.99103">
        <ele>67</ele>
        <time>2012-08-22T19:07:32Z</time>
      </trkpt>
      <trkpt lat="50.42349" lon="1.99101">
        <ele>66</ele>
        <time>2012-08-22T19:07:34Z</time>
      </trkpt>
      <trkpt lat="50.42351" lon="1.991">
        <ele>67</ele>
        <time>2012-08-22T19:07:36Z</time>
      </trkpt>
      <trkpt lat="50.42353" lon="1.99098">
        <ele>66</ele>
        <time>2012-08-22T19:07:38Z</time>
      </trkpt>
      <trkpt lat="50.42354" lon="1.99095">
        <ele>67</ele>
        <time>2012-08-22T19:07:40Z</time>
      </trkpt>
      <trkpt lat="50.42355" lon="1.99092">
        <ele>67</ele>
        <time>2012-08-22T19:07:42Z</time>
      </trkpt>
      <trkpt lat="50.42357" lon="1.99088">
        <ele>68</ele>
        <time>2012-08-22T19:07:44Z</time>
      </trkpt>
      <trkpt lat="50.42359" lon="1.99084">
        <ele>69</ele>
        <time>2012-08-22T19:07:46Z</time>
      </trkpt>
      <trkpt lat="50.42361" lon="1.99082">
        <ele>70</ele>
        <time>2012-08-22T19:07:48Z</time>
      </trkpt>
      <trkpt lat="50.42363" lon="1.9908">
        <ele>70</ele>
        <time>2012-08-22T19:07:50Z</time>
      </trkpt>
      <trkpt lat="50.42365" lon="1.99078">
        <ele>72</ele>
        <time>2012-08-22T19:07:52Z</time>
      </trkpt>
      <trkpt lat="50.42367" lon="1.99075">
        <ele>72</ele>
        <time>2012-08-22T19:07:54Z</time>
      </trkpt>
      <trkpt lat="50.42369" lon="1.99072">
        <ele>74</ele>
        <time>2012-08-22T19:07:56Z</time>
      </trkpt>
      <trkpt lat="50.4237" lon="1.9907">
        <ele>72</ele>
        <time>2012-08-22T19:07:58Z</time>
      </trkpt>
      <trkpt lat="50.42372" lon="1.99069">
        <ele>74</ele>
        <time>2012-08-22T19:08:00Z</time>
      </trkpt>
      <trkpt lat="50.42373" lon="1.99068">
        <ele>74</ele>
        <time>2012-08-22T19:08:02Z</time>
      </trkpt>
      <trkpt lat="50.42376" lon="1.99068">
        <ele>75</ele>
        <time>2012-08-22T19:08:04Z</time>
      </trkpt>
      <trkpt lat="50.42377" lon="1.99066">
        <ele>77</ele>
        <time>2012-08-22T19:08:06Z</time>
      </trkpt>
      <trkpt lat="50.42379" lon="1.99064">
        <ele>77</ele>
        <time>2012-08-22T19:08:08Z</time>
      </trkpt>
      <trkpt lat="50.4238" lon="1.99062">
        <ele>77</ele>
        <time>2012-08-22T19:08:10Z</time>
      </trkpt>
      <trkpt lat="50.42383" lon="1.99064">
        <ele>75</ele>
        <time>2012-08-22T19:08:12Z</time>
      </trkpt>
      <trkpt lat="50.42385" lon="1.99064">
        <ele>76</ele>
        <time>2012-08-22T19:08:14Z</time>
      </trkpt>
      <trkpt lat="50.42387" lon="1.99064">
        <ele>77</ele>
        <time>2012-08-22T19:08:16Z</time>
      </trkpt>
      <trkpt lat="50.42389" lon="1.99063">
        <ele>77</ele>
        <time>2012-08-22T19:08:18Z</time>
      </trkpt>
      <trkpt lat="50.4239" lon="1.99062">
        <ele>77</ele>
        <time>2012-08-22T19:08:20Z</time>
      </trkpt>
      <trkpt lat="50.42392" lon="1.99061">
        <ele>77</ele>
        <time>2012-08-22T19:08:22Z</time>
      </trkpt>
      <trkpt lat="50.42394" lon="1.9906">
        <ele>78</ele>
        <time>2012-08-22T19:08:24Z</time>
      </trkpt>
      <trkpt lat="50.42397" lon="1.99059">
        <ele>78</ele>
        <time>2012-08-22T19:08:26Z</time>
      </trkpt>
      <trkpt lat="50.42399" lon="1.99059">
        <ele>77</ele>
        <time>2012-08-22T19:08:28Z</time>
      </trkpt>
      <trkpt lat="50.42401" lon="1.99059">
        <ele>77</ele>
        <time>2012-08-22T19:08:30Z</time>
      </trkpt>
      <trkpt lat="50.42402" lon="1.99059">
        <ele>77</ele>
        <time>2012-08-22T19:08:32Z</time>
      </trkpt>
      <trkpt lat="50.42405" lon="1.99059">
        <ele>77</ele>
        <time>2012-08-22T19:08:34Z</time>
      </trkpt>
      <trkpt lat="50.42407" lon="1.99057">
        <ele>77</ele>
        <time>2012-08-22T19:08:36Z</time>
      </trkpt>
      <trkpt lat="50.42409" lon="1.99055">
        <ele>78</ele>
        <time>2012-08-22T19:08:38Z</time>
      </trkpt>
      <trkpt lat="50.42411" lon="1.99053">
        <ele>77</ele>
        <time>2012-08-22T19:08:40Z</time>
      </trkpt>
      <trkpt lat="50.42413" lon="1.99052">
        <ele>77</ele>
        <time>2012-08-22T19:08:42Z</time>
      </trkpt>
      <trkpt lat="50.42415" lon="1.99052">
        <ele>81</ele>
        <time>2012-08-22T19:08:44Z</time>
      </trkpt>
      <trkpt lat="50.42416" lon="1.9905">
        <ele>81</ele>
        <time>2012-08-22T19:08:46Z</time>
      </trkpt>
      <trkpt lat="50.42418" lon="1.99049">
        <ele>82</ele>
        <time>2012-08-22T19:08:48Z</time>
      </trkpt>
      <trkpt lat="50.42419" lon="1.99048">
        <ele>82</ele>
        <time>2012-08-22T19:08:50Z</time>
      </trkpt>
      <trkpt lat="50.42421" lon="1.99048">
        <ele>81</ele>
        <time>2012-08-22T19:08:52Z</time>
      </trkpt>
      <trkpt lat="50.42424" lon="1.99046">
        <ele>81</ele>
        <time>2012-08-22T19:08:54Z</time>
      </trkpt>
      <trkpt lat="50.42425" lon="1.99042">
        <ele>80</ele>
        <time>2012-08-22T19:08:56Z</time>
      </trkpt>
      <trkpt lat="50.42426" lon="1.99039">
        <ele>79</ele>
        <time>2012-08-22T19:08:58Z</time>
      </trkpt>
      <trkpt lat="50.42427" lon="1.99036">
        <ele>78</ele>
        <time>2012-08-22T19:09:00Z</time>
      </trkpt>
      <trkpt lat="50.42429" lon="1.99032">
        <ele>78</ele>
        <time>2012-08-22T19:09:02Z</time>
      </trkpt>
      <trkpt lat="50.42431" lon="1.99029">
        <ele>78</ele>
        <time>2012-08-22T19:09:04Z</time>
      </trkpt>
      <trkpt lat="50.42433" lon="1.99027">
        <ele>77</ele>
        <time>2012-08-22T19:09:06Z</time>
      </trkpt>
      <trkpt lat="50.42434" lon="1.99024">
        <ele>78</ele>
        <time>2012-08-22T19:09:08Z</time>
      </trkpt>
      <trkpt lat="50.42436" lon="1.99023">
        <ele>79</ele>
        <time>2012-08-22T19:09:10Z</time>
      </trkpt>
      <trkpt lat="50.42438" lon="1.99022">
        <ele>78</ele>
        <time>2012-08-22T19:09:12Z</time>
      </trkpt>
      <trkpt lat="50.42439" lon="1.99019">
        <ele>78</ele>
        <time>2012-08-22T19:09:14Z</time>
      </trkpt>
      <trkpt lat="50.42441" lon="1.99017">
        <ele>79</ele>
        <time>2012-08-22T19:09:16Z</time>
      </trkpt>
      <trkpt lat="50.42443" lon="1.99015">
        <ele>79</ele>
        <time>2012-08-22T19:09:18Z</time>
      </trkpt>
      <trkpt lat="50.42445" lon="1.99013">
        <ele>80</ele>
        <time>2012-08-22T19:09:20Z</time>
      </trkpt>
      <trkpt lat="50.42447" lon="1.9901">
        <ele>81</ele>
        <time>2012-08-22T19:09:22Z</time>
      </trkpt>
      <trkpt lat="50.42449" lon="1.99008">
        <ele>81</ele>
        <time>2012-08-22T19:09:24Z</time>
      </trkpt>
      <trkpt lat="50.42451" lon="1.99006">
        <ele>81</ele>
        <time>2012-08-22T19:09:26Z</time>
      </trkpt>
      <trkpt lat="50.42452" lon="1.99004">
        <ele>81</ele>
        <time>2012-08-22T19:09:28Z</time>
      </trkpt>
      <trkpt lat="50.42453" lon="1.99001">
        <ele>81</ele>
        <time>2012-08-22T19:09:30Z</time>
      </trkpt>
      <trkpt lat="50.42455" lon="1.98999">
        <ele>81</ele>
        <time>2012-08-22T19:09:32Z</time>
      </trkpt>
      <trkpt lat="50.42456" lon="1.98998">
        <ele>82</ele>
        <time>2012-08-22T19:09:34Z</time>
      </trkpt>
      <trkpt lat="50.42458" lon="1.98997">
        <ele>82</ele>
        <time>2012-08-22T19:09:36Z</time>
      </trkpt>
      <trkpt lat="50.4246" lon="1.98996">
        <ele>81</ele>
        <time>2012-08-22T19:09:38Z</time>
      </trkpt>
      <trkpt lat="50.42461" lon="1.98994">
        <ele>82</ele>
        <time>2012-08-22T19:09:40Z</time>
      </trkpt>
      <trkpt lat="50.42463" lon="1.98991">
        <ele>82</ele>
        <time>2012-08-22T19:09:42Z</time>
      </trkpt>
      <trkpt lat="50.42463" lon="1.98987">
        <ele>83</ele>
        <time>2012-08-22T19:09:44Z</time>
      </trkpt>
      <trkpt lat="50.42463" lon="1.98984">
        <ele>82</ele>
        <time>2012-08-22T19:09:46Z</time>
      </trkpt>
      <trkpt lat="50.42464" lon="1.98981">
        <ele>83</ele>
        <time>2012-08-22T19:09:48Z</time>
      </trkpt>
      <trkpt lat="50.42465" lon="1.98979">
        <ele>84</ele>
        <time>2012-08-22T19:09:50Z</time>
      </trkpt>
      <trkpt lat="50.42468" lon="1.98977">
        <ele>84</ele>
        <time>2012-08-22T19:09:52Z</time>
      </trkpt>
      <trkpt lat="50.42469" lon="1.98975">
        <ele>85</ele>
        <time>2012-08-22T19:09:54Z</time>
      </trkpt>
      <trkpt lat="50.42471" lon="1.98972">
        <ele>84</ele>
        <time>2012-08-22T19:09:56Z</time>
      </trkpt>
      <trkpt lat="50.42474" lon="1.98969">
        <ele>83</ele>
        <time>2012-08-22T19:09:58Z</time>
      </trkpt>
      <trkpt lat="50.42476" lon="1.98968">
        <ele>85</ele>
        <time>2012-08-22T19:10:00Z</time>
      </trkpt>
      <trkpt lat="50.42477" lon="1.98967">
        <ele>85</ele>
        <time>2012-08-22T19:10:02Z</time>
      </trkpt>
      <trkpt lat="50.42481" lon="1.98968">
        <ele>87</ele>
        <time>2012-08-22T19:10:04Z</time>
      </trkpt>
      <trkpt lat="50.42483" lon="1.98968">
        <ele>87</ele>
        <time>2012-08-22T19:10:06Z</time>
      </trkpt>
      <trkpt lat="50.42485" lon="1.98968">
        <ele>87</ele>
        <time>2012-08-22T19:10:08Z</time>
      </trkpt>
      <trkpt lat="50.42487" lon="1.98966">
        <ele>89</ele>
        <time>2012-08-22T19:10:10Z</time>
      </trkpt>
      <trkpt lat="50.4249" lon="1.98964">
        <ele>89</ele>
        <time>2012-08-22T19:10:12Z</time>
      </trkpt>
      <trkpt lat="50.42494" lon="1.98963">
        <ele>90</ele>
        <time>2012-08-22T19:10:14Z</time>
      </trkpt>
      <trkpt lat="50.42498" lon="1.98962">
        <ele>91</ele>
        <time>2012-08-22T19:10:16Z</time>
      </trkpt>
      <trkpt lat="50.42501" lon="1.98959">
        <ele>92</ele>
        <time>2012-08-22T19:10:18Z</time>
      </trkpt>
      <trkpt lat="50.42505" lon="1.98956">
        <ele>91</ele>
        <time>2012-08-22T19:10:20Z</time>
      </trkpt>
      <trkpt lat="50.42508" lon="1.98953">
        <ele>92</ele>
        <time>2012-08-22T19:10:22Z</time>
      </trkpt>
      <trkpt lat="50.42511" lon="1.9895">
        <ele>95</ele>
        <time>2012-08-22T19:10:24Z</time>
      </trkpt>
      <trkpt lat="50.42513" lon="1.98947">
        <ele>93</ele>
        <time>2012-08-22T19:10:26Z</time>
      </trkpt>
      <trkpt lat="50.42517" lon="1.98943">
        <ele>93</ele>
        <time>2012-08-22T19:10:28Z</time>
      </trkpt>
      <trkpt lat="50.42521" lon="1.9894">
        <ele>92</ele>
        <time>2012-08-22T19:10:30Z</time>
      </trkpt>
      <trkpt lat="50.42526" lon="1.98937">
        <ele>97</ele>
        <time>2012-08-22T19:10:32Z</time>
      </trkpt>
      <trkpt lat="50.42531" lon="1.98934">
        <ele>94</ele>
        <time>2012-08-22T19:10:34Z</time>
      </trkpt>
      <trkpt lat="50.42536" lon="1.98932">
        <ele>94</ele>
        <time>2012-08-22T19:10:36Z</time>
      </trkpt>
      <trkpt lat="50.42541" lon="1.98929">
        <ele>94</ele>
        <time>2012-08-22T19:10:38Z</time>
      </trkpt>
      <trkpt lat="50.42546" lon="1.98927">
        <ele>94</ele>
        <time>2012-08-22T19:10:40Z</time>
      </trkpt>
      <trkpt lat="50.42552" lon="1.98925">
        <ele>93</ele>
        <time>2012-08-22T19:10:42Z</time>
      </trkpt>
      <trkpt lat="50.42557" lon="1.98921">
        <ele>94</ele>
        <time>2012-08-22T19:10:44Z</time>
      </trkpt>
      <trkpt lat="50.42561" lon="1.98918">
        <ele>96</ele>
        <time>2012-08-22T19:10:46Z</time>
      </trkpt>
      <trkpt lat="50.42566" lon="1.98912">
        <ele>97</ele>
        <time>2012-08-22T19:10:48Z</time>
      </trkpt>
      <trkpt lat="50.4257" lon="1.98907">
        <ele>97</ele>
        <time>2012-08-22T19:10:50Z</time>
      </trkpt>
      <trkpt lat="50.42575" lon="1.98902">
        <ele>98</ele>
        <time>2012-08-22T19:10:52Z</time>
      </trkpt>
      <trkpt lat="50.4258" lon="1.98897">
        <ele>98</ele>
        <time>2012-08-22T19:10:54Z</time>
      </trkpt>
      <trkpt lat="50.42585" lon="1.98892">
        <ele>96</ele>
        <time>2012-08-22T19:10:56Z</time>
      </trkpt>
      <trkpt lat="50.42589" lon="1.98886">
        <ele>97</ele>
        <time>2012-08-22T19:10:58Z</time>
      </trkpt>
      <trkpt lat="50.42593" lon="1.9888">
        <ele>99</ele>
        <time>2012-08-22T19:11:00Z</time>
      </trkpt>
      <trkpt lat="50.42597" lon="1.98874">
        <ele>101</ele>
        <time>2012-08-22T19:11:02Z</time>
      </trkpt>
      <trkpt lat="50.42601" lon="1.98869">
        <ele>100</ele>
        <time>2012-08-22T19:11:04Z</time>
      </trkpt>
      <trkpt lat="50.42606" lon="1.98865">
        <ele>99</ele>
        <time>2012-08-22T19:11:06Z</time>
      </trkpt>
      <trkpt lat="50.42612" lon="1.9886">
        <ele>97</ele>
        <time>2012-08-22T19:11:08Z</time>
      </trkpt>
      <trkpt lat="50.42617" lon="1.98855">
        <ele>96</ele>
        <time>2012-08-22T19:11:10Z</time>
      </trkpt>
      <trkpt lat="50.42621" lon="1.98851">
        <ele>95</ele>
        <time>2012-08-22T19:11:12Z</time>
      </trkpt>
      <trkpt lat="50.42626" lon="1.98846">
        <ele>96</ele>
        <time>2012-08-22T19:11:14Z</time>
      </trkpt>
      <trkpt lat="50.4263" lon="1.98842">
        <ele>97</ele>
        <time>2012-08-22T19:11:16Z</time>
      </trkpt>
      <trkpt lat="50.42633" lon="1.98836">
        <ele>97</ele>
        <time>2012-08-22T19:11:18Z</time>
      </trkpt>
      <trkpt lat="50.42637" lon="1.98832">
        <ele>98</ele>
        <time>2012-08-22T19:11:20Z</time>
      </trkpt>
      <trkpt lat="50.42639" lon="1.98828">
        <ele>98</ele>
        <time>2012-08-22T19:11:22Z</time>
      </trkpt>
      <trkpt lat="50.42643" lon="1.98823">
        <ele>99</ele>
        <time>2012-08-22T19:11:24Z</time>
      </trkpt>
      <trkpt lat="50.42646" lon="1.98816">
        <ele>96</ele>
        <time>2012-08-22T19:11:26Z</time>
      </trkpt>
      <trkpt lat="50.4265" lon="1.98811">
        <ele>97</ele>
        <time>2012-08-22T19:11:28Z</time>
      </trkpt>
      <trkpt lat="50.42653" lon="1.98805">
        <ele>94</ele>
        <time>2012-08-22T19:11:30Z</time>
      </trkpt>
      <trkpt lat="50.42658" lon="1.98798">
        <ele>92</ele>
        <time>2012-08-22T19:11:32Z</time>
      </trkpt>
      <trkpt lat="50.42664" lon="1.98792">
        <ele>94</ele>
        <time>2012-08-22T19:11:34Z</time>
      </trkpt>
      <trkpt lat="50.42669" lon="1.98786">
        <ele>93</ele>
        <time>2012-08-22T19:11:36Z</time>
      </trkpt>
      <trkpt lat="50.42674" lon="1.98781">
        <ele>92</ele>
        <time>2012-08-22T19:11:38Z</time>
      </trkpt>
      <trkpt lat="50.42679" lon="1.98777">
        <ele>92</ele>
        <time>2012-08-22T19:11:40Z</time>
      </trkpt>
      <trkpt lat="50.42683" lon="1.98772">
        <ele>92</ele>
        <time>2012-08-22T19:11:42Z</time>
      </trkpt>
      <trkpt lat="50.42688" lon="1.98768">
        <ele>90</ele>
        <time>2012-08-22T19:11:44Z</time>
      </trkpt>
      <trkpt lat="50.42694" lon="1.98765">
        <ele>92</ele>
        <time>2012-08-22T19:11:46Z</time>
      </trkpt>
      <trkpt lat="50.42699" lon="1.98762">
        <ele>92</ele>
        <time>2012-08-22T19:11:48Z</time>
      </trkpt>
      <trkpt lat="50.42704" lon="1.98759">
        <ele>90</ele>
        <time>2012-08-22T19:11:50Z</time>
      </trkpt>
      <trkpt lat="50.42708" lon="1.98755">
        <ele>93</ele>
        <time>2012-08-22T19:11:52Z</time>
      </trkpt>
      <trkpt lat="50.42712" lon="1.98751">
        <ele>93</ele>
        <time>2012-08-22T19:11:54Z</time>
      </trkpt>
      <trkpt lat="50.42717" lon="1.98746">
        <ele>93</ele>
        <time>2012-08-22T19:11:56Z</time>
      </trkpt>
      <trkpt lat="50.42723" lon="1.98742">
        <ele>92</ele>
        <time>2012-08-22T19:11:58Z</time>
      </trkpt>
      <trkpt lat="50.42728" lon="1.98739">
        <ele>93</ele>
        <time>2012-08-22T19:12:00Z</time>
      </trkpt>
      <trkpt lat="50.42733" lon="1.98735">
        <ele>93</ele>
        <time>2012-08-22T19:12:02Z</time>
      </trkpt>
      <trkpt lat="50.42738" lon="1.98731">
        <ele>93</ele>
        <time>2012-08-22T19:12:04Z</time>
      </trkpt>
      <trkpt lat="50.42743" lon="1.98727">
        <ele>94</ele>
        <time>2012-08-22T19:12:06Z</time>
      </trkpt>
      <trkpt lat="50.42748" lon="1.98723">
        <ele>93</ele>
        <time>2012-08-22T19:12:08Z</time>
      </trkpt>
      <trkpt lat="50.42754" lon="1.98718">
        <ele>92</ele>
        <time>2012-08-22T19:12:10Z</time>
      </trkpt>
      <trkpt lat="50.42761" lon="1.98714">
        <ele>90</ele>
        <time>2012-08-22T19:12:12Z</time>
      </trkpt>
      <trkpt lat="50.42768" lon="1.98709">
        <ele>93</ele>
        <time>2012-08-22T19:12:14Z</time>
      </trkpt>
      <trkpt lat="50.42773" lon="1.98704">
        <ele>90</ele>
        <time>2012-08-22T19:12:16Z</time>
      </trkpt>
      <trkpt lat="50.42778" lon="1.987">
        <ele>90</ele>
        <time>2012-08-22T19:12:18Z</time>
      </trkpt>
      <trkpt lat="50.42784" lon="1.98696">
        <ele>91</ele>
        <time>2012-08-22T19:12:20Z</time>
      </trkpt>
      <trkpt lat="50.42789" lon="1.98691">
        <ele>93</ele>
        <time>2012-08-22T19:12:22Z</time>
      </trkpt>
      <trkpt lat="50.42794" lon="1.98686">
        <ele>94</ele>
        <time>2012-08-22T19:12:24Z</time>
      </trkpt>
      <trkpt lat="50.42798" lon="1.9868">
        <ele>94</ele>
        <time>2012-08-22T19:12:26Z</time>
      </trkpt>
      <trkpt lat="50.42802" lon="1.98672">
        <ele>93</ele>
        <time>2012-08-22T19:12:28Z</time>
      </trkpt>
      <trkpt lat="50.42803" lon="1.98662">
        <ele>95</ele>
        <time>2012-08-22T19:12:30Z</time>
      </trkpt>
      <trkpt lat="50.42801" lon="1.98651">
        <ele>95</ele>
        <time>2012-08-22T19:12:32Z</time>
      </trkpt>
      <trkpt lat="50.42794" lon="1.98641">
        <ele>96</ele>
        <time>2012-08-22T19:12:34Z</time>
      </trkpt>
      <trkpt lat="50.4279" lon="1.98633">
        <ele>97</ele>
        <time>2012-08-22T19:12:36Z</time>
      </trkpt>
      <trkpt lat="50.42785" lon="1.98625">
        <ele>97</ele>
        <time>2012-08-22T19:12:38Z</time>
      </trkpt>
      <trkpt lat="50.42781" lon="1.98617">
        <ele>98</ele>
        <time>2012-08-22T19:12:40Z</time>
      </trkpt>
      <trkpt lat="50.42777" lon="1.98609">
        <ele>98</ele>
        <time>2012-08-22T19:12:42Z</time>
      </trkpt>
      <trkpt lat="50.42773" lon="1.986">
        <ele>99</ele>
        <time>2012-08-22T19:12:44Z</time>
      </trkpt>
      <trkpt lat="50.4277" lon="1.98592">
        <ele>101</ele>
        <time>2012-08-22T19:12:46Z</time>
      </trkpt>
      <trkpt lat="50.42766" lon="1.98583">
        <ele>102</ele>
        <time>2012-08-22T19:12:48Z</time>
      </trkpt>
      <trkpt lat="50.42762" lon="1.98574">
        <ele>102</ele>
        <time>2012-08-22T19:12:50Z</time>
      </trkpt>
      <trkpt lat="50.42759" lon="1.98565">
        <ele>102</ele>
        <time>2012-08-22T19:12:52Z</time>
      </trkpt>
      <trkpt lat="50.42755" lon="1.98555">
        <ele>103</ele>
        <time>2012-08-22T19:12:54Z</time>
      </trkpt>
      <trkpt lat="50.42751" lon="1.98546">
        <ele>104</ele>
        <time>2012-08-22T19:12:56Z</time>
      </trkpt>
      <trkpt lat="50.42748" lon="1.98537">
        <ele>105</ele>
        <time>2012-08-22T19:12:58Z</time>
      </trkpt>
      <trkpt lat="50.42744" lon="1.98529">
        <ele>105</ele>
        <time>2012-08-22T19:13:00Z</time>
      </trkpt>
      <trkpt lat="50.42741" lon="1.9852">
        <ele>106</ele>
        <time>2012-08-22T19:13:02Z</time>
      </trkpt>
      <trkpt lat="50.42738" lon="1.98513">
        <ele>104</ele>
        <time>2012-08-22T19:13:04Z</time>
      </trkpt>
      <trkpt lat="50.42734" lon="1.98504">
        <ele>105</ele>
        <time>2012-08-22T19:13:06Z</time>
      </trkpt>
      <trkpt lat="50.4273" lon="1.98495">
        <ele>106</ele>
        <time>2012-08-22T19:13:08Z</time>
      </trkpt>
      <trkpt lat="50.42727" lon="1.98485">
        <ele>107</ele>
        <time>2012-08-22T19:13:10Z</time>
      </trkpt>
      <trkpt lat="50.42723" lon="1.98476">
        <ele>107</ele>
        <time>2012-08-22T19:13:12Z</time>
      </trkpt>
      <trkpt lat="50.42719" lon="1.98467">
        <ele>108</ele>
        <time>2012-08-22T19:13:14Z</time>
      </trkpt>
      <trkpt lat="50.42716" lon="1.98458">
        <ele>108</ele>
        <time>2012-08-22T19:13:16Z</time>
      </trkpt>
      <trkpt lat="50.42712" lon="1.9845">
        <ele>109</ele>
        <time>2012-08-22T19:13:18Z</time>
      </trkpt>
      <trkpt lat="50.42709" lon="1.98442">
        <ele>109</ele>
        <time>2012-08-22T19:13:20Z</time>
      </trkpt>
      <trkpt lat="50.42705" lon="1.98434">
        <ele>108</ele>
        <time>2012-08-22T19:13:22Z</time>
      </trkpt>
      <trkpt lat="50.42701" lon="1.98425">
        <ele>107</ele>
        <time>2012-08-22T19:13:24Z</time>
      </trkpt>
      <trkpt lat="50.42698" lon="1.98417">
        <ele>109</ele>
        <time>2012-08-22T19:13:26Z</time>
      </trkpt>
      <trkpt lat="50.42695" lon="1.98408">
        <ele>110</ele>
        <time>2012-08-22T19:13:28Z</time>
      </trkpt>
      <trkpt lat="50.42691" lon="1.98399">
        <ele>109</ele>
        <time>2012-08-22T19:13:30Z</time>
      </trkpt>
      <trkpt lat="50.42688" lon="1.9839">
        <ele>109</ele>
        <time>2012-08-22T19:13:32Z</time>
      </trkpt>
      <trkpt lat="50.42684" lon="1.98381">
        <ele>109</ele>
        <time>2012-08-22T19:13:34Z</time>
      </trkpt>
      <trkpt lat="50.4268" lon="1.98373">
        <ele>109</ele>
        <time>2012-08-22T19:13:36Z</time>
      </trkpt>
      <trkpt lat="50.42677" lon="1.98364">
        <ele>110</ele>
        <time>2012-08-22T19:13:38Z</time>
      </trkpt>
      <trkpt lat="50.42675" lon="1.98355">
        <ele>110</ele>
        <time>2012-08-22T19:13:40Z</time>
      </trkpt>
      <trkpt lat="50.42675" lon="1.98347">
        <ele>110</ele>
        <time>2012-08-22T19:13:42Z</time>
      </trkpt>
      <trkpt lat="50.42676" lon="1.98337">
        <ele>109</ele>
        <time>2012-08-22T19:13:44Z</time>
      </trkpt>
      <trkpt lat="50.4268" lon="1.9833">
        <ele>109</ele>
        <time>2012-08-22T19:13:46Z</time>
      </trkpt>
      <trkpt lat="50.42685" lon="1.98325">
        <ele>107</ele>
        <time>2012-08-22T19:13:48Z</time>
      </trkpt>
      <trkpt lat="50.42691" lon="1.98322">
        <ele>107</ele>
        <time>2012-08-22T19:13:50Z</time>
      </trkpt>
      <trkpt lat="50.42696" lon="1.98317">
        <ele>108</ele>
        <time>2012-08-22T19:13:52Z</time>
      </trkpt>
      <trkpt lat="50.427" lon="1.98312">
        <ele>107</ele>
        <time>2012-08-22T19:13:54Z</time>
      </trkpt>
      <trkpt lat="50.42704" lon="1.98307">
        <ele>108</ele>
        <time>2012-08-22T19:13:56Z</time>
      </trkpt>
      <trkpt lat="50.42709" lon="1.98303">
        <ele>109</ele>
        <time>2012-08-22T19:13:58Z</time>
      </trkpt>
      <trkpt lat="50.42714" lon="1.98298">
        <ele>108</ele>
        <time>2012-08-22T19:14:00Z</time>
      </trkpt>
      <trkpt lat="50.42719" lon="1.98293">
        <ele>107</ele>
        <time>2012-08-22T19:14:02Z</time>
      </trkpt>
      <trkpt lat="50.42724" lon="1.98288">
        <ele>106</ele>
        <time>2012-08-22T19:14:04Z</time>
      </trkpt>
      <trkpt lat="50.4273" lon="1.98283">
        <ele>106</ele>
        <time>2012-08-22T19:14:06Z</time>
      </trkpt>
      <trkpt lat="50.42735" lon="1.98279">
        <ele>109</ele>
        <time>2012-08-22T19:14:08Z</time>
      </trkpt>
      <trkpt lat="50.4274" lon="1.98274">
        <ele>107</ele>
        <time>2012-08-22T19:14:10Z</time>
      </trkpt>
      <trkpt lat="50.42744" lon="1.98268">
        <ele>104</ele>
        <time>2012-08-22T19:14:12Z</time>
      </trkpt>
      <trkpt lat="50.42749" lon="1.98262">
        <ele>106</ele>
        <time>2012-08-22T19:14:14Z</time>
      </trkpt>
      <trkpt lat="50.42755" lon="1.98256">
        <ele>107</ele>
        <time>2012-08-22T19:14:16Z</time>
      </trkpt>
      <trkpt lat="50.42762" lon="1.98249">
        <ele>106</ele>
        <time>2012-08-22T19:14:18Z</time>
      </trkpt>
      <trkpt lat="50.42769" lon="1.98241">
        <ele>106</ele>
        <time>2012-08-22T19:14:20Z</time>
      </trkpt>
      <trkpt lat="50.42775" lon="1.98232">
        <ele>106</ele>
        <time>2012-08-22T19:14:22Z</time>
      </trkpt>
      <trkpt lat="50.42779" lon="1.98224">
        <ele>107</ele>
        <time>2012-08-22T19:14:24Z</time>
      </trkpt>
      <trkpt lat="50.42783" lon="1.98216">
        <ele>107</ele>
        <time>2012-08-22T19:14:26Z</time>
      </trkpt>
      <trkpt lat="50.42787" lon="1.98209">
        <ele>107</ele>
        <time>2012-08-22T19:14:28Z</time>
      </trkpt>
      <trkpt lat="50.4279" lon="1.98201">
        <ele>107</ele>
        <time>2012-08-22T19:14:30Z</time>
      </trkpt>
      <trkpt lat="50.42794" lon="1.98194">
        <ele>106</ele>
        <time>2012-08-22T19:14:32Z</time>
      </trkpt>
      <trkpt lat="50.42796" lon="1.98185">
        <ele>103</ele>
        <time>2012-08-22T19:14:34Z</time>
      </trkpt>
      <trkpt lat="50.42798" lon="1.98174">
        <ele>103</ele>
        <time>2012-08-22T19:14:36Z</time>
      </trkpt>
      <trkpt lat="50.428" lon="1.98164">
        <ele>103</ele>
        <time>2012-08-22T19:14:38Z</time>
      </trkpt>
      <trkpt lat="50.42804" lon="1.98153">
        <ele>103</ele>
        <time>2012-08-22T19:14:40Z</time>
      </trkpt>
      <trkpt lat="50.42807" lon="1.98142">
        <ele>104</ele>
        <time>2012-08-22T19:14:42Z</time>
      </trkpt>
      <trkpt lat="50.42809" lon="1.98131">
        <ele>104</ele>
        <time>2012-08-22T19:14:44Z</time>
      </trkpt>
      <trkpt lat="50.42813" lon="1.98121">
        <ele>104</ele>
        <time>2012-08-22T19:14:46Z</time>
      </trkpt>
      <trkpt lat="50.42818" lon="1.98112">
        <ele>110</ele>
        <time>2012-08-22T19:14:48Z</time>
      </trkpt>
      <trkpt lat="50.42823" lon="1.98103">
        <ele>110</ele>
        <time>2012-08-22T19:14:50Z</time>
      </trkpt>
      <trkpt lat="50.4283" lon="1.98094">
        <ele>109</ele>
        <time>2012-08-22T19:14:52Z</time>
      </trkpt>
      <trkpt lat="50.42836" lon="1.98085">
        <ele>110</ele>
        <time>2012-08-22T19:14:54Z</time>
      </trkpt>
      <trkpt lat="50.42842" lon="1.98078">
        <ele>110</ele>
        <time>2012-08-22T19:14:56Z</time>
      </trkpt>
      <trkpt lat="50.42847" lon="1.9807">
        <ele>107</ele>
        <time>2012-08-22T19:14:58Z</time>
      </trkpt>
      <trkpt lat="50.42854" lon="1.98063">
        <ele>106</ele>
        <time>2012-08-22T19:15:00Z</time>
      </trkpt>
      <trkpt lat="50.42859" lon="1.98055">
        <ele>106</ele>
        <time>2012-08-22T19:15:02Z</time>
      </trkpt>
      <trkpt lat="50.42864" lon="1.98048">
        <ele>106</ele>
        <time>2012-08-22T19:15:04Z</time>
      </trkpt>
      <trkpt lat="50.42871" lon="1.98039">
        <ele>105</ele>
        <time>2012-08-22T19:15:06Z</time>
      </trkpt>
      <trkpt lat="50.42876" lon="1.9803">
        <ele>106</ele>
        <time>2012-08-22T19:15:08Z</time>
      </trkpt>
      <trkpt lat="50.42883" lon="1.98021">
        <ele>103</ele>
        <time>2012-08-22T19:15:10Z</time>
      </trkpt>
      <trkpt lat="50.42889" lon="1.98013">
        <ele>102</ele>
        <time>2012-08-22T19:15:12Z</time>
      </trkpt>
      <trkpt lat="50.42896" lon="1.98005">
        <ele>102</ele>
        <time>2012-08-22T19:15:14Z</time>
      </trkpt>
      <trkpt lat="50.42901" lon="1.97996">
        <ele>102</ele>
        <time>2012-08-22T19:15:16Z</time>
      </trkpt>
      <trkpt lat="50.42905" lon="1.97987">
        <ele>102</ele>
        <time>2012-08-22T19:15:18Z</time>
      </trkpt>
      <trkpt lat="50.42909" lon="1.97977">
        <ele>103</ele>
        <time>2012-08-22T19:15:20Z</time>
      </trkpt>
      <trkpt lat="50.42913" lon="1.97967">
        <ele>104</ele>
        <time>2012-08-22T19:15:22Z</time>
      </trkpt>
      <trkpt lat="50.42917" lon="1.97958">
        <ele>104</ele>
        <time>2012-08-22T19:15:24Z</time>
      </trkpt>
      <trkpt lat="50.4292" lon="1.97948">
        <ele>104</ele>
        <time>2012-08-22T19:15:26Z</time>
      </trkpt>
      <trkpt lat="50.42923" lon="1.97938">
        <ele>105</ele>
        <time>2012-08-22T19:15:28Z</time>
      </trkpt>
      <trkpt lat="50.42925" lon="1.97928">
        <ele>105</ele>
        <time>2012-08-22T19:15:30Z</time>
      </trkpt>
      <trkpt lat="50.42928" lon="1.97917">
        <ele>106</ele>
        <time>2012-08-22T19:15:32Z</time>
      </trkpt>
      <trkpt lat="50.42931" lon="1.97907">
        <ele>105</ele>
        <time>2012-08-22T19:15:34Z</time>
      </trkpt>
      <trkpt lat="50.42935" lon="1.97897">
        <ele>106</ele>
        <time>2012-08-22T19:15:36Z</time>
      </trkpt>
      <trkpt lat="50.42939" lon="1.97887">
        <ele>105</ele>
        <time>2012-08-22T19:15:38Z</time>
      </trkpt>
      <trkpt lat="50.42943" lon="1.97878">
        <ele>108</ele>
        <time>2012-08-22T19:15:40Z</time>
      </trkpt>
      <trkpt lat="50.42947" lon="1.97869">
        <ele>109</ele>
        <time>2012-08-22T19:15:42Z</time>
      </trkpt>
      <trkpt lat="50.4295" lon="1.9786">
        <ele>108</ele>
        <time>2012-08-22T19:15:44Z</time>
      </trkpt>
      <trkpt lat="50.42954" lon="1.97852">
        <ele>109</ele>
        <time>2012-08-22T19:15:46Z</time>
      </trkpt>
      <trkpt lat="50.42958" lon="1.97843">
        <ele>108</ele>
        <time>2012-08-22T19:15:48Z</time>
      </trkpt>
      <trkpt lat="50.42961" lon="1.97835">
        <ele>109</ele>
        <time>2012-08-22T19:15:50Z</time>
      </trkpt>
      <trkpt lat="50.42965" lon="1.97827">
        <ele>111</ele>
        <time>2012-08-22T19:15:52Z</time>
      </trkpt>
      <trkpt lat="50.4297" lon="1.97819">
        <ele>111</ele>
        <time>2012-08-22T19:15:54Z</time>
      </trkpt>
      <trkpt lat="50.42975" lon="1.97811">
        <ele>111</ele>
        <time>2012-08-22T19:15:56Z</time>
      </trkpt>
      <trkpt lat="50.42979" lon="1.97802">
        <ele>111</ele>
        <time>2012-08-22T19:15:58Z</time>
      </trkpt>
      <trkpt lat="50.42985" lon="1.97793">
        <ele>111</ele>
        <time>2012-08-22T19:16:00Z</time>
      </trkpt>
      <trkpt lat="50.42991" lon="1.97779">
        <ele>109</ele>
        <time>2012-08-22T19:16:02Z</time>
      </trkpt>
      <trkpt lat="50.42996" lon="1.97771">
        <ele>112</ele>
        <time>2012-08-22T19:16:04Z</time>
      </trkpt>
      <trkpt lat="50.43" lon="1.97763">
        <ele>113</ele>
        <time>2012-08-22T19:16:06Z</time>
      </trkpt>
      <trkpt lat="50.43006" lon="1.97755">
        <ele>114</ele>
        <time>2012-08-22T19:16:08Z</time>
      </trkpt>
      <trkpt lat="50.43011" lon="1.97748">
        <ele>114</ele>
        <time>2012-08-22T19:16:10Z</time>
      </trkpt>
      <trkpt lat="50.43016" lon="1.97741">
        <ele>115</ele>
        <time>2012-08-22T19:16:12Z</time>
      </trkpt>
      <trkpt lat="50.43021" lon="1.97734">
        <ele>114</ele>
        <time>2012-08-22T19:16:14Z</time>
      </trkpt>
      <trkpt lat="50.43027" lon="1.97726">
        <ele>113</ele>
        <time>2012-08-22T19:16:16Z</time>
      </trkpt>
      <trkpt lat="50.43033" lon="1.97719">
        <ele>112</ele>
        <time>2012-08-22T19:16:18Z</time>
      </trkpt>
      <trkpt lat="50.43039" lon="1.97712">
        <ele>112</ele>
        <time>2012-08-22T19:16:20Z</time>
      </trkpt>
      <trkpt lat="50.43044" lon="1.97705">
        <ele>112</ele>
        <time>2012-08-22T19:16:22Z</time>
      </trkpt>
      <trkpt lat="50.43049" lon="1.97699">
        <ele>113</ele>
        <time>2012-08-22T19:16:24Z</time>
      </trkpt>
      <trkpt lat="50.43055" lon="1.97693">
        <ele>114</ele>
        <time>2012-08-22T19:16:26Z</time>
      </trkpt>
      <trkpt lat="50.43061" lon="1.97687">
        <ele>114</ele>
        <time>2012-08-22T19:16:28Z</time>
      </trkpt>
      <trkpt lat="50.43067" lon="1.9768">
        <ele>113</ele>
        <time>2012-08-22T19:16:30Z</time>
      </trkpt>
      <trkpt lat="50.43073" lon="1.97674">
        <ele>111</ele>
        <time>2012-08-22T19:16:32Z</time>
      </trkpt>
      <trkpt lat="50.43079" lon="1.97668">
        <ele>111</ele>
        <time>2012-08-22T19:16:34Z</time>
      </trkpt>
      <trkpt lat="50.43085" lon="1.97663">
        <ele>111</ele>
        <time>2012-08-22T19:16:36Z</time>
      </trkpt>
      <trkpt lat="50.4309" lon="1.97658">
        <ele>111</ele>
        <time>2012-08-22T19:16:38Z</time>
      </trkpt>
      <trkpt lat="50.43095" lon="1.97655">
        <ele>110</ele>
        <time>2012-08-22T19:16:40Z</time>
      </trkpt>
      <trkpt lat="50.431" lon="1.9766">
        <ele>109</ele>
        <time>2012-08-22T19:16:42Z</time>
      </trkpt>
      <trkpt lat="50.43105" lon="1.97666">
        <ele>108</ele>
        <time>2012-08-22T19:16:44Z</time>
      </trkpt>
      <trkpt lat="50.43109" lon="1.97681">
        <ele>107</ele>
        <time>2012-08-22T19:16:46Z</time>
      </trkpt>
      <trkpt lat="50.43113" lon="1.97694">
        <ele>106</ele>
        <time>2012-08-22T19:16:48Z</time>
      </trkpt>
      <trkpt lat="50.43117" lon="1.97707">
        <ele>106</ele>
        <time>2012-08-22T19:16:50Z</time>
      </trkpt>
      <trkpt lat="50.43121" lon="1.9772">
        <ele>106</ele>
        <time>2012-08-22T19:16:52Z</time>
      </trkpt>
      <trkpt lat="50.43126" lon="1.97732">
        <ele>106</ele>
        <time>2012-08-22T19:16:54Z</time>
      </trkpt>
      <trkpt lat="50.4313" lon="1.97744">
        <ele>106</ele>
        <time>2012-08-22T19:16:56Z</time>
      </trkpt>
      <trkpt lat="50.43134" lon="1.97756">
        <ele>106</ele>
        <time>2012-08-22T19:16:58Z</time>
      </trkpt>
      <trkpt lat="50.43138" lon="1.97767">
        <ele>107</ele>
        <time>2012-08-22T19:17:00Z</time>
      </trkpt>
      <trkpt lat="50.43142" lon="1.97778">
        <ele>107</ele>
        <time>2012-08-22T19:17:02Z</time>
      </trkpt>
      <trkpt lat="50.43146" lon="1.97788">
        <ele>107</ele>
        <time>2012-08-22T19:17:04Z</time>
      </trkpt>
      <trkpt lat="50.43149" lon="1.97799">
        <ele>105</ele>
        <time>2012-08-22T19:17:06Z</time>
      </trkpt>
      <trkpt lat="50.43152" lon="1.97808">
        <ele>106</ele>
        <time>2012-08-22T19:17:08Z</time>
      </trkpt>
      <trkpt lat="50.43155" lon="1.97817">
        <ele>106</ele>
        <time>2012-08-22T19:17:10Z</time>
      </trkpt>
      <trkpt lat="50.43158" lon="1.97825">
        <ele>108</ele>
        <time>2012-08-22T19:17:12Z</time>
      </trkpt>
      <trkpt lat="50.43162" lon="1.97834">
        <ele>108</ele>
        <time>2012-08-22T19:17:14Z</time>
      </trkpt>
      <trkpt lat="50.43165" lon="1.97844">
        <ele>107</ele>
        <time>2012-08-22T19:17:16Z</time>
      </trkpt>
      <trkpt lat="50.43169" lon="1.97854">
        <ele>106</ele>
        <time>2012-08-22T19:17:18Z</time>
      </trkpt>
      <trkpt lat="50.43172" lon="1.97864">
        <ele>107</ele>
        <time>2012-08-22T19:17:20Z</time>
      </trkpt>
      <trkpt lat="50.43175" lon="1.97874">
        <ele>107</ele>
        <time>2012-08-22T19:17:22Z</time>
      </trkpt>
      <trkpt lat="50.43179" lon="1.97884">
        <ele>107</ele>
        <time>2012-08-22T19:17:24Z</time>
      </trkpt>
      <trkpt lat="50.43182" lon="1.97895">
        <ele>107</ele>
        <time>2012-08-22T19:17:26Z</time>
      </trkpt>
      <trkpt lat="50.43186" lon="1.97905">
        <ele>107</ele>
        <time>2012-08-22T19:17:28Z</time>
      </trkpt>
      <trkpt lat="50.4319" lon="1.97915">
        <ele>106</ele>
        <time>2012-08-22T19:17:30Z</time>
      </trkpt>
      <trkpt lat="50.43193" lon="1.97925">
        <ele>107</ele>
        <time>2012-08-22T19:17:32Z</time>
      </trkpt>
      <trkpt lat="50.43197" lon="1.97936">
        <ele>106</ele>
        <time>2012-08-22T19:17:34Z</time>
      </trkpt>
      <trkpt lat="50.43201" lon="1.97947">
        <ele>105</ele>
        <time>2012-08-22T19:17:36Z</time>
      </trkpt>
      <trkpt lat="50.43205" lon="1.97957">
        <ele>105</ele>
        <time>2012-08-22T19:17:38Z</time>
      </trkpt>
      <trkpt lat="50.43209" lon="1.97969">
        <ele>105</ele>
        <time>2012-08-22T19:17:40Z</time>
      </trkpt>
      <trkpt lat="50.43213" lon="1.9798">
        <ele>105</ele>
        <time>2012-08-22T19:17:42Z</time>
      </trkpt>
      <trkpt lat="50.43216" lon="1.97991">
        <ele>105</ele>
        <time>2012-08-22T19:17:44Z</time>
      </trkpt>
      <trkpt lat="50.4322" lon="1.98002">
        <ele>106</ele>
        <time>2012-08-22T19:17:46Z</time>
      </trkpt>
      <trkpt lat="50.43224" lon="1.98013">
        <ele>105</ele>
        <time>2012-08-22T19:17:48Z</time>
      </trkpt>
      <trkpt lat="50.43228" lon="1.98025">
        <ele>104</ele>
        <time>2012-08-22T19:17:50Z</time>
      </trkpt>
      <trkpt lat="50.43231" lon="1.98037">
        <ele>105</ele>
        <time>2012-08-22T19:17:52Z</time>
      </trkpt>
      <trkpt lat="50.43235" lon="1.98048">
        <ele>105</ele>
        <time>2012-08-22T19:17:54Z</time>
      </trkpt>
      <trkpt lat="50.43239" lon="1.9806">
        <ele>106</ele>
        <time>2012-08-22T19:17:56Z</time>
      </trkpt>
      <trkpt lat="50.43243" lon="1.98071">
        <ele>106</ele>
        <time>2012-08-22T19:17:58Z</time>
      </trkpt>
      <trkpt lat="50.43247" lon="1.98082">
        <ele>106</ele>
        <time>2012-08-22T19:18:00Z</time>
      </trkpt>
      <trkpt lat="50.43251" lon="1.98094">
        <ele>106</ele>
        <time>2012-08-22T19:18:02Z</time>
      </trkpt>
      <trkpt lat="50.43255" lon="1.98105">
        <ele>105</ele>
        <time>2012-08-22T19:18:04Z</time>
      </trkpt>
      <trkpt lat="50.43258" lon="1.98117">
        <ele>105</ele>
        <time>2012-08-22T19:18:06Z</time>
      </trkpt>
      <trkpt lat="50.43263" lon="1.98128">
        <ele>105</ele>
        <time>2012-08-22T19:18:08Z</time>
      </trkpt>
      <trkpt lat="50.43266" lon="1.98139">
        <ele>105</ele>
        <time>2012-08-22T19:18:10Z</time>
      </trkpt>
      <trkpt lat="50.43271" lon="1.98151">
        <ele>105</ele>
        <time>2012-08-22T19:18:12Z</time>
      </trkpt>
      <trkpt lat="50.43275" lon="1.98162">
        <ele>105</ele>
        <time>2012-08-22T19:18:14Z</time>
      </trkpt>
      <trkpt lat="50.4328" lon="1.98175">
        <ele>105</ele>
        <time>2012-08-22T19:18:16Z</time>
      </trkpt>
      <trkpt lat="50.43284" lon="1.98187">
        <ele>105</ele>
        <time>2012-08-22T19:18:18Z</time>
      </trkpt>
      <trkpt lat="50.43288" lon="1.98199">
        <ele>107</ele>
        <time>2012-08-22T19:18:20Z</time>
      </trkpt>
      <trkpt lat="50.43293" lon="1.98211">
        <ele>107</ele>
        <time>2012-08-22T19:18:22Z</time>
      </trkpt>
      <trkpt lat="50.43296" lon="1.98223">
        <ele>108</ele>
        <time>2012-08-22T19:18:24Z</time>
      </trkpt>
      <trkpt lat="50.433" lon="1.98235">
        <ele>108</ele>
        <time>2012-08-22T19:18:26Z</time>
      </trkpt>
      <trkpt lat="50.43303" lon="1.98247">
        <ele>108</ele>
        <time>2012-08-22T19:18:28Z</time>
      </trkpt>
      <trkpt lat="50.43308" lon="1.9826">
        <ele>108</ele>
        <time>2012-08-22T19:18:30Z</time>
      </trkpt>
      <trkpt lat="50.43313" lon="1.98273">
        <ele>108</ele>
        <time>2012-08-22T19:18:32Z</time>
      </trkpt>
      <trkpt lat="50.43317" lon="1.98285">
        <ele>108</ele>
        <time>2012-08-22T19:18:34Z</time>
      </trkpt>
      <trkpt lat="50.43321" lon="1.98295">
        <ele>108</ele>
        <time>2012-08-22T19:18:36Z</time>
      </trkpt>
      <trkpt lat="50.43325" lon="1.98306">
        <ele>107</ele>
        <time>2012-08-22T19:18:38Z</time>
      </trkpt>
      <trkpt lat="50.43329" lon="1.98318">
        <ele>106</ele>
        <time>2012-08-22T19:18:40Z</time>
      </trkpt>
      <trkpt lat="50.43333" lon="1.98331">
        <ele>106</ele>
        <time>2012-08-22T19:18:42Z</time>
      </trkpt>
      <trkpt lat="50.43338" lon="1.98344">
        <ele>106</ele>
        <time>2012-08-22T19:18:44Z</time>
      </trkpt>
      <trkpt lat="50.43342" lon="1.98357">
        <ele>106</ele>
        <time>2012-08-22T19:18:46Z</time>
      </trkpt>
      <trkpt lat="50.43346" lon="1.98368">
        <ele>106</ele>
        <time>2012-08-22T19:18:48Z</time>
      </trkpt>
      <trkpt lat="50.43351" lon="1.98382">
        <ele>105</ele>
        <time>2012-08-22T19:18:50Z</time>
      </trkpt>
      <trkpt lat="50.43356" lon="1.98394">
        <ele>105</ele>
        <time>2012-08-22T19:18:52Z</time>
      </trkpt>
      <trkpt lat="50.43361" lon="1.98407">
        <ele>103</ele>
        <time>2012-08-22T19:18:54Z</time>
      </trkpt>
      <trkpt lat="50.43365" lon="1.98418">
        <ele>105</ele>
        <time>2012-08-22T19:18:56Z</time>
      </trkpt>
      <trkpt lat="50.43369" lon="1.9843">
        <ele>105</ele>
        <time>2012-08-22T19:18:58Z</time>
      </trkpt>
      <trkpt lat="50.43374" lon="1.98441">
        <ele>105</ele>
        <time>2012-08-22T19:19:00Z</time>
      </trkpt>
      <trkpt lat="50.43379" lon="1.9845">
        <ele>105</ele>
        <time>2012-08-22T19:19:02Z</time>
      </trkpt>
      <trkpt lat="50.43385" lon="1.9846">
        <ele>105</ele>
        <time>2012-08-22T19:19:04Z</time>
      </trkpt>
      <trkpt lat="50.43391" lon="1.9847">
        <ele>107</ele>
        <time>2012-08-22T19:19:06Z</time>
      </trkpt>
      <trkpt lat="50.43398" lon="1.98479">
        <ele>107</ele>
        <time>2012-08-22T19:19:08Z</time>
      </trkpt>
      <trkpt lat="50.43406" lon="1.9849">
        <ele>108</ele>
        <time>2012-08-22T19:19:10Z</time>
      </trkpt>
      <trkpt lat="50.43414" lon="1.98502">
        <ele>107</ele>
        <time>2012-08-22T19:19:12Z</time>
      </trkpt>
      <trkpt lat="50.4342" lon="1.98515">
        <ele>106</ele>
        <time>2012-08-22T19:19:14Z</time>
      </trkpt>
      <trkpt lat="50.43427" lon="1.98527">
        <ele>107</ele>
        <time>2012-08-22T19:19:16Z</time>
      </trkpt>
      <trkpt lat="50.43432" lon="1.98538">
        <ele>107</ele>
        <time>2012-08-22T19:19:18Z</time>
      </trkpt>
      <trkpt lat="50.43438" lon="1.98548">
        <ele>107</ele>
        <time>2012-08-22T19:19:20Z</time>
      </trkpt>
      <trkpt lat="50.43443" lon="1.98557">
        <ele>105</ele>
        <time>2012-08-22T19:19:22Z</time>
      </trkpt>
      <trkpt lat="50.43448" lon="1.98566">
        <ele>102</ele>
        <time>2012-08-22T19:19:24Z</time>
      </trkpt>
      <trkpt lat="50.43456" lon="1.98577">
        <ele>102</ele>
        <time>2012-08-22T19:19:26Z</time>
      </trkpt>
      <trkpt lat="50.43464" lon="1.98588">
        <ele>106</ele>
        <time>2012-08-22T19:19:28Z</time>
      </trkpt>
      <trkpt lat="50.4347" lon="1.986">
        <ele>104</ele>
        <time>2012-08-22T19:19:30Z</time>
      </trkpt>
      <trkpt lat="50.43476" lon="1.9861">
        <ele>104</ele>
        <time>2012-08-22T19:19:32Z</time>
      </trkpt>
      <trkpt lat="50.43485" lon="1.98623">
        <ele>105</ele>
        <time>2012-08-22T19:19:34Z</time>
      </trkpt>
      <trkpt lat="50.43491" lon="1.98633">
        <ele>104</ele>
        <time>2012-08-22T19:19:36Z</time>
      </trkpt>
      <trkpt lat="50.43498" lon="1.98643">
        <ele>104</ele>
        <time>2012-08-22T19:19:38Z</time>
      </trkpt>
      <trkpt lat="50.43504" lon="1.98656">
        <ele>103</ele>
        <time>2012-08-22T19:19:40Z</time>
      </trkpt>
      <trkpt lat="50.4351" lon="1.98668">
        <ele>103</ele>
        <time>2012-08-22T19:19:42Z</time>
      </trkpt>
      <trkpt lat="50.43517" lon="1.98679">
        <ele>103</ele>
        <time>2012-08-22T19:19:44Z</time>
      </trkpt>
      <trkpt lat="50.43525" lon="1.98692">
        <ele>103</ele>
        <time>2012-08-22T19:19:46Z</time>
      </trkpt>
      <trkpt lat="50.43529" lon="1.98704">
        <ele>103</ele>
        <time>2012-08-22T19:19:48Z</time>
      </trkpt>
      <trkpt lat="50.43535" lon="1.98717">
        <ele>102</ele>
        <time>2012-08-22T19:19:50Z</time>
      </trkpt>
      <trkpt lat="50.4354" lon="1.98731">
        <ele>101</ele>
        <time>2012-08-22T19:19:52Z</time>
      </trkpt>
      <trkpt lat="50.43546" lon="1.98744">
        <ele>101</ele>
        <time>2012-08-22T19:19:54Z</time>
      </trkpt>
      <trkpt lat="50.43552" lon="1.98758">
        <ele>100</ele>
        <time>2012-08-22T19:19:56Z</time>
      </trkpt>
      <trkpt lat="50.43556" lon="1.9877">
        <ele>101</ele>
        <time>2012-08-22T19:19:58Z</time>
      </trkpt>
      <trkpt lat="50.43563" lon="1.98782">
        <ele>100</ele>
        <time>2012-08-22T19:20:00Z</time>
      </trkpt>
      <trkpt lat="50.43569" lon="1.98793">
        <ele>100</ele>
        <time>2012-08-22T19:20:02Z</time>
      </trkpt>
      <trkpt lat="50.43574" lon="1.98807">
        <ele>100</ele>
        <time>2012-08-22T19:20:04Z</time>
      </trkpt>
      <trkpt lat="50.4358" lon="1.98817">
        <ele>99</ele>
        <time>2012-08-22T19:20:06Z</time>
      </trkpt>
      <trkpt lat="50.43584" lon="1.98823">
        <ele>100</ele>
        <time>2012-08-22T19:20:08Z</time>
      </trkpt>
      <trkpt lat="50.4359" lon="1.98835">
        <ele>102</ele>
        <time>2012-08-22T19:20:10Z</time>
      </trkpt>
      <trkpt lat="50.43595" lon="1.98846">
        <ele>102</ele>
        <time>2012-08-22T19:20:12Z</time>
      </trkpt>
      <trkpt lat="50.436" lon="1.98859">
        <ele>102</ele>
        <time>2012-08-22T19:20:14Z</time>
      </trkpt>
      <trkpt lat="50.43604" lon="1.98871">
        <ele>103</ele>
        <time>2012-08-22T19:20:16Z</time>
      </trkpt>
      <trkpt lat="50.43609" lon="1.98882">
        <ele>103</ele>
        <time>2012-08-22T19:20:18Z</time>
      </trkpt>
      <trkpt lat="50.43615" lon="1.98895">
        <ele>102</ele>
        <time>2012-08-22T19:20:20Z</time>
      </trkpt>
      <trkpt lat="50.43619" lon="1.98906">
        <ele>102</ele>
        <time>2012-08-22T19:20:22Z</time>
      </trkpt>
      <trkpt lat="50.43625" lon="1.98918">
        <ele>101</ele>
        <time>2012-08-22T19:20:24Z</time>
      </trkpt>
      <trkpt lat="50.4363" lon="1.98928">
        <ele>101</ele>
        <time>2012-08-22T19:20:26Z</time>
      </trkpt>
      <trkpt lat="50.43635" lon="1.98939">
        <ele>100</ele>
        <time>2012-08-22T19:20:28Z</time>
      </trkpt>
      <trkpt lat="50.43639" lon="1.98951">
        <ele>99</ele>
        <time>2012-08-22T19:20:30Z</time>
      </trkpt>
      <trkpt lat="50.43645" lon="1.98963">
        <ele>100</ele>
        <time>2012-08-22T19:20:32Z</time>
      </trkpt>
      <trkpt lat="50.43646" lon="1.98975">
        <ele>101</ele>
        <time>2012-08-22T19:20:34Z</time>
      </trkpt>
      <trkpt lat="50.43651" lon="1.98991">
        <ele>100</ele>
        <time>2012-08-22T19:20:36Z</time>
      </trkpt>
      <trkpt lat="50.43655" lon="1.99002">
        <ele>103</ele>
        <time>2012-08-22T19:20:38Z</time>
      </trkpt>
      <trkpt lat="50.4366" lon="1.99013">
        <ele>102</ele>
        <time>2012-08-22T19:20:40Z</time>
      </trkpt>
      <trkpt lat="50.43665" lon="1.99026">
        <ele>102</ele>
        <time>2012-08-22T19:20:42Z</time>
      </trkpt>
      <trkpt lat="50.43669" lon="1.99038">
        <ele>101</ele>
        <time>2012-08-22T19:20:44Z</time>
      </trkpt>
      <trkpt lat="50.43673" lon="1.99051">
        <ele>101</ele>
        <time>2012-08-22T19:20:46Z</time>
      </trkpt>
      <trkpt lat="50.43678" lon="1.99062">
        <ele>100</ele>
        <time>2012-08-22T19:20:48Z</time>
      </trkpt>
      <trkpt lat="50.43683" lon="1.99074">
        <ele>100</ele>
        <time>2012-08-22T19:20:50Z</time>
      </trkpt>
      <trkpt lat="50.43689" lon="1.99087">
        <ele>99</ele>
        <time>2012-08-22T19:20:52Z</time>
      </trkpt>
      <trkpt lat="50.43695" lon="1.99098">
        <ele>98</ele>
        <time>2012-08-22T19:20:54Z</time>
      </trkpt>
      <trkpt lat="50.43701" lon="1.9911">
        <ele>99</ele>
        <time>2012-08-22T19:20:56Z</time>
      </trkpt>
      <trkpt lat="50.43708" lon="1.99122">
        <ele>98</ele>
        <time>2012-08-22T19:20:58Z</time>
      </trkpt>
      <trkpt lat="50.43715" lon="1.99135">
        <ele>97</ele>
        <time>2012-08-22T19:21:00Z</time>
      </trkpt>
      <trkpt lat="50.43721" lon="1.99147">
        <ele>97</ele>
        <time>2012-08-22T19:21:02Z</time>
      </trkpt>
      <trkpt lat="50.43728" lon="1.99161">
        <ele>97</ele>
        <time>2012-08-22T19:21:04Z</time>
      </trkpt>
      <trkpt lat="50.43734" lon="1.99175">
        <ele>98</ele>
        <time>2012-08-22T19:21:06Z</time>
      </trkpt>
      <trkpt lat="50.43742" lon="1.99189">
        <ele>98</ele>
        <time>2012-08-22T19:21:08Z</time>
      </trkpt>
      <trkpt lat="50.43749" lon="1.99203">
        <ele>98</ele>
        <time>2012-08-22T19:21:10Z</time>
      </trkpt>
      <trkpt lat="50.43756" lon="1.99217">
        <ele>98</ele>
        <time>2012-08-22T19:21:12Z</time>
      </trkpt>
      <trkpt lat="50.43764" lon="1.99231">
        <ele>99</ele>
        <time>2012-08-22T19:21:14Z</time>
      </trkpt>
      <trkpt lat="50.43771" lon="1.99246">
        <ele>100</ele>
        <time>2012-08-22T19:21:16Z</time>
      </trkpt>
      <trkpt lat="50.43778" lon="1.9926">
        <ele>99</ele>
        <time>2012-08-22T19:21:18Z</time>
      </trkpt>
      <trkpt lat="50.43784" lon="1.99274">
        <ele>99</ele>
        <time>2012-08-22T19:21:20Z</time>
      </trkpt>
      <trkpt lat="50.4379" lon="1.99289">
        <ele>99</ele>
        <time>2012-08-22T19:21:22Z</time>
      </trkpt>
      <trkpt lat="50.43798" lon="1.99302">
        <ele>98</ele>
        <time>2012-08-22T19:21:24Z</time>
      </trkpt>
      <trkpt lat="50.43805" lon="1.99313">
        <ele>99</ele>
        <time>2012-08-22T19:21:26Z</time>
      </trkpt>
      <trkpt lat="50.43813" lon="1.99327">
        <ele>101</ele>
        <time>2012-08-22T19:21:28Z</time>
      </trkpt>
      <trkpt lat="50.4382" lon="1.99338">
        <ele>99</ele>
        <time>2012-08-22T19:21:30Z</time>
      </trkpt>
      <trkpt lat="50.43827" lon="1.99349">
        <ele>100</ele>
        <time>2012-08-22T19:21:32Z</time>
      </trkpt>
      <trkpt lat="50.43832" lon="1.99363">
        <ele>99</ele>
        <time>2012-08-22T19:21:34Z</time>
      </trkpt>
      <trkpt lat="50.43839" lon="1.99375">
        <ele>99</ele>
        <time>2012-08-22T19:21:36Z</time>
      </trkpt>
      <trkpt lat="50.43844" lon="1.99386">
        <ele>99</ele>
        <time>2012-08-22T19:21:38Z</time>
      </trkpt>
      <trkpt lat="50.4385" lon="1.99398">
        <ele>99</ele>
        <time>2012-08-22T19:21:40Z</time>
      </trkpt>
      <trkpt lat="50.43856" lon="1.99411">
        <ele>100</ele>
        <time>2012-08-22T19:21:42Z</time>
      </trkpt>
      <trkpt lat="50.43863" lon="1.99422">
        <ele>100</ele>
        <time>2012-08-22T19:21:44Z</time>
      </trkpt>
      <trkpt lat="50.43868" lon="1.99434">
        <ele>101</ele>
        <time>2012-08-22T19:21:46Z</time>
      </trkpt>
      <trkpt lat="50.43874" lon="1.99445">
        <ele>100</ele>
        <time>2012-08-22T19:21:48Z</time>
      </trkpt>
      <trkpt lat="50.4388" lon="1.99457">
        <ele>100</ele>
        <time>2012-08-22T19:21:50Z</time>
      </trkpt>
      <trkpt lat="50.43887" lon="1.9947">
        <ele>101</ele>
        <time>2012-08-22T19:21:52Z</time>
      </trkpt>
      <trkpt lat="50.43894" lon="1.99482">
        <ele>101</ele>
        <time>2012-08-22T19:21:54Z</time>
      </trkpt>
      <trkpt lat="50.43899" lon="1.99492">
        <ele>101</ele>
        <time>2012-08-22T19:21:56Z</time>
      </trkpt>
      <trkpt lat="50.43904" lon="1.99503">
        <ele>101</ele>
        <time>2012-08-22T19:21:58Z</time>
      </trkpt>
      <trkpt lat="50.43909" lon="1.99517">
        <ele>99</ele>
        <time>2012-08-22T19:22:00Z</time>
      </trkpt>
      <trkpt lat="50.43914" lon="1.99529">
        <ele>100</ele>
        <time>2012-08-22T19:22:02Z</time>
      </trkpt>
      <trkpt lat="50.4392" lon="1.99541">
        <ele>101</ele>
        <time>2012-08-22T19:22:04Z</time>
      </trkpt>
      <trkpt lat="50.43925" lon="1.99553">
        <ele>101</ele>
        <time>2012-08-22T19:22:06Z</time>
      </trkpt>
      <trkpt lat="50.43931" lon="1.99564">
        <ele>101</ele>
        <time>2012-08-22T19:22:08Z</time>
      </trkpt>
      <trkpt lat="50.43935" lon="1.99575">
        <ele>101</ele>
        <time>2012-08-22T19:22:10Z</time>
      </trkpt>
      <trkpt lat="50.4394" lon="1.99586">
        <ele>102</ele>
        <time>2012-08-22T19:22:12Z</time>
      </trkpt>
      <trkpt lat="50.43946" lon="1.99596">
        <ele>101</ele>
        <time>2012-08-22T19:22:14Z</time>
      </trkpt>
      <trkpt lat="50.43951" lon="1.99606">
        <ele>102</ele>
        <time>2012-08-22T19:22:16Z</time>
      </trkpt>
      <trkpt lat="50.43956" lon="1.99615">
        <ele>102</ele>
        <time>2012-08-22T19:22:18Z</time>
      </trkpt>
      <trkpt lat="50.43961" lon="1.99624">
        <ele>101</ele>
        <time>2012-08-22T19:22:20Z</time>
      </trkpt>
      <trkpt lat="50.43966" lon="1.99633">
        <ele>101</ele>
        <time>2012-08-22T19:22:22Z</time>
      </trkpt>
      <trkpt lat="50.43971" lon="1.99641">
        <ele>100</ele>
        <time>2012-08-22T19:22:24Z</time>
      </trkpt>
      <trkpt lat="50.43975" lon="1.99651">
        <ele>100</ele>
        <time>2012-08-22T19:22:26Z</time>
      </trkpt>
      <trkpt lat="50.4398" lon="1.9966">
        <ele>100</ele>
        <time>2012-08-22T19:22:28Z</time>
      </trkpt>
      <trkpt lat="50.43984" lon="1.9967">
        <ele>100</ele>
        <time>2012-08-22T19:22:30Z</time>
      </trkpt>
      <trkpt lat="50.43988" lon="1.99678">
        <ele>100</ele>
        <time>2012-08-22T19:22:32Z</time>
      </trkpt>
      <trkpt lat="50.43993" lon="1.99686">
        <ele>100</ele>
        <time>2012-08-22T19:22:34Z</time>
      </trkpt>
      <trkpt lat="50.43997" lon="1.99694">
        <ele>101</ele>
        <time>2012-08-22T19:22:36Z</time>
      </trkpt>
      <trkpt lat="50.44" lon="1.99702">
        <ele>102</ele>
        <time>2012-08-22T19:22:38Z</time>
      </trkpt>
      <trkpt lat="50.44003" lon="1.99711">
        <ele>102</ele>
        <time>2012-08-22T19:22:40Z</time>
      </trkpt>
      <trkpt lat="50.44007" lon="1.9972">
        <ele>102</ele>
        <time>2012-08-22T19:22:42Z</time>
      </trkpt>
      <trkpt lat="50.44011" lon="1.99729">
        <ele>103</ele>
        <time>2012-08-22T19:22:44Z</time>
      </trkpt>
      <trkpt lat="50.44016" lon="1.99738">
        <ele>100</ele>
        <time>2012-08-22T19:22:46Z</time>
      </trkpt>
      <trkpt lat="50.4402" lon="1.99744">
        <ele>98</ele>
        <time>2012-08-22T19:22:48Z</time>
      </trkpt>
      <trkpt lat="50.44024" lon="1.99751">
        <ele>98</ele>
        <time>2012-08-22T19:22:50Z</time>
      </trkpt>
      <trkpt lat="50.44027" lon="1.99759">
        <ele>99</ele>
        <time>2012-08-22T19:22:52Z</time>
      </trkpt>
      <trkpt lat="50.44029" lon="1.99767">
        <ele>99</ele>
        <time>2012-08-22T19:22:54Z</time>
      </trkpt>
      <trkpt lat="50.44032" lon="1.99774">
        <ele>101</ele>
        <time>2012-08-22T19:22:56Z</time>
      </trkpt>
      <trkpt lat="50.44035" lon="1.99779">
        <ele>101</ele>
        <time>2012-08-22T19:22:58Z</time>
      </trkpt>
      <trkpt lat="50.44038" lon="1.99785">
        <ele>101</ele>
        <time>2012-08-22T19:23:00Z</time>
      </trkpt>
      <trkpt lat="50.44041" lon="1.99792">
        <ele>101</ele>
        <time>2012-08-22T19:23:02Z</time>
      </trkpt>
      <trkpt lat="50.44045" lon="1.99799">
        <ele>100</ele>
        <time>2012-08-22T19:23:04Z</time>
      </trkpt>
      <trkpt lat="50.44049" lon="1.99806">
        <ele>101</ele>
        <time>2012-08-22T19:23:06Z</time>
      </trkpt>
      <trkpt lat="50.44052" lon="1.99812">
        <ele>102</ele>
        <time>2012-08-22T19:23:08Z</time>
      </trkpt>
      <trkpt lat="50.44055" lon="1.99819">
        <ele>104</ele>
        <time>2012-08-22T19:23:10Z</time>
      </trkpt>
      <trkpt lat="50.44058" lon="1.99825">
        <ele>106</ele>
        <time>2012-08-22T19:23:12Z</time>
      </trkpt>
      <trkpt lat="50.44061" lon="1.99832">
        <ele>105</ele>
        <time>2012-08-22T19:23:14Z</time>
      </trkpt>
      <trkpt lat="50.44065" lon="1.99842">
        <ele>105</ele>
        <time>2012-08-22T19:23:16Z</time>
      </trkpt>
      <trkpt lat="50.4407" lon="1.99851">
        <ele>105</ele>
        <time>2012-08-22T19:23:18Z</time>
      </trkpt>
      <trkpt lat="50.44074" lon="1.9986">
        <ele>105</ele>
        <time>2012-08-22T19:23:20Z</time>
      </trkpt>
      <trkpt lat="50.44078" lon="1.99869">
        <ele>103</ele>
        <time>2012-08-22T19:23:22Z</time>
      </trkpt>
      <trkpt lat="50.44083" lon="1.99878">
        <ele>102</ele>
        <time>2012-08-22T19:23:24Z</time>
      </trkpt>
      <trkpt lat="50.44087" lon="1.99886">
        <ele>103</ele>
        <time>2012-08-22T19:23:26Z</time>
      </trkpt>
      <trkpt lat="50.44092" lon="1.99895">
        <ele>103</ele>
        <time>2012-08-22T19:23:28Z</time>
      </trkpt>
      <trkpt lat="50.44096" lon="1.99904">
        <ele>102</ele>
        <time>2012-08-22T19:23:30Z</time>
      </trkpt>
      <trkpt lat="50.44101" lon="1.99913">
        <ele>103</ele>
        <time>2012-08-22T19:23:32Z</time>
      </trkpt>
      <trkpt lat="50.44106" lon="1.99923">
        <ele>103</ele>
        <time>2012-08-22T19:23:34Z</time>
      </trkpt>
      <trkpt lat="50.44111" lon="1.99935">
        <ele>104</ele>
        <time>2012-08-22T19:23:36Z</time>
      </trkpt>
      <trkpt lat="50.44116" lon="1.99947">
        <ele>105</ele>
        <time>2012-08-22T19:23:38Z</time>
      </trkpt>
      <trkpt lat="50.44122" lon="1.99958">
        <ele>105</ele>
        <time>2012-08-22T19:23:40Z</time>
      </trkpt>
      <trkpt lat="50.44127" lon="1.9997">
        <ele>104</ele>
        <time>2012-08-22T19:23:42Z</time>
      </trkpt>
      <trkpt lat="50.44133" lon="1.99981">
        <ele>104</ele>
        <time>2012-08-22T19:23:44Z</time>
      </trkpt>
      <trkpt lat="50.44138" lon="1.99992">
        <ele>104</ele>
        <time>2012-08-22T19:23:46Z</time>
      </trkpt>
      <trkpt lat="50.44143" lon="2.00002">
        <ele>103</ele>
        <time>2012-08-22T19:23:48Z</time>
      </trkpt>
      <trkpt lat="50.44148" lon="2.00014">
        <ele>105</ele>
        <time>2012-08-22T19:23:50Z</time>
      </trkpt>
      <trkpt lat="50.44153" lon="2.00025">
        <ele>105</ele>
        <time>2012-08-22T19:23:52Z</time>
      </trkpt>
      <trkpt lat="50.44158" lon="2.00037">
        <ele>103</ele>
        <time>2012-08-22T19:23:54Z</time>
      </trkpt>
      <trkpt lat="50.44163" lon="2.0005">
        <ele>103</ele>
        <time>2012-08-22T19:23:56Z</time>
      </trkpt>
      <trkpt lat="50.44169" lon="2.00062">
        <ele>103</ele>
        <time>2012-08-22T19:23:58Z</time>
      </trkpt>
      <trkpt lat="50.44174" lon="2.00073">
        <ele>103</ele>
        <time>2012-08-22T19:24:00Z</time>
      </trkpt>
      <trkpt lat="50.4418" lon="2.00086">
        <ele>104</ele>
        <time>2012-08-22T19:24:02Z</time>
      </trkpt>
      <trkpt lat="50.44186" lon="2.001">
        <ele>104</ele>
        <time>2012-08-22T19:24:04Z</time>
      </trkpt>
      <trkpt lat="50.44193" lon="2.00111">
        <ele>104</ele>
        <time>2012-08-22T19:24:06Z</time>
      </trkpt>
      <trkpt lat="50.44198" lon="2.00124">
        <ele>104</ele>
        <time>2012-08-22T19:24:08Z</time>
      </trkpt>
      <trkpt lat="50.44204" lon="2.00138">
        <ele>104</ele>
        <time>2012-08-22T19:24:10Z</time>
      </trkpt>
      <trkpt lat="50.4421" lon="2.0015">
        <ele>104</ele>
        <time>2012-08-22T19:24:12Z</time>
      </trkpt>
      <trkpt lat="50.44217" lon="2.00163">
        <ele>104</ele>
        <time>2012-08-22T19:24:14Z</time>
      </trkpt>
      <trkpt lat="50.44221" lon="2.00173">
        <ele>104</ele>
        <time>2012-08-22T19:24:16Z</time>
      </trkpt>
      <trkpt lat="50.44228" lon="2.00184">
        <ele>105</ele>
        <time>2012-08-22T19:24:18Z</time>
      </trkpt>
      <trkpt lat="50.44235" lon="2.00199">
        <ele>106</ele>
        <time>2012-08-22T19:24:20Z</time>
      </trkpt>
      <trkpt lat="50.44239" lon="2.00211">
        <ele>105</ele>
        <time>2012-08-22T19:24:22Z</time>
      </trkpt>
      <trkpt lat="50.44246" lon="2.00223">
        <ele>105</ele>
        <time>2012-08-22T19:24:24Z</time>
      </trkpt>
      <trkpt lat="50.44252" lon="2.00236">
        <ele>105</ele>
        <time>2012-08-22T19:24:26Z</time>
      </trkpt>
      <trkpt lat="50.44258" lon="2.00249">
        <ele>106</ele>
        <time>2012-08-22T19:24:28Z</time>
      </trkpt>
      <trkpt lat="50.44265" lon="2.00261">
        <ele>106</ele>
        <time>2012-08-22T19:24:30Z</time>
      </trkpt>
      <trkpt lat="50.4427" lon="2.00274">
        <ele>107</ele>
        <time>2012-08-22T19:24:32Z</time>
      </trkpt>
      <trkpt lat="50.44276" lon="2.00287">
        <ele>106</ele>
        <time>2012-08-22T19:24:34Z</time>
      </trkpt>
      <trkpt lat="50.44282" lon="2.00299">
        <ele>106</ele>
        <time>2012-08-22T19:24:36Z</time>
      </trkpt>
      <trkpt lat="50.44288" lon="2.00312">
        <ele>106</ele>
        <time>2012-08-22T19:24:38Z</time>
      </trkpt>
      <trkpt lat="50.44294" lon="2.00324">
        <ele>106</ele>
        <time>2012-08-22T19:24:40Z</time>
      </trkpt>
      <trkpt lat="50.443" lon="2.00336">
        <ele>106</ele>
        <time>2012-08-22T19:24:42Z</time>
      </trkpt>
      <trkpt lat="50.44305" lon="2.00348">
        <ele>107</ele>
        <time>2012-08-22T19:24:44Z</time>
      </trkpt>
      <trkpt lat="50.44311" lon="2.0036">
        <ele>107</ele>
        <time>2012-08-22T19:24:46Z</time>
      </trkpt>
      <trkpt lat="50.44315" lon="2.00372">
        <ele>108</ele>
        <time>2012-08-22T19:24:48Z</time>
      </trkpt>
      <trkpt lat="50.44321" lon="2.00384">
        <ele>108</ele>
        <time>2012-08-22T19:24:50Z</time>
      </trkpt>
      <trkpt lat="50.44328" lon="2.00396">
        <ele>108</ele>
        <time>2012-08-22T19:24:52Z</time>
      </trkpt>
      <trkpt lat="50.44334" lon="2.0041">
        <ele>108</ele>
        <time>2012-08-22T19:24:54Z</time>
      </trkpt>
      <trkpt lat="50.44339" lon="2.00424">
        <ele>108</ele>
        <time>2012-08-22T19:24:56Z</time>
      </trkpt>
      <trkpt lat="50.44344" lon="2.0044">
        <ele>108</ele>
        <time>2012-08-22T19:24:58Z</time>
      </trkpt>
      <trkpt lat="50.44348" lon="2.00457">
        <ele>109</ele>
        <time>2012-08-22T19:25:00Z</time>
      </trkpt>
      <trkpt lat="50.44354" lon="2.00473">
        <ele>109</ele>
        <time>2012-08-22T19:25:02Z</time>
      </trkpt>
      <trkpt lat="50.44357" lon="2.00489">
        <ele>108</ele>
        <time>2012-08-22T19:25:04Z</time>
      </trkpt>
      <trkpt lat="50.44362" lon="2.00505">
        <ele>108</ele>
        <time>2012-08-22T19:25:06Z</time>
      </trkpt>
      <trkpt lat="50.44367" lon="2.00521">
        <ele>108</ele>
        <time>2012-08-22T19:25:08Z</time>
      </trkpt>
      <trkpt lat="50.44371" lon="2.00535">
        <ele>108</ele>
        <time>2012-08-22T19:25:10Z</time>
      </trkpt>
      <trkpt lat="50.44376" lon="2.00547">
        <ele>107</ele>
        <time>2012-08-22T19:25:12Z</time>
      </trkpt>
      <trkpt lat="50.44381" lon="2.00563">
        <ele>108</ele>
        <time>2012-08-22T19:25:14Z</time>
      </trkpt>
      <trkpt lat="50.44387" lon="2.0058">
        <ele>107</ele>
        <time>2012-08-22T19:25:16Z</time>
      </trkpt>
      <trkpt lat="50.44392" lon="2.00596">
        <ele>107</ele>
        <time>2012-08-22T19:25:18Z</time>
      </trkpt>
      <trkpt lat="50.44397" lon="2.0061">
        <ele>107</ele>
        <time>2012-08-22T19:25:20Z</time>
      </trkpt>
      <trkpt lat="50.444" lon="2.00623">
        <ele>107</ele>
        <time>2012-08-22T19:25:22Z</time>
      </trkpt>
      <trkpt lat="50.44405" lon="2.00638">
        <ele>108</ele>
        <time>2012-08-22T19:25:24Z</time>
      </trkpt>
      <trkpt lat="50.44408" lon="2.00648">
        <ele>109</ele>
        <time>2012-08-22T19:25:26Z</time>
      </trkpt>
      <trkpt lat="50.44411" lon="2.00661">
        <ele>109</ele>
        <time>2012-08-22T19:25:28Z</time>
      </trkpt>
      <trkpt lat="50.44416" lon="2.00672">
        <ele>110</ele>
        <time>2012-08-22T19:25:30Z</time>
      </trkpt>
      <trkpt lat="50.4442" lon="2.00686">
        <ele>110</ele>
        <time>2012-08-22T19:25:32Z</time>
      </trkpt>
      <trkpt lat="50.44424" lon="2.007">
        <ele>109</ele>
        <time>2012-08-22T19:25:34Z</time>
      </trkpt>
      <trkpt lat="50.44426" lon="2.00712">
        <ele>109</ele>
        <time>2012-08-22T19:25:36Z</time>
      </trkpt>
      <trkpt lat="50.4443" lon="2.00724">
        <ele>108</ele>
        <time>2012-08-22T19:25:38Z</time>
      </trkpt>
      <trkpt lat="50.44432" lon="2.0074">
        <ele>109</ele>
        <time>2012-08-22T19:25:40Z</time>
      </trkpt>
      <trkpt lat="50.44432" lon="2.00754">
        <ele>109</ele>
        <time>2012-08-22T19:25:42Z</time>
      </trkpt>
      <trkpt lat="50.44424" lon="2.0077">
        <ele>110</ele>
        <time>2012-08-22T19:25:44Z</time>
      </trkpt>
      <trkpt lat="50.44416" lon="2.00783">
        <ele>110</ele>
        <time>2012-08-22T19:25:46Z</time>
      </trkpt>
      <trkpt lat="50.44409" lon="2.00797">
        <ele>110</ele>
        <time>2012-08-22T19:25:48Z</time>
      </trkpt>
      <trkpt lat="50.44404" lon="2.00806">
        <ele>110</ele>
        <time>2012-08-22T19:25:50Z</time>
      </trkpt>
      <trkpt lat="50.44397" lon="2.00818">
        <ele>110</ele>
        <time>2012-08-22T19:25:52Z</time>
      </trkpt>
      <trkpt lat="50.4439" lon="2.00828">
        <ele>111</ele>
        <time>2012-08-22T19:25:54Z</time>
      </trkpt>
      <trkpt lat="50.44382" lon="2.00839">
        <ele>110</ele>
        <time>2012-08-22T19:25:56Z</time>
      </trkpt>
      <trkpt lat="50.44376" lon="2.0085">
        <ele>111</ele>
        <time>2012-08-22T19:25:58Z</time>
      </trkpt>
      <trkpt lat="50.44371" lon="2.00863">
        <ele>111</ele>
        <time>2012-08-22T19:26:00Z</time>
      </trkpt>
      <trkpt lat="50.44367" lon="2.00875">
        <ele>111</ele>
        <time>2012-08-22T19:26:02Z</time>
      </trkpt>
      <trkpt lat="50.44357" lon="2.00884">
        <ele>110</ele>
        <time>2012-08-22T19:26:04Z</time>
      </trkpt>
      <trkpt lat="50.44352" lon="2.00893">
        <ele>111</ele>
        <time>2012-08-22T19:26:06Z</time>
      </trkpt>
      <trkpt lat="50.44346" lon="2.00903">
        <ele>112</ele>
        <time>2012-08-22T19:26:08Z</time>
      </trkpt>
      <trkpt lat="50.44339" lon="2.00915">
        <ele>112</ele>
        <time>2012-08-22T19:26:10Z</time>
      </trkpt>
      <trkpt lat="50.44331" lon="2.00925">
        <ele>113</ele>
        <time>2012-08-22T19:26:12Z</time>
      </trkpt>
      <trkpt lat="50.44325" lon="2.00939">
        <ele>114</ele>
        <time>2012-08-22T19:26:14Z</time>
      </trkpt>
      <trkpt lat="50.44318" lon="2.00951">
        <ele>113</ele>
        <time>2012-08-22T19:26:16Z</time>
      </trkpt>
      <trkpt lat="50.44311" lon="2.00968">
        <ele>112</ele>
        <time>2012-08-22T19:26:18Z</time>
      </trkpt>
      <trkpt lat="50.44307" lon="2.00981">
        <ele>113</ele>
        <time>2012-08-22T19:26:20Z</time>
      </trkpt>
      <trkpt lat="50.44304" lon="2.00995">
        <ele>114</ele>
        <time>2012-08-22T19:26:22Z</time>
      </trkpt>
      <trkpt lat="50.443" lon="2.01009">
        <ele>113</ele>
        <time>2012-08-22T19:26:24Z</time>
      </trkpt>
      <trkpt lat="50.44296" lon="2.01024">
        <ele>114</ele>
        <time>2012-08-22T19:26:26Z</time>
      </trkpt>
      <trkpt lat="50.44291" lon="2.0104">
        <ele>114</ele>
        <time>2012-08-22T19:26:28Z</time>
      </trkpt>
      <trkpt lat="50.44286" lon="2.01056">
        <ele>114</ele>
        <time>2012-08-22T19:26:30Z</time>
      </trkpt>
      <trkpt lat="50.44281" lon="2.01073">
        <ele>113</ele>
        <time>2012-08-22T19:26:32Z</time>
      </trkpt>
      <trkpt lat="50.44276" lon="2.01088">
        <ele>113</ele>
        <time>2012-08-22T19:26:34Z</time>
      </trkpt>
      <trkpt lat="50.44276" lon="2.01106">
        <ele>114</ele>
        <time>2012-08-22T19:26:36Z</time>
      </trkpt>
      <trkpt lat="50.44273" lon="2.01124">
        <ele>113</ele>
        <time>2012-08-22T19:26:38Z</time>
      </trkpt>
      <trkpt lat="50.44272" lon="2.01142">
        <ele>113</ele>
        <time>2012-08-22T19:26:40Z</time>
      </trkpt>
      <trkpt lat="50.44274" lon="2.01155">
        <ele>113</ele>
        <time>2012-08-22T19:26:42Z</time>
      </trkpt>
      <trkpt lat="50.44273" lon="2.01172">
        <ele>114</ele>
        <time>2012-08-22T19:26:44Z</time>
      </trkpt>
      <trkpt lat="50.4427" lon="2.01188">
        <ele>115</ele>
        <time>2012-08-22T19:26:46Z</time>
      </trkpt>
      <trkpt lat="50.44269" lon="2.012">
        <ele>115</ele>
        <time>2012-08-22T19:26:48Z</time>
      </trkpt>
      <trkpt lat="50.44266" lon="2.01207">
        <ele>114</ele>
        <time>2012-08-22T19:26:50Z</time>
      </trkpt>
      <trkpt lat="50.44264" lon="2.01212">
        <ele>114</ele>
        <time>2012-08-22T19:26:52Z</time>
      </trkpt>
      <trkpt lat="50.44261" lon="2.01226">
        <ele>113</ele>
        <time>2012-08-22T19:26:54Z</time>
      </trkpt>
      <trkpt lat="50.44259" lon="2.0124">
        <ele>113</ele>
        <time>2012-08-22T19:26:56Z</time>
      </trkpt>
      <trkpt lat="50.44257" lon="2.01253">
        <ele>113</ele>
        <time>2012-08-22T19:26:58Z</time>
      </trkpt>
      <trkpt lat="50.44251" lon="2.01266">
        <ele>113</ele>
        <time>2012-08-22T19:27:00Z</time>
      </trkpt>
      <trkpt lat="50.44242" lon="2.01279">
        <ele>113</ele>
        <time>2012-08-22T19:27:02Z</time>
      </trkpt>
      <trkpt lat="50.44234" lon="2.01295">
        <ele>113</ele>
        <time>2012-08-22T19:27:04Z</time>
      </trkpt>
      <trkpt lat="50.44225" lon="2.01311">
        <ele>112</ele>
        <time>2012-08-22T19:27:06Z</time>
      </trkpt>
      <trkpt lat="50.44218" lon="2.01331">
        <ele>111</ele>
        <time>2012-08-22T19:27:08Z</time>
      </trkpt>
      <trkpt lat="50.44212" lon="2.01348">
        <ele>111</ele>
        <time>2012-08-22T19:27:10Z</time>
      </trkpt>
      <trkpt lat="50.4421" lon="2.0136">
        <ele>111</ele>
        <time>2012-08-22T19:27:12Z</time>
      </trkpt>
      <trkpt lat="50.44206" lon="2.01378">
        <ele>111</ele>
        <time>2012-08-22T19:27:14Z</time>
      </trkpt>
      <trkpt lat="50.44204" lon="2.01387">
        <ele>112</ele>
        <time>2012-08-22T19:27:16Z</time>
      </trkpt>
      <trkpt lat="50.44199" lon="2.014">
        <ele>111</ele>
        <time>2012-08-22T19:27:18Z</time>
      </trkpt>
      <trkpt lat="50.44197" lon="2.01411">
        <ele>111</ele>
        <time>2012-08-22T19:27:20Z</time>
      </trkpt>
      <trkpt lat="50.44194" lon="2.01423">
        <ele>111</ele>
        <time>2012-08-22T19:27:22Z</time>
      </trkpt>
      <trkpt lat="50.44191" lon="2.01435">
        <ele>111</ele>
        <time>2012-08-22T19:27:24Z</time>
      </trkpt>
      <trkpt lat="50.44188" lon="2.01447">
        <ele>111</ele>
        <time>2012-08-22T19:27:26Z</time>
      </trkpt>
      <trkpt lat="50.44183" lon="2.01459">
        <ele>110</ele>
        <time>2012-08-22T19:27:28Z</time>
      </trkpt>
      <trkpt lat="50.44179" lon="2.01472">
        <ele>110</ele>
        <time>2012-08-22T19:27:30Z</time>
      </trkpt>
      <trkpt lat="50.44174" lon="2.01485">
        <ele>110</ele>
        <time>2012-08-22T19:27:32Z</time>
      </trkpt>
      <trkpt lat="50.4417" lon="2.01499">
        <ele>108</ele>
        <time>2012-08-22T19:27:34Z</time>
      </trkpt>
      <trkpt lat="50.44166" lon="2.01514">
        <ele>107</ele>
        <time>2012-08-22T19:27:36Z</time>
      </trkpt>
      <trkpt lat="50.44162" lon="2.0153">
        <ele>107</ele>
        <time>2012-08-22T19:27:38Z</time>
      </trkpt>
      <trkpt lat="50.44156" lon="2.01545">
        <ele>107</ele>
        <time>2012-08-22T19:27:40Z</time>
      </trkpt>
      <trkpt lat="50.44146" lon="2.01568">
        <ele>107</ele>
        <time>2012-08-22T19:27:42Z</time>
      </trkpt>
      <trkpt lat="50.44145" lon="2.01576">
        <ele>106</ele>
        <time>2012-08-22T19:27:44Z</time>
      </trkpt>
      <trkpt lat="50.44138" lon="2.01587">
        <ele>106</ele>
        <time>2012-08-22T19:27:46Z</time>
      </trkpt>
      <trkpt lat="50.44133" lon="2.01596">
        <ele>106</ele>
        <time>2012-08-22T19:27:48Z</time>
      </trkpt>
      <trkpt lat="50.44129" lon="2.01603">
        <ele>105</ele>
        <time>2012-08-22T19:27:50Z</time>
      </trkpt>
      <trkpt lat="50.44124" lon="2.0161">
        <ele>103</ele>
        <time>2012-08-22T19:27:52Z</time>
      </trkpt>
      <trkpt lat="50.44119" lon="2.01617">
        <ele>103</ele>
        <time>2012-08-22T19:27:54Z</time>
      </trkpt>
      <trkpt lat="50.44114" lon="2.01623">
        <ele>102</ele>
        <time>2012-08-22T19:27:56Z</time>
      </trkpt>
      <trkpt lat="50.44108" lon="2.0163">
        <ele>105</ele>
        <time>2012-08-22T19:27:58Z</time>
      </trkpt>
      <trkpt lat="50.44103" lon="2.01638">
        <ele>103</ele>
        <time>2012-08-22T19:28:00Z</time>
      </trkpt>
      <trkpt lat="50.44096" lon="2.01648">
        <ele>102</ele>
        <time>2012-08-22T19:28:02Z</time>
      </trkpt>
      <trkpt lat="50.4409" lon="2.01656">
        <ele>102</ele>
        <time>2012-08-22T19:28:04Z</time>
      </trkpt>
      <trkpt lat="50.44083" lon="2.01666">
        <ele>101</ele>
        <time>2012-08-22T19:28:06Z</time>
      </trkpt>
      <trkpt lat="50.44076" lon="2.01677">
        <ele>101</ele>
        <time>2012-08-22T19:28:08Z</time>
      </trkpt>
      <trkpt lat="50.4407" lon="2.01685">
        <ele>101</ele>
        <time>2012-08-22T19:28:10Z</time>
      </trkpt>
      <trkpt lat="50.44063" lon="2.01693">
        <ele>102</ele>
        <time>2012-08-22T19:28:12Z</time>
      </trkpt>
      <trkpt lat="50.44055" lon="2.01708">
        <ele>103</ele>
        <time>2012-08-22T19:28:14Z</time>
      </trkpt>
      <trkpt lat="50.44048" lon="2.0172">
        <ele>105</ele>
        <time>2012-08-22T19:28:16Z</time>
      </trkpt>
      <trkpt lat="50.4404" lon="2.0173">
        <ele>104</ele>
        <time>2012-08-22T19:28:18Z</time>
      </trkpt>
      <trkpt lat="50.44033" lon="2.01739">
        <ele>102</ele>
        <time>2012-08-22T19:28:20Z</time>
      </trkpt>
      <trkpt lat="50.44027" lon="2.01747">
        <ele>101</ele>
        <time>2012-08-22T19:28:22Z</time>
      </trkpt>
      <trkpt lat="50.44024" lon="2.01758">
        <ele>101</ele>
        <time>2012-08-22T19:28:24Z</time>
      </trkpt>
      <trkpt lat="50.44021" lon="2.01769">
        <ele>99</ele>
        <time>2012-08-22T19:28:26Z</time>
      </trkpt>
      <trkpt lat="50.44013" lon="2.01775">
        <ele>99</ele>
        <time>2012-08-22T19:28:28Z</time>
      </trkpt>
      <trkpt lat="50.44009" lon="2.01783">
        <ele>100</ele>
        <time>2012-08-22T19:28:30Z</time>
      </trkpt>
      <trkpt lat="50.44006" lon="2.0179">
        <ele>101</ele>
        <time>2012-08-22T19:28:32Z</time>
      </trkpt>
      <trkpt lat="50.44002" lon="2.01797">
        <ele>100</ele>
        <time>2012-08-22T19:28:34Z</time>
      </trkpt>
      <trkpt lat="50.43996" lon="2.01806">
        <ele>98</ele>
        <time>2012-08-22T19:28:36Z</time>
      </trkpt>
      <trkpt lat="50.4399" lon="2.01815">
        <ele>98</ele>
        <time>2012-08-22T19:28:38Z</time>
      </trkpt>
      <trkpt lat="50.43985" lon="2.01821">
        <ele>97</ele>
        <time>2012-08-22T19:28:40Z</time>
      </trkpt>
      <trkpt lat="50.43981" lon="2.01829">
        <ele>96</ele>
        <time>2012-08-22T19:28:42Z</time>
      </trkpt>
      <trkpt lat="50.43976" lon="2.01838">
        <ele>97</ele>
        <time>2012-08-22T19:28:44Z</time>
      </trkpt>
      <trkpt lat="50.43972" lon="2.01847">
        <ele>97</ele>
        <time>2012-08-22T19:28:46Z</time>
      </trkpt>
      <trkpt lat="50.43969" lon="2.01857">
        <ele>97</ele>
        <time>2012-08-22T19:28:48Z</time>
      </trkpt>
      <trkpt lat="50.43964" lon="2.01866">
        <ele>96</ele>
        <time>2012-08-22T19:28:50Z</time>
      </trkpt>
      <trkpt lat="50.43959" lon="2.01877">
        <ele>96</ele>
        <time>2012-08-22T19:28:52Z</time>
      </trkpt>
      <trkpt lat="50.43954" lon="2.01888">
        <ele>96</ele>
        <time>2012-08-22T19:28:54Z</time>
      </trkpt>
      <trkpt lat="50.43949" lon="2.01899">
        <ele>96</ele>
        <time>2012-08-22T19:28:56Z</time>
      </trkpt>
      <trkpt lat="50.43944" lon="2.0191">
        <ele>96</ele>
        <time>2012-08-22T19:28:58Z</time>
      </trkpt>
      <trkpt lat="50.43938" lon="2.01923">
        <ele>95</ele>
        <time>2012-08-22T19:29:00Z</time>
      </trkpt>
      <trkpt lat="50.43935" lon="2.01934">
        <ele>95</ele>
        <time>2012-08-22T19:29:02Z</time>
      </trkpt>
      <trkpt lat="50.43931" lon="2.01945">
        <ele>95</ele>
        <time>2012-08-22T19:29:04Z</time>
      </trkpt>
      <trkpt lat="50.43926" lon="2.01954">
        <ele>95</ele>
        <time>2012-08-22T19:29:06Z</time>
      </trkpt>
      <trkpt lat="50.43922" lon="2.01966">
        <ele>94</ele>
        <time>2012-08-22T19:29:08Z</time>
      </trkpt>
      <trkpt lat="50.43918" lon="2.01982">
        <ele>92</ele>
        <time>2012-08-22T19:29:10Z</time>
      </trkpt>
      <trkpt lat="50.43915" lon="2.02">
        <ele>92</ele>
        <time>2012-08-22T19:29:12Z</time>
      </trkpt>
      <trkpt lat="50.43913" lon="2.02018">
        <ele>91</ele>
        <time>2012-08-22T19:29:14Z</time>
      </trkpt>
      <trkpt lat="50.43911" lon="2.02035">
        <ele>91</ele>
        <time>2012-08-22T19:29:16Z</time>
      </trkpt>
      <trkpt lat="50.4391" lon="2.02051">
        <ele>90</ele>
        <time>2012-08-22T19:29:18Z</time>
      </trkpt>
      <trkpt lat="50.43908" lon="2.0207">
        <ele>89</ele>
        <time>2012-08-22T19:29:20Z</time>
      </trkpt>
      <trkpt lat="50.43903" lon="2.02105">
        <ele>88</ele>
        <time>2012-08-22T19:29:22Z</time>
      </trkpt>
      <trkpt lat="50.43904" lon="2.02125">
        <ele>88</ele>
        <time>2012-08-22T19:29:24Z</time>
      </trkpt>
      <trkpt lat="50.43903" lon="2.02149">
        <ele>87</ele>
        <time>2012-08-22T19:29:26Z</time>
      </trkpt>
      <trkpt lat="50.43903" lon="2.02168">
        <ele>86</ele>
        <time>2012-08-22T19:29:28Z</time>
      </trkpt>
      <trkpt lat="50.43902" lon="2.02189">
        <ele>85</ele>
        <time>2012-08-22T19:29:30Z</time>
      </trkpt>
      <trkpt lat="50.43902" lon="2.02211">
        <ele>85</ele>
        <time>2012-08-22T19:29:32Z</time>
      </trkpt>
      <trkpt lat="50.43902" lon="2.0223">
        <ele>86</ele>
        <time>2012-08-22T19:29:34Z</time>
      </trkpt>
      <trkpt lat="50.439" lon="2.02254">
        <ele>86</ele>
        <time>2012-08-22T19:29:36Z</time>
      </trkpt>
      <trkpt lat="50.43897" lon="2.02284">
        <ele>84</ele>
        <time>2012-08-22T19:29:38Z</time>
      </trkpt>
      <trkpt lat="50.43893" lon="2.02309">
        <ele>83</ele>
        <time>2012-08-22T19:29:40Z</time>
      </trkpt>
      <trkpt lat="50.43891" lon="2.02337">
        <ele>83</ele>
        <time>2012-08-22T19:29:42Z</time>
      </trkpt>
      <trkpt lat="50.4389" lon="2.02362">
        <ele>83</ele>
        <time>2012-08-22T19:29:44Z</time>
      </trkpt>
      <trkpt lat="50.43889" lon="2.02389">
        <ele>82</ele>
        <time>2012-08-22T19:29:46Z</time>
      </trkpt>
      <trkpt lat="50.43883" lon="2.0242">
        <ele>82</ele>
        <time>2012-08-22T19:29:48Z</time>
      </trkpt>
      <trkpt lat="50.43879" lon="2.02445">
        <ele>82</ele>
        <time>2012-08-22T19:29:50Z</time>
      </trkpt>
      <trkpt lat="50.43871" lon="2.02461">
        <ele>82</ele>
        <time>2012-08-22T19:29:52Z</time>
      </trkpt>
      <trkpt lat="50.43869" lon="2.02478">
        <ele>81</ele>
        <time>2012-08-22T19:29:54Z</time>
      </trkpt>
      <trkpt lat="50.43865" lon="2.02495">
        <ele>82</ele>
        <time>2012-08-22T19:29:56Z</time>
      </trkpt>
      <trkpt lat="50.4386" lon="2.02511">
        <ele>83</ele>
        <time>2012-08-22T19:29:58Z</time>
      </trkpt>
      <trkpt lat="50.43856" lon="2.02522">
        <ele>83</ele>
        <time>2012-08-22T19:30:00Z</time>
      </trkpt>
      <trkpt lat="50.43852" lon="2.02538">
        <ele>83</ele>
        <time>2012-08-22T19:30:02Z</time>
      </trkpt>
      <trkpt lat="50.43848" lon="2.02558">
        <ele>82</ele>
        <time>2012-08-22T19:30:04Z</time>
      </trkpt>
      <trkpt lat="50.43843" lon="2.0258">
        <ele>83</ele>
        <time>2012-08-22T19:30:06Z</time>
      </trkpt>
      <trkpt lat="50.43844" lon="2.02601">
        <ele>82</ele>
        <time>2012-08-22T19:30:08Z</time>
      </trkpt>
      <trkpt lat="50.43844" lon="2.02614">
        <ele>83</ele>
        <time>2012-08-22T19:30:10Z</time>
      </trkpt>
      <trkpt lat="50.43845" lon="2.02621">
        <ele>82</ele>
        <time>2012-08-22T19:30:12Z</time>
      </trkpt>
      <trkpt lat="50.43844" lon="2.02624">
        <ele>77</ele>
        <time>2012-08-22T19:30:16Z</time>
      </trkpt>
      <trkpt lat="50.43847" lon="2.02623">
        <ele>69</ele>
        <time>2012-08-22T19:30:26Z</time>
      </trkpt>
      <trkpt lat="50.43848" lon="2.02622">
        <ele>67</ele>
        <time>2012-08-22T19:30:28Z</time>
      </trkpt>
      <trkpt lat="50.4385" lon="2.0262">
        <ele>67</ele>
        <time>2012-08-22T19:30:30Z</time>
      </trkpt>
      <trkpt lat="50.43851" lon="2.02619">
        <ele>67</ele>
        <time>2012-08-22T19:30:32Z</time>
      </trkpt>
      <trkpt lat="50.43851" lon="2.02618">
        <ele>67</ele>
        <time>2012-08-22T19:30:34Z</time>
      </trkpt>
      <trkpt lat="50.43851" lon="2.02618">
        <ele>66</ele>
        <time>2012-08-22T19:30:36Z</time>
      </trkpt>
      <trkpt lat="50.43851" lon="2.02618">
        <ele>66</ele>
        <time>2012-08-22T19:30:38Z</time>
      </trkpt>
      <trkpt lat="50.43851" lon="2.02618">
        <ele>66</ele>
        <time>2012-08-22T19:30:40Z</time>
      </trkpt>
      <trkpt lat="50.4385" lon="2.02618">
        <ele>66</ele>
        <time>2012-08-22T19:30:42Z</time>
      </trkpt>
      <trkpt lat="50.43849" lon="2.02617">
        <ele>68</ele>
        <time>2012-08-22T19:30:44Z</time>
      </trkpt>
      <trkpt lat="50.43853" lon="2.02617">
        <ele>69</ele>
        <time>2012-08-22T19:31:06Z</time>
      </trkpt>
      <trkpt lat="50.43853" lon="2.02617">
        <ele>65</ele>
        <time>2012-08-22T19:31:08Z</time>
      </trkpt>
      <trkpt lat="50.43853" lon="2.02617">
        <ele>66</ele>
        <time>2012-08-22T19:31:10Z</time>
      </trkpt>
      <trkpt lat="50.43853" lon="2.02617">
        <ele>67</ele>
        <time>2012-08-22T19:31:12Z</time>
      </trkpt>
      <trkpt lat="50.43852" lon="2.02617">
        <ele>66</ele>
        <time>2012-08-22T19:31:14Z</time>
      </trkpt>
      <trkpt lat="50.43852" lon="2.02618">
        <ele>66</ele>
        <time>2012-08-22T19:31:16Z</time>
      </trkpt>
      <trkpt lat="50.43853" lon="2.02618">
        <ele>66</ele>
        <time>2012-08-22T19:31:18Z</time>
      </trkpt>
      <trkpt lat="50.43853" lon="2.02619">
        <ele>66</ele>
        <time>2012-08-22T19:31:20Z</time>
      </trkpt>
      <trkpt lat="50.43852" lon="2.02617">
        <ele>66</ele>
        <time>2012-08-22T19:31:24Z</time>
      </trkpt>
      <trkpt lat="50.43852" lon="2.02615">
        <ele>67</ele>
        <time>2012-08-22T19:31:26Z</time>
      </trkpt>
      <trkpt lat="50.43853" lon="2.02615">
        <ele>66</ele>
        <time>2012-08-22T19:31:28Z</time>
      </trkpt>
      <trkpt lat="50.43854" lon="2.02617">
        <ele>66</ele>
        <time>2012-08-22T19:31:30Z</time>
      </trkpt>
      <trkpt lat="50.43855" lon="2.02621">
        <ele>65</ele>
        <time>2012-08-22T19:31:32Z</time>
      </trkpt>
      <trkpt lat="50.43856" lon="2.02623">
        <ele>65</ele>
        <time>2012-08-22T19:31:34Z</time>
      </trkpt>
      <trkpt lat="50.43856" lon="2.02623">
        <ele>65</ele>
        <time>2012-08-22T19:31:36Z</time>
      </trkpt>
      <trkpt lat="50.43856" lon="2.02623">
        <ele>64</ele>
        <time>2012-08-22T19:31:38Z</time>
      </trkpt>
      <trkpt lat="50.43853" lon="2.02621">
        <ele>64</ele>
        <time>2012-08-22T19:32:00Z</time>
      </trkpt>
      <trkpt lat="50.43853" lon="2.0262">
        <ele>64</ele>
        <time>2012-08-22T19:32:02Z</time>
      </trkpt>
      <trkpt lat="50.43852" lon="2.0262">
        <ele>65</ele>
        <time>2012-08-22T19:32:04Z</time>
      </trkpt>
      <trkpt lat="50.43852" lon="2.02619">
        <ele>65</ele>
        <time>2012-08-22T19:32:06Z</time>
      </trkpt>
      <trkpt lat="50.43852" lon="2.02619">
        <ele>66</ele>
        <time>2012-08-22T19:32:08Z</time>
      </trkpt>
      <trkpt lat="50.43853" lon="2.02621">
        <ele>65</ele>
        <time>2012-08-22T19:33:46Z</time>
      </trkpt>
      <trkpt lat="50.43853" lon="2.02623">
        <ele>64</ele>
        <time>2012-08-22T19:34:22Z</time>
      </trkpt>
      <trkpt lat="50.43853" lon="2.02626">
        <ele>65</ele>
        <time>2012-08-22T19:34:24Z</time>
      </trkpt>
      <trkpt lat="50.43853" lon="2.0263">
        <ele>64</ele>
        <time>2012-08-22T19:34:26Z</time>
      </trkpt>
      <trkpt lat="50.43854" lon="2.02636">
        <ele>62</ele>
        <time>2012-08-22T19:34:28Z</time>
      </trkpt>
      <trkpt lat="50.43854" lon="2.02644">
        <ele>61</ele>
        <time>2012-08-22T19:34:30Z</time>
      </trkpt>
      <trkpt lat="50.43855" lon="2.02653">
        <ele>60</ele>
        <time>2012-08-22T19:34:32Z</time>
      </trkpt>
      <trkpt lat="50.43855" lon="2.02663">
        <ele>59</ele>
        <time>2012-08-22T19:34:34Z</time>
      </trkpt>
      <trkpt lat="50.43856" lon="2.02673">
        <ele>59</ele>
        <time>2012-08-22T19:34:36Z</time>
      </trkpt>
      <trkpt lat="50.43856" lon="2.02684">
        <ele>59</ele>
        <time>2012-08-22T19:34:38Z</time>
      </trkpt>
      <trkpt lat="50.43857" lon="2.02697">
        <ele>58</ele>
        <time>2012-08-22T19:34:40Z</time>
      </trkpt>
      <trkpt lat="50.43857" lon="2.02709">
        <ele>58</ele>
        <time>2012-08-22T19:34:42Z</time>
      </trkpt>
      <trkpt lat="50.43858" lon="2.02722">
        <ele>58</ele>
        <time>2012-08-22T19:34:44Z</time>
      </trkpt>
      <trkpt lat="50.43858" lon="2.02735">
        <ele>58</ele>
        <time>2012-08-22T19:34:46Z</time>
      </trkpt>
      <trkpt lat="50.43859" lon="2.02748">
        <ele>58</ele>
        <time>2012-08-22T19:34:48Z</time>
      </trkpt>
      <trkpt lat="50.43859" lon="2.0276">
        <ele>58</ele>
        <time>2012-08-22T19:34:50Z</time>
      </trkpt>
      <trkpt lat="50.4386" lon="2.02772">
        <ele>59</ele>
        <time>2012-08-22T19:34:52Z</time>
      </trkpt>
      <trkpt lat="50.43861" lon="2.02784">
        <ele>59</ele>
        <time>2012-08-22T19:34:54Z</time>
      </trkpt>
      <trkpt lat="50.43862" lon="2.02796">
        <ele>58</ele>
        <time>2012-08-22T19:34:56Z</time>
      </trkpt>
      <trkpt lat="50.43865" lon="2.02807">
        <ele>58</ele>
        <time>2012-08-22T19:34:58Z</time>
      </trkpt>
      <trkpt lat="50.43868" lon="2.02819">
        <ele>57</ele>
        <time>2012-08-22T19:35:00Z</time>
      </trkpt>
      <trkpt lat="50.43874" lon="2.02832">
        <ele>57</ele>
        <time>2012-08-22T19:35:02Z</time>
      </trkpt>
      <trkpt lat="50.43876" lon="2.02845">
        <ele>55</ele>
        <time>2012-08-22T19:35:04Z</time>
      </trkpt>
      <trkpt lat="50.43881" lon="2.02859">
        <ele>55</ele>
        <time>2012-08-22T19:35:06Z</time>
      </trkpt>
      <trkpt lat="50.43884" lon="2.02873">
        <ele>55</ele>
        <time>2012-08-22T19:35:08Z</time>
      </trkpt>
      <trkpt lat="50.43884" lon="2.02884">
        <ele>54</ele>
        <time>2012-08-22T19:35:10Z</time>
      </trkpt>
      <trkpt lat="50.43874" lon="2.02887">
        <ele>55</ele>
        <time>2012-08-22T19:35:12Z</time>
      </trkpt>
      <trkpt lat="50.43864" lon="2.02892">
        <ele>55</ele>
        <time>2012-08-22T19:35:14Z</time>
      </trkpt>
      <trkpt lat="50.43855" lon="2.02898">
        <ele>53</ele>
        <time>2012-08-22T19:35:16Z</time>
      </trkpt>
      <trkpt lat="50.43846" lon="2.02904">
        <ele>53</ele>
        <time>2012-08-22T19:35:18Z</time>
      </trkpt>
      <trkpt lat="50.43836" lon="2.0291">
        <ele>53</ele>
        <time>2012-08-22T19:35:20Z</time>
      </trkpt>
      <trkpt lat="50.43826" lon="2.02916">
        <ele>55</ele>
        <time>2012-08-22T19:35:22Z</time>
      </trkpt>
      <trkpt lat="50.43816" lon="2.02921">
        <ele>54</ele>
        <time>2012-08-22T19:35:24Z</time>
      </trkpt>
      <trkpt lat="50.43807" lon="2.02924">
        <ele>56</ele>
        <time>2012-08-22T19:35:26Z</time>
      </trkpt>
      <trkpt lat="50.43797" lon="2.02925">
        <ele>56</ele>
        <time>2012-08-22T19:35:28Z</time>
      </trkpt>
      <trkpt lat="50.43786" lon="2.02927">
        <ele>57</ele>
        <time>2012-08-22T19:35:30Z</time>
      </trkpt>
      <trkpt lat="50.43774" lon="2.0293">
        <ele>57</ele>
        <time>2012-08-22T19:35:32Z</time>
      </trkpt>
      <trkpt lat="50.43765" lon="2.02932">
        <ele>58</ele>
        <time>2012-08-22T19:35:34Z</time>
      </trkpt>
      <trkpt lat="50.43753" lon="2.02933">
        <ele>58</ele>
        <time>2012-08-22T19:35:36Z</time>
      </trkpt>
      <trkpt lat="50.43742" lon="2.02934">
        <ele>58</ele>
        <time>2012-08-22T19:35:38Z</time>
      </trkpt>
      <trkpt lat="50.43731" lon="2.02934">
        <ele>59</ele>
        <time>2012-08-22T19:35:40Z</time>
      </trkpt>
      <trkpt lat="50.4372" lon="2.02934">
        <ele>59</ele>
        <time>2012-08-22T19:35:42Z</time>
      </trkpt>
      <trkpt lat="50.4371" lon="2.02932">
        <ele>60</ele>
        <time>2012-08-22T19:35:44Z</time>
      </trkpt>
      <trkpt lat="50.43699" lon="2.0293">
        <ele>61</ele>
        <time>2012-08-22T19:35:46Z</time>
      </trkpt>
      <trkpt lat="50.43686" lon="2.02926">
        <ele>61</ele>
        <time>2012-08-22T19:35:48Z</time>
      </trkpt>
      <trkpt lat="50.43674" lon="2.02922">
        <ele>60</ele>
        <time>2012-08-22T19:35:50Z</time>
      </trkpt>
      <trkpt lat="50.43664" lon="2.02918">
        <ele>60</ele>
        <time>2012-08-22T19:35:52Z</time>
      </trkpt>
      <trkpt lat="50.43652" lon="2.02915">
        <ele>61</ele>
        <time>2012-08-22T19:35:54Z</time>
      </trkpt>
      <trkpt lat="50.43642" lon="2.02913">
        <ele>62</ele>
        <time>2012-08-22T19:35:56Z</time>
      </trkpt>
      <trkpt lat="50.43633" lon="2.02909">
        <ele>62</ele>
        <time>2012-08-22T19:35:58Z</time>
      </trkpt>
      <trkpt lat="50.43623" lon="2.02905">
        <ele>62</ele>
        <time>2012-08-22T19:36:00Z</time>
      </trkpt>
      <trkpt lat="50.43613" lon="2.02903">
        <ele>62</ele>
        <time>2012-08-22T19:36:02Z</time>
      </trkpt>
      <trkpt lat="50.43603" lon="2.02903">
        <ele>61</ele>
        <time>2012-08-22T19:36:04Z</time>
      </trkpt>
      <trkpt lat="50.43591" lon="2.02897">
        <ele>60</ele>
        <time>2012-08-22T19:36:06Z</time>
      </trkpt>
      <trkpt lat="50.43577" lon="2.02892">
        <ele>60</ele>
        <time>2012-08-22T19:36:08Z</time>
      </trkpt>
      <trkpt lat="50.43568" lon="2.02891">
        <ele>60</ele>
        <time>2012-08-22T19:36:10Z</time>
      </trkpt>
      <trkpt lat="50.43564" lon="2.02883">
        <ele>60</ele>
        <time>2012-08-22T19:36:12Z</time>
      </trkpt>
      <trkpt lat="50.43548" lon="2.02883">
        <ele>61</ele>
        <time>2012-08-22T19:36:14Z</time>
      </trkpt>
      <trkpt lat="50.43531" lon="2.02883">
        <ele>60</ele>
        <time>2012-08-22T19:36:16Z</time>
      </trkpt>
      <trkpt lat="50.43524" lon="2.02882">
        <ele>60</ele>
        <time>2012-08-22T19:36:18Z</time>
      </trkpt>
      <trkpt lat="50.43515" lon="2.02876">
        <ele>58</ele>
        <time>2012-08-22T19:36:20Z</time>
      </trkpt>
      <trkpt lat="50.43508" lon="2.02872">
        <ele>60</ele>
        <time>2012-08-22T19:36:22Z</time>
      </trkpt>
      <trkpt lat="50.43499" lon="2.02869">
        <ele>60</ele>
        <time>2012-08-22T19:36:24Z</time>
      </trkpt>
      <trkpt lat="50.43491" lon="2.02869">
        <ele>61</ele>
        <time>2012-08-22T19:36:26Z</time>
      </trkpt>
      <trkpt lat="50.43486" lon="2.02869">
        <ele>61</ele>
        <time>2012-08-22T19:36:28Z</time>
      </trkpt>
      <trkpt lat="50.43477" lon="2.02872">
        <ele>62</ele>
        <time>2012-08-22T19:36:30Z</time>
      </trkpt>
      <trkpt lat="50.43468" lon="2.02874">
        <ele>62</ele>
        <time>2012-08-22T19:36:32Z</time>
      </trkpt>
      <trkpt lat="50.4346" lon="2.02876">
        <ele>63</ele>
        <time>2012-08-22T19:36:34Z</time>
      </trkpt>
      <trkpt lat="50.43452" lon="2.02876">
        <ele>62</ele>
        <time>2012-08-22T19:36:36Z</time>
      </trkpt>
      <trkpt lat="50.43442" lon="2.02873">
        <ele>62</ele>
        <time>2012-08-22T19:36:38Z</time>
      </trkpt>
      <trkpt lat="50.43434" lon="2.02872">
        <ele>62</ele>
        <time>2012-08-22T19:36:40Z</time>
      </trkpt>
      <trkpt lat="50.43423" lon="2.02869">
        <ele>64</ele>
        <time>2012-08-22T19:36:42Z</time>
      </trkpt>
      <trkpt lat="50.43409" lon="2.02861">
        <ele>61</ele>
        <time>2012-08-22T19:36:44Z</time>
      </trkpt>
      <trkpt lat="50.43398" lon="2.02855">
        <ele>62</ele>
        <time>2012-08-22T19:36:46Z</time>
      </trkpt>
      <trkpt lat="50.43387" lon="2.02846">
        <ele>62</ele>
        <time>2012-08-22T19:36:48Z</time>
      </trkpt>
      <trkpt lat="50.4337" lon="2.02839">
        <ele>60</ele>
        <time>2012-08-22T19:36:50Z</time>
      </trkpt>
      <trkpt lat="50.43351" lon="2.02838">
        <ele>59</ele>
        <time>2012-08-22T19:36:52Z</time>
      </trkpt>
      <trkpt lat="50.43329" lon="2.02838">
        <ele>57</ele>
        <time>2012-08-22T19:36:54Z</time>
      </trkpt>
      <trkpt lat="50.43308" lon="2.02835">
        <ele>50</ele>
        <time>2012-08-22T19:36:56Z</time>
      </trkpt>
      <trkpt lat="50.43291" lon="2.02823">
        <ele>47</ele>
        <time>2012-08-22T19:36:58Z</time>
      </trkpt>
      <trkpt lat="50.43272" lon="2.02805">
        <ele>46</ele>
        <time>2012-08-22T19:37:00Z</time>
      </trkpt>
      <trkpt lat="50.43256" lon="2.02787">
        <ele>47</ele>
        <time>2012-08-22T19:37:02Z</time>
      </trkpt>
      <trkpt lat="50.43241" lon="2.0277">
        <ele>47</ele>
        <time>2012-08-22T19:37:04Z</time>
      </trkpt>
      <trkpt lat="50.43223" lon="2.02756">
        <ele>47</ele>
        <time>2012-08-22T19:37:06Z</time>
      </trkpt>
      <trkpt lat="50.43205" lon="2.02749">
        <ele>47</ele>
        <time>2012-08-22T19:37:08Z</time>
      </trkpt>
      <trkpt lat="50.43191" lon="2.02744">
        <ele>46</ele>
        <time>2012-08-22T19:37:10Z</time>
      </trkpt>
      <trkpt lat="50.43179" lon="2.02739">
        <ele>46</ele>
        <time>2012-08-22T19:37:12Z</time>
      </trkpt>
      <trkpt lat="50.4317" lon="2.02726">
        <ele>47</ele>
        <time>2012-08-22T19:37:14Z</time>
      </trkpt>
      <trkpt lat="50.43158" lon="2.02714">
        <ele>45</ele>
        <time>2012-08-22T19:37:16Z</time>
      </trkpt>
      <trkpt lat="50.4315" lon="2.02698">
        <ele>45</ele>
        <time>2012-08-22T19:37:18Z</time>
      </trkpt>
      <trkpt lat="50.43143" lon="2.02686">
        <ele>44</ele>
        <time>2012-08-22T19:37:20Z</time>
      </trkpt>
      <trkpt lat="50.43137" lon="2.02676">
        <ele>43</ele>
        <time>2012-08-22T19:37:22Z</time>
      </trkpt>
      <trkpt lat="50.43131" lon="2.02665">
        <ele>44</ele>
        <time>2012-08-22T19:37:24Z</time>
      </trkpt>
      <trkpt lat="50.43124" lon="2.02654">
        <ele>43</ele>
        <time>2012-08-22T19:37:26Z</time>
      </trkpt>
      <trkpt lat="50.43119" lon="2.02643">
        <ele>41</ele>
        <time>2012-08-22T19:37:28Z</time>
      </trkpt>
      <trkpt lat="50.43113" lon="2.02635">
        <ele>40</ele>
        <time>2012-08-22T19:37:30Z</time>
      </trkpt>
      <trkpt lat="50.4311" lon="2.02627">
        <ele>42</ele>
        <time>2012-08-22T19:37:32Z</time>
      </trkpt>
      <trkpt lat="50.43105" lon="2.0262">
        <ele>42</ele>
        <time>2012-08-22T19:37:34Z</time>
      </trkpt>
      <trkpt lat="50.43099" lon="2.02612">
        <ele>41</ele>
        <time>2012-08-22T19:37:36Z</time>
      </trkpt>
      <trkpt lat="50.43092" lon="2.02603">
        <ele>42</ele>
        <time>2012-08-22T19:37:38Z</time>
      </trkpt>
      <trkpt lat="50.43084" lon="2.02594">
        <ele>42</ele>
        <time>2012-08-22T19:37:40Z</time>
      </trkpt>
      <trkpt lat="50.43076" lon="2.02584">
        <ele>43</ele>
        <time>2012-08-22T19:37:42Z</time>
      </trkpt>
      <trkpt lat="50.4307" lon="2.02578">
        <ele>41</ele>
        <time>2012-08-22T19:37:44Z</time>
      </trkpt>
      <trkpt lat="50.43061" lon="2.02573">
        <ele>41</ele>
        <time>2012-08-22T19:37:46Z</time>
      </trkpt>
      <trkpt lat="50.43052" lon="2.0257">
        <ele>41</ele>
        <time>2012-08-22T19:37:48Z</time>
      </trkpt>
      <trkpt lat="50.43043" lon="2.02566">
        <ele>42</ele>
        <time>2012-08-22T19:37:50Z</time>
      </trkpt>
      <trkpt lat="50.43036" lon="2.0256">
        <ele>42</ele>
        <time>2012-08-22T19:37:52Z</time>
      </trkpt>
      <trkpt lat="50.4303" lon="2.0255">
        <ele>44</ele>
        <time>2012-08-22T19:37:54Z</time>
      </trkpt>
      <trkpt lat="50.43025" lon="2.02543">
        <ele>44</ele>
        <time>2012-08-22T19:37:56Z</time>
      </trkpt>
      <trkpt lat="50.4302" lon="2.02537">
        <ele>46</ele>
        <time>2012-08-22T19:37:58Z</time>
      </trkpt>
      <trkpt lat="50.43013" lon="2.0253">
        <ele>46</ele>
        <time>2012-08-22T19:38:00Z</time>
      </trkpt>
      <trkpt lat="50.43004" lon="2.02524">
        <ele>46</ele>
        <time>2012-08-22T19:38:02Z</time>
      </trkpt>
      <trkpt lat="50.42996" lon="2.02515">
        <ele>45</ele>
        <time>2012-08-22T19:38:04Z</time>
      </trkpt>
      <trkpt lat="50.42989" lon="2.02507">
        <ele>46</ele>
        <time>2012-08-22T19:38:06Z</time>
      </trkpt>
      <trkpt lat="50.42982" lon="2.02498">
        <ele>48</ele>
        <time>2012-08-22T19:38:08Z</time>
      </trkpt>
      <trkpt lat="50.42975" lon="2.0249">
        <ele>48</ele>
        <time>2012-08-22T19:38:10Z</time>
      </trkpt>
      <trkpt lat="50.42967" lon="2.02479">
        <ele>47</ele>
        <time>2012-08-22T19:38:12Z</time>
      </trkpt>
      <trkpt lat="50.42954" lon="2.02472">
        <ele>47</ele>
        <time>2012-08-22T19:38:14Z</time>
      </trkpt>
      <trkpt lat="50.42946" lon="2.02469">
        <ele>47</ele>
        <time>2012-08-22T19:38:16Z</time>
      </trkpt>
      <trkpt lat="50.42934" lon="2.02464">
        <ele>46</ele>
        <time>2012-08-22T19:38:18Z</time>
      </trkpt>
      <trkpt lat="50.42925" lon="2.02466">
        <ele>52</ele>
        <time>2012-08-22T19:38:20Z</time>
      </trkpt>
      <trkpt lat="50.42917" lon="2.02463">
        <ele>51</ele>
        <time>2012-08-22T19:38:22Z</time>
      </trkpt>
      <trkpt lat="50.42907" lon="2.02454">
        <ele>49</ele>
        <time>2012-08-22T19:38:24Z</time>
      </trkpt>
      <trkpt lat="50.42899" lon="2.02448">
        <ele>49</ele>
        <time>2012-08-22T19:38:26Z</time>
      </trkpt>
      <trkpt lat="50.42891" lon="2.0244">
        <ele>48</ele>
        <time>2012-08-22T19:38:28Z</time>
      </trkpt>
      <trkpt lat="50.42883" lon="2.02431">
        <ele>46</ele>
        <time>2012-08-22T19:38:30Z</time>
      </trkpt>
      <trkpt lat="50.42873" lon="2.02423">
        <ele>45</ele>
        <time>2012-08-22T19:38:32Z</time>
      </trkpt>
      <trkpt lat="50.42866" lon="2.02415">
        <ele>45</ele>
        <time>2012-08-22T19:38:34Z</time>
      </trkpt>
      <trkpt lat="50.42858" lon="2.02407">
        <ele>45</ele>
        <time>2012-08-22T19:38:36Z</time>
      </trkpt>
      <trkpt lat="50.42854" lon="2.02395">
        <ele>44</ele>
        <time>2012-08-22T19:38:38Z</time>
      </trkpt>
      <trkpt lat="50.42843" lon="2.02379">
        <ele>45</ele>
        <time>2012-08-22T19:38:42Z</time>
      </trkpt>
      <trkpt lat="50.42839" lon="2.02373">
        <ele>46</ele>
        <time>2012-08-22T19:38:44Z</time>
      </trkpt>
      <trkpt lat="50.42834" lon="2.02365">
        <ele>49</ele>
        <time>2012-08-22T19:38:46Z</time>
      </trkpt>
      <trkpt lat="50.42828" lon="2.02356">
        <ele>49</ele>
        <time>2012-08-22T19:38:48Z</time>
      </trkpt>
      <trkpt lat="50.42822" lon="2.02347">
        <ele>49</ele>
        <time>2012-08-22T19:38:50Z</time>
      </trkpt>
      <trkpt lat="50.42817" lon="2.02339">
        <ele>48</ele>
        <time>2012-08-22T19:38:52Z</time>
      </trkpt>
      <trkpt lat="50.4281" lon="2.02332">
        <ele>46</ele>
        <time>2012-08-22T19:38:54Z</time>
      </trkpt>
      <trkpt lat="50.42806" lon="2.02323">
        <ele>45</ele>
        <time>2012-08-22T19:38:56Z</time>
      </trkpt>
      <trkpt lat="50.42801" lon="2.02315">
        <ele>43</ele>
        <time>2012-08-22T19:38:58Z</time>
      </trkpt>
      <trkpt lat="50.42795" lon="2.02308">
        <ele>43</ele>
        <time>2012-08-22T19:39:00Z</time>
      </trkpt>
      <trkpt lat="50.42787" lon="2.02305">
        <ele>39</ele>
        <time>2012-08-22T19:39:02Z</time>
      </trkpt>
      <trkpt lat="50.42775" lon="2.02311">
        <ele>40</ele>
        <time>2012-08-22T19:39:04Z</time>
      </trkpt>
      <trkpt lat="50.42762" lon="2.0231">
        <ele>38</ele>
        <time>2012-08-22T19:39:06Z</time>
      </trkpt>
      <trkpt lat="50.42749" lon="2.02307">
        <ele>38</ele>
        <time>2012-08-22T19:39:08Z</time>
      </trkpt>
      <trkpt lat="50.42738" lon="2.02299">
        <ele>37</ele>
        <time>2012-08-22T19:39:10Z</time>
      </trkpt>
      <trkpt lat="50.42726" lon="2.02292">
        <ele>36</ele>
        <time>2012-08-22T19:39:12Z</time>
      </trkpt>
      <trkpt lat="50.42715" lon="2.02283">
        <ele>37</ele>
        <time>2012-08-22T19:39:14Z</time>
      </trkpt>
      <trkpt lat="50.42706" lon="2.02277">
        <ele>36</ele>
        <time>2012-08-22T19:39:16Z</time>
      </trkpt>
      <trkpt lat="50.42698" lon="2.02268">
        <ele>35</ele>
        <time>2012-08-22T19:39:18Z</time>
      </trkpt>
      <trkpt lat="50.42687" lon="2.02259">
        <ele>35</ele>
        <time>2012-08-22T19:39:20Z</time>
      </trkpt>
      <trkpt lat="50.42681" lon="2.02254">
        <ele>36</ele>
        <time>2012-08-22T19:39:22Z</time>
      </trkpt>
      <trkpt lat="50.42674" lon="2.02248">
        <ele>36</ele>
        <time>2012-08-22T19:39:24Z</time>
      </trkpt>
      <trkpt lat="50.42665" lon="2.02253">
        <ele>37</ele>
        <time>2012-08-22T19:39:26Z</time>
      </trkpt>
      <trkpt lat="50.42657" lon="2.02258">
        <ele>38</ele>
        <time>2012-08-22T19:39:28Z</time>
      </trkpt>
      <trkpt lat="50.4265" lon="2.02266">
        <ele>38</ele>
        <time>2012-08-22T19:39:30Z</time>
      </trkpt>
      <trkpt lat="50.42641" lon="2.02271">
        <ele>38</ele>
        <time>2012-08-22T19:39:32Z</time>
      </trkpt>
      <trkpt lat="50.42631" lon="2.02274">
        <ele>38</ele>
        <time>2012-08-22T19:39:34Z</time>
      </trkpt>
      <trkpt lat="50.42622" lon="2.02268">
        <ele>38</ele>
        <time>2012-08-22T19:39:36Z</time>
      </trkpt>
      <trkpt lat="50.42614" lon="2.02261">
        <ele>38</ele>
        <time>2012-08-22T19:39:38Z</time>
      </trkpt>
      <trkpt lat="50.42606" lon="2.0225">
        <ele>36</ele>
        <time>2012-08-22T19:39:40Z</time>
      </trkpt>
      <trkpt lat="50.426" lon="2.02237">
        <ele>37</ele>
        <time>2012-08-22T19:39:42Z</time>
      </trkpt>
      <trkpt lat="50.42594" lon="2.02223">
        <ele>37</ele>
        <time>2012-08-22T19:39:44Z</time>
      </trkpt>
      <trkpt lat="50.4259" lon="2.02209">
        <ele>37</ele>
        <time>2012-08-22T19:39:46Z</time>
      </trkpt>
      <trkpt lat="50.42584" lon="2.02195">
        <ele>36</ele>
        <time>2012-08-22T19:39:48Z</time>
      </trkpt>
      <trkpt lat="50.4258" lon="2.02181">
        <ele>37</ele>
        <time>2012-08-22T19:39:50Z</time>
      </trkpt>
      <trkpt lat="50.42575" lon="2.02171">
        <ele>43</ele>
        <time>2012-08-22T19:39:52Z</time>
      </trkpt>
      <trkpt lat="50.42573" lon="2.02156">
        <ele>43</ele>
        <time>2012-08-22T19:39:54Z</time>
      </trkpt>
      <trkpt lat="50.42571" lon="2.02142">
        <ele>44</ele>
        <time>2012-08-22T19:39:56Z</time>
      </trkpt>
      <trkpt lat="50.42569" lon="2.02127">
        <ele>45</ele>
        <time>2012-08-22T19:39:58Z</time>
      </trkpt>
      <trkpt lat="50.42567" lon="2.02113">
        <ele>45</ele>
        <time>2012-08-22T19:40:00Z</time>
      </trkpt>
      <trkpt lat="50.42564" lon="2.021">
        <ele>45</ele>
        <time>2012-08-22T19:40:02Z</time>
      </trkpt>
      <trkpt lat="50.42561" lon="2.02088">
        <ele>45</ele>
        <time>2012-08-22T19:40:04Z</time>
      </trkpt>
      <trkpt lat="50.42556" lon="2.02077">
        <ele>46</ele>
        <time>2012-08-22T19:40:06Z</time>
      </trkpt>
      <trkpt lat="50.4255" lon="2.02063">
        <ele>48</ele>
        <time>2012-08-22T19:40:08Z</time>
      </trkpt>
      <trkpt lat="50.42546" lon="2.0205">
        <ele>49</ele>
        <time>2012-08-22T19:40:10Z</time>
      </trkpt>
      <trkpt lat="50.42541" lon="2.02033">
        <ele>49</ele>
        <time>2012-08-22T19:40:12Z</time>
      </trkpt>
      <trkpt lat="50.42536" lon="2.02016">
        <ele>50</ele>
        <time>2012-08-22T19:40:14Z</time>
      </trkpt>
      <trkpt lat="50.42532" lon="2.01998">
        <ele>49</ele>
        <time>2012-08-22T19:40:16Z</time>
      </trkpt>
      <trkpt lat="50.42531" lon="2.01984">
        <ele>48</ele>
        <time>2012-08-22T19:40:18Z</time>
      </trkpt>
      <trkpt lat="50.4253" lon="2.01969">
        <ele>46</ele>
        <time>2012-08-22T19:40:20Z</time>
      </trkpt>
      <trkpt lat="50.42527" lon="2.01957">
        <ele>45</ele>
        <time>2012-08-22T19:40:22Z</time>
      </trkpt>
      <trkpt lat="50.42526" lon="2.01946">
        <ele>46</ele>
        <time>2012-08-22T19:40:24Z</time>
      </trkpt>
      <trkpt lat="50.42523" lon="2.01933">
        <ele>45</ele>
        <time>2012-08-22T19:40:26Z</time>
      </trkpt>
      <trkpt lat="50.4252" lon="2.01923">
        <ele>46</ele>
        <time>2012-08-22T19:40:28Z</time>
      </trkpt>
      <trkpt lat="50.42518" lon="2.01912">
        <ele>46</ele>
        <time>2012-08-22T19:40:30Z</time>
      </trkpt>
      <trkpt lat="50.42516" lon="2.01905">
        <ele>46</ele>
        <time>2012-08-22T19:40:32Z</time>
      </trkpt>
      <trkpt lat="50.42517" lon="2.01899">
        <ele>44</ele>
        <time>2012-08-22T19:40:34Z</time>
      </trkpt>
      <trkpt lat="50.42519" lon="2.01896">
        <ele>43</ele>
        <time>2012-08-22T19:40:36Z</time>
      </trkpt>
      <trkpt lat="50.42526" lon="2.01897">
        <ele>47</ele>
        <time>2012-08-22T19:40:38Z</time>
      </trkpt>
      <trkpt lat="50.4253" lon="2.01898">
        <ele>48</ele>
        <time>2012-08-22T19:40:40Z</time>
      </trkpt>
      <trkpt lat="50.42534" lon="2.01898">
        <ele>48</ele>
        <time>2012-08-22T19:40:42Z</time>
      </trkpt>
      <trkpt lat="50.4254" lon="2.01899">
        <ele>49</ele>
        <time>2012-08-22T19:40:44Z</time>
      </trkpt>
      <trkpt lat="50.42548" lon="2.019">
        <ele>49</ele>
        <time>2012-08-22T19:40:46Z</time>
      </trkpt>
      <trkpt lat="50.42569" lon="2.019">
        <ele>49</ele>
        <time>2012-08-22T19:40:48Z</time>
      </trkpt>
      <trkpt lat="50.42581" lon="2.01898">
        <ele>49</ele>
        <time>2012-08-22T19:40:50Z</time>
      </trkpt>
      <trkpt lat="50.42588" lon="2.01897">
        <ele>49</ele>
        <time>2012-08-22T19:40:52Z</time>
      </trkpt>
      <trkpt lat="50.42595" lon="2.01897">
        <ele>51</ele>
        <time>2012-08-22T19:40:54Z</time>
      </trkpt>
      <trkpt lat="50.426" lon="2.01898">
        <ele>53</ele>
        <time>2012-08-22T19:40:56Z</time>
      </trkpt>
      <trkpt lat="50.42606" lon="2.01899">
        <ele>52</ele>
        <time>2012-08-22T19:40:58Z</time>
      </trkpt>
      <trkpt lat="50.42611" lon="2.01902">
        <ele>50</ele>
        <time>2012-08-22T19:41:00Z</time>
      </trkpt>
      <trkpt lat="50.42617" lon="2.01905">
        <ele>48</ele>
        <time>2012-08-22T19:41:02Z</time>
      </trkpt>
      <trkpt lat="50.42623" lon="2.01908">
        <ele>47</ele>
        <time>2012-08-22T19:41:04Z</time>
      </trkpt>
      <trkpt lat="50.42628" lon="2.01908">
        <ele>47</ele>
        <time>2012-08-22T19:41:06Z</time>
      </trkpt>
      <trkpt lat="50.42632" lon="2.01909">
        <ele>44</ele>
        <time>2012-08-22T19:41:08Z</time>
      </trkpt>
      <trkpt lat="50.42637" lon="2.0191">
        <ele>44</ele>
        <time>2012-08-22T19:41:10Z</time>
      </trkpt>
      <trkpt lat="50.42642" lon="2.01911">
        <ele>42</ele>
        <time>2012-08-22T19:41:12Z</time>
      </trkpt>
      <trkpt lat="50.42648" lon="2.01908">
        <ele>41</ele>
        <time>2012-08-22T19:41:14Z</time>
      </trkpt>
      <trkpt lat="50.42653" lon="2.01905">
        <ele>40</ele>
        <time>2012-08-22T19:41:16Z</time>
      </trkpt>
      <trkpt lat="50.42658" lon="2.01904">
        <ele>38</ele>
        <time>2012-08-22T19:41:18Z</time>
      </trkpt>
      <trkpt lat="50.42662" lon="2.01905">
        <ele>39</ele>
        <time>2012-08-22T19:41:20Z</time>
      </trkpt>
      <trkpt lat="50.42669" lon="2.01907">
        <ele>38</ele>
        <time>2012-08-22T19:41:22Z</time>
      </trkpt>
      <trkpt lat="50.42675" lon="2.01908">
        <ele>38</ele>
        <time>2012-08-22T19:41:24Z</time>
      </trkpt>
      <trkpt lat="50.42682" lon="2.01911">
        <ele>38</ele>
        <time>2012-08-22T19:41:26Z</time>
      </trkpt>
      <trkpt lat="50.42688" lon="2.01915">
        <ele>39</ele>
        <time>2012-08-22T19:41:28Z</time>
      </trkpt>
      <trkpt lat="50.42694" lon="2.01921">
        <ele>40</ele>
        <time>2012-08-22T19:41:30Z</time>
      </trkpt>
      <trkpt lat="50.427" lon="2.01925">
        <ele>42</ele>
        <time>2012-08-22T19:41:32Z</time>
      </trkpt>
      <trkpt lat="50.42707" lon="2.0193">
        <ele>43</ele>
        <time>2012-08-22T19:41:34Z</time>
      </trkpt>
      <trkpt lat="50.42713" lon="2.01935">
        <ele>44</ele>
        <time>2012-08-22T19:41:36Z</time>
      </trkpt>
      <trkpt lat="50.4272" lon="2.01939">
        <ele>43</ele>
        <time>2012-08-22T19:41:38Z</time>
      </trkpt>
      <trkpt lat="50.42725" lon="2.01944">
        <ele>44</ele>
        <time>2012-08-22T19:41:40Z</time>
      </trkpt>
      <trkpt lat="50.42731" lon="2.01948">
        <ele>45</ele>
        <time>2012-08-22T19:41:42Z</time>
      </trkpt>
      <trkpt lat="50.42736" lon="2.01952">
        <ele>44</ele>
        <time>2012-08-22T19:41:44Z</time>
      </trkpt>
      <trkpt lat="50.42742" lon="2.01955">
        <ele>43</ele>
        <time>2012-08-22T19:41:46Z</time>
      </trkpt>
      <trkpt lat="50.42748" lon="2.01958">
        <ele>43</ele>
        <time>2012-08-22T19:41:48Z</time>
      </trkpt>
      <trkpt lat="50.42753" lon="2.01959">
        <ele>44</ele>
        <time>2012-08-22T19:41:50Z</time>
      </trkpt>
      <trkpt lat="50.42758" lon="2.01959">
        <ele>46</ele>
        <time>2012-08-22T19:41:52Z</time>
      </trkpt>
      <trkpt lat="50.42762" lon="2.01958">
        <ele>45</ele>
        <time>2012-08-22T19:41:54Z</time>
      </trkpt>
      <trkpt lat="50.42765" lon="2.01957">
        <ele>45</ele>
        <time>2012-08-22T19:41:56Z</time>
      </trkpt>
      <trkpt lat="50.42767" lon="2.01955">
        <ele>47</ele>
        <time>2012-08-22T19:41:58Z</time>
      </trkpt>
      <trkpt lat="50.42769" lon="2.01954">
        <ele>46</ele>
        <time>2012-08-22T19:42:00Z</time>
      </trkpt>
      <trkpt lat="50.42772" lon="2.01953">
        <ele>45</ele>
        <time>2012-08-22T19:42:02Z</time>
      </trkpt>
      <trkpt lat="50.42774" lon="2.01951">
        <ele>45</ele>
        <time>2012-08-22T19:42:04Z</time>
      </trkpt>
      <trkpt lat="50.42776" lon="2.01948">
        <ele>44</ele>
        <time>2012-08-22T19:42:06Z</time>
      </trkpt>
      <trkpt lat="50.42778" lon="2.01943">
        <ele>44</ele>
        <time>2012-08-22T19:42:08Z</time>
      </trkpt>
      <trkpt lat="50.42779" lon="2.01939">
        <ele>45</ele>
        <time>2012-08-22T19:42:10Z</time>
      </trkpt>
      <trkpt lat="50.4278" lon="2.01935">
        <ele>46</ele>
        <time>2012-08-22T19:42:12Z</time>
      </trkpt>
      <trkpt lat="50.42781" lon="2.01931">
        <ele>46</ele>
        <time>2012-08-22T19:42:14Z</time>
      </trkpt>
      <trkpt lat="50.42781" lon="2.01928">
        <ele>47</ele>
        <time>2012-08-22T19:42:16Z</time>
      </trkpt>
      <trkpt lat="50.4278" lon="2.01921">
        <ele>49</ele>
        <time>2012-08-22T19:42:18Z</time>
      </trkpt>
      <trkpt lat="50.4278" lon="2.01916">
        <ele>48</ele>
        <time>2012-08-22T19:42:20Z</time>
      </trkpt>
      <trkpt lat="50.42779" lon="2.01913">
        <ele>48</ele>
        <time>2012-08-22T19:42:22Z</time>
      </trkpt>
      <trkpt lat="50.42779" lon="2.01911">
        <ele>49</ele>
        <time>2012-08-22T19:42:24Z</time>
      </trkpt>
      <trkpt lat="50.42779" lon="2.01906">
        <ele>49</ele>
        <time>2012-08-22T19:42:26Z</time>
      </trkpt>
      <trkpt lat="50.42779" lon="2.01901">
        <ele>51</ele>
        <time>2012-08-22T19:42:28Z</time>
      </trkpt>
      <trkpt lat="50.42779" lon="2.01897">
        <ele>51</ele>
        <time>2012-08-22T19:42:30Z</time>
      </trkpt>
      <trkpt lat="50.42779" lon="2.01893">
        <ele>51</ele>
        <time>2012-08-22T19:42:32Z</time>
      </trkpt>
      <trkpt lat="50.4278" lon="2.01889">
        <ele>53</ele>
        <time>2012-08-22T19:42:34Z</time>
      </trkpt>
      <trkpt lat="50.42781" lon="2.01886">
        <ele>54</ele>
        <time>2012-08-22T19:42:36Z</time>
      </trkpt>
      <trkpt lat="50.42782" lon="2.01883">
        <ele>54</ele>
        <time>2012-08-22T19:42:38Z</time>
      </trkpt>
      <trkpt lat="50.42784" lon="2.01882">
        <ele>54</ele>
        <time>2012-08-22T19:42:40Z</time>
      </trkpt>
      <trkpt lat="50.42786" lon="2.01877">
        <ele>56</ele>
        <time>2012-08-22T19:42:42Z</time>
      </trkpt>
      <trkpt lat="50.42787" lon="2.01873">
        <ele>57</ele>
        <time>2012-08-22T19:42:44Z</time>
      </trkpt>
      <trkpt lat="50.42789" lon="2.01868">
        <ele>57</ele>
        <time>2012-08-22T19:42:46Z</time>
      </trkpt>
      <trkpt lat="50.42791" lon="2.01863">
        <ele>59</ele>
        <time>2012-08-22T19:42:48Z</time>
      </trkpt>
      <trkpt lat="50.42793" lon="2.0186">
        <ele>58</ele>
        <time>2012-08-22T19:42:50Z</time>
      </trkpt>
      <trkpt lat="50.42795" lon="2.01856">
        <ele>58</ele>
        <time>2012-08-22T19:42:52Z</time>
      </trkpt>
      <trkpt lat="50.42797" lon="2.01851">
        <ele>58</ele>
        <time>2012-08-22T19:42:54Z</time>
      </trkpt>
      <trkpt lat="50.42798" lon="2.01846">
        <ele>59</ele>
        <time>2012-08-22T19:42:56Z</time>
      </trkpt>
      <trkpt lat="50.42798" lon="2.01841">
        <ele>59</ele>
        <time>2012-08-22T19:42:58Z</time>
      </trkpt>
      <trkpt lat="50.42799" lon="2.01836">
        <ele>60</ele>
        <time>2012-08-22T19:43:00Z</time>
      </trkpt>
      <trkpt lat="50.42799" lon="2.01832">
        <ele>60</ele>
        <time>2012-08-22T19:43:02Z</time>
      </trkpt>
      <trkpt lat="50.42798" lon="2.01827">
        <ele>60</ele>
        <time>2012-08-22T19:43:04Z</time>
      </trkpt>
      <trkpt lat="50.42798" lon="2.01821">
        <ele>59</ele>
        <time>2012-08-22T19:43:06Z</time>
      </trkpt>
      <trkpt lat="50.42799" lon="2.01813">
        <ele>61</ele>
        <time>2012-08-22T19:43:08Z</time>
      </trkpt>
      <trkpt lat="50.42799" lon="2.01803">
        <ele>60</ele>
        <time>2012-08-22T19:43:10Z</time>
      </trkpt>
      <trkpt lat="50.42799" lon="2.01795">
        <ele>60</ele>
        <time>2012-08-22T19:43:12Z</time>
      </trkpt>
      <trkpt lat="50.428" lon="2.01787">
        <ele>60</ele>
        <time>2012-08-22T19:43:14Z</time>
      </trkpt>
      <trkpt lat="50.428" lon="2.0178">
        <ele>61</ele>
        <time>2012-08-22T19:43:16Z</time>
      </trkpt>
      <trkpt lat="50.428" lon="2.01772">
        <ele>61</ele>
        <time>2012-08-22T19:43:18Z</time>
      </trkpt>
      <trkpt lat="50.428" lon="2.01764">
        <ele>59</ele>
        <time>2012-08-22T19:43:20Z</time>
      </trkpt>
      <trkpt lat="50.42801" lon="2.01757">
        <ele>60</ele>
        <time>2012-08-22T19:43:22Z</time>
      </trkpt>
      <trkpt lat="50.42801" lon="2.0175">
        <ele>60</ele>
        <time>2012-08-22T19:43:24Z</time>
      </trkpt>
      <trkpt lat="50.42803" lon="2.01744">
        <ele>59</ele>
        <time>2012-08-22T19:43:26Z</time>
      </trkpt>
      <trkpt lat="50.42803" lon="2.01737">
        <ele>60</ele>
        <time>2012-08-22T19:43:28Z</time>
      </trkpt>
      <trkpt lat="50.42802" lon="2.01729">
        <ele>62</ele>
        <time>2012-08-22T19:43:30Z</time>
      </trkpt>
      <trkpt lat="50.42801" lon="2.01723">
        <ele>63</ele>
        <time>2012-08-22T19:43:32Z</time>
      </trkpt>
      <trkpt lat="50.42801" lon="2.01717">
        <ele>63</ele>
        <time>2012-08-22T19:43:34Z</time>
      </trkpt>
      <trkpt lat="50.428" lon="2.0171">
        <ele>64</ele>
        <time>2012-08-22T19:43:36Z</time>
      </trkpt>
      <trkpt lat="50.42799" lon="2.01703">
        <ele>64</ele>
        <time>2012-08-22T19:43:38Z</time>
      </trkpt>
      <trkpt lat="50.42799" lon="2.01696">
        <ele>63</ele>
        <time>2012-08-22T19:43:40Z</time>
      </trkpt>
      <trkpt lat="50.42798" lon="2.01689">
        <ele>61</ele>
        <time>2012-08-22T19:43:42Z</time>
      </trkpt>
      <trkpt lat="50.42798" lon="2.01681">
        <ele>62</ele>
        <time>2012-08-22T19:43:44Z</time>
      </trkpt>
      <trkpt lat="50.42797" lon="2.01674">
        <ele>62</ele>
        <time>2012-08-22T19:43:46Z</time>
      </trkpt>
      <trkpt lat="50.42797" lon="2.01668">
        <ele>63</ele>
        <time>2012-08-22T19:43:48Z</time>
      </trkpt>
      <trkpt lat="50.42797" lon="2.01662">
        <ele>63</ele>
        <time>2012-08-22T19:43:50Z</time>
      </trkpt>
      <trkpt lat="50.42796" lon="2.01656">
        <ele>63</ele>
        <time>2012-08-22T19:43:52Z</time>
      </trkpt>
      <trkpt lat="50.42796" lon="2.01649">
        <ele>64</ele>
        <time>2012-08-22T19:43:54Z</time>
      </trkpt>
      <trkpt lat="50.42794" lon="2.01642">
        <ele>64</ele>
        <time>2012-08-22T19:43:56Z</time>
      </trkpt>
      <trkpt lat="50.42794" lon="2.01635">
        <ele>63</ele>
        <time>2012-08-22T19:43:58Z</time>
      </trkpt>
      <trkpt lat="50.42793" lon="2.01629">
        <ele>66</ele>
        <time>2012-08-22T19:44:00Z</time>
      </trkpt>
      <trkpt lat="50.42793" lon="2.01625">
        <ele>76</ele>
        <time>2012-08-22T19:44:02Z</time>
      </trkpt>
      <trkpt lat="50.42792" lon="2.01622">
        <ele>81</ele>
        <time>2012-08-22T19:44:04Z</time>
      </trkpt>
      <trkpt lat="50.42792" lon="2.0162">
        <ele>79</ele>
        <time>2012-08-22T19:44:06Z</time>
      </trkpt>
      <trkpt lat="50.42792" lon="2.01616">
        <ele>80</ele>
        <time>2012-08-22T19:44:08Z</time>
      </trkpt>
      <trkpt lat="50.42793" lon="2.01611">
        <ele>80</ele>
        <time>2012-08-22T19:44:10Z</time>
      </trkpt>
      <trkpt lat="50.42795" lon="2.01606">
        <ele>77</ele>
        <time>2012-08-22T19:44:12Z</time>
      </trkpt>
      <trkpt lat="50.42796" lon="2.016">
        <ele>79</ele>
        <time>2012-08-22T19:44:14Z</time>
      </trkpt>
      <trkpt lat="50.42798" lon="2.01597">
        <ele>80</ele>
        <time>2012-08-22T19:44:16Z</time>
      </trkpt>
      <trkpt lat="50.428" lon="2.01594">
        <ele>77</ele>
        <time>2012-08-22T19:44:18Z</time>
      </trkpt>
      <trkpt lat="50.42803" lon="2.01591">
        <ele>76</ele>
        <time>2012-08-22T19:44:20Z</time>
      </trkpt>
      <trkpt lat="50.42806" lon="2.01587">
        <ele>75</ele>
        <time>2012-08-22T19:44:22Z</time>
      </trkpt>
      <trkpt lat="50.4281" lon="2.01583">
        <ele>75</ele>
        <time>2012-08-22T19:44:24Z</time>
      </trkpt>
      <trkpt lat="50.42812" lon="2.01579">
        <ele>76</ele>
        <time>2012-08-22T19:44:26Z</time>
      </trkpt>
      <trkpt lat="50.42813" lon="2.01575">
        <ele>76</ele>
        <time>2012-08-22T19:44:28Z</time>
      </trkpt>
      <trkpt lat="50.42814" lon="2.01569">
        <ele>74</ele>
        <time>2012-08-22T19:44:30Z</time>
      </trkpt>
      <trkpt lat="50.42814" lon="2.01563">
        <ele>73</ele>
        <time>2012-08-22T19:44:32Z</time>
      </trkpt>
      <trkpt lat="50.42816" lon="2.01555">
        <ele>75</ele>
        <time>2012-08-22T19:44:34Z</time>
      </trkpt>
      <trkpt lat="50.42818" lon="2.01545">
        <ele>78</ele>
        <time>2012-08-22T19:44:36Z</time>
      </trkpt>
      <trkpt lat="50.4282" lon="2.01533">
        <ele>78</ele>
        <time>2012-08-22T19:44:38Z</time>
      </trkpt>
      <trkpt lat="50.4282" lon="2.01528">
        <ele>78</ele>
        <time>2012-08-22T19:44:40Z</time>
      </trkpt>
      <trkpt lat="50.42821" lon="2.01524">
        <ele>78</ele>
        <time>2012-08-22T19:44:42Z</time>
      </trkpt>
      <trkpt lat="50.42819" lon="2.01523">
        <ele>79</ele>
        <time>2012-08-22T19:44:44Z</time>
      </trkpt>
      <trkpt lat="50.42817" lon="2.01521">
        <ele>78</ele>
        <time>2012-08-22T19:44:46Z</time>
      </trkpt>
      <trkpt lat="50.42816" lon="2.01519">
        <ele>78</ele>
        <time>2012-08-22T19:44:48Z</time>
      </trkpt>
      <trkpt lat="50.42815" lon="2.01516">
        <ele>81</ele>
        <time>2012-08-22T19:44:50Z</time>
      </trkpt>
      <trkpt lat="50.42815" lon="2.01513">
        <ele>82</ele>
        <time>2012-08-22T19:44:52Z</time>
      </trkpt>
      <trkpt lat="50.42816" lon="2.0151">
        <ele>82</ele>
        <time>2012-08-22T19:44:54Z</time>
      </trkpt>
      <trkpt lat="50.42816" lon="2.01505">
        <ele>83</ele>
        <time>2012-08-22T19:44:56Z</time>
      </trkpt>
      <trkpt lat="50.42817" lon="2.01501">
        <ele>84</ele>
        <time>2012-08-22T19:44:58Z</time>
      </trkpt>
      <trkpt lat="50.42818" lon="2.01497">
        <ele>84</ele>
        <time>2012-08-22T19:45:00Z</time>
      </trkpt>
      <trkpt lat="50.42819" lon="2.01493">
        <ele>84</ele>
        <time>2012-08-22T19:45:02Z</time>
      </trkpt>
      <trkpt lat="50.42819" lon="2.01491">
        <ele>86</ele>
        <time>2012-08-22T19:45:04Z</time>
      </trkpt>
      <trkpt lat="50.42819" lon="2.01488">
        <ele>83</ele>
        <time>2012-08-22T19:45:06Z</time>
      </trkpt>
      <trkpt lat="50.4282" lon="2.01484">
        <ele>82</ele>
        <time>2012-08-22T19:45:08Z</time>
      </trkpt>
      <trkpt lat="50.42821" lon="2.01479">
        <ele>83</ele>
        <time>2012-08-22T19:45:10Z</time>
      </trkpt>
      <trkpt lat="50.42823" lon="2.01473">
        <ele>82</ele>
        <time>2012-08-22T19:45:12Z</time>
      </trkpt>
      <trkpt lat="50.42823" lon="2.01468">
        <ele>81</ele>
        <time>2012-08-22T19:45:14Z</time>
      </trkpt>
      <trkpt lat="50.42825" lon="2.01464">
        <ele>80</ele>
        <time>2012-08-22T19:45:16Z</time>
      </trkpt>
      <trkpt lat="50.42827" lon="2.0146">
        <ele>79</ele>
        <time>2012-08-22T19:45:18Z</time>
      </trkpt>
      <trkpt lat="50.4283" lon="2.01458">
        <ele>81</ele>
        <time>2012-08-22T19:45:20Z</time>
      </trkpt>
      <trkpt lat="50.42831" lon="2.01455">
        <ele>81</ele>
        <time>2012-08-22T19:45:22Z</time>
      </trkpt>
      <trkpt lat="50.42831" lon="2.01453">
        <ele>82</ele>
        <time>2012-08-22T19:45:24Z</time>
      </trkpt>
      <trkpt lat="50.4283" lon="2.01449">
        <ele>83</ele>
        <time>2012-08-22T19:45:26Z</time>
      </trkpt>
      <trkpt lat="50.4283" lon="2.01445">
        <ele>84</ele>
        <time>2012-08-22T19:45:28Z</time>
      </trkpt>
      <trkpt lat="50.4283" lon="2.01441">
        <ele>87</ele>
        <time>2012-08-22T19:45:30Z</time>
      </trkpt>
      <trkpt lat="50.42829" lon="2.01438">
        <ele>87</ele>
        <time>2012-08-22T19:45:32Z</time>
      </trkpt>
      <trkpt lat="50.42828" lon="2.01434">
        <ele>91</ele>
        <time>2012-08-22T19:45:34Z</time>
      </trkpt>
      <trkpt lat="50.42828" lon="2.0143">
        <ele>90</ele>
        <time>2012-08-22T19:45:36Z</time>
      </trkpt>
      <trkpt lat="50.42828" lon="2.01427">
        <ele>91</ele>
        <time>2012-08-22T19:45:38Z</time>
      </trkpt>
      <trkpt lat="50.42827" lon="2.01425">
        <ele>91</ele>
        <time>2012-08-22T19:45:40Z</time>
      </trkpt>
      <trkpt lat="50.42827" lon="2.01422">
        <ele>93</ele>
        <time>2012-08-22T19:45:42Z</time>
      </trkpt>
      <trkpt lat="50.42826" lon="2.01419">
        <ele>94</ele>
        <time>2012-08-22T19:45:44Z</time>
      </trkpt>
      <trkpt lat="50.42826" lon="2.01416">
        <ele>101</ele>
        <time>2012-08-22T19:45:46Z</time>
      </trkpt>
      <trkpt lat="50.42826" lon="2.01415">
        <ele>105</ele>
        <time>2012-08-22T19:45:48Z</time>
      </trkpt>
      <trkpt lat="50.42827" lon="2.01414">
        <ele>105</ele>
        <time>2012-08-22T19:45:50Z</time>
      </trkpt>
      <trkpt lat="50.42825" lon="2.01412">
        <ele>106</ele>
        <time>2012-08-22T19:45:52Z</time>
      </trkpt>
      <trkpt lat="50.42824" lon="2.01409">
        <ele>107</ele>
        <time>2012-08-22T19:45:54Z</time>
      </trkpt>
      <trkpt lat="50.42822" lon="2.01407">
        <ele>106</ele>
        <time>2012-08-22T19:45:56Z</time>
      </trkpt>
      <trkpt lat="50.4282" lon="2.01404">
        <ele>107</ele>
        <time>2012-08-22T19:45:58Z</time>
      </trkpt>
      <trkpt lat="50.4282" lon="2.01399">
        <ele>110</ele>
        <time>2012-08-22T19:46:00Z</time>
      </trkpt>
      <trkpt lat="50.4282" lon="2.01394">
        <ele>111</ele>
        <time>2012-08-22T19:46:02Z</time>
      </trkpt>
      <trkpt lat="50.42821" lon="2.01387">
        <ele>109</ele>
        <time>2012-08-22T19:46:04Z</time>
      </trkpt>
      <trkpt lat="50.42822" lon="2.01382">
        <ele>108</ele>
        <time>2012-08-22T19:46:06Z</time>
      </trkpt>
      <trkpt lat="50.42823" lon="2.01375">
        <ele>102</ele>
        <time>2012-08-22T19:46:08Z</time>
      </trkpt>
      <trkpt lat="50.42825" lon="2.01367">
        <ele>102</ele>
        <time>2012-08-22T19:46:10Z</time>
      </trkpt>
      <trkpt lat="50.42828" lon="2.01361">
        <ele>101</ele>
        <time>2012-08-22T19:46:12Z</time>
      </trkpt>
      <trkpt lat="50.42833" lon="2.01352">
        <ele>99</ele>
        <time>2012-08-22T19:46:14Z</time>
      </trkpt>
      <trkpt lat="50.42838" lon="2.01343">
        <ele>98</ele>
        <time>2012-08-22T19:46:16Z</time>
      </trkpt>
      <trkpt lat="50.4284" lon="2.01336">
        <ele>97</ele>
        <time>2012-08-22T19:46:18Z</time>
      </trkpt>
      <trkpt lat="50.42841" lon="2.0133">
        <ele>99</ele>
        <time>2012-08-22T19:46:20Z</time>
      </trkpt>
      <trkpt lat="50.4284" lon="2.01324">
        <ele>98</ele>
        <time>2012-08-22T19:46:22Z</time>
      </trkpt>
      <trkpt lat="50.42839" lon="2.01317">
        <ele>97</ele>
        <time>2012-08-22T19:46:24Z</time>
      </trkpt>
      <trkpt lat="50.4284" lon="2.01309">
        <ele>104</ele>
        <time>2012-08-22T19:46:26Z</time>
      </trkpt>
      <trkpt lat="50.42841" lon="2.01302">
        <ele>107</ele>
        <time>2012-08-22T19:46:28Z</time>
      </trkpt>
      <trkpt lat="50.42842" lon="2.01295">
        <ele>106</ele>
        <time>2012-08-22T19:46:30Z</time>
      </trkpt>
      <trkpt lat="50.42846" lon="2.01286">
        <ele>103</ele>
        <time>2012-08-22T19:46:32Z</time>
      </trkpt>
      <trkpt lat="50.42849" lon="2.01276">
        <ele>99</ele>
        <time>2012-08-22T19:46:34Z</time>
      </trkpt>
      <trkpt lat="50.42852" lon="2.01267">
        <ele>102</ele>
        <time>2012-08-22T19:46:36Z</time>
      </trkpt>
      <trkpt lat="50.42854" lon="2.01258">
        <ele>100</ele>
        <time>2012-08-22T19:46:38Z</time>
      </trkpt>
      <trkpt lat="50.42856" lon="2.01252">
        <ele>100</ele>
        <time>2012-08-22T19:46:40Z</time>
      </trkpt>
      <trkpt lat="50.42858" lon="2.01241">
        <ele>97</ele>
        <time>2012-08-22T19:46:42Z</time>
      </trkpt>
      <trkpt lat="50.42859" lon="2.01233">
        <ele>96</ele>
        <time>2012-08-22T19:46:44Z</time>
      </trkpt>
      <trkpt lat="50.4286" lon="2.01224">
        <ele>95</ele>
        <time>2012-08-22T19:46:46Z</time>
      </trkpt>
      <trkpt lat="50.42859" lon="2.01217">
        <ele>93</ele>
        <time>2012-08-22T19:46:48Z</time>
      </trkpt>
      <trkpt lat="50.42857" lon="2.01211">
        <ele>92</ele>
        <time>2012-08-22T19:46:50Z</time>
      </trkpt>
      <trkpt lat="50.42855" lon="2.01204">
        <ele>89</ele>
        <time>2012-08-22T19:46:52Z</time>
      </trkpt>
      <trkpt lat="50.42854" lon="2.01197">
        <ele>92</ele>
        <time>2012-08-22T19:46:54Z</time>
      </trkpt>
      <trkpt lat="50.42855" lon="2.0119">
        <ele>93</ele>
        <time>2012-08-22T19:46:56Z</time>
      </trkpt>
      <trkpt lat="50.42855" lon="2.01185">
        <ele>94</ele>
        <time>2012-08-22T19:46:58Z</time>
      </trkpt>
      <trkpt lat="50.42854" lon="2.01179">
        <ele>94</ele>
        <time>2012-08-22T19:47:00Z</time>
      </trkpt>
      <trkpt lat="50.42853" lon="2.01173">
        <ele>95</ele>
        <time>2012-08-22T19:47:02Z</time>
      </trkpt>
      <trkpt lat="50.42852" lon="2.01168">
        <ele>93</ele>
        <time>2012-08-22T19:47:04Z</time>
      </trkpt>
      <trkpt lat="50.42849" lon="2.01162">
        <ele>93</ele>
        <time>2012-08-22T19:47:06Z</time>
      </trkpt>
      <trkpt lat="50.42847" lon="2.01156">
        <ele>93</ele>
        <time>2012-08-22T19:47:08Z</time>
      </trkpt>
      <trkpt lat="50.42846" lon="2.0115">
        <ele>93</ele>
        <time>2012-08-22T19:47:10Z</time>
      </trkpt>
      <trkpt lat="50.42845" lon="2.01145">
        <ele>93</ele>
        <time>2012-08-22T19:47:12Z</time>
      </trkpt>
      <trkpt lat="50.42844" lon="2.0114">
        <ele>92</ele>
        <time>2012-08-22T19:47:14Z</time>
      </trkpt>
      <trkpt lat="50.42843" lon="2.01136">
        <ele>92</ele>
        <time>2012-08-22T19:47:16Z</time>
      </trkpt>
      <trkpt lat="50.42843" lon="2.0113">
        <ele>93</ele>
        <time>2012-08-22T19:47:18Z</time>
      </trkpt>
      <trkpt lat="50.42841" lon="2.01125">
        <ele>93</ele>
        <time>2012-08-22T19:47:20Z</time>
      </trkpt>
      <trkpt lat="50.42841" lon="2.01119">
        <ele>92</ele>
        <time>2012-08-22T19:47:22Z</time>
      </trkpt>
      <trkpt lat="50.42839" lon="2.01113">
        <ele>93</ele>
        <time>2012-08-22T19:47:24Z</time>
      </trkpt>
      <trkpt lat="50.42838" lon="2.01108">
        <ele>93</ele>
        <time>2012-08-22T19:47:26Z</time>
      </trkpt>
      <trkpt lat="50.42838" lon="2.01102">
        <ele>94</ele>
        <time>2012-08-22T19:47:28Z</time>
      </trkpt>
      <trkpt lat="50.42837" lon="2.01098">
        <ele>95</ele>
        <time>2012-08-22T19:47:30Z</time>
      </trkpt>
      <trkpt lat="50.42836" lon="2.01092">
        <ele>94</ele>
        <time>2012-08-22T19:47:32Z</time>
      </trkpt>
      <trkpt lat="50.42835" lon="2.01088">
        <ele>95</ele>
        <time>2012-08-22T19:47:34Z</time>
      </trkpt>
      <trkpt lat="50.42834" lon="2.01083">
        <ele>95</ele>
        <time>2012-08-22T19:47:36Z</time>
      </trkpt>
      <trkpt lat="50.42833" lon="2.01078">
        <ele>96</ele>
        <time>2012-08-22T19:47:38Z</time>
      </trkpt>
      <trkpt lat="50.42832" lon="2.01074">
        <ele>96</ele>
        <time>2012-08-22T19:47:40Z</time>
      </trkpt>
      <trkpt lat="50.42831" lon="2.01069">
        <ele>95</ele>
        <time>2012-08-22T19:47:42Z</time>
      </trkpt>
      <trkpt lat="50.4283" lon="2.01065">
        <ele>97</ele>
        <time>2012-08-22T19:47:44Z</time>
      </trkpt>
      <trkpt lat="50.42829" lon="2.01061">
        <ele>97</ele>
        <time>2012-08-22T19:47:46Z</time>
      </trkpt>
      <trkpt lat="50.42829" lon="2.01057">
        <ele>96</ele>
        <time>2012-08-22T19:47:48Z</time>
      </trkpt>
      <trkpt lat="50.42828" lon="2.01051">
        <ele>96</ele>
        <time>2012-08-22T19:47:50Z</time>
      </trkpt>
      <trkpt lat="50.42828" lon="2.01046">
        <ele>95</ele>
        <time>2012-08-22T19:47:52Z</time>
      </trkpt>
      <trkpt lat="50.42827" lon="2.01042">
        <ele>94</ele>
        <time>2012-08-22T19:47:54Z</time>
      </trkpt>
      <trkpt lat="50.42826" lon="2.01038">
        <ele>94</ele>
        <time>2012-08-22T19:47:56Z</time>
      </trkpt>
      <trkpt lat="50.42825" lon="2.01033">
        <ele>95</ele>
        <time>2012-08-22T19:47:58Z</time>
      </trkpt>
      <trkpt lat="50.42824" lon="2.01027">
        <ele>96</ele>
        <time>2012-08-22T19:48:00Z</time>
      </trkpt>
      <trkpt lat="50.42823" lon="2.01022">
        <ele>96</ele>
        <time>2012-08-22T19:48:02Z</time>
      </trkpt>
      <trkpt lat="50.42823" lon="2.01017">
        <ele>96</ele>
        <time>2012-08-22T19:48:04Z</time>
      </trkpt>
      <trkpt lat="50.42823" lon="2.01011">
        <ele>97</ele>
        <time>2012-08-22T19:48:06Z</time>
      </trkpt>
      <trkpt lat="50.42823" lon="2.01005">
        <ele>97</ele>
        <time>2012-08-22T19:48:08Z</time>
      </trkpt>
      <trkpt lat="50.42822" lon="2.00999">
        <ele>97</ele>
        <time>2012-08-22T19:48:10Z</time>
      </trkpt>
      <trkpt lat="50.42822" lon="2.00992">
        <ele>97</ele>
        <time>2012-08-22T19:48:12Z</time>
      </trkpt>
      <trkpt lat="50.42822" lon="2.00986">
        <ele>97</ele>
        <time>2012-08-22T19:48:14Z</time>
      </trkpt>
      <trkpt lat="50.42822" lon="2.0098">
        <ele>98</ele>
        <time>2012-08-22T19:48:16Z</time>
      </trkpt>
      <trkpt lat="50.42822" lon="2.00974">
        <ele>98</ele>
        <time>2012-08-22T19:48:18Z</time>
      </trkpt>
      <trkpt lat="50.42821" lon="2.00969">
        <ele>98</ele>
        <time>2012-08-22T19:48:20Z</time>
      </trkpt>
      <trkpt lat="50.42822" lon="2.00964">
        <ele>100</ele>
        <time>2012-08-22T19:48:22Z</time>
      </trkpt>
      <trkpt lat="50.42823" lon="2.00959">
        <ele>100</ele>
        <time>2012-08-22T19:48:24Z</time>
      </trkpt>
      <trkpt lat="50.42824" lon="2.00953">
        <ele>101</ele>
        <time>2012-08-22T19:48:26Z</time>
      </trkpt>
      <trkpt lat="50.42825" lon="2.00948">
        <ele>101</ele>
        <time>2012-08-22T19:48:28Z</time>
      </trkpt>
      <trkpt lat="50.42826" lon="2.00942">
        <ele>101</ele>
        <time>2012-08-22T19:48:30Z</time>
      </trkpt>
      <trkpt lat="50.42825" lon="2.00936">
        <ele>102</ele>
        <time>2012-08-22T19:48:32Z</time>
      </trkpt>
      <trkpt lat="50.42825" lon="2.00931">
        <ele>105</ele>
        <time>2012-08-22T19:48:34Z</time>
      </trkpt>
      <trkpt lat="50.42825" lon="2.00925">
        <ele>105</ele>
        <time>2012-08-22T19:48:36Z</time>
      </trkpt>
      <trkpt lat="50.42827" lon="2.00919">
        <ele>104</ele>
        <time>2012-08-22T19:48:38Z</time>
      </trkpt>
      <trkpt lat="50.42829" lon="2.00912">
        <ele>104</ele>
        <time>2012-08-22T19:48:40Z</time>
      </trkpt>
      <trkpt lat="50.4283" lon="2.00904">
        <ele>105</ele>
        <time>2012-08-22T19:48:42Z</time>
      </trkpt>
      <trkpt lat="50.42831" lon="2.00897">
        <ele>105</ele>
        <time>2012-08-22T19:48:44Z</time>
      </trkpt>
      <trkpt lat="50.42832" lon="2.00888">
        <ele>107</ele>
        <time>2012-08-22T19:48:46Z</time>
      </trkpt>
      <trkpt lat="50.42833" lon="2.0088">
        <ele>105</ele>
        <time>2012-08-22T19:48:48Z</time>
      </trkpt>
      <trkpt lat="50.42836" lon="2.00873">
        <ele>107</ele>
        <time>2012-08-22T19:48:50Z</time>
      </trkpt>
      <trkpt lat="50.42838" lon="2.00866">
        <ele>106</ele>
        <time>2012-08-22T19:48:52Z</time>
      </trkpt>
      <trkpt lat="50.42839" lon="2.00858">
        <ele>106</ele>
        <time>2012-08-22T19:48:54Z</time>
      </trkpt>
      <trkpt lat="50.42839" lon="2.00851">
        <ele>107</ele>
        <time>2012-08-22T19:48:56Z</time>
      </trkpt>
      <trkpt lat="50.42839" lon="2.00844">
        <ele>107</ele>
        <time>2012-08-22T19:48:58Z</time>
      </trkpt>
      <trkpt lat="50.42838" lon="2.00836">
        <ele>108</ele>
        <time>2012-08-22T19:49:00Z</time>
      </trkpt>
      <trkpt lat="50.42839" lon="2.00826">
        <ele>107</ele>
        <time>2012-08-22T19:49:02Z</time>
      </trkpt>
      <trkpt lat="50.42839" lon="2.00818">
        <ele>108</ele>
        <time>2012-08-22T19:49:04Z</time>
      </trkpt>
      <trkpt lat="50.4284" lon="2.00812">
        <ele>110</ele>
        <time>2012-08-22T19:49:06Z</time>
      </trkpt>
      <trkpt lat="50.4284" lon="2.00806">
        <ele>112</ele>
        <time>2012-08-22T19:49:08Z</time>
      </trkpt>
      <trkpt lat="50.42841" lon="2.00799">
        <ele>112</ele>
        <time>2012-08-22T19:49:10Z</time>
      </trkpt>
      <trkpt lat="50.42841" lon="2.00792">
        <ele>114</ele>
        <time>2012-08-22T19:49:12Z</time>
      </trkpt>
      <trkpt lat="50.42841" lon="2.00786">
        <ele>116</ele>
        <time>2012-08-22T19:49:14Z</time>
      </trkpt>
      <trkpt lat="50.42841" lon="2.00779">
        <ele>116</ele>
        <time>2012-08-22T19:49:16Z</time>
      </trkpt>
      <trkpt lat="50.42841" lon="2.00773">
        <ele>116</ele>
        <time>2012-08-22T19:49:18Z</time>
      </trkpt>
      <trkpt lat="50.42842" lon="2.00766">
        <ele>116</ele>
        <time>2012-08-22T19:49:20Z</time>
      </trkpt>
      <trkpt lat="50.42843" lon="2.00758">
        <ele>116</ele>
        <time>2012-08-22T19:49:22Z</time>
      </trkpt>
      <trkpt lat="50.42844" lon="2.0075">
        <ele>115</ele>
        <time>2012-08-22T19:49:24Z</time>
      </trkpt>
      <trkpt lat="50.42846" lon="2.00743">
        <ele>117</ele>
        <time>2012-08-22T19:49:26Z</time>
      </trkpt>
      <trkpt lat="50.42847" lon="2.00736">
        <ele>119</ele>
        <time>2012-08-22T19:49:28Z</time>
      </trkpt>
      <trkpt lat="50.42846" lon="2.00729">
        <ele>119</ele>
        <time>2012-08-22T19:49:30Z</time>
      </trkpt>
      <trkpt lat="50.42846" lon="2.00724">
        <ele>118</ele>
        <time>2012-08-22T19:49:32Z</time>
      </trkpt>
      <trkpt lat="50.42847" lon="2.00719">
        <ele>118</ele>
        <time>2012-08-22T19:49:34Z</time>
      </trkpt>
      <trkpt lat="50.42849" lon="2.00711">
        <ele>118</ele>
        <time>2012-08-22T19:49:36Z</time>
      </trkpt>
      <trkpt lat="50.42852" lon="2.00702">
        <ele>118</ele>
        <time>2012-08-22T19:49:38Z</time>
      </trkpt>
      <trkpt lat="50.42854" lon="2.00691">
        <ele>117</ele>
        <time>2012-08-22T19:49:40Z</time>
      </trkpt>
      <trkpt lat="50.42854" lon="2.00677">
        <ele>116</ele>
        <time>2012-08-22T19:49:42Z</time>
      </trkpt>
      <trkpt lat="50.42856" lon="2.00667">
        <ele>114</ele>
        <time>2012-08-22T19:49:44Z</time>
      </trkpt>
      <trkpt lat="50.42859" lon="2.00658">
        <ele>115</ele>
        <time>2012-08-22T19:49:46Z</time>
      </trkpt>
      <trkpt lat="50.42861" lon="2.00647">
        <ele>116</ele>
        <time>2012-08-22T19:49:48Z</time>
      </trkpt>
      <trkpt lat="50.42865" lon="2.00634">
        <ele>111</ele>
        <time>2012-08-22T19:49:50Z</time>
      </trkpt>
      <trkpt lat="50.42869" lon="2.00623">
        <ele>112</ele>
        <time>2012-08-22T19:49:52Z</time>
      </trkpt>
      <trkpt lat="50.42874" lon="2.00614">
        <ele>110</ele>
        <time>2012-08-22T19:49:54Z</time>
      </trkpt>
      <trkpt lat="50.42878" lon="2.00605">
        <ele>110</ele>
        <time>2012-08-22T19:49:56Z</time>
      </trkpt>
      <trkpt lat="50.42883" lon="2.00596">
        <ele>109</ele>
        <time>2012-08-22T19:49:58Z</time>
      </trkpt>
      <trkpt lat="50.42887" lon="2.00588">
        <ele>109</ele>
        <time>2012-08-22T19:50:00Z</time>
      </trkpt>
      <trkpt lat="50.42892" lon="2.0058">
        <ele>109</ele>
        <time>2012-08-22T19:50:02Z</time>
      </trkpt>
      <trkpt lat="50.42897" lon="2.00571">
        <ele>108</ele>
        <time>2012-08-22T19:50:04Z</time>
      </trkpt>
      <trkpt lat="50.42902" lon="2.00562">
        <ele>108</ele>
        <time>2012-08-22T19:50:06Z</time>
      </trkpt>
      <trkpt lat="50.42907" lon="2.00553">
        <ele>108</ele>
        <time>2012-08-22T19:50:08Z</time>
      </trkpt>
      <trkpt lat="50.42912" lon="2.00544">
        <ele>108</ele>
        <time>2012-08-22T19:50:10Z</time>
      </trkpt>
      <trkpt lat="50.42917" lon="2.00535">
        <ele>109</ele>
        <time>2012-08-22T19:50:12Z</time>
      </trkpt>
      <trkpt lat="50.42923" lon="2.00525">
        <ele>108</ele>
        <time>2012-08-22T19:50:14Z</time>
      </trkpt>
      <trkpt lat="50.42928" lon="2.00515">
        <ele>108</ele>
        <time>2012-08-22T19:50:16Z</time>
      </trkpt>
      <trkpt lat="50.42933" lon="2.00506">
        <ele>108</ele>
        <time>2012-08-22T19:50:18Z</time>
      </trkpt>
      <trkpt lat="50.42939" lon="2.00496">
        <ele>108</ele>
        <time>2012-08-22T19:50:20Z</time>
      </trkpt>
      <trkpt lat="50.42944" lon="2.00487">
        <ele>108</ele>
        <time>2012-08-22T19:50:22Z</time>
      </trkpt>
      <trkpt lat="50.4295" lon="2.00477">
        <ele>108</ele>
        <time>2012-08-22T19:50:24Z</time>
      </trkpt>
      <trkpt lat="50.42956" lon="2.00467">
        <ele>107</ele>
        <time>2012-08-22T19:50:26Z</time>
      </trkpt>
      <trkpt lat="50.42962" lon="2.00457">
        <ele>107</ele>
        <time>2012-08-22T19:50:28Z</time>
      </trkpt>
      <trkpt lat="50.42967" lon="2.00447">
        <ele>107</ele>
        <time>2012-08-22T19:50:30Z</time>
      </trkpt>
      <trkpt lat="50.42972" lon="2.00438">
        <ele>107</ele>
        <time>2012-08-22T19:50:32Z</time>
      </trkpt>
      <trkpt lat="50.42976" lon="2.00431">
        <ele>107</ele>
        <time>2012-08-22T19:50:34Z</time>
      </trkpt>
      <trkpt lat="50.42978" lon="2.00424">
        <ele>108</ele>
        <time>2012-08-22T19:50:36Z</time>
      </trkpt>
      <trkpt lat="50.42977" lon="2.0042">
        <ele>108</ele>
        <time>2012-08-22T19:50:38Z</time>
      </trkpt>
      <trkpt lat="50.42974" lon="2.00417">
        <ele>107</ele>
        <time>2012-08-22T19:50:40Z</time>
      </trkpt>
      <trkpt lat="50.4297" lon="2.00414">
        <ele>107</ele>
        <time>2012-08-22T19:50:42Z</time>
      </trkpt>
      <trkpt lat="50.42967" lon="2.00409">
        <ele>108</ele>
        <time>2012-08-22T19:50:44Z</time>
      </trkpt>
      <trkpt lat="50.42964" lon="2.00403">
        <ele>108</ele>
        <time>2012-08-22T19:50:46Z</time>
      </trkpt>
      <trkpt lat="50.42961" lon="2.00398">
        <ele>108</ele>
        <time>2012-08-22T19:50:48Z</time>
      </trkpt>
      <trkpt lat="50.42958" lon="2.00393">
        <ele>108</ele>
        <time>2012-08-22T19:50:50Z</time>
      </trkpt>
      <trkpt lat="50.42954" lon="2.00387">
        <ele>108</ele>
        <time>2012-08-22T19:50:52Z</time>
      </trkpt>
      <trkpt lat="50.42951" lon="2.00381">
        <ele>108</ele>
        <time>2012-08-22T19:50:54Z</time>
      </trkpt>
      <trkpt lat="50.42947" lon="2.00375">
        <ele>108</ele>
        <time>2012-08-22T19:50:56Z</time>
      </trkpt>
      <trkpt lat="50.42944" lon="2.0037">
        <ele>108</ele>
        <time>2012-08-22T19:50:58Z</time>
      </trkpt>
      <trkpt lat="50.4294" lon="2.00363">
        <ele>108</ele>
        <time>2012-08-22T19:51:00Z</time>
      </trkpt>
      <trkpt lat="50.42937" lon="2.00357">
        <ele>108</ele>
        <time>2012-08-22T19:51:02Z</time>
      </trkpt>
      <trkpt lat="50.42934" lon="2.00351">
        <ele>107</ele>
        <time>2012-08-22T19:51:04Z</time>
      </trkpt>
      <trkpt lat="50.4293" lon="2.00344">
        <ele>108</ele>
        <time>2012-08-22T19:51:06Z</time>
      </trkpt>
      <trkpt lat="50.42926" lon="2.00336">
        <ele>107</ele>
        <time>2012-08-22T19:51:08Z</time>
      </trkpt>
      <trkpt lat="50.42921" lon="2.00327">
        <ele>107</ele>
        <time>2012-08-22T19:51:10Z</time>
      </trkpt>
      <trkpt lat="50.42917" lon="2.00318">
        <ele>107</ele>
        <time>2012-08-22T19:51:12Z</time>
      </trkpt>
      <trkpt lat="50.42912" lon="2.00309">
        <ele>106</ele>
        <time>2012-08-22T19:51:14Z</time>
      </trkpt>
      <trkpt lat="50.42908" lon="2.003">
        <ele>106</ele>
        <time>2012-08-22T19:51:16Z</time>
      </trkpt>
      <trkpt lat="50.42903" lon="2.00291">
        <ele>106</ele>
        <time>2012-08-22T19:51:18Z</time>
      </trkpt>
      <trkpt lat="50.42897" lon="2.00281">
        <ele>103</ele>
        <time>2012-08-22T19:51:20Z</time>
      </trkpt>
      <trkpt lat="50.42892" lon="2.00272">
        <ele>103</ele>
        <time>2012-08-22T19:51:22Z</time>
      </trkpt>
      <trkpt lat="50.42887" lon="2.00263">
        <ele>103</ele>
        <time>2012-08-22T19:51:24Z</time>
      </trkpt>
      <trkpt lat="50.42882" lon="2.00254">
        <ele>102</ele>
        <time>2012-08-22T19:51:26Z</time>
      </trkpt>
      <trkpt lat="50.42878" lon="2.00245">
        <ele>102</ele>
        <time>2012-08-22T19:51:28Z</time>
      </trkpt>
      <trkpt lat="50.42874" lon="2.00236">
        <ele>102</ele>
        <time>2012-08-22T19:51:30Z</time>
      </trkpt>
      <trkpt lat="50.4287" lon="2.00228">
        <ele>102</ele>
        <time>2012-08-22T19:51:32Z</time>
      </trkpt>
      <trkpt lat="50.42866" lon="2.00221">
        <ele>102</ele>
        <time>2012-08-22T19:51:34Z</time>
      </trkpt>
      <trkpt lat="50.42863" lon="2.00216">
        <ele>102</ele>
        <time>2012-08-22T19:51:36Z</time>
      </trkpt>
      <trkpt lat="50.42859" lon="2.00211">
        <ele>102</ele>
        <time>2012-08-22T19:51:38Z</time>
      </trkpt>
      <trkpt lat="50.42853" lon="2.00209">
        <ele>102</ele>
        <time>2012-08-22T19:51:40Z</time>
      </trkpt>
      <trkpt lat="50.42847" lon="2.00212">
        <ele>101</ele>
        <time>2012-08-22T19:51:42Z</time>
      </trkpt>
      <trkpt lat="50.4284" lon="2.00217">
        <ele>100</ele>
        <time>2012-08-22T19:51:44Z</time>
      </trkpt>
      <trkpt lat="50.42834" lon="2.00222">
        <ele>99</ele>
        <time>2012-08-22T19:51:46Z</time>
      </trkpt>
      <trkpt lat="50.42828" lon="2.00228">
        <ele>99</ele>
        <time>2012-08-22T19:51:48Z</time>
      </trkpt>
      <trkpt lat="50.42823" lon="2.00234">
        <ele>99</ele>
        <time>2012-08-22T19:51:50Z</time>
      </trkpt>
      <trkpt lat="50.42817" lon="2.0024">
        <ele>98</ele>
        <time>2012-08-22T19:51:52Z</time>
      </trkpt>
      <trkpt lat="50.42812" lon="2.00246">
        <ele>98</ele>
        <time>2012-08-22T19:51:54Z</time>
      </trkpt>
      <trkpt lat="50.42807" lon="2.00253">
        <ele>98</ele>
        <time>2012-08-22T19:51:56Z</time>
      </trkpt>
      <trkpt lat="50.42801" lon="2.00261">
        <ele>98</ele>
        <time>2012-08-22T19:51:58Z</time>
      </trkpt>
      <trkpt lat="50.42796" lon="2.00269">
        <ele>97</ele>
        <time>2012-08-22T19:52:00Z</time>
      </trkpt>
      <trkpt lat="50.42791" lon="2.00278">
        <ele>97</ele>
        <time>2012-08-22T19:52:02Z</time>
      </trkpt>
      <trkpt lat="50.42786" lon="2.00286">
        <ele>97</ele>
        <time>2012-08-22T19:52:04Z</time>
      </trkpt>
      <trkpt lat="50.4278" lon="2.00296">
        <ele>96</ele>
        <time>2012-08-22T19:52:06Z</time>
      </trkpt>
      <trkpt lat="50.42775" lon="2.00306">
        <ele>96</ele>
        <time>2012-08-22T19:52:08Z</time>
      </trkpt>
      <trkpt lat="50.42769" lon="2.00317">
        <ele>97</ele>
        <time>2012-08-22T19:52:10Z</time>
      </trkpt>
      <trkpt lat="50.42763" lon="2.00327">
        <ele>97</ele>
        <time>2012-08-22T19:52:12Z</time>
      </trkpt>
      <trkpt lat="50.42756" lon="2.00338">
        <ele>97</ele>
        <time>2012-08-22T19:52:14Z</time>
      </trkpt>
      <trkpt lat="50.42749" lon="2.0035">
        <ele>96</ele>
        <time>2012-08-22T19:52:16Z</time>
      </trkpt>
      <trkpt lat="50.42742" lon="2.00362">
        <ele>96</ele>
        <time>2012-08-22T19:52:18Z</time>
      </trkpt>
      <trkpt lat="50.42734" lon="2.00374">
        <ele>97</ele>
        <time>2012-08-22T19:52:20Z</time>
      </trkpt>
      <trkpt lat="50.42726" lon="2.00387">
        <ele>96</ele>
        <time>2012-08-22T19:52:22Z</time>
      </trkpt>
      <trkpt lat="50.42719" lon="2.00399">
        <ele>95</ele>
        <time>2012-08-22T19:52:24Z</time>
      </trkpt>
      <trkpt lat="50.4271" lon="2.00412">
        <ele>95</ele>
        <time>2012-08-22T19:52:26Z</time>
      </trkpt>
      <trkpt lat="50.42701" lon="2.00426">
        <ele>94</ele>
        <time>2012-08-22T19:52:28Z</time>
      </trkpt>
      <trkpt lat="50.42691" lon="2.00438">
        <ele>94</ele>
        <time>2012-08-22T19:52:30Z</time>
      </trkpt>
      <trkpt lat="50.42679" lon="2.00448">
        <ele>94</ele>
        <time>2012-08-22T19:52:32Z</time>
      </trkpt>
      <trkpt lat="50.42667" lon="2.00457">
        <ele>94</ele>
        <time>2012-08-22T19:52:34Z</time>
      </trkpt>
      <trkpt lat="50.42654" lon="2.00464">
        <ele>93</ele>
        <time>2012-08-22T19:52:36Z</time>
      </trkpt>
      <trkpt lat="50.4264" lon="2.00468">
        <ele>93</ele>
        <time>2012-08-22T19:52:38Z</time>
      </trkpt>
      <trkpt lat="50.42627" lon="2.00469">
        <ele>92</ele>
        <time>2012-08-22T19:52:40Z</time>
      </trkpt>
      <trkpt lat="50.42614" lon="2.00467">
        <ele>92</ele>
        <time>2012-08-22T19:52:42Z</time>
      </trkpt>
      <trkpt lat="50.42599" lon="2.00463">
        <ele>91</ele>
        <time>2012-08-22T19:52:44Z</time>
      </trkpt>
      <trkpt lat="50.42585" lon="2.00457">
        <ele>91</ele>
        <time>2012-08-22T19:52:46Z</time>
      </trkpt>
      <trkpt lat="50.42569" lon="2.00452">
        <ele>90</ele>
        <time>2012-08-22T19:52:48Z</time>
      </trkpt>
      <trkpt lat="50.42553" lon="2.00448">
        <ele>89</ele>
        <time>2012-08-22T19:52:50Z</time>
      </trkpt>
      <trkpt lat="50.42535" lon="2.00442">
        <ele>87</ele>
        <time>2012-08-22T19:52:52Z</time>
      </trkpt>
      <trkpt lat="50.42516" lon="2.00437">
        <ele>85</ele>
        <time>2012-08-22T19:52:54Z</time>
      </trkpt>
      <trkpt lat="50.42498" lon="2.00434">
        <ele>84</ele>
        <time>2012-08-22T19:52:56Z</time>
      </trkpt>
      <trkpt lat="50.42479" lon="2.00438">
        <ele>82</ele>
        <time>2012-08-22T19:52:58Z</time>
      </trkpt>
      <trkpt lat="50.42459" lon="2.00449">
        <ele>81</ele>
        <time>2012-08-22T19:53:00Z</time>
      </trkpt>
      <trkpt lat="50.4244" lon="2.00464">
        <ele>79</ele>
        <time>2012-08-22T19:53:02Z</time>
      </trkpt>
      <trkpt lat="50.42421" lon="2.0048">
        <ele>76</ele>
        <time>2012-08-22T19:53:04Z</time>
      </trkpt>
      <trkpt lat="50.42401" lon="2.00497">
        <ele>73</ele>
        <time>2012-08-22T19:53:06Z</time>
      </trkpt>
      <trkpt lat="50.42381" lon="2.00512">
        <ele>70</ele>
        <time>2012-08-22T19:53:08Z</time>
      </trkpt>
      <trkpt lat="50.42363" lon="2.00529">
        <ele>68</ele>
        <time>2012-08-22T19:53:10Z</time>
      </trkpt>
      <trkpt lat="50.42347" lon="2.0055">
        <ele>67</ele>
        <time>2012-08-22T19:53:12Z</time>
      </trkpt>
      <trkpt lat="50.42336" lon="2.00573">
        <ele>65</ele>
        <time>2012-08-22T19:53:14Z</time>
      </trkpt>
      <trkpt lat="50.42329" lon="2.00602">
        <ele>63</ele>
        <time>2012-08-22T19:53:16Z</time>
      </trkpt>
      <trkpt lat="50.42326" lon="2.00634">
        <ele>62</ele>
        <time>2012-08-22T19:53:18Z</time>
      </trkpt>
      <trkpt lat="50.42327" lon="2.00667">
        <ele>60</ele>
        <time>2012-08-22T19:53:20Z</time>
      </trkpt>
      <trkpt lat="50.42331" lon="2.00699">
        <ele>58</ele>
        <time>2012-08-22T19:53:22Z</time>
      </trkpt>
      <trkpt lat="50.42336" lon="2.0073">
        <ele>57</ele>
        <time>2012-08-22T19:53:24Z</time>
      </trkpt>
      <trkpt lat="50.42341" lon="2.00764">
        <ele>57</ele>
        <time>2012-08-22T19:53:26Z</time>
      </trkpt>
      <trkpt lat="50.42344" lon="2.00793">
        <ele>55</ele>
        <time>2012-08-22T19:53:28Z</time>
      </trkpt>
      <trkpt lat="50.42346" lon="2.00818">
        <ele>54</ele>
        <time>2012-08-22T19:53:30Z</time>
      </trkpt>
      <trkpt lat="50.42347" lon="2.00835">
        <ele>53</ele>
        <time>2012-08-22T19:53:32Z</time>
      </trkpt>
      <trkpt lat="50.42346" lon="2.00838">
        <ele>52</ele>
        <time>2012-08-22T19:53:34Z</time>
      </trkpt>
      <trkpt lat="50.42344" lon="2.00842">
        <ele>52</ele>
        <time>2012-08-22T19:53:36Z</time>
      </trkpt>
      <trkpt lat="50.42346" lon="2.00841">
        <ele>51</ele>
        <time>2012-08-22T19:53:46Z</time>
      </trkpt>
      <trkpt lat="50.42348" lon="2.00841">
        <ele>52</ele>
        <time>2012-08-22T19:53:48Z</time>
      </trkpt>
      <trkpt lat="50.42346" lon="2.00839">
        <ele>50</ele>
        <time>2012-08-22T19:53:58Z</time>
      </trkpt>
      <trkpt lat="50.42341" lon="2.0084">
        <ele>47</ele>
        <time>2012-08-22T19:54:00Z</time>
      </trkpt>
      <trkpt lat="50.42332" lon="2.00846">
        <ele>47</ele>
        <time>2012-08-22T19:54:02Z</time>
      </trkpt>
      <trkpt lat="50.42316" lon="2.0085">
        <ele>44</ele>
        <time>2012-08-22T19:54:04Z</time>
      </trkpt>
      <trkpt lat="50.42308" lon="2.00856">
        <ele>45</ele>
        <time>2012-08-22T19:54:06Z</time>
      </trkpt>
      <trkpt lat="50.42299" lon="2.00864">
        <ele>44</ele>
        <time>2012-08-22T19:54:08Z</time>
      </trkpt>
      <trkpt lat="50.42287" lon="2.00887">
        <ele>45</ele>
        <time>2012-08-22T19:54:10Z</time>
      </trkpt>
      <trkpt lat="50.42275" lon="2.00903">
        <ele>45</ele>
        <time>2012-08-22T19:54:12Z</time>
      </trkpt>
      <trkpt lat="50.42257" lon="2.00926">
        <ele>45</ele>
        <time>2012-08-22T19:54:14Z</time>
      </trkpt>
      <trkpt lat="50.42247" lon="2.0094">
        <ele>44</ele>
        <time>2012-08-22T19:54:16Z</time>
      </trkpt>
      <trkpt lat="50.42234" lon="2.00953">
        <ele>44</ele>
        <time>2012-08-22T19:54:18Z</time>
      </trkpt>
      <trkpt lat="50.42219" lon="2.00973">
        <ele>39</ele>
        <time>2012-08-22T19:54:20Z</time>
      </trkpt>
      <trkpt lat="50.42211" lon="2.00995">
        <ele>39</ele>
        <time>2012-08-22T19:54:22Z</time>
      </trkpt>
      <trkpt lat="50.42205" lon="2.0101">
        <ele>34</ele>
        <time>2012-08-22T19:54:24Z</time>
      </trkpt>
      <trkpt lat="50.42199" lon="2.01021">
        <ele>32</ele>
        <time>2012-08-22T19:54:26Z</time>
      </trkpt>
      <trkpt lat="50.42194" lon="2.01029">
        <ele>33</ele>
        <time>2012-08-22T19:54:28Z</time>
      </trkpt>
      <trkpt lat="50.4219" lon="2.01037">
        <ele>33</ele>
        <time>2012-08-22T19:54:30Z</time>
      </trkpt>
      <trkpt lat="50.42185" lon="2.01041">
        <ele>34</ele>
        <time>2012-08-22T19:54:32Z</time>
      </trkpt>
      <trkpt lat="50.42185" lon="2.01042">
        <ele>33</ele>
        <time>2012-08-22T19:54:34Z</time>
      </trkpt>
      <trkpt lat="50.42184" lon="2.01045">
        <ele>33</ele>
        <time>2012-08-22T19:54:36Z</time>
      </trkpt>
      <trkpt lat="50.42184" lon="2.01046">
        <ele>33</ele>
        <time>2012-08-22T19:54:38Z</time>
      </trkpt>
      <trkpt lat="50.42186" lon="2.01045">
        <ele>33</ele>
        <time>2012-08-22T19:54:42Z</time>
      </trkpt>
      <trkpt lat="50.42188" lon="2.01043">
        <ele>33</ele>
        <time>2012-08-22T19:54:44Z</time>
      </trkpt>
      <trkpt lat="50.42189" lon="2.0104">
        <ele>37</ele>
        <time>2012-08-22T19:54:46Z</time>
      </trkpt>
      <trkpt lat="50.42189" lon="2.01037">
        <ele>37</ele>
        <time>2012-08-22T19:54:48Z</time>
      </trkpt>
      <trkpt lat="50.42188" lon="2.01036">
        <ele>37</ele>
        <time>2012-08-22T19:54:50Z</time>
      </trkpt>
      <trkpt lat="50.42187" lon="2.01035">
        <ele>37</ele>
        <time>2012-08-22T19:54:52Z</time>
      </trkpt>
      <trkpt lat="50.42184" lon="2.01032">
        <ele>37</ele>
        <time>2012-08-22T19:54:54Z</time>
      </trkpt>
      <trkpt lat="50.42182" lon="2.01029">
        <ele>38</ele>
        <time>2012-08-22T19:54:56Z</time>
      </trkpt>
      <trkpt lat="50.42179" lon="2.01025">
        <ele>37</ele>
        <time>2012-08-22T19:54:58Z</time>
      </trkpt>
      <trkpt lat="50.42176" lon="2.01021">
        <ele>35</ele>
        <time>2012-08-22T19:55:00Z</time>
      </trkpt>
      <trkpt lat="50.42174" lon="2.01018">
        <ele>34</ele>
        <time>2012-08-22T19:55:02Z</time>
      </trkpt>
      <trkpt lat="50.4217" lon="2.01017">
        <ele>34</ele>
        <time>2012-08-22T19:55:04Z</time>
      </trkpt>
      <trkpt lat="50.42165" lon="2.01018">
        <ele>33</ele>
        <time>2012-08-22T19:55:06Z</time>
      </trkpt>
      <trkpt lat="50.42159" lon="2.01018">
        <ele>35</ele>
        <time>2012-08-22T19:55:08Z</time>
      </trkpt>
      <trkpt lat="50.42153" lon="2.01013">
        <ele>35</ele>
        <time>2012-08-22T19:55:10Z</time>
      </trkpt>
      <trkpt lat="50.42148" lon="2.01007">
        <ele>37</ele>
        <time>2012-08-22T19:55:12Z</time>
      </trkpt>
      <trkpt lat="50.42143" lon="2.01001">
        <ele>38</ele>
        <time>2012-08-22T19:55:14Z</time>
      </trkpt>
      <trkpt lat="50.42136" lon="2.00992">
        <ele>35</ele>
        <time>2012-08-22T19:55:16Z</time>
      </trkpt>
      <trkpt lat="50.42131" lon="2.00985">
        <ele>36</ele>
        <time>2012-08-22T19:55:18Z</time>
      </trkpt>
      <trkpt lat="50.42126" lon="2.00978">
        <ele>36</ele>
        <time>2012-08-22T19:55:20Z</time>
      </trkpt>
      <trkpt lat="50.4212" lon="2.0097">
        <ele>36</ele>
        <time>2012-08-22T19:55:22Z</time>
      </trkpt>
      <trkpt lat="50.42111" lon="2.00962">
        <ele>37</ele>
        <time>2012-08-22T19:55:24Z</time>
      </trkpt>
      <trkpt lat="50.42102" lon="2.00957">
        <ele>36</ele>
        <time>2012-08-22T19:55:26Z</time>
      </trkpt>
      <trkpt lat="50.42095" lon="2.00951">
        <ele>36</ele>
        <time>2012-08-22T19:55:28Z</time>
      </trkpt>
      <trkpt lat="50.4209" lon="2.00943">
        <ele>36</ele>
        <time>2012-08-22T19:55:30Z</time>
      </trkpt>
      <trkpt lat="50.42085" lon="2.00934">
        <ele>35</ele>
        <time>2012-08-22T19:55:32Z</time>
      </trkpt>
      <trkpt lat="50.4208" lon="2.00921">
        <ele>35</ele>
        <time>2012-08-22T19:55:34Z</time>
      </trkpt>
      <trkpt lat="50.42077" lon="2.00907">
        <ele>36</ele>
        <time>2012-08-22T19:55:36Z</time>
      </trkpt>
      <trkpt lat="50.42075" lon="2.00894">
        <ele>35</ele>
        <time>2012-08-22T19:55:38Z</time>
      </trkpt>
      <trkpt lat="50.42072" lon="2.00882">
        <ele>35</ele>
        <time>2012-08-22T19:55:40Z</time>
      </trkpt>
      <trkpt lat="50.4207" lon="2.0087">
        <ele>38</ele>
        <time>2012-08-22T19:55:42Z</time>
      </trkpt>
      <trkpt lat="50.42068" lon="2.00858">
        <ele>39</ele>
        <time>2012-08-22T19:55:44Z</time>
      </trkpt>
      <trkpt lat="50.42066" lon="2.00847">
        <ele>39</ele>
        <time>2012-08-22T19:55:46Z</time>
      </trkpt>
      <trkpt lat="50.42063" lon="2.00834">
        <ele>38</ele>
        <time>2012-08-22T19:55:48Z</time>
      </trkpt>
      <trkpt lat="50.42059" lon="2.00821">
        <ele>39</ele>
        <time>2012-08-22T19:55:50Z</time>
      </trkpt>
      <trkpt lat="50.42053" lon="2.00808">
        <ele>38</ele>
        <time>2012-08-22T19:55:52Z</time>
      </trkpt>
      <trkpt lat="50.42048" lon="2.00795">
        <ele>37</ele>
        <time>2012-08-22T19:55:54Z</time>
      </trkpt>
      <trkpt lat="50.42042" lon="2.00787">
        <ele>36</ele>
        <time>2012-08-22T19:55:56Z</time>
      </trkpt>
      <trkpt lat="50.42036" lon="2.00788">
        <ele>35</ele>
        <time>2012-08-22T19:55:58Z</time>
      </trkpt>
      <trkpt lat="50.42033" lon="2.00795">
        <ele>33</ele>
        <time>2012-08-22T19:56:00Z</time>
      </trkpt>
      <trkpt lat="50.42028" lon="2.00802">
        <ele>32</ele>
        <time>2012-08-22T19:56:02Z</time>
      </trkpt>
      <trkpt lat="50.42024" lon="2.00809">
        <ele>31</ele>
        <time>2012-08-22T19:56:04Z</time>
      </trkpt>
      <trkpt lat="50.42019" lon="2.00815">
        <ele>31</ele>
        <time>2012-08-22T19:56:06Z</time>
      </trkpt>
      <trkpt lat="50.42013" lon="2.00821">
        <ele>31</ele>
        <time>2012-08-22T19:56:08Z</time>
      </trkpt>
      <trkpt lat="50.42007" lon="2.00827">
        <ele>32</ele>
        <time>2012-08-22T19:56:10Z</time>
      </trkpt>
      <trkpt lat="50.42001" lon="2.00832">
        <ele>31</ele>
        <time>2012-08-22T19:56:12Z</time>
      </trkpt>
      <trkpt lat="50.41996" lon="2.00838">
        <ele>31</ele>
        <time>2012-08-22T19:56:14Z</time>
      </trkpt>
      <trkpt lat="50.4199" lon="2.00844">
        <ele>31</ele>
        <time>2012-08-22T19:56:16Z</time>
      </trkpt>
      <trkpt lat="50.41985" lon="2.00851">
        <ele>31</ele>
        <time>2012-08-22T19:56:18Z</time>
      </trkpt>
      <trkpt lat="50.41979" lon="2.00857">
        <ele>30</ele>
        <time>2012-08-22T19:56:20Z</time>
      </trkpt>
      <trkpt lat="50.41974" lon="2.00864">
        <ele>30</ele>
        <time>2012-08-22T19:56:22Z</time>
      </trkpt>
      <trkpt lat="50.41969" lon="2.00871">
        <ele>30</ele>
        <time>2012-08-22T19:56:24Z</time>
      </trkpt>
      <trkpt lat="50.41964" lon="2.00877">
        <ele>30</ele>
        <time>2012-08-22T19:56:26Z</time>
      </trkpt>
      <trkpt lat="50.41959" lon="2.00884">
        <ele>29</ele>
        <time>2012-08-22T19:56:28Z</time>
      </trkpt>
      <trkpt lat="50.41955" lon="2.00888">
        <ele>29</ele>
        <time>2012-08-22T19:56:30Z</time>
      </trkpt>
      <trkpt lat="50.41952" lon="2.00892">
        <ele>30</ele>
        <time>2012-08-22T19:56:32Z</time>
      </trkpt>
      <trkpt lat="50.4195" lon="2.00895">
        <ele>30</ele>
        <time>2012-08-22T19:56:34Z</time>
      </trkpt>
      <trkpt lat="50.41948" lon="2.00899">
        <ele>30</ele>
        <time>2012-08-22T19:56:36Z</time>
      </trkpt>
      <trkpt lat="50.41945" lon="2.00902">
        <ele>30</ele>
        <time>2012-08-22T19:56:38Z</time>
      </trkpt>
      <trkpt lat="50.41943" lon="2.00905">
        <ele>30</ele>
        <time>2012-08-22T19:56:40Z</time>
      </trkpt>
      <trkpt lat="50.4194" lon="2.00908">
        <ele>29</ele>
        <time>2012-08-22T19:56:42Z</time>
      </trkpt>
      <trkpt lat="50.41936" lon="2.00911">
        <ele>30</ele>
        <time>2012-08-22T19:56:44Z</time>
      </trkpt>
      <trkpt lat="50.41933" lon="2.00914">
        <ele>30</ele>
        <time>2012-08-22T19:56:46Z</time>
      </trkpt>
      <trkpt lat="50.4193" lon="2.00917">
        <ele>30</ele>
        <time>2012-08-22T19:56:48Z</time>
      </trkpt>
      <trkpt lat="50.41926" lon="2.0092">
        <ele>30</ele>
        <time>2012-08-22T19:56:50Z</time>
      </trkpt>
      <trkpt lat="50.41922" lon="2.00925">
        <ele>30</ele>
        <time>2012-08-22T19:56:52Z</time>
      </trkpt>
      <trkpt lat="50.41918" lon="2.00929">
        <ele>30</ele>
        <time>2012-08-22T19:56:54Z</time>
      </trkpt>
      <trkpt lat="50.41914" lon="2.00933">
        <ele>30</ele>
        <time>2012-08-22T19:56:56Z</time>
      </trkpt>
      <trkpt lat="50.4191" lon="2.00936">
        <ele>30</ele>
        <time>2012-08-22T19:56:58Z</time>
      </trkpt>
      <trkpt lat="50.41906" lon="2.0094">
        <ele>30</ele>
        <time>2012-08-22T19:57:00Z</time>
      </trkpt>
      <trkpt lat="50.41903" lon="2.00943">
        <ele>30</ele>
        <time>2012-08-22T19:57:02Z</time>
      </trkpt>
      <trkpt lat="50.41899" lon="2.00947">
        <ele>30</ele>
        <time>2012-08-22T19:57:04Z</time>
      </trkpt>
      <trkpt lat="50.41895" lon="2.0095">
        <ele>30</ele>
        <time>2012-08-22T19:57:06Z</time>
      </trkpt>
      <trkpt lat="50.41892" lon="2.00953">
        <ele>29</ele>
        <time>2012-08-22T19:57:08Z</time>
      </trkpt>
      <trkpt lat="50.4189" lon="2.00956">
        <ele>30</ele>
        <time>2012-08-22T19:57:10Z</time>
      </trkpt>
      <trkpt lat="50.41887" lon="2.00958">
        <ele>31</ele>
        <time>2012-08-22T19:57:12Z</time>
      </trkpt>
      <trkpt lat="50.41885" lon="2.0096">
        <ele>31</ele>
        <time>2012-08-22T19:57:14Z</time>
      </trkpt>
      <trkpt lat="50.41882" lon="2.00963">
        <ele>31</ele>
        <time>2012-08-22T19:57:16Z</time>
      </trkpt>
      <trkpt lat="50.41879" lon="2.00965">
        <ele>31</ele>
        <time>2012-08-22T19:57:18Z</time>
      </trkpt>
      <trkpt lat="50.41876" lon="2.00967">
        <ele>32</ele>
        <time>2012-08-22T19:57:20Z</time>
      </trkpt>
      <trkpt lat="50.41873" lon="2.0097">
        <ele>33</ele>
        <time>2012-08-22T19:57:22Z</time>
      </trkpt>
      <trkpt lat="50.41871" lon="2.00973">
        <ele>33</ele>
        <time>2012-08-22T19:57:24Z</time>
      </trkpt>
      <trkpt lat="50.41869" lon="2.00976">
        <ele>33</ele>
        <time>2012-08-22T19:57:26Z</time>
      </trkpt>
      <trkpt lat="50.41866" lon="2.00979">
        <ele>33</ele>
        <time>2012-08-22T19:57:28Z</time>
      </trkpt>
      <trkpt lat="50.41863" lon="2.00983">
        <ele>34</ele>
        <time>2012-08-22T19:57:30Z</time>
      </trkpt>
      <trkpt lat="50.4186" lon="2.00987">
        <ele>34</ele>
        <time>2012-08-22T19:57:32Z</time>
      </trkpt>
      <trkpt lat="50.41858" lon="2.00991">
        <ele>34</ele>
        <time>2012-08-22T19:57:34Z</time>
      </trkpt>
      <trkpt lat="50.41855" lon="2.00995">
        <ele>34</ele>
        <time>2012-08-22T19:57:36Z</time>
      </trkpt>
      <trkpt lat="50.41853" lon="2.00998">
        <ele>35</ele>
        <time>2012-08-22T19:57:38Z</time>
      </trkpt>
      <trkpt lat="50.41851" lon="2.01002">
        <ele>35</ele>
        <time>2012-08-22T19:57:40Z</time>
      </trkpt>
      <trkpt lat="50.41848" lon="2.01005">
        <ele>35</ele>
        <time>2012-08-22T19:57:42Z</time>
      </trkpt>
      <trkpt lat="50.41845" lon="2.01008">
        <ele>35</ele>
        <time>2012-08-22T19:57:44Z</time>
      </trkpt>
      <trkpt lat="50.41841" lon="2.01011">
        <ele>35</ele>
        <time>2012-08-22T19:57:46Z</time>
      </trkpt>
      <trkpt lat="50.41838" lon="2.01015">
        <ele>35</ele>
        <time>2012-08-22T19:57:48Z</time>
      </trkpt>
      <trkpt lat="50.41834" lon="2.0102">
        <ele>36</ele>
        <time>2012-08-22T19:57:50Z</time>
      </trkpt>
      <trkpt lat="50.41832" lon="2.01023">
        <ele>36</ele>
        <time>2012-08-22T19:57:52Z</time>
      </trkpt>
      <trkpt lat="50.41828" lon="2.01027">
        <ele>36</ele>
        <time>2012-08-22T19:57:54Z</time>
      </trkpt>
      <trkpt lat="50.41825" lon="2.01031">
        <ele>36</ele>
        <time>2012-08-22T19:57:56Z</time>
      </trkpt>
      <trkpt lat="50.41822" lon="2.01035">
        <ele>37</ele>
        <time>2012-08-22T19:57:58Z</time>
      </trkpt>
      <trkpt lat="50.41819" lon="2.01038">
        <ele>37</ele>
        <time>2012-08-22T19:58:00Z</time>
      </trkpt>
      <trkpt lat="50.41816" lon="2.01042">
        <ele>38</ele>
        <time>2012-08-22T19:58:02Z</time>
      </trkpt>
      <trkpt lat="50.41813" lon="2.01045">
        <ele>37</ele>
        <time>2012-08-22T19:58:04Z</time>
      </trkpt>
      <trkpt lat="50.41809" lon="2.01048">
        <ele>39</ele>
        <time>2012-08-22T19:58:06Z</time>
      </trkpt>
      <trkpt lat="50.41806" lon="2.01052">
        <ele>39</ele>
        <time>2012-08-22T19:58:08Z</time>
      </trkpt>
      <trkpt lat="50.41803" lon="2.01056">
        <ele>40</ele>
        <time>2012-08-22T19:58:10Z</time>
      </trkpt>
      <trkpt lat="50.41799" lon="2.0106">
        <ele>39</ele>
        <time>2012-08-22T19:58:12Z</time>
      </trkpt>
      <trkpt lat="50.41795" lon="2.01063">
        <ele>40</ele>
        <time>2012-08-22T19:58:14Z</time>
      </trkpt>
      <trkpt lat="50.41792" lon="2.01066">
        <ele>40</ele>
        <time>2012-08-22T19:58:16Z</time>
      </trkpt>
      <trkpt lat="50.41789" lon="2.01069">
        <ele>40</ele>
        <time>2012-08-22T19:58:18Z</time>
      </trkpt>
      <trkpt lat="50.41785" lon="2.01072">
        <ele>41</ele>
        <time>2012-08-22T19:58:20Z</time>
      </trkpt>
      <trkpt lat="50.41782" lon="2.01074">
        <ele>41</ele>
        <time>2012-08-22T19:58:22Z</time>
      </trkpt>
      <trkpt lat="50.41779" lon="2.01077">
        <ele>41</ele>
        <time>2012-08-22T19:58:24Z</time>
      </trkpt>
      <trkpt lat="50.41776" lon="2.01079">
        <ele>41</ele>
        <time>2012-08-22T19:58:26Z</time>
      </trkpt>
      <trkpt lat="50.41772" lon="2.01081">
        <ele>41</ele>
        <time>2012-08-22T19:58:28Z</time>
      </trkpt>
      <trkpt lat="50.41768" lon="2.01084">
        <ele>42</ele>
        <time>2012-08-22T19:58:30Z</time>
      </trkpt>
      <trkpt lat="50.41765" lon="2.01085">
        <ele>42</ele>
        <time>2012-08-22T19:58:32Z</time>
      </trkpt>
      <trkpt lat="50.41761" lon="2.01086">
        <ele>42</ele>
        <time>2012-08-22T19:58:34Z</time>
      </trkpt>
      <trkpt lat="50.41757" lon="2.01088">
        <ele>42</ele>
        <time>2012-08-22T19:58:36Z</time>
      </trkpt>
      <trkpt lat="50.41753" lon="2.0109">
        <ele>43</ele>
        <time>2012-08-22T19:58:38Z</time>
      </trkpt>
      <trkpt lat="50.41749" lon="2.01091">
        <ele>43</ele>
        <time>2012-08-22T19:58:40Z</time>
      </trkpt>
      <trkpt lat="50.41745" lon="2.01093">
        <ele>44</ele>
        <time>2012-08-22T19:58:42Z</time>
      </trkpt>
      <trkpt lat="50.41742" lon="2.01096">
        <ele>44</ele>
        <time>2012-08-22T19:58:44Z</time>
      </trkpt>
      <trkpt lat="50.41739" lon="2.01099">
        <ele>44</ele>
        <time>2012-08-22T19:58:46Z</time>
      </trkpt>
      <trkpt lat="50.41736" lon="2.01102">
        <ele>43</ele>
        <time>2012-08-22T19:58:48Z</time>
      </trkpt>
      <trkpt lat="50.41733" lon="2.01105">
        <ele>44</ele>
        <time>2012-08-22T19:58:50Z</time>
      </trkpt>
      <trkpt lat="50.4173" lon="2.01107">
        <ele>45</ele>
        <time>2012-08-22T19:58:52Z</time>
      </trkpt>
      <trkpt lat="50.41727" lon="2.01109">
        <ele>46</ele>
        <time>2012-08-22T19:58:54Z</time>
      </trkpt>
      <trkpt lat="50.41724" lon="2.01111">
        <ele>46</ele>
        <time>2012-08-22T19:58:56Z</time>
      </trkpt>
      <trkpt lat="50.41722" lon="2.01114">
        <ele>46</ele>
        <time>2012-08-22T19:58:58Z</time>
      </trkpt>
      <trkpt lat="50.41719" lon="2.01117">
        <ele>47</ele>
        <time>2012-08-22T19:59:00Z</time>
      </trkpt>
      <trkpt lat="50.41717" lon="2.0112">
        <ele>47</ele>
        <time>2012-08-22T19:59:02Z</time>
      </trkpt>
      <trkpt lat="50.41714" lon="2.01123">
        <ele>47</ele>
        <time>2012-08-22T19:59:04Z</time>
      </trkpt>
      <trkpt lat="50.41712" lon="2.01126">
        <ele>49</ele>
        <time>2012-08-22T19:59:06Z</time>
      </trkpt>
      <trkpt lat="50.4171" lon="2.01129">
        <ele>49</ele>
        <time>2012-08-22T19:59:08Z</time>
      </trkpt>
      <trkpt lat="50.41707" lon="2.01131">
        <ele>49</ele>
        <time>2012-08-22T19:59:10Z</time>
      </trkpt>
      <trkpt lat="50.41705" lon="2.01133">
        <ele>49</ele>
        <time>2012-08-22T19:59:12Z</time>
      </trkpt>
      <trkpt lat="50.41702" lon="2.01136">
        <ele>49</ele>
        <time>2012-08-22T19:59:14Z</time>
      </trkpt>
      <trkpt lat="50.417" lon="2.01139">
        <ele>50</ele>
        <time>2012-08-22T19:59:16Z</time>
      </trkpt>
      <trkpt lat="50.41698" lon="2.01142">
        <ele>50</ele>
        <time>2012-08-22T19:59:18Z</time>
      </trkpt>
      <trkpt lat="50.41695" lon="2.01145">
        <ele>51</ele>
        <time>2012-08-22T19:59:20Z</time>
      </trkpt>
      <trkpt lat="50.41692" lon="2.01148">
        <ele>51</ele>
        <time>2012-08-22T19:59:22Z</time>
      </trkpt>
      <trkpt lat="50.4169" lon="2.01151">
        <ele>51</ele>
        <time>2012-08-22T19:59:24Z</time>
      </trkpt>
      <trkpt lat="50.41688" lon="2.01153">
        <ele>52</ele>
        <time>2012-08-22T19:59:26Z</time>
      </trkpt>
      <trkpt lat="50.41686" lon="2.01155">
        <ele>52</ele>
        <time>2012-08-22T19:59:28Z</time>
      </trkpt>
      <trkpt lat="50.41684" lon="2.01157">
        <ele>53</ele>
        <time>2012-08-22T19:59:30Z</time>
      </trkpt>
      <trkpt lat="50.41682" lon="2.01159">
        <ele>54</ele>
        <time>2012-08-22T19:59:32Z</time>
      </trkpt>
      <trkpt lat="50.4168" lon="2.01161">
        <ele>55</ele>
        <time>2012-08-22T19:59:34Z</time>
      </trkpt>
      <trkpt lat="50.41679" lon="2.01164">
        <ele>56</ele>
        <time>2012-08-22T19:59:36Z</time>
      </trkpt>
      <trkpt lat="50.41676" lon="2.01166">
        <ele>57</ele>
        <time>2012-08-22T19:59:38Z</time>
      </trkpt>
      <trkpt lat="50.41674" lon="2.01168">
        <ele>58</ele>
        <time>2012-08-22T19:59:40Z</time>
      </trkpt>
      <trkpt lat="50.41671" lon="2.01171">
        <ele>57</ele>
        <time>2012-08-22T19:59:42Z</time>
      </trkpt>
      <trkpt lat="50.4167" lon="2.01173">
        <ele>58</ele>
        <time>2012-08-22T19:59:44Z</time>
      </trkpt>
      <trkpt lat="50.41668" lon="2.01175">
        <ele>59</ele>
        <time>2012-08-22T19:59:46Z</time>
      </trkpt>
      <trkpt lat="50.41666" lon="2.01176">
        <ele>60</ele>
        <time>2012-08-22T19:59:48Z</time>
      </trkpt>
      <trkpt lat="50.41665" lon="2.01178">
        <ele>62</ele>
        <time>2012-08-22T19:59:50Z</time>
      </trkpt>
      <trkpt lat="50.41663" lon="2.0118">
        <ele>63</ele>
        <time>2012-08-22T19:59:52Z</time>
      </trkpt>
      <trkpt lat="50.41662" lon="2.01184">
        <ele>63</ele>
        <time>2012-08-22T19:59:54Z</time>
      </trkpt>
      <trkpt lat="50.4166" lon="2.01188">
        <ele>64</ele>
        <time>2012-08-22T19:59:56Z</time>
      </trkpt>
      <trkpt lat="50.41658" lon="2.0119">
        <ele>63</ele>
        <time>2012-08-22T19:59:58Z</time>
      </trkpt>
      <trkpt lat="50.41655" lon="2.01191">
        <ele>64</ele>
        <time>2012-08-22T20:00:00Z</time>
      </trkpt>
      <trkpt lat="50.41653" lon="2.01193">
        <ele>65</ele>
        <time>2012-08-22T20:00:02Z</time>
      </trkpt>
      <trkpt lat="50.4165" lon="2.01195">
        <ele>65</ele>
        <time>2012-08-22T20:00:04Z</time>
      </trkpt>
      <trkpt lat="50.41648" lon="2.01197">
        <ele>66</ele>
        <time>2012-08-22T20:00:06Z</time>
      </trkpt>
      <trkpt lat="50.41646" lon="2.01199">
        <ele>66</ele>
        <time>2012-08-22T20:00:08Z</time>
      </trkpt>
      <trkpt lat="50.41645" lon="2.01201">
        <ele>66</ele>
        <time>2012-08-22T20:00:10Z</time>
      </trkpt>
      <trkpt lat="50.41644" lon="2.01203">
        <ele>68</ele>
        <time>2012-08-22T20:00:12Z</time>
      </trkpt>
      <trkpt lat="50.41642" lon="2.01204">
        <ele>70</ele>
        <time>2012-08-22T20:00:14Z</time>
      </trkpt>
      <trkpt lat="50.41642" lon="2.01207">
        <ele>70</ele>
        <time>2012-08-22T20:00:16Z</time>
      </trkpt>
      <trkpt lat="50.41641" lon="2.0121">
        <ele>71</ele>
        <time>2012-08-22T20:00:18Z</time>
      </trkpt>
      <trkpt lat="50.41639" lon="2.01214">
        <ele>71</ele>
        <time>2012-08-22T20:00:20Z</time>
      </trkpt>
      <trkpt lat="50.41637" lon="2.01217">
        <ele>73</ele>
        <time>2012-08-22T20:00:22Z</time>
      </trkpt>
      <trkpt lat="50.41636" lon="2.0122">
        <ele>72</ele>
        <time>2012-08-22T20:00:24Z</time>
      </trkpt>
      <trkpt lat="50.41634" lon="2.01223">
        <ele>70</ele>
        <time>2012-08-22T20:00:26Z</time>
      </trkpt>
      <trkpt lat="50.41633" lon="2.01224">
        <ele>68</ele>
        <time>2012-08-22T20:00:28Z</time>
      </trkpt>
      <trkpt lat="50.41632" lon="2.01226">
        <ele>68</ele>
        <time>2012-08-22T20:00:30Z</time>
      </trkpt>
      <trkpt lat="50.41631" lon="2.01228">
        <ele>68</ele>
        <time>2012-08-22T20:00:32Z</time>
      </trkpt>
      <trkpt lat="50.41628" lon="2.0123">
        <ele>69</ele>
        <time>2012-08-22T20:00:34Z</time>
      </trkpt>
      <trkpt lat="50.41626" lon="2.01232">
        <ele>70</ele>
        <time>2012-08-22T20:00:36Z</time>
      </trkpt>
      <trkpt lat="50.41623" lon="2.01235">
        <ele>69</ele>
        <time>2012-08-22T20:00:38Z</time>
      </trkpt>
      <trkpt lat="50.41621" lon="2.01237">
        <ele>70</ele>
        <time>2012-08-22T20:00:40Z</time>
      </trkpt>
      <trkpt lat="50.41619" lon="2.01239">
        <ele>72</ele>
        <time>2012-08-22T20:00:42Z</time>
      </trkpt>
      <trkpt lat="50.41616" lon="2.01241">
        <ele>71</ele>
        <time>2012-08-22T20:00:44Z</time>
      </trkpt>
      <trkpt lat="50.41613" lon="2.01243">
        <ele>71</ele>
        <time>2012-08-22T20:00:46Z</time>
      </trkpt>
      <trkpt lat="50.4161" lon="2.01245">
        <ele>71</ele>
        <time>2012-08-22T20:00:48Z</time>
      </trkpt>
      <trkpt lat="50.41607" lon="2.01246">
        <ele>71</ele>
        <time>2012-08-22T20:00:50Z</time>
      </trkpt>
      <trkpt lat="50.41604" lon="2.01247">
        <ele>72</ele>
        <time>2012-08-22T20:00:52Z</time>
      </trkpt>
      <trkpt lat="50.41602" lon="2.01247">
        <ele>73</ele>
        <time>2012-08-22T20:00:54Z</time>
      </trkpt>
      <trkpt lat="50.41601" lon="2.01247">
        <ele>74</ele>
        <time>2012-08-22T20:00:56Z</time>
      </trkpt>
      <trkpt lat="50.416" lon="2.01247">
        <ele>74</ele>
        <time>2012-08-22T20:00:58Z</time>
      </trkpt>
      <trkpt lat="50.41598" lon="2.01247">
        <ele>74</ele>
        <time>2012-08-22T20:01:00Z</time>
      </trkpt>
      <trkpt lat="50.41595" lon="2.01247">
        <ele>75</ele>
        <time>2012-08-22T20:01:02Z</time>
      </trkpt>
      <trkpt lat="50.41593" lon="2.01247">
        <ele>74</ele>
        <time>2012-08-22T20:01:04Z</time>
      </trkpt>
      <trkpt lat="50.4159" lon="2.01247">
        <ele>75</ele>
        <time>2012-08-22T20:01:06Z</time>
      </trkpt>
      <trkpt lat="50.41587" lon="2.01248">
        <ele>76</ele>
        <time>2012-08-22T20:01:08Z</time>
      </trkpt>
      <trkpt lat="50.41584" lon="2.01248">
        <ele>76</ele>
        <time>2012-08-22T20:01:10Z</time>
      </trkpt>
      <trkpt lat="50.41581" lon="2.01248">
        <ele>76</ele>
        <time>2012-08-22T20:01:12Z</time>
      </trkpt>
      <trkpt lat="50.41579" lon="2.01249">
        <ele>77</ele>
        <time>2012-08-22T20:01:14Z</time>
      </trkpt>
      <trkpt lat="50.41576" lon="2.0125">
        <ele>77</ele>
        <time>2012-08-22T20:01:16Z</time>
      </trkpt>
      <trkpt lat="50.41573" lon="2.01251">
        <ele>78</ele>
        <time>2012-08-22T20:01:18Z</time>
      </trkpt>
      <trkpt lat="50.41571" lon="2.01252">
        <ele>78</ele>
        <time>2012-08-22T20:01:20Z</time>
      </trkpt>
      <trkpt lat="50.41568" lon="2.01253">
        <ele>78</ele>
        <time>2012-08-22T20:01:22Z</time>
      </trkpt>
      <trkpt lat="50.41565" lon="2.01254">
        <ele>79</ele>
        <time>2012-08-22T20:01:24Z</time>
      </trkpt>
      <trkpt lat="50.41561" lon="2.01254">
        <ele>78</ele>
        <time>2012-08-22T20:01:26Z</time>
      </trkpt>
      <trkpt lat="50.41557" lon="2.01255">
        <ele>79</ele>
        <time>2012-08-22T20:01:28Z</time>
      </trkpt>
      <trkpt lat="50.41554" lon="2.01256">
        <ele>79</ele>
        <time>2012-08-22T20:01:30Z</time>
      </trkpt>
      <trkpt lat="50.4155" lon="2.01258">
        <ele>80</ele>
        <time>2012-08-22T20:01:32Z</time>
      </trkpt>
      <trkpt lat="50.41545" lon="2.0126">
        <ele>80</ele>
        <time>2012-08-22T20:01:34Z</time>
      </trkpt>
      <trkpt lat="50.4154" lon="2.01263">
        <ele>80</ele>
        <time>2012-08-22T20:01:36Z</time>
      </trkpt>
      <trkpt lat="50.41535" lon="2.01265">
        <ele>80</ele>
        <time>2012-08-22T20:01:38Z</time>
      </trkpt>
      <trkpt lat="50.4153" lon="2.01266">
        <ele>80</ele>
        <time>2012-08-22T20:01:40Z</time>
      </trkpt>
      <trkpt lat="50.41525" lon="2.01269">
        <ele>82</ele>
        <time>2012-08-22T20:01:42Z</time>
      </trkpt>
      <trkpt lat="50.41519" lon="2.01271">
        <ele>83</ele>
        <time>2012-08-22T20:01:44Z</time>
      </trkpt>
      <trkpt lat="50.41513" lon="2.01274">
        <ele>83</ele>
        <time>2012-08-22T20:01:46Z</time>
      </trkpt>
      <trkpt lat="50.41507" lon="2.01277">
        <ele>85</ele>
        <time>2012-08-22T20:01:48Z</time>
      </trkpt>
      <trkpt lat="50.415" lon="2.0128">
        <ele>85</ele>
        <time>2012-08-22T20:01:50Z</time>
      </trkpt>
      <trkpt lat="50.41493" lon="2.01283">
        <ele>86</ele>
        <time>2012-08-22T20:01:52Z</time>
      </trkpt>
      <trkpt lat="50.41487" lon="2.01286">
        <ele>86</ele>
        <time>2012-08-22T20:01:54Z</time>
      </trkpt>
      <trkpt lat="50.4148" lon="2.01289">
        <ele>87</ele>
        <time>2012-08-22T20:01:56Z</time>
      </trkpt>
      <trkpt lat="50.41474" lon="2.01292">
        <ele>88</ele>
        <time>2012-08-22T20:01:58Z</time>
      </trkpt>
      <trkpt lat="50.41468" lon="2.01295">
        <ele>88</ele>
        <time>2012-08-22T20:02:00Z</time>
      </trkpt>
      <trkpt lat="50.41462" lon="2.01298">
        <ele>89</ele>
        <time>2012-08-22T20:02:02Z</time>
      </trkpt>
      <trkpt lat="50.41457" lon="2.01301">
        <ele>89</ele>
        <time>2012-08-22T20:02:04Z</time>
      </trkpt>
      <trkpt lat="50.4145" lon="2.01304">
        <ele>89</ele>
        <time>2012-08-22T20:02:06Z</time>
      </trkpt>
      <trkpt lat="50.41444" lon="2.01308">
        <ele>89</ele>
        <time>2012-08-22T20:02:08Z</time>
      </trkpt>
      <trkpt lat="50.41438" lon="2.01311">
        <ele>89</ele>
        <time>2012-08-22T20:02:10Z</time>
      </trkpt>
      <trkpt lat="50.41432" lon="2.01313">
        <ele>89</ele>
        <time>2012-08-22T20:02:12Z</time>
      </trkpt>
      <trkpt lat="50.41426" lon="2.01315">
        <ele>88</ele>
        <time>2012-08-22T20:02:14Z</time>
      </trkpt>
      <trkpt lat="50.41422" lon="2.01317">
        <ele>88</ele>
        <time>2012-08-22T20:02:16Z</time>
      </trkpt>
      <trkpt lat="50.41417" lon="2.01319">
        <ele>88</ele>
        <time>2012-08-22T20:02:18Z</time>
      </trkpt>
      <trkpt lat="50.41412" lon="2.01321">
        <ele>89</ele>
        <time>2012-08-22T20:02:20Z</time>
      </trkpt>
      <trkpt lat="50.41408" lon="2.01322">
        <ele>89</ele>
        <time>2012-08-22T20:02:22Z</time>
      </trkpt>
      <trkpt lat="50.41404" lon="2.01324">
        <ele>89</ele>
        <time>2012-08-22T20:02:24Z</time>
      </trkpt>
      <trkpt lat="50.414" lon="2.01327">
        <ele>89</ele>
        <time>2012-08-22T20:02:26Z</time>
      </trkpt>
      <trkpt lat="50.41396" lon="2.01328">
        <ele>89</ele>
        <time>2012-08-22T20:02:28Z</time>
      </trkpt>
      <trkpt lat="50.41391" lon="2.0133">
        <ele>89</ele>
        <time>2012-08-22T20:02:30Z</time>
      </trkpt>
      <trkpt lat="50.41387" lon="2.01331">
        <ele>90</ele>
        <time>2012-08-22T20:02:32Z</time>
      </trkpt>
      <trkpt lat="50.41383" lon="2.01332">
        <ele>90</ele>
        <time>2012-08-22T20:02:34Z</time>
      </trkpt>
      <trkpt lat="50.4138" lon="2.01334">
        <ele>91</ele>
        <time>2012-08-22T20:02:36Z</time>
      </trkpt>
      <trkpt lat="50.41375" lon="2.01334">
        <ele>92</ele>
        <time>2012-08-22T20:02:38Z</time>
      </trkpt>
      <trkpt lat="50.41372" lon="2.01332">
        <ele>92</ele>
        <time>2012-08-22T20:02:40Z</time>
      </trkpt>
      <trkpt lat="50.41368" lon="2.0133">
        <ele>93</ele>
        <time>2012-08-22T20:02:42Z</time>
      </trkpt>
      <trkpt lat="50.41364" lon="2.01326">
        <ele>93</ele>
        <time>2012-08-22T20:02:44Z</time>
      </trkpt>
      <trkpt lat="50.41361" lon="2.01322">
        <ele>93</ele>
        <time>2012-08-22T20:02:46Z</time>
      </trkpt>
      <trkpt lat="50.41358" lon="2.01317">
        <ele>93</ele>
        <time>2012-08-22T20:02:48Z</time>
      </trkpt>
      <trkpt lat="50.41355" lon="2.01312">
        <ele>94</ele>
        <time>2012-08-22T20:02:50Z</time>
      </trkpt>
      <trkpt lat="50.41353" lon="2.01306">
        <ele>94</ele>
        <time>2012-08-22T20:02:52Z</time>
      </trkpt>
      <trkpt lat="50.4135" lon="2.01301">
        <ele>95</ele>
        <time>2012-08-22T20:02:54Z</time>
      </trkpt>
      <trkpt lat="50.41347" lon="2.01295">
        <ele>94</ele>
        <time>2012-08-22T20:02:56Z</time>
      </trkpt>
      <trkpt lat="50.41344" lon="2.01289">
        <ele>96</ele>
        <time>2012-08-22T20:02:58Z</time>
      </trkpt>
      <trkpt lat="50.41341" lon="2.01284">
        <ele>95</ele>
        <time>2012-08-22T20:03:00Z</time>
      </trkpt>
      <trkpt lat="50.41337" lon="2.01278">
        <ele>94</ele>
        <time>2012-08-22T20:03:02Z</time>
      </trkpt>
      <trkpt lat="50.41334" lon="2.01272">
        <ele>94</ele>
        <time>2012-08-22T20:03:04Z</time>
      </trkpt>
      <trkpt lat="50.4133" lon="2.01265">
        <ele>93</ele>
        <time>2012-08-22T20:03:06Z</time>
      </trkpt>
      <trkpt lat="50.41326" lon="2.01258">
        <ele>93</ele>
        <time>2012-08-22T20:03:08Z</time>
      </trkpt>
      <trkpt lat="50.41322" lon="2.01251">
        <ele>92</ele>
        <time>2012-08-22T20:03:10Z</time>
      </trkpt>
      <trkpt lat="50.41317" lon="2.01243">
        <ele>92</ele>
        <time>2012-08-22T20:03:12Z</time>
      </trkpt>
      <trkpt lat="50.41312" lon="2.01234">
        <ele>92</ele>
        <time>2012-08-22T20:03:14Z</time>
      </trkpt>
      <trkpt lat="50.41307" lon="2.01225">
        <ele>92</ele>
        <time>2012-08-22T20:03:16Z</time>
      </trkpt>
      <trkpt lat="50.41301" lon="2.01216">
        <ele>92</ele>
        <time>2012-08-22T20:03:18Z</time>
      </trkpt>
      <trkpt lat="50.41297" lon="2.01207">
        <ele>92</ele>
        <time>2012-08-22T20:03:20Z</time>
      </trkpt>
      <trkpt lat="50.41292" lon="2.01199">
        <ele>91</ele>
        <time>2012-08-22T20:03:22Z</time>
      </trkpt>
      <trkpt lat="50.41287" lon="2.01191">
        <ele>91</ele>
        <time>2012-08-22T20:03:24Z</time>
      </trkpt>
      <trkpt lat="50.41282" lon="2.01182">
        <ele>91</ele>
        <time>2012-08-22T20:03:26Z</time>
      </trkpt>
      <trkpt lat="50.41276" lon="2.01174">
        <ele>92</ele>
        <time>2012-08-22T20:03:28Z</time>
      </trkpt>
      <trkpt lat="50.4127" lon="2.01171">
        <ele>92</ele>
        <time>2012-08-22T20:03:30Z</time>
      </trkpt>
      <trkpt lat="50.41265" lon="2.01175">
        <ele>91</ele>
        <time>2012-08-22T20:03:32Z</time>
      </trkpt>
      <trkpt lat="50.41261" lon="2.01183">
        <ele>92</ele>
        <time>2012-08-22T20:03:34Z</time>
      </trkpt>
      <trkpt lat="50.41258" lon="2.01192">
        <ele>91</ele>
        <time>2012-08-22T20:03:36Z</time>
      </trkpt>
      <trkpt lat="50.41253" lon="2.01199">
        <ele>91</ele>
        <time>2012-08-22T20:03:38Z</time>
      </trkpt>
      <trkpt lat="50.41248" lon="2.01207">
        <ele>92</ele>
        <time>2012-08-22T20:03:40Z</time>
      </trkpt>
      <trkpt lat="50.41242" lon="2.01215">
        <ele>91</ele>
        <time>2012-08-22T20:03:42Z</time>
      </trkpt>
      <trkpt lat="50.41237" lon="2.01222">
        <ele>91</ele>
        <time>2012-08-22T20:03:44Z</time>
      </trkpt>
      <trkpt lat="50.41231" lon="2.01228">
        <ele>92</ele>
        <time>2012-08-22T20:03:46Z</time>
      </trkpt>
      <trkpt lat="50.41225" lon="2.01236">
        <ele>92</ele>
        <time>2012-08-22T20:03:48Z</time>
      </trkpt>
      <trkpt lat="50.41219" lon="2.01243">
        <ele>92</ele>
        <time>2012-08-22T20:03:50Z</time>
      </trkpt>
      <trkpt lat="50.41213" lon="2.01251">
        <ele>92</ele>
        <time>2012-08-22T20:03:52Z</time>
      </trkpt>
      <trkpt lat="50.41208" lon="2.01258">
        <ele>93</ele>
        <time>2012-08-22T20:03:54Z</time>
      </trkpt>
      <trkpt lat="50.41201" lon="2.01265">
        <ele>92</ele>
        <time>2012-08-22T20:03:56Z</time>
      </trkpt>
      <trkpt lat="50.41195" lon="2.01273">
        <ele>92</ele>
        <time>2012-08-22T20:03:58Z</time>
      </trkpt>
      <trkpt lat="50.41189" lon="2.01281">
        <ele>92</ele>
        <time>2012-08-22T20:04:00Z</time>
      </trkpt>
      <trkpt lat="50.41183" lon="2.0129">
        <ele>92</ele>
        <time>2012-08-22T20:04:02Z</time>
      </trkpt>
      <trkpt lat="50.41177" lon="2.01301">
        <ele>93</ele>
        <time>2012-08-22T20:04:04Z</time>
      </trkpt>
      <trkpt lat="50.41171" lon="2.01314">
        <ele>93</ele>
        <time>2012-08-22T20:04:06Z</time>
      </trkpt>
      <trkpt lat="50.41167" lon="2.01326">
        <ele>92</ele>
        <time>2012-08-22T20:04:08Z</time>
      </trkpt>
      <trkpt lat="50.41162" lon="2.01339">
        <ele>92</ele>
        <time>2012-08-22T20:04:10Z</time>
      </trkpt>
      <trkpt lat="50.41157" lon="2.01353">
        <ele>91</ele>
        <time>2012-08-22T20:04:12Z</time>
      </trkpt>
      <trkpt lat="50.41153" lon="2.01366">
        <ele>91</ele>
        <time>2012-08-22T20:04:14Z</time>
      </trkpt>
      <trkpt lat="50.4115" lon="2.01379">
        <ele>91</ele>
        <time>2012-08-22T20:04:16Z</time>
      </trkpt>
      <trkpt lat="50.41145" lon="2.01392">
        <ele>90</ele>
        <time>2012-08-22T20:04:18Z</time>
      </trkpt>
      <trkpt lat="50.41142" lon="2.01406">
        <ele>89</ele>
        <time>2012-08-22T20:04:20Z</time>
      </trkpt>
      <trkpt lat="50.41139" lon="2.01419">
        <ele>89</ele>
        <time>2012-08-22T20:04:22Z</time>
      </trkpt>
      <trkpt lat="50.41136" lon="2.01432">
        <ele>89</ele>
        <time>2012-08-22T20:04:24Z</time>
      </trkpt>
      <trkpt lat="50.41133" lon="2.01444">
        <ele>89</ele>
        <time>2012-08-22T20:04:26Z</time>
      </trkpt>
      <trkpt lat="50.4113" lon="2.01457">
        <ele>89</ele>
        <time>2012-08-22T20:04:28Z</time>
      </trkpt>
      <trkpt lat="50.41129" lon="2.01471">
        <ele>89</ele>
        <time>2012-08-22T20:04:30Z</time>
      </trkpt>
      <trkpt lat="50.41127" lon="2.01483">
        <ele>89</ele>
        <time>2012-08-22T20:04:32Z</time>
      </trkpt>
      <trkpt lat="50.41126" lon="2.01496">
        <ele>89</ele>
        <time>2012-08-22T20:04:34Z</time>
      </trkpt>
      <trkpt lat="50.41124" lon="2.01508">
        <ele>89</ele>
        <time>2012-08-22T20:04:36Z</time>
      </trkpt>
      <trkpt lat="50.41121" lon="2.01518">
        <ele>89</ele>
        <time>2012-08-22T20:04:38Z</time>
      </trkpt>
      <trkpt lat="50.41116" lon="2.01523">
        <ele>88</ele>
        <time>2012-08-22T20:04:40Z</time>
      </trkpt>
      <trkpt lat="50.41109" lon="2.01525">
        <ele>89</ele>
        <time>2012-08-22T20:04:42Z</time>
      </trkpt>
      <trkpt lat="50.41102" lon="2.01526">
        <ele>89</ele>
        <time>2012-08-22T20:04:44Z</time>
      </trkpt>
      <trkpt lat="50.41095" lon="2.01528">
        <ele>89</ele>
        <time>2012-08-22T20:04:46Z</time>
      </trkpt>
      <trkpt lat="50.41089" lon="2.01531">
        <ele>89</ele>
        <time>2012-08-22T20:04:48Z</time>
      </trkpt>
      <trkpt lat="50.41082" lon="2.01533">
        <ele>90</ele>
        <time>2012-08-22T20:04:50Z</time>
      </trkpt>
      <trkpt lat="50.41076" lon="2.01536">
        <ele>89</ele>
        <time>2012-08-22T20:04:52Z</time>
      </trkpt>
      <trkpt lat="50.41069" lon="2.0154">
        <ele>89</ele>
        <time>2012-08-22T20:04:54Z</time>
      </trkpt>
      <trkpt lat="50.41061" lon="2.01543">
        <ele>89</ele>
        <time>2012-08-22T20:04:56Z</time>
      </trkpt>
      <trkpt lat="50.41053" lon="2.01547">
        <ele>89</ele>
        <time>2012-08-22T20:04:58Z</time>
      </trkpt>
      <trkpt lat="50.41044" lon="2.01552">
        <ele>88</ele>
        <time>2012-08-22T20:05:00Z</time>
      </trkpt>
      <trkpt lat="50.41035" lon="2.01557">
        <ele>88</ele>
        <time>2012-08-22T20:05:02Z</time>
      </trkpt>
      <trkpt lat="50.41025" lon="2.01563">
        <ele>87</ele>
        <time>2012-08-22T20:05:04Z</time>
      </trkpt>
      <trkpt lat="50.41016" lon="2.01569">
        <ele>87</ele>
        <time>2012-08-22T20:05:06Z</time>
      </trkpt>
      <trkpt lat="50.41004" lon="2.01576">
        <ele>86</ele>
        <time>2012-08-22T20:05:08Z</time>
      </trkpt>
      <trkpt lat="50.40992" lon="2.01583">
        <ele>85</ele>
        <time>2012-08-22T20:05:10Z</time>
      </trkpt>
      <trkpt lat="50.40979" lon="2.01588">
        <ele>84</ele>
        <time>2012-08-22T20:05:12Z</time>
      </trkpt>
      <trkpt lat="50.40967" lon="2.01594">
        <ele>83</ele>
        <time>2012-08-22T20:05:14Z</time>
      </trkpt>
      <trkpt lat="50.40954" lon="2.01601">
        <ele>82</ele>
        <time>2012-08-22T20:05:16Z</time>
      </trkpt>
      <trkpt lat="50.40943" lon="2.01609">
        <ele>81</ele>
        <time>2012-08-22T20:05:18Z</time>
      </trkpt>
      <trkpt lat="50.40932" lon="2.01617">
        <ele>80</ele>
        <time>2012-08-22T20:05:20Z</time>
      </trkpt>
      <trkpt lat="50.4092" lon="2.01625">
        <ele>78</ele>
        <time>2012-08-22T20:05:22Z</time>
      </trkpt>
      <trkpt lat="50.40908" lon="2.01633">
        <ele>76</ele>
        <time>2012-08-22T20:05:24Z</time>
      </trkpt>
      <trkpt lat="50.40895" lon="2.0164">
        <ele>75</ele>
        <time>2012-08-22T20:05:26Z</time>
      </trkpt>
      <trkpt lat="50.40886" lon="2.01645">
        <ele>74</ele>
        <time>2012-08-22T20:05:28Z</time>
      </trkpt>
      <trkpt lat="50.40878" lon="2.01647">
        <ele>74</ele>
        <time>2012-08-22T20:05:30Z</time>
      </trkpt>
      <trkpt lat="50.4087" lon="2.01639">
        <ele>74</ele>
        <time>2012-08-22T20:05:32Z</time>
      </trkpt>
      <trkpt lat="50.40865" lon="2.01627">
        <ele>74</ele>
        <time>2012-08-22T20:05:34Z</time>
      </trkpt>
      <trkpt lat="50.40859" lon="2.01612">
        <ele>74</ele>
        <time>2012-08-22T20:05:36Z</time>
      </trkpt>
      <trkpt lat="50.40853" lon="2.01595">
        <ele>74</ele>
        <time>2012-08-22T20:05:38Z</time>
      </trkpt>
      <trkpt lat="50.40847" lon="2.01579">
        <ele>75</ele>
        <time>2012-08-22T20:05:40Z</time>
      </trkpt>
      <trkpt lat="50.40841" lon="2.01562">
        <ele>75</ele>
        <time>2012-08-22T20:05:42Z</time>
      </trkpt>
      <trkpt lat="50.40837" lon="2.01545">
        <ele>74</ele>
        <time>2012-08-22T20:05:44Z</time>
      </trkpt>
      <trkpt lat="50.4083" lon="2.01529">
        <ele>74</ele>
        <time>2012-08-22T20:05:46Z</time>
      </trkpt>
      <trkpt lat="50.40823" lon="2.01515">
        <ele>74</ele>
        <time>2012-08-22T20:05:48Z</time>
      </trkpt>
      <trkpt lat="50.40815" lon="2.01499">
        <ele>74</ele>
        <time>2012-08-22T20:05:50Z</time>
      </trkpt>
      <trkpt lat="50.40808" lon="2.01485">
        <ele>74</ele>
        <time>2012-08-22T20:05:52Z</time>
      </trkpt>
      <trkpt lat="50.40802" lon="2.01469">
        <ele>73</ele>
        <time>2012-08-22T20:05:54Z</time>
      </trkpt>
      <trkpt lat="50.40795" lon="2.01454">
        <ele>74</ele>
        <time>2012-08-22T20:05:56Z</time>
      </trkpt>
      <trkpt lat="50.40787" lon="2.01436">
        <ele>73</ele>
        <time>2012-08-22T20:05:58Z</time>
      </trkpt>
      <trkpt lat="50.40781" lon="2.01422">
        <ele>73</ele>
        <time>2012-08-22T20:06:00Z</time>
      </trkpt>
      <trkpt lat="50.40776" lon="2.01407">
        <ele>74</ele>
        <time>2012-08-22T20:06:02Z</time>
      </trkpt>
      <trkpt lat="50.40772" lon="2.01395">
        <ele>74</ele>
        <time>2012-08-22T20:06:04Z</time>
      </trkpt>
      <trkpt lat="50.40769" lon="2.01387">
        <ele>73</ele>
        <time>2012-08-22T20:06:06Z</time>
      </trkpt>
      <trkpt lat="50.40767" lon="2.0138">
        <ele>74</ele>
        <time>2012-08-22T20:06:08Z</time>
      </trkpt>
      <trkpt lat="50.40764" lon="2.01374">
        <ele>74</ele>
        <time>2012-08-22T20:06:10Z</time>
      </trkpt>
      <trkpt lat="50.40762" lon="2.01371">
        <ele>74</ele>
        <time>2012-08-22T20:06:12Z</time>
      </trkpt>
      <trkpt lat="50.40757" lon="2.01367">
        <ele>72</ele>
        <time>2012-08-22T20:06:14Z</time>
      </trkpt>
      <trkpt lat="50.40756" lon="2.01361">
        <ele>72</ele>
        <time>2012-08-22T20:06:16Z</time>
      </trkpt>
      <trkpt lat="50.40753" lon="2.01355">
        <ele>73</ele>
        <time>2012-08-22T20:06:18Z</time>
      </trkpt>
      <trkpt lat="50.40751" lon="2.01348">
        <ele>72</ele>
        <time>2012-08-22T20:06:20Z</time>
      </trkpt>
      <trkpt lat="50.40749" lon="2.01342">
        <ele>74</ele>
        <time>2012-08-22T20:06:22Z</time>
      </trkpt>
      <trkpt lat="50.40748" lon="2.01338">
        <ele>74</ele>
        <time>2012-08-22T20:06:24Z</time>
      </trkpt>
      <trkpt lat="50.40747" lon="2.01334">
        <ele>74</ele>
        <time>2012-08-22T20:06:26Z</time>
      </trkpt>
      <trkpt lat="50.40746" lon="2.01334">
        <ele>75</ele>
        <time>2012-08-22T20:06:28Z</time>
      </trkpt>
      <trkpt lat="50.40746" lon="2.01337">
        <ele>78</ele>
        <time>2012-08-22T20:06:30Z</time>
      </trkpt>
      <trkpt lat="50.40746" lon="2.01338">
        <ele>78</ele>
        <time>2012-08-22T20:06:32Z</time>
      </trkpt>
      <trkpt lat="50.40746" lon="2.01338">
        <ele>78</ele>
        <time>2012-08-22T20:06:34Z</time>
      </trkpt>
      <trkpt lat="50.40744" lon="2.01337">
        <ele>77</ele>
        <time>2012-08-22T20:06:36Z</time>
      </trkpt>
      <trkpt lat="50.40744" lon="2.01336">
        <ele>76</ele>
        <time>2012-08-22T20:06:38Z</time>
      </trkpt>
      <trkpt lat="50.40745" lon="2.01342">
        <ele>75</ele>
        <time>2012-08-22T20:06:42Z</time>
      </trkpt>
      <trkpt lat="50.40745" lon="2.01346">
        <ele>79</ele>
        <time>2012-08-22T20:06:44Z</time>
      </trkpt>
      <trkpt lat="50.40743" lon="2.01347">
        <ele>82</ele>
        <time>2012-08-22T20:06:48Z</time>
      </trkpt>
      <trkpt lat="50.40743" lon="2.01344">
        <ele>83</ele>
        <time>2012-08-22T20:06:50Z</time>
      </trkpt>
      <trkpt lat="50.40743" lon="2.01339">
        <ele>86</ele>
        <time>2012-08-22T20:06:52Z</time>
      </trkpt>
      <trkpt lat="50.40742" lon="2.01333">
        <ele>88</ele>
        <time>2012-08-22T20:06:54Z</time>
      </trkpt>
      <trkpt lat="50.40741" lon="2.01325">
        <ele>87</ele>
        <time>2012-08-22T20:06:56Z</time>
      </trkpt>
      <trkpt lat="50.40739" lon="2.01317">
        <ele>88</ele>
        <time>2012-08-22T20:06:58Z</time>
      </trkpt>
      <trkpt lat="50.40736" lon="2.01311">
        <ele>88</ele>
        <time>2012-08-22T20:07:00Z</time>
      </trkpt>
      <trkpt lat="50.40731" lon="2.01303">
        <ele>87</ele>
        <time>2012-08-22T20:07:02Z</time>
      </trkpt>
      <trkpt lat="50.40727" lon="2.01291">
        <ele>88</ele>
        <time>2012-08-22T20:07:04Z</time>
      </trkpt>
      <trkpt lat="50.40723" lon="2.01278">
        <ele>87</ele>
        <time>2012-08-22T20:07:06Z</time>
      </trkpt>
      <trkpt lat="50.4072" lon="2.01269">
        <ele>85</ele>
        <time>2012-08-22T20:07:08Z</time>
      </trkpt>
      <trkpt lat="50.40716" lon="2.0126">
        <ele>83</ele>
        <time>2012-08-22T20:07:10Z</time>
      </trkpt>
      <trkpt lat="50.40712" lon="2.01252">
        <ele>82</ele>
        <time>2012-08-22T20:07:12Z</time>
      </trkpt>
      <trkpt lat="50.40706" lon="2.01241">
        <ele>84</ele>
        <time>2012-08-22T20:07:14Z</time>
      </trkpt>
      <trkpt lat="50.40701" lon="2.01229">
        <ele>84</ele>
        <time>2012-08-22T20:07:16Z</time>
      </trkpt>
      <trkpt lat="50.40697" lon="2.01219">
        <ele>84</ele>
        <time>2012-08-22T20:07:18Z</time>
      </trkpt>
      <trkpt lat="50.40693" lon="2.01201">
        <ele>94</ele>
        <time>2012-08-22T20:07:20Z</time>
      </trkpt>
      <trkpt lat="50.40688" lon="2.01191">
        <ele>95</ele>
        <time>2012-08-22T20:07:22Z</time>
      </trkpt>
      <trkpt lat="50.40683" lon="2.01172">
        <ele>91</ele>
        <time>2012-08-22T20:07:24Z</time>
      </trkpt>
      <trkpt lat="50.40678" lon="2.01159">
        <ele>88</ele>
        <time>2012-08-22T20:07:26Z</time>
      </trkpt>
      <trkpt lat="50.40673" lon="2.01146">
        <ele>88</ele>
        <time>2012-08-22T20:07:28Z</time>
      </trkpt>
      <trkpt lat="50.40668" lon="2.0113">
        <ele>87</ele>
        <time>2012-08-22T20:07:30Z</time>
      </trkpt>
      <trkpt lat="50.40663" lon="2.01117">
        <ele>86</ele>
        <time>2012-08-22T20:07:32Z</time>
      </trkpt>
      <trkpt lat="50.40655" lon="2.01093">
        <ele>85</ele>
        <time>2012-08-22T20:07:34Z</time>
      </trkpt>
      <trkpt lat="50.40645" lon="2.01077">
        <ele>83</ele>
        <time>2012-08-22T20:07:36Z</time>
      </trkpt>
      <trkpt lat="50.40642" lon="2.01066">
        <ele>88</ele>
        <time>2012-08-22T20:07:38Z</time>
      </trkpt>
      <trkpt lat="50.40637" lon="2.01046">
        <ele>88</ele>
        <time>2012-08-22T20:07:40Z</time>
      </trkpt>
      <trkpt lat="50.4063" lon="2.01022">
        <ele>88</ele>
        <time>2012-08-22T20:07:42Z</time>
      </trkpt>
      <trkpt lat="50.40624" lon="2.01009">
        <ele>87</ele>
        <time>2012-08-22T20:07:44Z</time>
      </trkpt>
      <trkpt lat="50.4062" lon="2.00999">
        <ele>86</ele>
        <time>2012-08-22T20:07:46Z</time>
      </trkpt>
      <trkpt lat="50.40613" lon="2.00992">
        <ele>86</ele>
        <time>2012-08-22T20:07:48Z</time>
      </trkpt>
      <trkpt lat="50.40607" lon="2.00983">
        <ele>85</ele>
        <time>2012-08-22T20:07:50Z</time>
      </trkpt>
      <trkpt lat="50.40601" lon="2.00971">
        <ele>84</ele>
        <time>2012-08-22T20:07:52Z</time>
      </trkpt>
      <trkpt lat="50.40596" lon="2.00957">
        <ele>84</ele>
        <time>2012-08-22T20:07:54Z</time>
      </trkpt>
      <trkpt lat="50.40591" lon="2.00945">
        <ele>84</ele>
        <time>2012-08-22T20:07:56Z</time>
      </trkpt>
      <trkpt lat="50.40587" lon="2.00932">
        <ele>84</ele>
        <time>2012-08-22T20:07:58Z</time>
      </trkpt>
      <trkpt lat="50.40584" lon="2.00922">
        <ele>85</ele>
        <time>2012-08-22T20:08:00Z</time>
      </trkpt>
      <trkpt lat="50.40582" lon="2.00915">
        <ele>83</ele>
        <time>2012-08-22T20:08:02Z</time>
      </trkpt>
      <trkpt lat="50.40581" lon="2.00911">
        <ele>82</ele>
        <time>2012-08-22T20:08:04Z</time>
      </trkpt>
      <trkpt lat="50.4058" lon="2.00909">
        <ele>87</ele>
        <time>2012-08-22T20:08:06Z</time>
      </trkpt>
      <trkpt lat="50.40579" lon="2.00908">
        <ele>89</ele>
        <time>2012-08-22T20:08:08Z</time>
      </trkpt>
      <trkpt lat="50.40577" lon="2.00906">
        <ele>95</ele>
        <time>2012-08-22T20:08:10Z</time>
      </trkpt>
      <trkpt lat="50.40574" lon="2.00901">
        <ele>94</ele>
        <time>2012-08-22T20:08:12Z</time>
      </trkpt>
      <trkpt lat="50.40571" lon="2.00895">
        <ele>94</ele>
        <time>2012-08-22T20:08:14Z</time>
      </trkpt>
      <trkpt lat="50.40567" lon="2.00888">
        <ele>96</ele>
        <time>2012-08-22T20:08:16Z</time>
      </trkpt>
      <trkpt lat="50.40558" lon="2.00874">
        <ele>99</ele>
        <time>2012-08-22T20:08:18Z</time>
      </trkpt>
      <trkpt lat="50.40552" lon="2.00861">
        <ele>99</ele>
        <time>2012-08-22T20:08:20Z</time>
      </trkpt>
      <trkpt lat="50.40547" lon="2.00851">
        <ele>98</ele>
        <time>2012-08-22T20:08:22Z</time>
      </trkpt>
      <trkpt lat="50.40541" lon="2.00837">
        <ele>100</ele>
        <time>2012-08-22T20:08:24Z</time>
      </trkpt>
      <trkpt lat="50.40536" lon="2.00827">
        <ele>100</ele>
        <time>2012-08-22T20:08:26Z</time>
      </trkpt>
      <trkpt lat="50.40529" lon="2.00816">
        <ele>98</ele>
        <time>2012-08-22T20:08:28Z</time>
      </trkpt>
      <trkpt lat="50.40525" lon="2.00802">
        <ele>97</ele>
        <time>2012-08-22T20:08:30Z</time>
      </trkpt>
      <trkpt lat="50.40522" lon="2.00791">
        <ele>97</ele>
        <time>2012-08-22T20:08:32Z</time>
      </trkpt>
      <trkpt lat="50.4052" lon="2.0078">
        <ele>95</ele>
        <time>2012-08-22T20:08:34Z</time>
      </trkpt>
      <trkpt lat="50.40518" lon="2.00773">
        <ele>93</ele>
        <time>2012-08-22T20:08:36Z</time>
      </trkpt>
      <trkpt lat="50.40517" lon="2.00765">
        <ele>88</ele>
        <time>2012-08-22T20:08:38Z</time>
      </trkpt>
      <trkpt lat="50.40516" lon="2.0076">
        <ele>87</ele>
        <time>2012-08-22T20:08:40Z</time>
      </trkpt>
      <trkpt lat="50.40514" lon="2.00756">
        <ele>85</ele>
        <time>2012-08-22T20:08:42Z</time>
      </trkpt>
      <trkpt lat="50.40511" lon="2.00753">
        <ele>84</ele>
        <time>2012-08-22T20:08:44Z</time>
      </trkpt>
      <trkpt lat="50.40509" lon="2.00748">
        <ele>82</ele>
        <time>2012-08-22T20:08:46Z</time>
      </trkpt>
      <trkpt lat="50.40505" lon="2.00741">
        <ele>80</ele>
        <time>2012-08-22T20:08:48Z</time>
      </trkpt>
      <trkpt lat="50.40503" lon="2.00734">
        <ele>84</ele>
        <time>2012-08-22T20:08:50Z</time>
      </trkpt>
      <trkpt lat="50.40501" lon="2.00729">
        <ele>87</ele>
        <time>2012-08-22T20:08:52Z</time>
      </trkpt>
      <trkpt lat="50.40501" lon="2.00723">
        <ele>81</ele>
        <time>2012-08-22T20:08:54Z</time>
      </trkpt>
      <trkpt lat="50.40501" lon="2.0072">
        <ele>81</ele>
        <time>2012-08-22T20:08:56Z</time>
      </trkpt>
      <trkpt lat="50.405" lon="2.00718">
        <ele>81</ele>
        <time>2012-08-22T20:08:58Z</time>
      </trkpt>
      <trkpt lat="50.40499" lon="2.00715">
        <ele>81</ele>
        <time>2012-08-22T20:09:00Z</time>
      </trkpt>
      <trkpt lat="50.40498" lon="2.00714">
        <ele>83</ele>
        <time>2012-08-22T20:09:02Z</time>
      </trkpt>
      <trkpt lat="50.40498" lon="2.00718">
        <ele>83</ele>
        <time>2012-08-22T20:09:04Z</time>
      </trkpt>
      <trkpt lat="50.40497" lon="2.00723">
        <ele>84</ele>
        <time>2012-08-22T20:09:06Z</time>
      </trkpt>
      <trkpt lat="50.40496" lon="2.00726">
        <ele>85</ele>
        <time>2012-08-22T20:09:08Z</time>
      </trkpt>
      <trkpt lat="50.40494" lon="2.0073">
        <ele>85</ele>
        <time>2012-08-22T20:09:10Z</time>
      </trkpt>
      <trkpt lat="50.40492" lon="2.00734">
        <ele>84</ele>
        <time>2012-08-22T20:09:12Z</time>
      </trkpt>
      <trkpt lat="50.4049" lon="2.00738">
        <ele>84</ele>
        <time>2012-08-22T20:09:14Z</time>
      </trkpt>
      <trkpt lat="50.40488" lon="2.00742">
        <ele>83</ele>
        <time>2012-08-22T20:09:16Z</time>
      </trkpt>
      <trkpt lat="50.40486" lon="2.00749">
        <ele>82</ele>
        <time>2012-08-22T20:09:18Z</time>
      </trkpt>
      <trkpt lat="50.40484" lon="2.00758">
        <ele>81</ele>
        <time>2012-08-22T20:09:20Z</time>
      </trkpt>
      <trkpt lat="50.40482" lon="2.00765">
        <ele>81</ele>
        <time>2012-08-22T20:09:22Z</time>
      </trkpt>
      <trkpt lat="50.40478" lon="2.00772">
        <ele>82</ele>
        <time>2012-08-22T20:09:24Z</time>
      </trkpt>
      <trkpt lat="50.40475" lon="2.00778">
        <ele>82</ele>
        <time>2012-08-22T20:09:26Z</time>
      </trkpt>
      <trkpt lat="50.40473" lon="2.00782">
        <ele>82</ele>
        <time>2012-08-22T20:09:28Z</time>
      </trkpt>
      <trkpt lat="50.40471" lon="2.00787">
        <ele>82</ele>
        <time>2012-08-22T20:09:30Z</time>
      </trkpt>
      <trkpt lat="50.40468" lon="2.00792">
        <ele>86</ele>
        <time>2012-08-22T20:09:32Z</time>
      </trkpt>
      <trkpt lat="50.40464" lon="2.00801">
        <ele>86</ele>
        <time>2012-08-22T20:09:34Z</time>
      </trkpt>
      <trkpt lat="50.40461" lon="2.00812">
        <ele>82</ele>
        <time>2012-08-22T20:09:36Z</time>
      </trkpt>
      <trkpt lat="50.40457" lon="2.00823">
        <ele>82</ele>
        <time>2012-08-22T20:09:38Z</time>
      </trkpt>
      <trkpt lat="50.40453" lon="2.00833">
        <ele>81</ele>
        <time>2012-08-22T20:09:40Z</time>
      </trkpt>
      <trkpt lat="50.40449" lon="2.00843">
        <ele>81</ele>
        <time>2012-08-22T20:09:42Z</time>
      </trkpt>
      <trkpt lat="50.40444" lon="2.00851">
        <ele>85</ele>
        <time>2012-08-22T20:09:44Z</time>
      </trkpt>
      <trkpt lat="50.4044" lon="2.00856">
        <ele>86</ele>
        <time>2012-08-22T20:09:46Z</time>
      </trkpt>
      <trkpt lat="50.40435" lon="2.00861">
        <ele>86</ele>
        <time>2012-08-22T20:09:48Z</time>
      </trkpt>
      <trkpt lat="50.4043" lon="2.0087">
        <ele>83</ele>
        <time>2012-08-22T20:09:50Z</time>
      </trkpt>
      <trkpt lat="50.40425" lon="2.00878">
        <ele>82</ele>
        <time>2012-08-22T20:09:52Z</time>
      </trkpt>
      <trkpt lat="50.40421" lon="2.00889">
        <ele>84</ele>
        <time>2012-08-22T20:09:54Z</time>
      </trkpt>
      <trkpt lat="50.40416" lon="2.00898">
        <ele>83</ele>
        <time>2012-08-22T20:09:56Z</time>
      </trkpt>
      <trkpt lat="50.40411" lon="2.00904">
        <ele>83</ele>
        <time>2012-08-22T20:09:58Z</time>
      </trkpt>
      <trkpt lat="50.40406" lon="2.0091">
        <ele>83</ele>
        <time>2012-08-22T20:10:00Z</time>
      </trkpt>
      <trkpt lat="50.404" lon="2.00919">
        <ele>81</ele>
        <time>2012-08-22T20:10:02Z</time>
      </trkpt>
      <trkpt lat="50.40393" lon="2.00927">
        <ele>81</ele>
        <time>2012-08-22T20:10:04Z</time>
      </trkpt>
      <trkpt lat="50.40385" lon="2.00938">
        <ele>80</ele>
        <time>2012-08-22T20:10:06Z</time>
      </trkpt>
      <trkpt lat="50.40378" lon="2.0095">
        <ele>79</ele>
        <time>2012-08-22T20:10:08Z</time>
      </trkpt>
      <trkpt lat="50.40372" lon="2.0096">
        <ele>78</ele>
        <time>2012-08-22T20:10:10Z</time>
      </trkpt>
      <trkpt lat="50.40368" lon="2.0097">
        <ele>78</ele>
        <time>2012-08-22T20:10:12Z</time>
      </trkpt>
      <trkpt lat="50.40366" lon="2.0098">
        <ele>79</ele>
        <time>2012-08-22T20:10:14Z</time>
      </trkpt>
      <trkpt lat="50.40362" lon="2.00989">
        <ele>78</ele>
        <time>2012-08-22T20:10:16Z</time>
      </trkpt>
      <trkpt lat="50.40357" lon="2.01">
        <ele>77</ele>
        <time>2012-08-22T20:10:18Z</time>
      </trkpt>
      <trkpt lat="50.40352" lon="2.0101">
        <ele>76</ele>
        <time>2012-08-22T20:10:20Z</time>
      </trkpt>
      <trkpt lat="50.40346" lon="2.0102">
        <ele>78</ele>
        <time>2012-08-22T20:10:22Z</time>
      </trkpt>
      <trkpt lat="50.4034" lon="2.01026">
        <ele>80</ele>
        <time>2012-08-22T20:10:24Z</time>
      </trkpt>
      <trkpt lat="50.40333" lon="2.01032">
        <ele>79</ele>
        <time>2012-08-22T20:10:26Z</time>
      </trkpt>
      <trkpt lat="50.40327" lon="2.01041">
        <ele>80</ele>
        <time>2012-08-22T20:10:28Z</time>
      </trkpt>
      <trkpt lat="50.40322" lon="2.01048">
        <ele>80</ele>
        <time>2012-08-22T20:10:30Z</time>
      </trkpt>
      <trkpt lat="50.40315" lon="2.01056">
        <ele>78</ele>
        <time>2012-08-22T20:10:32Z</time>
      </trkpt>
      <trkpt lat="50.40309" lon="2.01064">
        <ele>78</ele>
        <time>2012-08-22T20:10:34Z</time>
      </trkpt>
      <trkpt lat="50.40303" lon="2.0107">
        <ele>86</ele>
        <time>2012-08-22T20:10:36Z</time>
      </trkpt>
      <trkpt lat="50.40299" lon="2.01076">
        <ele>88</ele>
        <time>2012-08-22T20:10:38Z</time>
      </trkpt>
      <trkpt lat="50.40293" lon="2.01082">
        <ele>86</ele>
        <time>2012-08-22T20:10:40Z</time>
      </trkpt>
      <trkpt lat="50.40287" lon="2.0109">
        <ele>85</ele>
        <time>2012-08-22T20:10:42Z</time>
      </trkpt>
      <trkpt lat="50.4028" lon="2.01099">
        <ele>84</ele>
        <time>2012-08-22T20:10:44Z</time>
      </trkpt>
      <trkpt lat="50.40275" lon="2.01106">
        <ele>84</ele>
        <time>2012-08-22T20:10:46Z</time>
      </trkpt>
      <trkpt lat="50.40271" lon="2.01111">
        <ele>88</ele>
        <time>2012-08-22T20:10:48Z</time>
      </trkpt>
      <trkpt lat="50.40268" lon="2.01117">
        <ele>89</ele>
        <time>2012-08-22T20:10:50Z</time>
      </trkpt>
      <trkpt lat="50.40266" lon="2.01124">
        <ele>87</ele>
        <time>2012-08-22T20:10:52Z</time>
      </trkpt>
      <trkpt lat="50.40264" lon="2.01131">
        <ele>87</ele>
        <time>2012-08-22T20:10:54Z</time>
      </trkpt>
      <trkpt lat="50.40261" lon="2.01137">
        <ele>86</ele>
        <time>2012-08-22T20:10:56Z</time>
      </trkpt>
      <trkpt lat="50.40257" lon="2.01144">
        <ele>90</ele>
        <time>2012-08-22T20:10:58Z</time>
      </trkpt>
      <trkpt lat="50.40252" lon="2.01152">
        <ele>89</ele>
        <time>2012-08-22T20:11:00Z</time>
      </trkpt>
      <trkpt lat="50.4025" lon="2.0116">
        <ele>90</ele>
        <time>2012-08-22T20:11:02Z</time>
      </trkpt>
      <trkpt lat="50.40247" lon="2.01169">
        <ele>91</ele>
        <time>2012-08-22T20:11:04Z</time>
      </trkpt>
      <trkpt lat="50.40245" lon="2.01179">
        <ele>90</ele>
        <time>2012-08-22T20:11:06Z</time>
      </trkpt>
      <trkpt lat="50.40244" lon="2.01189">
        <ele>92</ele>
        <time>2012-08-22T20:11:08Z</time>
      </trkpt>
      <trkpt lat="50.40244" lon="2.012">
        <ele>93</ele>
        <time>2012-08-22T20:11:10Z</time>
      </trkpt>
      <trkpt lat="50.40242" lon="2.01209">
        <ele>92</ele>
        <time>2012-08-22T20:11:12Z</time>
      </trkpt>
      <trkpt lat="50.40239" lon="2.01217">
        <ele>90</ele>
        <time>2012-08-22T20:11:14Z</time>
      </trkpt>
      <trkpt lat="50.40236" lon="2.01224">
        <ele>96</ele>
        <time>2012-08-22T20:11:16Z</time>
      </trkpt>
      <trkpt lat="50.40233" lon="2.01232">
        <ele>93</ele>
        <time>2012-08-22T20:11:18Z</time>
      </trkpt>
      <trkpt lat="50.4023" lon="2.01242">
        <ele>89</ele>
        <time>2012-08-22T20:11:20Z</time>
      </trkpt>
      <trkpt lat="50.40228" lon="2.01251">
        <ele>89</ele>
        <time>2012-08-22T20:11:22Z</time>
      </trkpt>
      <trkpt lat="50.40226" lon="2.01261">
        <ele>89</ele>
        <time>2012-08-22T20:11:24Z</time>
      </trkpt>
      <trkpt lat="50.40224" lon="2.01264">
        <ele>99</ele>
        <time>2012-08-22T20:11:26Z</time>
      </trkpt>
      <trkpt lat="50.40223" lon="2.01268">
        <ele>98</ele>
        <time>2012-08-22T20:11:28Z</time>
      </trkpt>
      <trkpt lat="50.4022" lon="2.01274">
        <ele>99</ele>
        <time>2012-08-22T20:11:30Z</time>
      </trkpt>
      <trkpt lat="50.40216" lon="2.01285">
        <ele>97</ele>
        <time>2012-08-22T20:11:32Z</time>
      </trkpt>
      <trkpt lat="50.40214" lon="2.01296">
        <ele>96</ele>
        <time>2012-08-22T20:11:34Z</time>
      </trkpt>
      <trkpt lat="50.40212" lon="2.01306">
        <ele>96</ele>
        <time>2012-08-22T20:11:36Z</time>
      </trkpt>
      <trkpt lat="50.40209" lon="2.01313">
        <ele>105</ele>
        <time>2012-08-22T20:11:38Z</time>
      </trkpt>
      <trkpt lat="50.40205" lon="2.01317">
        <ele>104</ele>
        <time>2012-08-22T20:11:40Z</time>
      </trkpt>
      <trkpt lat="50.40202" lon="2.01321">
        <ele>104</ele>
        <time>2012-08-22T20:11:42Z</time>
      </trkpt>
      <trkpt lat="50.40199" lon="2.01329">
        <ele>104</ele>
        <time>2012-08-22T20:11:44Z</time>
      </trkpt>
      <trkpt lat="50.40197" lon="2.01337">
        <ele>103</ele>
        <time>2012-08-22T20:11:46Z</time>
      </trkpt>
      <trkpt lat="50.40193" lon="2.01349">
        <ele>102</ele>
        <time>2012-08-22T20:11:48Z</time>
      </trkpt>
      <trkpt lat="50.4019" lon="2.01361">
        <ele>103</ele>
        <time>2012-08-22T20:11:50Z</time>
      </trkpt>
      <trkpt lat="50.40187" lon="2.01371">
        <ele>103</ele>
        <time>2012-08-22T20:11:52Z</time>
      </trkpt>
      <trkpt lat="50.40184" lon="2.01378">
        <ele>102</ele>
        <time>2012-08-22T20:11:54Z</time>
      </trkpt>
      <trkpt lat="50.40181" lon="2.01387">
        <ele>98</ele>
        <time>2012-08-22T20:11:56Z</time>
      </trkpt>
      <trkpt lat="50.40178" lon="2.01395">
        <ele>100</ele>
        <time>2012-08-22T20:11:58Z</time>
      </trkpt>
      <trkpt lat="50.40175" lon="2.01403">
        <ele>101</ele>
        <time>2012-08-22T20:12:00Z</time>
      </trkpt>
      <trkpt lat="50.40174" lon="2.0141">
        <ele>102</ele>
        <time>2012-08-22T20:12:02Z</time>
      </trkpt>
      <trkpt lat="50.40173" lon="2.01417">
        <ele>102</ele>
        <time>2012-08-22T20:12:04Z</time>
      </trkpt>
      <trkpt lat="50.40171" lon="2.01425">
        <ele>103</ele>
        <time>2012-08-22T20:12:06Z</time>
      </trkpt>
      <trkpt lat="50.40168" lon="2.01434">
        <ele>102</ele>
        <time>2012-08-22T20:12:08Z</time>
      </trkpt>
      <trkpt lat="50.40166" lon="2.01442">
        <ele>102</ele>
        <time>2012-08-22T20:12:10Z</time>
      </trkpt>
      <trkpt lat="50.40164" lon="2.0145">
        <ele>103</ele>
        <time>2012-08-22T20:12:12Z</time>
      </trkpt>
      <trkpt lat="50.40162" lon="2.01456">
        <ele>105</ele>
        <time>2012-08-22T20:12:14Z</time>
      </trkpt>
      <trkpt lat="50.40161" lon="2.01463">
        <ele>105</ele>
        <time>2012-08-22T20:12:16Z</time>
      </trkpt>
      <trkpt lat="50.4016" lon="2.01471">
        <ele>105</ele>
        <time>2012-08-22T20:12:18Z</time>
      </trkpt>
      <trkpt lat="50.4016" lon="2.01478">
        <ele>105</ele>
        <time>2012-08-22T20:12:20Z</time>
      </trkpt>
      <trkpt lat="50.4016" lon="2.0149">
        <ele>105</ele>
        <time>2012-08-22T20:12:22Z</time>
      </trkpt>
      <trkpt lat="50.4016" lon="2.01501">
        <ele>105</ele>
        <time>2012-08-22T20:12:24Z</time>
      </trkpt>
      <trkpt lat="50.40159" lon="2.01514">
        <ele>102</ele>
        <time>2012-08-22T20:12:26Z</time>
      </trkpt>
      <trkpt lat="50.4016" lon="2.01528">
        <ele>101</ele>
        <time>2012-08-22T20:12:28Z</time>
      </trkpt>
      <trkpt lat="50.4016" lon="2.0154">
        <ele>102</ele>
        <time>2012-08-22T20:12:30Z</time>
      </trkpt>
      <trkpt lat="50.40159" lon="2.01554">
        <ele>102</ele>
        <time>2012-08-22T20:12:32Z</time>
      </trkpt>
      <trkpt lat="50.40158" lon="2.01565">
        <ele>102</ele>
        <time>2012-08-22T20:12:34Z</time>
      </trkpt>
      <trkpt lat="50.40158" lon="2.01578">
        <ele>100</ele>
        <time>2012-08-22T20:12:36Z</time>
      </trkpt>
      <trkpt lat="50.40159" lon="2.01588">
        <ele>99</ele>
        <time>2012-08-22T20:12:38Z</time>
      </trkpt>
      <trkpt lat="50.40159" lon="2.01596">
        <ele>101</ele>
        <time>2012-08-22T20:12:40Z</time>
      </trkpt>
      <trkpt lat="50.40159" lon="2.01603">
        <ele>101</ele>
        <time>2012-08-22T20:12:42Z</time>
      </trkpt>
      <trkpt lat="50.4016" lon="2.01612">
        <ele>99</ele>
        <time>2012-08-22T20:12:44Z</time>
      </trkpt>
      <trkpt lat="50.4016" lon="2.01622">
        <ele>98</ele>
        <time>2012-08-22T20:12:46Z</time>
      </trkpt>
      <trkpt lat="50.4016" lon="2.01632">
        <ele>98</ele>
        <time>2012-08-22T20:12:48Z</time>
      </trkpt>
      <trkpt lat="50.4016" lon="2.01647">
        <ele>97</ele>
        <time>2012-08-22T20:12:50Z</time>
      </trkpt>
      <trkpt lat="50.4016" lon="2.0166">
        <ele>100</ele>
        <time>2012-08-22T20:12:52Z</time>
      </trkpt>
      <trkpt lat="50.40161" lon="2.01675">
        <ele>101</ele>
        <time>2012-08-22T20:12:54Z</time>
      </trkpt>
      <trkpt lat="50.40162" lon="2.01687">
        <ele>101</ele>
        <time>2012-08-22T20:12:56Z</time>
      </trkpt>
      <trkpt lat="50.40164" lon="2.01701">
        <ele>100</ele>
        <time>2012-08-22T20:12:58Z</time>
      </trkpt>
      <trkpt lat="50.40166" lon="2.01714">
        <ele>100</ele>
        <time>2012-08-22T20:13:00Z</time>
      </trkpt>
      <trkpt lat="50.40168" lon="2.01726">
        <ele>100</ele>
        <time>2012-08-22T20:13:02Z</time>
      </trkpt>
      <trkpt lat="50.40169" lon="2.0174">
        <ele>98</ele>
        <time>2012-08-22T20:13:04Z</time>
      </trkpt>
      <trkpt lat="50.40171" lon="2.01754">
        <ele>96</ele>
        <time>2012-08-22T20:13:06Z</time>
      </trkpt>
      <trkpt lat="50.40173" lon="2.01769">
        <ele>95</ele>
        <time>2012-08-22T20:13:08Z</time>
      </trkpt>
      <trkpt lat="50.40175" lon="2.01784">
        <ele>96</ele>
        <time>2012-08-22T20:13:10Z</time>
      </trkpt>
      <trkpt lat="50.40177" lon="2.01797">
        <ele>96</ele>
        <time>2012-08-22T20:13:12Z</time>
      </trkpt>
      <trkpt lat="50.40179" lon="2.0181">
        <ele>96</ele>
        <time>2012-08-22T20:13:14Z</time>
      </trkpt>
      <trkpt lat="50.4018" lon="2.01821">
        <ele>97</ele>
        <time>2012-08-22T20:13:16Z</time>
      </trkpt>
      <trkpt lat="50.4018" lon="2.01833">
        <ele>97</ele>
        <time>2012-08-22T20:13:18Z</time>
      </trkpt>
      <trkpt lat="50.4018" lon="2.01844">
        <ele>97</ele>
        <time>2012-08-22T20:13:20Z</time>
      </trkpt>
      <trkpt lat="50.4018" lon="2.01859">
        <ele>98</ele>
        <time>2012-08-22T20:13:22Z</time>
      </trkpt>
      <trkpt lat="50.4018" lon="2.0187">
        <ele>97</ele>
        <time>2012-08-22T20:13:24Z</time>
      </trkpt>
      <trkpt lat="50.40179" lon="2.01884">
        <ele>97</ele>
        <time>2012-08-22T20:13:26Z</time>
      </trkpt>
      <trkpt lat="50.40179" lon="2.01896">
        <ele>95</ele>
        <time>2012-08-22T20:13:28Z</time>
      </trkpt>
      <trkpt lat="50.40179" lon="2.01908">
        <ele>94</ele>
        <time>2012-08-22T20:13:30Z</time>
      </trkpt>
      <trkpt lat="50.40179" lon="2.01919">
        <ele>93</ele>
        <time>2012-08-22T20:13:32Z</time>
      </trkpt>
      <trkpt lat="50.40179" lon="2.0193">
        <ele>93</ele>
        <time>2012-08-22T20:13:34Z</time>
      </trkpt>
      <trkpt lat="50.4018" lon="2.01942">
        <ele>91</ele>
        <time>2012-08-22T20:13:36Z</time>
      </trkpt>
      <trkpt lat="50.40181" lon="2.01953">
        <ele>93</ele>
        <time>2012-08-22T20:13:38Z</time>
      </trkpt>
      <trkpt lat="50.40183" lon="2.01961">
        <ele>97</ele>
        <time>2012-08-22T20:13:40Z</time>
      </trkpt>
      <trkpt lat="50.40187" lon="2.0197">
        <ele>99</ele>
        <time>2012-08-22T20:13:42Z</time>
      </trkpt>
      <trkpt lat="50.4019" lon="2.01978">
        <ele>101</ele>
        <time>2012-08-22T20:13:44Z</time>
      </trkpt>
      <trkpt lat="50.40192" lon="2.01986">
        <ele>102</ele>
        <time>2012-08-22T20:13:46Z</time>
      </trkpt>
      <trkpt lat="50.40193" lon="2.01993">
        <ele>102</ele>
        <time>2012-08-22T20:13:48Z</time>
      </trkpt>
      <trkpt lat="50.40194" lon="2.02">
        <ele>102</ele>
        <time>2012-08-22T20:13:50Z</time>
      </trkpt>
      <trkpt lat="50.40195" lon="2.0201">
        <ele>100</ele>
        <time>2012-08-22T20:13:52Z</time>
      </trkpt>
      <trkpt lat="50.40197" lon="2.0202">
        <ele>100</ele>
        <time>2012-08-22T20:13:54Z</time>
      </trkpt>
      <trkpt lat="50.402" lon="2.02034">
        <ele>99</ele>
        <time>2012-08-22T20:13:56Z</time>
      </trkpt>
      <trkpt lat="50.40204" lon="2.02051">
        <ele>98</ele>
        <time>2012-08-22T20:13:58Z</time>
      </trkpt>
      <trkpt lat="50.40208" lon="2.02069">
        <ele>99</ele>
        <time>2012-08-22T20:14:00Z</time>
      </trkpt>
      <trkpt lat="50.4021" lon="2.02078">
        <ele>98</ele>
        <time>2012-08-22T20:14:02Z</time>
      </trkpt>
      <trkpt lat="50.40212" lon="2.02088">
        <ele>98</ele>
        <time>2012-08-22T20:14:04Z</time>
      </trkpt>
      <trkpt lat="50.40213" lon="2.021">
        <ele>95</ele>
        <time>2012-08-22T20:14:06Z</time>
      </trkpt>
      <trkpt lat="50.40213" lon="2.02112">
        <ele>96</ele>
        <time>2012-08-22T20:14:08Z</time>
      </trkpt>
      <trkpt lat="50.40215" lon="2.02122">
        <ele>102</ele>
        <time>2012-08-22T20:14:10Z</time>
      </trkpt>
      <trkpt lat="50.40216" lon="2.02131">
        <ele>106</ele>
        <time>2012-08-22T20:14:12Z</time>
      </trkpt>
      <trkpt lat="50.40217" lon="2.02142">
        <ele>101</ele>
        <time>2012-08-22T20:14:14Z</time>
      </trkpt>
      <trkpt lat="50.40218" lon="2.02154">
        <ele>101</ele>
        <time>2012-08-22T20:14:16Z</time>
      </trkpt>
      <trkpt lat="50.40219" lon="2.02168">
        <ele>101</ele>
        <time>2012-08-22T20:14:18Z</time>
      </trkpt>
      <trkpt lat="50.40221" lon="2.02181">
        <ele>104</ele>
        <time>2012-08-22T20:14:20Z</time>
      </trkpt>
      <trkpt lat="50.40223" lon="2.02191">
        <ele>104</ele>
        <time>2012-08-22T20:14:22Z</time>
      </trkpt>
      <trkpt lat="50.40226" lon="2.02202">
        <ele>104</ele>
        <time>2012-08-22T20:14:24Z</time>
      </trkpt>
      <trkpt lat="50.40229" lon="2.02212">
        <ele>105</ele>
        <time>2012-08-22T20:14:26Z</time>
      </trkpt>
      <trkpt lat="50.40231" lon="2.02223">
        <ele>106</ele>
        <time>2012-08-22T20:14:28Z</time>
      </trkpt>
      <trkpt lat="50.40233" lon="2.02234">
        <ele>106</ele>
        <time>2012-08-22T20:14:30Z</time>
      </trkpt>
      <trkpt lat="50.40235" lon="2.02244">
        <ele>106</ele>
        <time>2012-08-22T20:14:32Z</time>
      </trkpt>
      <trkpt lat="50.40236" lon="2.02252">
        <ele>107</ele>
        <time>2012-08-22T20:14:34Z</time>
      </trkpt>
      <trkpt lat="50.40237" lon="2.02263">
        <ele>107</ele>
        <time>2012-08-22T20:14:36Z</time>
      </trkpt>
      <trkpt lat="50.40239" lon="2.02271">
        <ele>108</ele>
        <time>2012-08-22T20:14:38Z</time>
      </trkpt>
      <trkpt lat="50.40241" lon="2.02281">
        <ele>108</ele>
        <time>2012-08-22T20:14:40Z</time>
      </trkpt>
      <trkpt lat="50.40244" lon="2.02289">
        <ele>110</ele>
        <time>2012-08-22T20:14:42Z</time>
      </trkpt>
      <trkpt lat="50.40247" lon="2.023">
        <ele>112</ele>
        <time>2012-08-22T20:14:44Z</time>
      </trkpt>
      <trkpt lat="50.4025" lon="2.02312">
        <ele>115</ele>
        <time>2012-08-22T20:14:46Z</time>
      </trkpt>
      <trkpt lat="50.40252" lon="2.02325">
        <ele>113</ele>
        <time>2012-08-22T20:14:48Z</time>
      </trkpt>
      <trkpt lat="50.40257" lon="2.02345">
        <ele>112</ele>
        <time>2012-08-22T20:14:50Z</time>
      </trkpt>
      <trkpt lat="50.40261" lon="2.02359">
        <ele>113</ele>
        <time>2012-08-22T20:14:52Z</time>
      </trkpt>
      <trkpt lat="50.40266" lon="2.02374">
        <ele>113</ele>
        <time>2012-08-22T20:14:54Z</time>
      </trkpt>
      <trkpt lat="50.4027" lon="2.02387">
        <ele>112</ele>
        <time>2012-08-22T20:14:56Z</time>
      </trkpt>
      <trkpt lat="50.40274" lon="2.02401">
        <ele>111</ele>
        <time>2012-08-22T20:14:58Z</time>
      </trkpt>
      <trkpt lat="50.40276" lon="2.02413">
        <ele>111</ele>
        <time>2012-08-22T20:15:00Z</time>
      </trkpt>
      <trkpt lat="50.40279" lon="2.02428">
        <ele>109</ele>
        <time>2012-08-22T20:15:02Z</time>
      </trkpt>
      <trkpt lat="50.40282" lon="2.02442">
        <ele>108</ele>
        <time>2012-08-22T20:15:04Z</time>
      </trkpt>
      <trkpt lat="50.40283" lon="2.02454">
        <ele>108</ele>
        <time>2012-08-22T20:15:06Z</time>
      </trkpt>
      <trkpt lat="50.40286" lon="2.02466">
        <ele>108</ele>
        <time>2012-08-22T20:15:08Z</time>
      </trkpt>
      <trkpt lat="50.40289" lon="2.02477">
        <ele>109</ele>
        <time>2012-08-22T20:15:10Z</time>
      </trkpt>
      <trkpt lat="50.40291" lon="2.02489">
        <ele>108</ele>
        <time>2012-08-22T20:15:12Z</time>
      </trkpt>
      <trkpt lat="50.40291" lon="2.02501">
        <ele>107</ele>
        <time>2012-08-22T20:15:14Z</time>
      </trkpt>
      <trkpt lat="50.40289" lon="2.02512">
        <ele>107</ele>
        <time>2012-08-22T20:15:16Z</time>
      </trkpt>
      <trkpt lat="50.40289" lon="2.02522">
        <ele>107</ele>
        <time>2012-08-22T20:15:18Z</time>
      </trkpt>
      <trkpt lat="50.40287" lon="2.02533">
        <ele>106</ele>
        <time>2012-08-22T20:15:20Z</time>
      </trkpt>
      <trkpt lat="50.40286" lon="2.02543">
        <ele>107</ele>
        <time>2012-08-22T20:15:22Z</time>
      </trkpt>
      <trkpt lat="50.40285" lon="2.02553">
        <ele>108</ele>
        <time>2012-08-22T20:15:24Z</time>
      </trkpt>
      <trkpt lat="50.40284" lon="2.02564">
        <ele>107</ele>
        <time>2012-08-22T20:15:26Z</time>
      </trkpt>
      <trkpt lat="50.40283" lon="2.02574">
        <ele>106</ele>
        <time>2012-08-22T20:15:28Z</time>
      </trkpt>
      <trkpt lat="50.40282" lon="2.02584">
        <ele>106</ele>
        <time>2012-08-22T20:15:30Z</time>
      </trkpt>
      <trkpt lat="50.40281" lon="2.02593">
        <ele>107</ele>
        <time>2012-08-22T20:15:32Z</time>
      </trkpt>
      <trkpt lat="50.40279" lon="2.02603">
        <ele>106</ele>
        <time>2012-08-22T20:15:34Z</time>
      </trkpt>
      <trkpt lat="50.40278" lon="2.02611">
        <ele>107</ele>
        <time>2012-08-22T20:15:36Z</time>
      </trkpt>
      <trkpt lat="50.40276" lon="2.0262">
        <ele>106</ele>
        <time>2012-08-22T20:15:38Z</time>
      </trkpt>
      <trkpt lat="50.40274" lon="2.02627">
        <ele>107</ele>
        <time>2012-08-22T20:15:40Z</time>
      </trkpt>
      <trkpt lat="50.40274" lon="2.02637">
        <ele>106</ele>
        <time>2012-08-22T20:15:42Z</time>
      </trkpt>
      <trkpt lat="50.40274" lon="2.02648">
        <ele>103</ele>
        <time>2012-08-22T20:15:44Z</time>
      </trkpt>
      <trkpt lat="50.40274" lon="2.0266">
        <ele>103</ele>
        <time>2012-08-22T20:15:46Z</time>
      </trkpt>
      <trkpt lat="50.40274" lon="2.02673">
        <ele>106</ele>
        <time>2012-08-22T20:15:48Z</time>
      </trkpt>
      <trkpt lat="50.40273" lon="2.02681">
        <ele>112</ele>
        <time>2012-08-22T20:15:50Z</time>
      </trkpt>
      <trkpt lat="50.40273" lon="2.02686">
        <ele>114</ele>
        <time>2012-08-22T20:15:52Z</time>
      </trkpt>
      <trkpt lat="50.40273" lon="2.02691">
        <ele>114</ele>
        <time>2012-08-22T20:15:54Z</time>
      </trkpt>
      <trkpt lat="50.40273" lon="2.02699">
        <ele>113</ele>
        <time>2012-08-22T20:15:56Z</time>
      </trkpt>
      <trkpt lat="50.40271" lon="2.02707">
        <ele>113</ele>
        <time>2012-08-22T20:15:58Z</time>
      </trkpt>
      <trkpt lat="50.4027" lon="2.02722">
        <ele>113</ele>
        <time>2012-08-22T20:16:00Z</time>
      </trkpt>
      <trkpt lat="50.40268" lon="2.02735">
        <ele>113</ele>
        <time>2012-08-22T20:16:02Z</time>
      </trkpt>
      <trkpt lat="50.40267" lon="2.02753">
        <ele>111</ele>
        <time>2012-08-22T20:16:04Z</time>
      </trkpt>
      <trkpt lat="50.40267" lon="2.02766">
        <ele>109</ele>
        <time>2012-08-22T20:16:06Z</time>
      </trkpt>
      <trkpt lat="50.40268" lon="2.02778">
        <ele>109</ele>
        <time>2012-08-22T20:16:08Z</time>
      </trkpt>
      <trkpt lat="50.40268" lon="2.0279">
        <ele>109</ele>
        <time>2012-08-22T20:16:10Z</time>
      </trkpt>
      <trkpt lat="50.40269" lon="2.02802">
        <ele>109</ele>
        <time>2012-08-22T20:16:12Z</time>
      </trkpt>
      <trkpt lat="50.4027" lon="2.02817">
        <ele>110</ele>
        <time>2012-08-22T20:16:14Z</time>
      </trkpt>
      <trkpt lat="50.40271" lon="2.02828">
        <ele>108</ele>
        <time>2012-08-22T20:16:16Z</time>
      </trkpt>
      <trkpt lat="50.40273" lon="2.02835">
        <ele>107</ele>
        <time>2012-08-22T20:16:18Z</time>
      </trkpt>
      <trkpt lat="50.40274" lon="2.02841">
        <ele>108</ele>
        <time>2012-08-22T20:16:20Z</time>
      </trkpt>
      <trkpt lat="50.40275" lon="2.02847">
        <ele>107</ele>
        <time>2012-08-22T20:16:22Z</time>
      </trkpt>
      <trkpt lat="50.40276" lon="2.02856">
        <ele>110</ele>
        <time>2012-08-22T20:16:24Z</time>
      </trkpt>
      <trkpt lat="50.40277" lon="2.02867">
        <ele>111</ele>
        <time>2012-08-22T20:16:26Z</time>
      </trkpt>
      <trkpt lat="50.40279" lon="2.02878">
        <ele>111</ele>
        <time>2012-08-22T20:16:28Z</time>
      </trkpt>
      <trkpt lat="50.40281" lon="2.02889">
        <ele>111</ele>
        <time>2012-08-22T20:16:30Z</time>
      </trkpt>
      <trkpt lat="50.40284" lon="2.02899">
        <ele>110</ele>
        <time>2012-08-22T20:16:32Z</time>
      </trkpt>
      <trkpt lat="50.40286" lon="2.02908">
        <ele>111</ele>
        <time>2012-08-22T20:16:34Z</time>
      </trkpt>
      <trkpt lat="50.40289" lon="2.02917">
        <ele>111</ele>
        <time>2012-08-22T20:16:36Z</time>
      </trkpt>
      <trkpt lat="50.40291" lon="2.02926">
        <ele>112</ele>
        <time>2012-08-22T20:16:38Z</time>
      </trkpt>
      <trkpt lat="50.40293" lon="2.02938">
        <ele>112</ele>
        <time>2012-08-22T20:16:40Z</time>
      </trkpt>
      <trkpt lat="50.40295" lon="2.02948">
        <ele>112</ele>
        <time>2012-08-22T20:16:42Z</time>
      </trkpt>
      <trkpt lat="50.40297" lon="2.02957">
        <ele>118</ele>
        <time>2012-08-22T20:16:44Z</time>
      </trkpt>
      <trkpt lat="50.40299" lon="2.02965">
        <ele>118</ele>
        <time>2012-08-22T20:16:46Z</time>
      </trkpt>
      <trkpt lat="50.403" lon="2.02975">
        <ele>119</ele>
        <time>2012-08-22T20:16:48Z</time>
      </trkpt>
      <trkpt lat="50.40301" lon="2.02984">
        <ele>119</ele>
        <time>2012-08-22T20:16:50Z</time>
      </trkpt>
      <trkpt lat="50.40302" lon="2.02995">
        <ele>120</ele>
        <time>2012-08-22T20:16:52Z</time>
      </trkpt>
      <trkpt lat="50.40303" lon="2.03004">
        <ele>122</ele>
        <time>2012-08-22T20:16:54Z</time>
      </trkpt>
      <trkpt lat="50.40304" lon="2.03015">
        <ele>123</ele>
        <time>2012-08-22T20:16:56Z</time>
      </trkpt>
      <trkpt lat="50.40305" lon="2.03026">
        <ele>123</ele>
        <time>2012-08-22T20:16:58Z</time>
      </trkpt>
      <trkpt lat="50.40307" lon="2.03038">
        <ele>122</ele>
        <time>2012-08-22T20:17:00Z</time>
      </trkpt>
      <trkpt lat="50.40308" lon="2.03049">
        <ele>123</ele>
        <time>2012-08-22T20:17:02Z</time>
      </trkpt>
      <trkpt lat="50.40309" lon="2.03061">
        <ele>122</ele>
        <time>2012-08-22T20:17:04Z</time>
      </trkpt>
      <trkpt lat="50.40308" lon="2.03072">
        <ele>120</ele>
        <time>2012-08-22T20:17:06Z</time>
      </trkpt>
      <trkpt lat="50.40309" lon="2.03083">
        <ele>122</ele>
        <time>2012-08-22T20:17:08Z</time>
      </trkpt>
      <trkpt lat="50.40309" lon="2.03091">
        <ele>122</ele>
        <time>2012-08-22T20:17:10Z</time>
      </trkpt>
      <trkpt lat="50.40308" lon="2.031">
        <ele>115</ele>
        <time>2012-08-22T20:17:12Z</time>
      </trkpt>
      <trkpt lat="50.40308" lon="2.03105">
        <ele>111</ele>
        <time>2012-08-22T20:17:14Z</time>
      </trkpt>
      <trkpt lat="50.40307" lon="2.03105">
        <ele>111</ele>
        <time>2012-08-22T20:17:16Z</time>
      </trkpt>
      <trkpt lat="50.40307" lon="2.03105">
        <ele>111</ele>
        <time>2012-08-22T20:17:18Z</time>
      </trkpt>
      <trkpt lat="50.40308" lon="2.03104">
        <ele>111</ele>
        <time>2012-08-22T20:17:20Z</time>
      </trkpt>
      <trkpt lat="50.40308" lon="2.03105">
        <ele>111</ele>
        <time>2012-08-22T20:17:22Z</time>
      </trkpt>
      <trkpt lat="50.40309" lon="2.03108">
        <ele>109</ele>
        <time>2012-08-22T20:17:34Z</time>
      </trkpt>
      <trkpt lat="50.40308" lon="2.03107">
        <ele>111</ele>
        <time>2012-08-22T20:17:36Z</time>
      </trkpt>
      <trkpt lat="50.40308" lon="2.03107">
        <ele>113</ele>
        <time>2012-08-22T20:17:38Z</time>
      </trkpt>
      <trkpt lat="50.40308" lon="2.03105">
        <ele>114</ele>
        <time>2012-08-22T20:17:42Z</time>
      </trkpt>
      <trkpt lat="50.40309" lon="2.03104">
        <ele>114</ele>
        <time>2012-08-22T20:17:44Z</time>
      </trkpt>
      <trkpt lat="50.40309" lon="2.03102">
        <ele>115</ele>
        <time>2012-08-22T20:17:46Z</time>
      </trkpt>
      <trkpt lat="50.40309" lon="2.03099">
        <ele>114</ele>
        <time>2012-08-22T20:17:48Z</time>
      </trkpt>
      <trkpt lat="50.40308" lon="2.03096">
        <ele>113</ele>
        <time>2012-08-22T20:17:50Z</time>
      </trkpt>
      <trkpt lat="50.40308" lon="2.03095">
        <ele>113</ele>
        <time>2012-08-22T20:17:52Z</time>
      </trkpt>
      <trkpt lat="50.40308" lon="2.03095">
        <ele>113</ele>
        <time>2012-08-22T20:17:54Z</time>
      </trkpt>
      <trkpt lat="50.40307" lon="2.03096">
        <ele>111</ele>
        <time>2012-08-22T20:17:56Z</time>
      </trkpt>
      <trkpt lat="50.40307" lon="2.03096">
        <ele>111</ele>
        <time>2012-08-22T20:17:58Z</time>
      </trkpt>
      <trkpt lat="50.40302" lon="2.03095">
        <ele>109</ele>
        <time>2012-08-22T20:18:06Z</time>
      </trkpt>
      <trkpt lat="50.403" lon="2.0309">
        <ele>107</ele>
        <time>2012-08-22T20:18:12Z</time>
      </trkpt>
      <trkpt lat="50.40302" lon="2.03097">
        <ele>103</ele>
        <time>2012-08-22T20:18:18Z</time>
      </trkpt>
      <trkpt lat="50.40303" lon="2.03103">
        <ele>101</ele>
        <time>2012-08-22T20:18:20Z</time>
      </trkpt>
      <trkpt lat="50.40303" lon="2.03107">
        <ele>101</ele>
        <time>2012-08-22T20:18:22Z</time>
      </trkpt>
      <trkpt lat="50.40304" lon="2.03113">
        <ele>100</ele>
        <time>2012-08-22T20:18:24Z</time>
      </trkpt>
      <trkpt lat="50.40305" lon="2.03113">
        <ele>103</ele>
        <time>2012-08-22T20:18:26Z</time>
      </trkpt>
      <trkpt lat="50.40307" lon="2.03113">
        <ele>104</ele>
        <time>2012-08-22T20:18:28Z</time>
      </trkpt>
      <trkpt lat="50.40307" lon="2.03113">
        <ele>105</ele>
        <time>2012-08-22T20:18:30Z</time>
      </trkpt>
      <trkpt lat="50.40308" lon="2.03114">
        <ele>108</ele>
        <time>2012-08-22T20:18:34Z</time>
      </trkpt>
      <trkpt lat="50.40308" lon="2.03118">
        <ele>110</ele>
        <time>2012-08-22T20:18:36Z</time>
      </trkpt>
      <trkpt lat="50.40308" lon="2.03123">
        <ele>111</ele>
        <time>2012-08-22T20:18:38Z</time>
      </trkpt>
      <trkpt lat="50.40308" lon="2.03132">
        <ele>116</ele>
        <time>2012-08-22T20:18:40Z</time>
      </trkpt>
      <trkpt lat="50.40308" lon="2.03139">
        <ele>118</ele>
        <time>2012-08-22T20:18:42Z</time>
      </trkpt>
      <trkpt lat="50.4031" lon="2.03147">
        <ele>121</ele>
        <time>2012-08-22T20:18:44Z</time>
      </trkpt>
      <trkpt lat="50.4031" lon="2.03153">
        <ele>123</ele>
        <time>2012-08-22T20:18:46Z</time>
      </trkpt>
      <trkpt lat="50.4031" lon="2.0316">
        <ele>124</ele>
        <time>2012-08-22T20:18:48Z</time>
      </trkpt>
      <trkpt lat="50.4031" lon="2.03168">
        <ele>126</ele>
        <time>2012-08-22T20:18:50Z</time>
      </trkpt>
      <trkpt lat="50.4031" lon="2.03174">
        <ele>129</ele>
        <time>2012-08-22T20:18:52Z</time>
      </trkpt>
      <trkpt lat="50.4031" lon="2.0318">
        <ele>130</ele>
        <time>2012-08-22T20:18:54Z</time>
      </trkpt>
      <trkpt lat="50.40309" lon="2.03186">
        <ele>133</ele>
        <time>2012-08-22T20:18:56Z</time>
      </trkpt>
      <trkpt lat="50.40308" lon="2.03194">
        <ele>134</ele>
        <time>2012-08-22T20:18:58Z</time>
      </trkpt>
      <trkpt lat="50.40307" lon="2.03202">
        <ele>133</ele>
        <time>2012-08-22T20:19:00Z</time>
      </trkpt>
      <trkpt lat="50.40306" lon="2.03211">
        <ele>134</ele>
        <time>2012-08-22T20:19:02Z</time>
      </trkpt>
      <trkpt lat="50.40304" lon="2.03222">
        <ele>137</ele>
        <time>2012-08-22T20:19:04Z</time>
      </trkpt>
      <trkpt lat="50.40302" lon="2.03233">
        <ele>137</ele>
        <time>2012-08-22T20:19:06Z</time>
      </trkpt>
      <trkpt lat="50.40301" lon="2.03243">
        <ele>137</ele>
        <time>2012-08-22T20:19:08Z</time>
      </trkpt>
      <trkpt lat="50.403" lon="2.03256">
        <ele>135</ele>
        <time>2012-08-22T20:19:10Z</time>
      </trkpt>
      <trkpt lat="50.40299" lon="2.03268">
        <ele>134</ele>
        <time>2012-08-22T20:19:12Z</time>
      </trkpt>
      <trkpt lat="50.40296" lon="2.0328">
        <ele>133</ele>
        <time>2012-08-22T20:19:14Z</time>
      </trkpt>
      <trkpt lat="50.40294" lon="2.03287">
        <ele>133</ele>
        <time>2012-08-22T20:19:16Z</time>
      </trkpt>
      <trkpt lat="50.40292" lon="2.03296">
        <ele>134</ele>
        <time>2012-08-22T20:19:18Z</time>
      </trkpt>
      <trkpt lat="50.40292" lon="2.03308">
        <ele>135</ele>
        <time>2012-08-22T20:19:20Z</time>
      </trkpt>
      <trkpt lat="50.40292" lon="2.03322">
        <ele>134</ele>
        <time>2012-08-22T20:19:22Z</time>
      </trkpt>
      <trkpt lat="50.40294" lon="2.03334">
        <ele>133</ele>
        <time>2012-08-22T20:19:24Z</time>
      </trkpt>
      <trkpt lat="50.40297" lon="2.0335">
        <ele>132</ele>
        <time>2012-08-22T20:19:26Z</time>
      </trkpt>
      <trkpt lat="50.40301" lon="2.03363">
        <ele>131</ele>
        <time>2012-08-22T20:19:28Z</time>
      </trkpt>
      <trkpt lat="50.40304" lon="2.03375">
        <ele>131</ele>
        <time>2012-08-22T20:19:30Z</time>
      </trkpt>
      <trkpt lat="50.40306" lon="2.0339">
        <ele>131</ele>
        <time>2012-08-22T20:19:32Z</time>
      </trkpt>
      <trkpt lat="50.40308" lon="2.03403">
        <ele>131</ele>
        <time>2012-08-22T20:19:34Z</time>
      </trkpt>
      <trkpt lat="50.40312" lon="2.03417">
        <ele>132</ele>
        <time>2012-08-22T20:19:36Z</time>
      </trkpt>
      <trkpt lat="50.40318" lon="2.03441">
        <ele>128</ele>
        <time>2012-08-22T20:19:38Z</time>
      </trkpt>
      <trkpt lat="50.40322" lon="2.03452">
        <ele>127</ele>
        <time>2012-08-22T20:19:40Z</time>
      </trkpt>
      <trkpt lat="50.40324" lon="2.03459">
        <ele>126</ele>
        <time>2012-08-22T20:19:42Z</time>
      </trkpt>
      <trkpt lat="50.40325" lon="2.03467">
        <ele>126</ele>
        <time>2012-08-22T20:19:44Z</time>
      </trkpt>
      <trkpt lat="50.40324" lon="2.0348">
        <ele>120</ele>
        <time>2012-08-22T20:19:46Z</time>
      </trkpt>
      <trkpt lat="50.40324" lon="2.03487">
        <ele>119</ele>
        <time>2012-08-22T20:19:48Z</time>
      </trkpt>
      <trkpt lat="50.40326" lon="2.03492">
        <ele>120</ele>
        <time>2012-08-22T20:19:50Z</time>
      </trkpt>
      <trkpt lat="50.40328" lon="2.03501">
        <ele>120</ele>
        <time>2012-08-22T20:19:52Z</time>
      </trkpt>
      <trkpt lat="50.40328" lon="2.03509">
        <ele>123</ele>
        <time>2012-08-22T20:19:54Z</time>
      </trkpt>
      <trkpt lat="50.40327" lon="2.03517">
        <ele>122</ele>
        <time>2012-08-22T20:19:56Z</time>
      </trkpt>
      <trkpt lat="50.40326" lon="2.03525">
        <ele>124</ele>
        <time>2012-08-22T20:19:58Z</time>
      </trkpt>
      <trkpt lat="50.40326" lon="2.03534">
        <ele>123</ele>
        <time>2012-08-22T20:20:00Z</time>
      </trkpt>
      <trkpt lat="50.40325" lon="2.03542">
        <ele>124</ele>
        <time>2012-08-22T20:20:02Z</time>
      </trkpt>
      <trkpt lat="50.40326" lon="2.0355">
        <ele>123</ele>
        <time>2012-08-22T20:20:04Z</time>
      </trkpt>
      <trkpt lat="50.40334" lon="2.03567">
        <ele>123</ele>
        <time>2012-08-22T20:20:06Z</time>
      </trkpt>
      <trkpt lat="50.40334" lon="2.03575">
        <ele>122</ele>
        <time>2012-08-22T20:20:08Z</time>
      </trkpt>
      <trkpt lat="50.40332" lon="2.0358">
        <ele>125</ele>
        <time>2012-08-22T20:20:10Z</time>
      </trkpt>
      <trkpt lat="50.40332" lon="2.03581">
        <ele>134</ele>
        <time>2012-08-22T20:20:12Z</time>
      </trkpt>
      <trkpt lat="50.40331" lon="2.0359">
        <ele>135</ele>
        <time>2012-08-22T20:20:14Z</time>
      </trkpt>
      <trkpt lat="50.40331" lon="2.03596">
        <ele>135</ele>
        <time>2012-08-22T20:20:16Z</time>
      </trkpt>
      <trkpt lat="50.4033" lon="2.03607">
        <ele>136</ele>
        <time>2012-08-22T20:20:18Z</time>
      </trkpt>
      <trkpt lat="50.40328" lon="2.03618">
        <ele>132</ele>
        <time>2012-08-22T20:20:20Z</time>
      </trkpt>
      <trkpt lat="50.40328" lon="2.0363">
        <ele>131</ele>
        <time>2012-08-22T20:20:22Z</time>
      </trkpt>
      <trkpt lat="50.40328" lon="2.03639">
        <ele>131</ele>
        <time>2012-08-22T20:20:24Z</time>
      </trkpt>
      <trkpt lat="50.40328" lon="2.03648">
        <ele>130</ele>
        <time>2012-08-22T20:20:26Z</time>
      </trkpt>
      <trkpt lat="50.40329" lon="2.03659">
        <ele>127</ele>
        <time>2012-08-22T20:20:28Z</time>
      </trkpt>
      <trkpt lat="50.40329" lon="2.03669">
        <ele>127</ele>
        <time>2012-08-22T20:20:30Z</time>
      </trkpt>
      <trkpt lat="50.40329" lon="2.03679">
        <ele>127</ele>
        <time>2012-08-22T20:20:32Z</time>
      </trkpt>
      <trkpt lat="50.40329" lon="2.03687">
        <ele>128</ele>
        <time>2012-08-22T20:20:34Z</time>
      </trkpt>
      <trkpt lat="50.40329" lon="2.03695">
        <ele>128</ele>
        <time>2012-08-22T20:20:36Z</time>
      </trkpt>
      <trkpt lat="50.4033" lon="2.03701">
        <ele>132</ele>
        <time>2012-08-22T20:20:38Z</time>
      </trkpt>
      <trkpt lat="50.40331" lon="2.03708">
        <ele>133</ele>
        <time>2012-08-22T20:20:40Z</time>
      </trkpt>
      <trkpt lat="50.40333" lon="2.03716">
        <ele>135</ele>
        <time>2012-08-22T20:20:42Z</time>
      </trkpt>
      <trkpt lat="50.40335" lon="2.03723">
        <ele>137</ele>
        <time>2012-08-22T20:20:44Z</time>
      </trkpt>
      <trkpt lat="50.40336" lon="2.03733">
        <ele>135</ele>
        <time>2012-08-22T20:20:46Z</time>
      </trkpt>
      <trkpt lat="50.40337" lon="2.03741">
        <ele>138</ele>
        <time>2012-08-22T20:20:48Z</time>
      </trkpt>
      <trkpt lat="50.40336" lon="2.03748">
        <ele>136</ele>
        <time>2012-08-22T20:20:50Z</time>
      </trkpt>
      <trkpt lat="50.40335" lon="2.03753">
        <ele>136</ele>
        <time>2012-08-22T20:20:52Z</time>
      </trkpt>
      <trkpt lat="50.40334" lon="2.03761">
        <ele>135</ele>
        <time>2012-08-22T20:20:54Z</time>
      </trkpt>
      <trkpt lat="50.40334" lon="2.03769">
        <ele>141</ele>
        <time>2012-08-22T20:20:56Z</time>
      </trkpt>
      <trkpt lat="50.40333" lon="2.03776">
        <ele>143</ele>
        <time>2012-08-22T20:20:58Z</time>
      </trkpt>
      <trkpt lat="50.40334" lon="2.03788">
        <ele>144</ele>
        <time>2012-08-22T20:21:00Z</time>
      </trkpt>
      <trkpt lat="50.40334" lon="2.03797">
        <ele>144</ele>
        <time>2012-08-22T20:21:02Z</time>
      </trkpt>
      <trkpt lat="50.40335" lon="2.0381">
        <ele>144</ele>
        <time>2012-08-22T20:21:04Z</time>
      </trkpt>
      <trkpt lat="50.40337" lon="2.03824">
        <ele>144</ele>
        <time>2012-08-22T20:21:06Z</time>
      </trkpt>
      <trkpt lat="50.40338" lon="2.03839">
        <ele>143</ele>
        <time>2012-08-22T20:21:08Z</time>
      </trkpt>
      <trkpt lat="50.4034" lon="2.03854">
        <ele>146</ele>
        <time>2012-08-22T20:21:10Z</time>
      </trkpt>
      <trkpt lat="50.4034" lon="2.0386">
        <ele>148</ele>
        <time>2012-08-22T20:21:12Z</time>
      </trkpt>
      <trkpt lat="50.40342" lon="2.03868">
        <ele>148</ele>
        <time>2012-08-22T20:21:14Z</time>
      </trkpt>
      <trkpt lat="50.40342" lon="2.03879">
        <ele>146</ele>
        <time>2012-08-22T20:21:16Z</time>
      </trkpt>
      <trkpt lat="50.40343" lon="2.03892">
        <ele>143</ele>
        <time>2012-08-22T20:21:18Z</time>
      </trkpt>
      <trkpt lat="50.40343" lon="2.03905">
        <ele>142</ele>
        <time>2012-08-22T20:21:20Z</time>
      </trkpt>
      <trkpt lat="50.40343" lon="2.03915">
        <ele>146</ele>
        <time>2012-08-22T20:21:22Z</time>
      </trkpt>
      <trkpt lat="50.40342" lon="2.0392">
        <ele>146</ele>
        <time>2012-08-22T20:21:24Z</time>
      </trkpt>
      <trkpt lat="50.4034" lon="2.03923">
        <ele>147</ele>
        <time>2012-08-22T20:21:26Z</time>
      </trkpt>
      <trkpt lat="50.4034" lon="2.03932">
        <ele>146</ele>
        <time>2012-08-22T20:21:28Z</time>
      </trkpt>
      <trkpt lat="50.4034" lon="2.03939">
        <ele>146</ele>
        <time>2012-08-22T20:21:30Z</time>
      </trkpt>
      <trkpt lat="50.4035" lon="2.03984">
        <ele>147</ele>
        <time>2012-08-22T20:21:32Z</time>
      </trkpt>
      <trkpt lat="50.40352" lon="2.03997">
        <ele>144</ele>
        <time>2012-08-22T20:21:34Z</time>
      </trkpt>
      <trkpt lat="50.40352" lon="2.0401">
        <ele>144</ele>
        <time>2012-08-22T20:21:36Z</time>
      </trkpt>
      <trkpt lat="50.40354" lon="2.04026">
        <ele>143</ele>
        <time>2012-08-22T20:21:38Z</time>
      </trkpt>
      <trkpt lat="50.40355" lon="2.04043">
        <ele>144</ele>
        <time>2012-08-22T20:21:40Z</time>
      </trkpt>
      <trkpt lat="50.40356" lon="2.04059">
        <ele>142</ele>
        <time>2012-08-22T20:21:42Z</time>
      </trkpt>
      <trkpt lat="50.40356" lon="2.04074">
        <ele>139</ele>
        <time>2012-08-22T20:21:44Z</time>
      </trkpt>
      <trkpt lat="50.40356" lon="2.04089">
        <ele>139</ele>
        <time>2012-08-22T20:21:46Z</time>
      </trkpt>
      <trkpt lat="50.40355" lon="2.04102">
        <ele>140</ele>
        <time>2012-08-22T20:21:48Z</time>
      </trkpt>
      <trkpt lat="50.40354" lon="2.04116">
        <ele>137</ele>
        <time>2012-08-22T20:21:50Z</time>
      </trkpt>
      <trkpt lat="50.40354" lon="2.04125">
        <ele>139</ele>
        <time>2012-08-22T20:21:52Z</time>
      </trkpt>
      <trkpt lat="50.40354" lon="2.04135">
        <ele>138</ele>
        <time>2012-08-22T20:21:54Z</time>
      </trkpt>
      <trkpt lat="50.40355" lon="2.04146">
        <ele>139</ele>
        <time>2012-08-22T20:21:56Z</time>
      </trkpt>
      <trkpt lat="50.40355" lon="2.04154">
        <ele>140</ele>
        <time>2012-08-22T20:21:58Z</time>
      </trkpt>
      <trkpt lat="50.40355" lon="2.04161">
        <ele>138</ele>
        <time>2012-08-22T20:22:00Z</time>
      </trkpt>
      <trkpt lat="50.40354" lon="2.04171">
        <ele>135</ele>
        <time>2012-08-22T20:22:02Z</time>
      </trkpt>
      <trkpt lat="50.40355" lon="2.04184">
        <ele>132</ele>
        <time>2012-08-22T20:22:04Z</time>
      </trkpt>
      <trkpt lat="50.40358" lon="2.04201">
        <ele>132</ele>
        <time>2012-08-22T20:22:06Z</time>
      </trkpt>
      <trkpt lat="50.4036" lon="2.04215">
        <ele>130</ele>
        <time>2012-08-22T20:22:08Z</time>
      </trkpt>
      <trkpt lat="50.40361" lon="2.04231">
        <ele>129</ele>
        <time>2012-08-22T20:22:10Z</time>
      </trkpt>
      <trkpt lat="50.40364" lon="2.04244">
        <ele>127</ele>
        <time>2012-08-22T20:22:12Z</time>
      </trkpt>
      <trkpt lat="50.40366" lon="2.04255">
        <ele>126</ele>
        <time>2012-08-22T20:22:14Z</time>
      </trkpt>
      <trkpt lat="50.40367" lon="2.04265">
        <ele>126</ele>
        <time>2012-08-22T20:22:16Z</time>
      </trkpt>
      <trkpt lat="50.40368" lon="2.04272">
        <ele>131</ele>
        <time>2012-08-22T20:22:18Z</time>
      </trkpt>
      <trkpt lat="50.40368" lon="2.04279">
        <ele>133</ele>
        <time>2012-08-22T20:22:20Z</time>
      </trkpt>
      <trkpt lat="50.40368" lon="2.04286">
        <ele>130</ele>
        <time>2012-08-22T20:22:22Z</time>
      </trkpt>
      <trkpt lat="50.40368" lon="2.04294">
        <ele>130</ele>
        <time>2012-08-22T20:22:24Z</time>
      </trkpt>
      <trkpt lat="50.40367" lon="2.04303">
        <ele>127</ele>
        <time>2012-08-22T20:22:26Z</time>
      </trkpt>
      <trkpt lat="50.40367" lon="2.04314">
        <ele>123</ele>
        <time>2012-08-22T20:22:28Z</time>
      </trkpt>
      <trkpt lat="50.40366" lon="2.04331">
        <ele>122</ele>
        <time>2012-08-22T20:22:30Z</time>
      </trkpt>
      <trkpt lat="50.40366" lon="2.0434">
        <ele>123</ele>
        <time>2012-08-22T20:22:32Z</time>
      </trkpt>
      <trkpt lat="50.40368" lon="2.04352">
        <ele>122</ele>
        <time>2012-08-22T20:22:34Z</time>
      </trkpt>
      <trkpt lat="50.40369" lon="2.04363">
        <ele>123</ele>
        <time>2012-08-22T20:22:36Z</time>
      </trkpt>
      <trkpt lat="50.40369" lon="2.04371">
        <ele>122</ele>
        <time>2012-08-22T20:22:38Z</time>
      </trkpt>
      <trkpt lat="50.40369" lon="2.04376">
        <ele>122</ele>
        <time>2012-08-22T20:22:40Z</time>
      </trkpt>
      <trkpt lat="50.40366" lon="2.04377">
        <ele>122</ele>
        <time>2012-08-22T20:22:42Z</time>
      </trkpt>
      <trkpt lat="50.40361" lon="2.04376">
        <ele>122</ele>
        <time>2012-08-22T20:22:44Z</time>
      </trkpt>
      <trkpt lat="50.40354" lon="2.04372">
        <ele>121</ele>
        <time>2012-08-22T20:22:46Z</time>
      </trkpt>
      <trkpt lat="50.40349" lon="2.0437">
        <ele>121</ele>
        <time>2012-08-22T20:22:48Z</time>
      </trkpt>
      <trkpt lat="50.40341" lon="2.04366">
        <ele>120</ele>
        <time>2012-08-22T20:22:50Z</time>
      </trkpt>
      <trkpt lat="50.40335" lon="2.04367">
        <ele>120</ele>
        <time>2012-08-22T20:22:52Z</time>
      </trkpt>
      <trkpt lat="50.40328" lon="2.04369">
        <ele>121</ele>
        <time>2012-08-22T20:22:54Z</time>
      </trkpt>
      <trkpt lat="50.4032" lon="2.04372">
        <ele>118</ele>
        <time>2012-08-22T20:22:56Z</time>
      </trkpt>
      <trkpt lat="50.40311" lon="2.04375">
        <ele>117</ele>
        <time>2012-08-22T20:22:58Z</time>
      </trkpt>
      <trkpt lat="50.40302" lon="2.04377">
        <ele>116</ele>
        <time>2012-08-22T20:23:00Z</time>
      </trkpt>
      <trkpt lat="50.40292" lon="2.04378">
        <ele>114</ele>
        <time>2012-08-22T20:23:02Z</time>
      </trkpt>
      <trkpt lat="50.40278" lon="2.04379">
        <ele>114</ele>
        <time>2012-08-22T20:23:04Z</time>
      </trkpt>
      <trkpt lat="50.40266" lon="2.04383">
        <ele>115</ele>
        <time>2012-08-22T20:23:06Z</time>
      </trkpt>
      <trkpt lat="50.40257" lon="2.04382">
        <ele>116</ele>
        <time>2012-08-22T20:23:08Z</time>
      </trkpt>
      <trkpt lat="50.40249" lon="2.04381">
        <ele>116</ele>
        <time>2012-08-22T20:23:10Z</time>
      </trkpt>
      <trkpt lat="50.40241" lon="2.0438">
        <ele>115</ele>
        <time>2012-08-22T20:23:12Z</time>
      </trkpt>
      <trkpt lat="50.40231" lon="2.0438">
        <ele>116</ele>
        <time>2012-08-22T20:23:14Z</time>
      </trkpt>
      <trkpt lat="50.40221" lon="2.04379">
        <ele>117</ele>
        <time>2012-08-22T20:23:16Z</time>
      </trkpt>
      <trkpt lat="50.40212" lon="2.04381">
        <ele>115</ele>
        <time>2012-08-22T20:23:18Z</time>
      </trkpt>
      <trkpt lat="50.40204" lon="2.04381">
        <ele>114</ele>
        <time>2012-08-22T20:23:20Z</time>
      </trkpt>
      <trkpt lat="50.40194" lon="2.04379">
        <ele>114</ele>
        <time>2012-08-22T20:23:22Z</time>
      </trkpt>
      <trkpt lat="50.40184" lon="2.0438">
        <ele>114</ele>
        <time>2012-08-22T20:23:24Z</time>
      </trkpt>
      <trkpt lat="50.40177" lon="2.04376">
        <ele>114</ele>
        <time>2012-08-22T20:23:26Z</time>
      </trkpt>
      <trkpt lat="50.40172" lon="2.04374">
        <ele>115</ele>
        <time>2012-08-22T20:23:28Z</time>
      </trkpt>
      <trkpt lat="50.40161" lon="2.04373">
        <ele>115</ele>
        <time>2012-08-22T20:23:30Z</time>
      </trkpt>
      <trkpt lat="50.40152" lon="2.04369">
        <ele>115</ele>
        <time>2012-08-22T20:23:32Z</time>
      </trkpt>
      <trkpt lat="50.40143" lon="2.0437">
        <ele>113</ele>
        <time>2012-08-22T20:23:34Z</time>
      </trkpt>
      <trkpt lat="50.40135" lon="2.04371">
        <ele>112</ele>
        <time>2012-08-22T20:23:36Z</time>
      </trkpt>
      <trkpt lat="50.40135" lon="2.04391">
        <ele>112</ele>
        <time>2012-08-22T20:23:38Z</time>
      </trkpt>
      <trkpt lat="50.40133" lon="2.04406">
        <ele>111</ele>
        <time>2012-08-22T20:23:40Z</time>
      </trkpt>
      <trkpt lat="50.40134" lon="2.04419">
        <ele>111</ele>
        <time>2012-08-22T20:23:42Z</time>
      </trkpt>
      <trkpt lat="50.40135" lon="2.0443">
        <ele>111</ele>
        <time>2012-08-22T20:23:44Z</time>
      </trkpt>
      <trkpt lat="50.40136" lon="2.04442">
        <ele>112</ele>
        <time>2012-08-22T20:23:46Z</time>
      </trkpt>
      <trkpt lat="50.40136" lon="2.04453">
        <ele>112</ele>
        <time>2012-08-22T20:23:48Z</time>
      </trkpt>
      <trkpt lat="50.40137" lon="2.04465">
        <ele>112</ele>
        <time>2012-08-22T20:23:50Z</time>
      </trkpt>
      <trkpt lat="50.40137" lon="2.04481">
        <ele>112</ele>
        <time>2012-08-22T20:23:52Z</time>
      </trkpt>
      <trkpt lat="50.4014" lon="2.04494">
        <ele>115</ele>
        <time>2012-08-22T20:23:54Z</time>
      </trkpt>
      <trkpt lat="50.40142" lon="2.04508">
        <ele>115</ele>
        <time>2012-08-22T20:23:56Z</time>
      </trkpt>
      <trkpt lat="50.40142" lon="2.0452">
        <ele>117</ele>
        <time>2012-08-22T20:23:58Z</time>
      </trkpt>
      <trkpt lat="50.40142" lon="2.04536">
        <ele>116</ele>
        <time>2012-08-22T20:24:00Z</time>
      </trkpt>
      <trkpt lat="50.40142" lon="2.04554">
        <ele>115</ele>
        <time>2012-08-22T20:24:02Z</time>
      </trkpt>
      <trkpt lat="50.4014" lon="2.04564">
        <ele>115</ele>
        <time>2012-08-22T20:24:04Z</time>
      </trkpt>
      <trkpt lat="50.40139" lon="2.04573">
        <ele>117</ele>
        <time>2012-08-22T20:24:06Z</time>
      </trkpt>
      <trkpt lat="50.40139" lon="2.04582">
        <ele>118</ele>
        <time>2012-08-22T20:24:08Z</time>
      </trkpt>
      <trkpt lat="50.40139" lon="2.04595">
        <ele>118</ele>
        <time>2012-08-22T20:24:10Z</time>
      </trkpt>
      <trkpt lat="50.40138" lon="2.04606">
        <ele>118</ele>
        <time>2012-08-22T20:24:12Z</time>
      </trkpt>
      <trkpt lat="50.40138" lon="2.04618">
        <ele>118</ele>
        <time>2012-08-22T20:24:14Z</time>
      </trkpt>
      <trkpt lat="50.40142" lon="2.0464">
        <ele>119</ele>
        <time>2012-08-22T20:24:16Z</time>
      </trkpt>
      <trkpt lat="50.40144" lon="2.04653">
        <ele>120</ele>
        <time>2012-08-22T20:24:18Z</time>
      </trkpt>
      <trkpt lat="50.40147" lon="2.04664">
        <ele>121</ele>
        <time>2012-08-22T20:24:20Z</time>
      </trkpt>
      <trkpt lat="50.40149" lon="2.04675">
        <ele>125</ele>
        <time>2012-08-22T20:24:22Z</time>
      </trkpt>
      <trkpt lat="50.40152" lon="2.04683">
        <ele>132</ele>
        <time>2012-08-22T20:24:24Z</time>
      </trkpt>
      <trkpt lat="50.40152" lon="2.04692">
        <ele>132</ele>
        <time>2012-08-22T20:24:26Z</time>
      </trkpt>
      <trkpt lat="50.40153" lon="2.04702">
        <ele>133</ele>
        <time>2012-08-22T20:24:28Z</time>
      </trkpt>
      <trkpt lat="50.40153" lon="2.04712">
        <ele>134</ele>
        <time>2012-08-22T20:24:30Z</time>
      </trkpt>
      <trkpt lat="50.40154" lon="2.04722">
        <ele>139</ele>
        <time>2012-08-22T20:24:32Z</time>
      </trkpt>
      <trkpt lat="50.40155" lon="2.04736">
        <ele>138</ele>
        <time>2012-08-22T20:24:34Z</time>
      </trkpt>
      <trkpt lat="50.40155" lon="2.04751">
        <ele>138</ele>
        <time>2012-08-22T20:24:36Z</time>
      </trkpt>
      <trkpt lat="50.40155" lon="2.04764">
        <ele>138</ele>
        <time>2012-08-22T20:24:38Z</time>
      </trkpt>
      <trkpt lat="50.40155" lon="2.04781">
        <ele>137</ele>
        <time>2012-08-22T20:24:40Z</time>
      </trkpt>
      <trkpt lat="50.40155" lon="2.04796">
        <ele>137</ele>
        <time>2012-08-22T20:24:42Z</time>
      </trkpt>
      <trkpt lat="50.40155" lon="2.04812">
        <ele>137</ele>
        <time>2012-08-22T20:24:44Z</time>
      </trkpt>
      <trkpt lat="50.40156" lon="2.04825">
        <ele>137</ele>
        <time>2012-08-22T20:24:46Z</time>
      </trkpt>
      <trkpt lat="50.40156" lon="2.04837">
        <ele>135</ele>
        <time>2012-08-22T20:24:48Z</time>
      </trkpt>
      <trkpt lat="50.40157" lon="2.04852">
        <ele>131</ele>
        <time>2012-08-22T20:24:50Z</time>
      </trkpt>
      <trkpt lat="50.40157" lon="2.04866">
        <ele>131</ele>
        <time>2012-08-22T20:24:52Z</time>
      </trkpt>
      <trkpt lat="50.40159" lon="2.0488">
        <ele>131</ele>
        <time>2012-08-22T20:24:54Z</time>
      </trkpt>
      <trkpt lat="50.40159" lon="2.04908">
        <ele>128</ele>
        <time>2012-08-22T20:24:56Z</time>
      </trkpt>
      <trkpt lat="50.40163" lon="2.04919">
        <ele>128</ele>
        <time>2012-08-22T20:24:58Z</time>
      </trkpt>
      <trkpt lat="50.40165" lon="2.04932">
        <ele>128</ele>
        <time>2012-08-22T20:25:00Z</time>
      </trkpt>
      <trkpt lat="50.40165" lon="2.04949">
        <ele>125</ele>
        <time>2012-08-22T20:25:02Z</time>
      </trkpt>
      <trkpt lat="50.40166" lon="2.04963">
        <ele>123</ele>
        <time>2012-08-22T20:25:04Z</time>
      </trkpt>
      <trkpt lat="50.40168" lon="2.04977">
        <ele>119</ele>
        <time>2012-08-22T20:25:06Z</time>
      </trkpt>
      <trkpt lat="50.4017" lon="2.0499">
        <ele>119</ele>
        <time>2012-08-22T20:25:08Z</time>
      </trkpt>
      <trkpt lat="50.40168" lon="2.04996">
        <ele>120</ele>
        <time>2012-08-22T20:25:10Z</time>
      </trkpt>
      <trkpt lat="50.40167" lon="2.05007">
        <ele>118</ele>
        <time>2012-08-22T20:25:12Z</time>
      </trkpt>
      <trkpt lat="50.40166" lon="2.0501">
        <ele>117</ele>
        <time>2012-08-22T20:25:14Z</time>
      </trkpt>
      <trkpt lat="50.40162" lon="2.05016">
        <ele>117</ele>
        <time>2012-08-22T20:25:16Z</time>
      </trkpt>
      <trkpt lat="50.40157" lon="2.05017">
        <ele>118</ele>
        <time>2012-08-22T20:25:18Z</time>
      </trkpt>
      <trkpt lat="50.40153" lon="2.05019">
        <ele>119</ele>
        <time>2012-08-22T20:25:20Z</time>
      </trkpt>
      <trkpt lat="50.40144" lon="2.05021">
        <ele>117</ele>
        <time>2012-08-22T20:25:22Z</time>
      </trkpt>
      <trkpt lat="50.40131" lon="2.05022">
        <ele>116</ele>
        <time>2012-08-22T20:25:24Z</time>
      </trkpt>
      <trkpt lat="50.40121" lon="2.05022">
        <ele>126</ele>
        <time>2012-08-22T20:25:26Z</time>
      </trkpt>
      <trkpt lat="50.40109" lon="2.05023">
        <ele>129</ele>
        <time>2012-08-22T20:25:28Z</time>
      </trkpt>
      <trkpt lat="50.40084" lon="2.05027">
        <ele>125</ele>
        <time>2012-08-22T20:25:30Z</time>
      </trkpt>
      <trkpt lat="50.4007" lon="2.05025">
        <ele>125</ele>
        <time>2012-08-22T20:25:32Z</time>
      </trkpt>
      <trkpt lat="50.40057" lon="2.05029">
        <ele>124</ele>
        <time>2012-08-22T20:25:34Z</time>
      </trkpt>
      <trkpt lat="50.40043" lon="2.0503">
        <ele>124</ele>
        <time>2012-08-22T20:25:36Z</time>
      </trkpt>
      <trkpt lat="50.40031" lon="2.05032">
        <ele>123</ele>
        <time>2012-08-22T20:25:38Z</time>
      </trkpt>
      <trkpt lat="50.40024" lon="2.0503">
        <ele>128</ele>
        <time>2012-08-22T20:25:40Z</time>
      </trkpt>
      <trkpt lat="50.40011" lon="2.05036">
        <ele>127</ele>
        <time>2012-08-22T20:25:42Z</time>
      </trkpt>
      <trkpt lat="50.40007" lon="2.05039">
        <ele>128</ele>
        <time>2012-08-22T20:25:44Z</time>
      </trkpt>
      <trkpt lat="50.39999" lon="2.05039">
        <ele>127</ele>
        <time>2012-08-22T20:25:46Z</time>
      </trkpt>
      <trkpt lat="50.39991" lon="2.05039">
        <ele>126</ele>
        <time>2012-08-22T20:25:48Z</time>
      </trkpt>
      <trkpt lat="50.39987" lon="2.0504">
        <ele>126</ele>
        <time>2012-08-22T20:25:50Z</time>
      </trkpt>
      <trkpt lat="50.39982" lon="2.0504">
        <ele>127</ele>
        <time>2012-08-22T20:25:52Z</time>
      </trkpt>
      <trkpt lat="50.39974" lon="2.05039">
        <ele>128</ele>
        <time>2012-08-22T20:25:54Z</time>
      </trkpt>
      <trkpt lat="50.39967" lon="2.05038">
        <ele>130</ele>
        <time>2012-08-22T20:25:56Z</time>
      </trkpt>
      <trkpt lat="50.39957" lon="2.05039">
        <ele>131</ele>
        <time>2012-08-22T20:25:58Z</time>
      </trkpt>
      <trkpt lat="50.39947" lon="2.05039">
        <ele>136</ele>
        <time>2012-08-22T20:26:00Z</time>
      </trkpt>
      <trkpt lat="50.39939" lon="2.05039">
        <ele>137</ele>
        <time>2012-08-22T20:26:02Z</time>
      </trkpt>
      <trkpt lat="50.39932" lon="2.05037">
        <ele>136</ele>
        <time>2012-08-22T20:26:04Z</time>
      </trkpt>
      <trkpt lat="50.39925" lon="2.05038">
        <ele>137</ele>
        <time>2012-08-22T20:26:06Z</time>
      </trkpt>
      <trkpt lat="50.39919" lon="2.05039">
        <ele>141</ele>
        <time>2012-08-22T20:26:08Z</time>
      </trkpt>
      <trkpt lat="50.39914" lon="2.0504">
        <ele>142</ele>
        <time>2012-08-22T20:26:10Z</time>
      </trkpt>
      <trkpt lat="50.39905" lon="2.05044">
        <ele>140</ele>
        <time>2012-08-22T20:26:12Z</time>
      </trkpt>
      <trkpt lat="50.39895" lon="2.05048">
        <ele>140</ele>
        <time>2012-08-22T20:26:14Z</time>
      </trkpt>
      <trkpt lat="50.39886" lon="2.05052">
        <ele>138</ele>
        <time>2012-08-22T20:26:16Z</time>
      </trkpt>
      <trkpt lat="50.39876" lon="2.05057">
        <ele>133</ele>
        <time>2012-08-22T20:26:18Z</time>
      </trkpt>
      <trkpt lat="50.39867" lon="2.05059">
        <ele>132</ele>
        <time>2012-08-22T20:26:20Z</time>
      </trkpt>
      <trkpt lat="50.39858" lon="2.05061">
        <ele>131</ele>
        <time>2012-08-22T20:26:22Z</time>
      </trkpt>
      <trkpt lat="50.39849" lon="2.05063">
        <ele>129</ele>
        <time>2012-08-22T20:26:24Z</time>
      </trkpt>
      <trkpt lat="50.39839" lon="2.05067">
        <ele>131</ele>
        <time>2012-08-22T20:26:26Z</time>
      </trkpt>
      <trkpt lat="50.39832" lon="2.0507">
        <ele>131</ele>
        <time>2012-08-22T20:26:28Z</time>
      </trkpt>
      <trkpt lat="50.39826" lon="2.05071">
        <ele>130</ele>
        <time>2012-08-22T20:26:30Z</time>
      </trkpt>
      <trkpt lat="50.3982" lon="2.05071">
        <ele>132</ele>
        <time>2012-08-22T20:26:32Z</time>
      </trkpt>
      <trkpt lat="50.39809" lon="2.0507">
        <ele>131</ele>
        <time>2012-08-22T20:26:34Z</time>
      </trkpt>
      <trkpt lat="50.39799" lon="2.05069">
        <ele>130</ele>
        <time>2012-08-22T20:26:36Z</time>
      </trkpt>
      <trkpt lat="50.3979" lon="2.05071">
        <ele>130</ele>
        <time>2012-08-22T20:26:38Z</time>
      </trkpt>
      <trkpt lat="50.39782" lon="2.05079">
        <ele>131</ele>
        <time>2012-08-22T20:26:40Z</time>
      </trkpt>
      <trkpt lat="50.39778" lon="2.05086">
        <ele>132</ele>
        <time>2012-08-22T20:26:42Z</time>
      </trkpt>
      <trkpt lat="50.39774" lon="2.05095">
        <ele>134</ele>
        <time>2012-08-22T20:26:44Z</time>
      </trkpt>
      <trkpt lat="50.3977" lon="2.05105">
        <ele>133</ele>
        <time>2012-08-22T20:26:46Z</time>
      </trkpt>
      <trkpt lat="50.39768" lon="2.05113">
        <ele>132</ele>
        <time>2012-08-22T20:26:48Z</time>
      </trkpt>
      <trkpt lat="50.39768" lon="2.05121">
        <ele>129</ele>
        <time>2012-08-22T20:26:50Z</time>
      </trkpt>
      <trkpt lat="50.3977" lon="2.05126">
        <ele>128</ele>
        <time>2012-08-22T20:26:52Z</time>
      </trkpt>
      <trkpt lat="50.39772" lon="2.05129">
        <ele>126</ele>
        <time>2012-08-22T20:26:54Z</time>
      </trkpt>
      <trkpt lat="50.39774" lon="2.05132">
        <ele>123</ele>
        <time>2012-08-22T20:26:56Z</time>
      </trkpt>
      <trkpt lat="50.39771" lon="2.05133">
        <ele>126</ele>
        <time>2012-08-22T20:26:58Z</time>
      </trkpt>
      <trkpt lat="50.39764" lon="2.05133">
        <ele>126</ele>
        <time>2012-08-22T20:27:00Z</time>
      </trkpt>
      <trkpt lat="50.39759" lon="2.05134">
        <ele>124</ele>
        <time>2012-08-22T20:27:02Z</time>
      </trkpt>
      <trkpt lat="50.39758" lon="2.05136">
        <ele>123</ele>
        <time>2012-08-22T20:27:04Z</time>
      </trkpt>
      <trkpt lat="50.39757" lon="2.05141">
        <ele>123</ele>
        <time>2012-08-22T20:27:06Z</time>
      </trkpt>
      <trkpt lat="50.39756" lon="2.05144">
        <ele>123</ele>
        <time>2012-08-22T20:27:08Z</time>
      </trkpt>
      <trkpt lat="50.39755" lon="2.05148">
        <ele>122</ele>
        <time>2012-08-22T20:27:10Z</time>
      </trkpt>
      <trkpt lat="50.39755" lon="2.0515">
        <ele>123</ele>
        <time>2012-08-22T20:27:12Z</time>
      </trkpt>
      <trkpt lat="50.39753" lon="2.05152">
        <ele>122</ele>
        <time>2012-08-22T20:27:14Z</time>
      </trkpt>
      <trkpt lat="50.39748" lon="2.05154">
        <ele>121</ele>
        <time>2012-08-22T20:27:16Z</time>
      </trkpt>
      <trkpt lat="50.39742" lon="2.05154">
        <ele>120</ele>
        <time>2012-08-22T20:27:18Z</time>
      </trkpt>
      <trkpt lat="50.39731" lon="2.05152">
        <ele>121</ele>
        <time>2012-08-22T20:27:20Z</time>
      </trkpt>
      <trkpt lat="50.39724" lon="2.05152">
        <ele>119</ele>
        <time>2012-08-22T20:27:22Z</time>
      </trkpt>
      <trkpt lat="50.39715" lon="2.05153">
        <ele>119</ele>
        <time>2012-08-22T20:27:24Z</time>
      </trkpt>
      <trkpt lat="50.39712" lon="2.05153">
        <ele>121</ele>
        <time>2012-08-22T20:27:26Z</time>
      </trkpt>
      <trkpt lat="50.39711" lon="2.05152">
        <ele>121</ele>
        <time>2012-08-22T20:27:28Z</time>
      </trkpt>
      <trkpt lat="50.3971" lon="2.05151">
        <ele>120</ele>
        <time>2012-08-22T20:27:30Z</time>
      </trkpt>
      <trkpt lat="50.39705" lon="2.05149">
        <ele>119</ele>
        <time>2012-08-22T20:27:32Z</time>
      </trkpt>
      <trkpt lat="50.39702" lon="2.05149">
        <ele>118</ele>
        <time>2012-08-22T20:27:34Z</time>
      </trkpt>
      <trkpt lat="50.39699" lon="2.0515">
        <ele>119</ele>
        <time>2012-08-22T20:27:36Z</time>
      </trkpt>
      <trkpt lat="50.39697" lon="2.05151">
        <ele>116</ele>
        <time>2012-08-22T20:27:38Z</time>
      </trkpt>
      <trkpt lat="50.39695" lon="2.05151">
        <ele>115</ele>
        <time>2012-08-22T20:27:40Z</time>
      </trkpt>
      <trkpt lat="50.39688" lon="2.05151">
        <ele>112</ele>
        <time>2012-08-22T20:27:42Z</time>
      </trkpt>
      <trkpt lat="50.39684" lon="2.05151">
        <ele>111</ele>
        <time>2012-08-22T20:27:44Z</time>
      </trkpt>
      <trkpt lat="50.39679" lon="2.05155">
        <ele>110</ele>
        <time>2012-08-22T20:27:46Z</time>
      </trkpt>
      <trkpt lat="50.39675" lon="2.05156">
        <ele>107</ele>
        <time>2012-08-22T20:27:48Z</time>
      </trkpt>
      <trkpt lat="50.39672" lon="2.05155">
        <ele>107</ele>
        <time>2012-08-22T20:27:50Z</time>
      </trkpt>
      <trkpt lat="50.39669" lon="2.05154">
        <ele>107</ele>
        <time>2012-08-22T20:27:52Z</time>
      </trkpt>
      <trkpt lat="50.39664" lon="2.05159">
        <ele>105</ele>
        <time>2012-08-22T20:27:54Z</time>
      </trkpt>
      <trkpt lat="50.39658" lon="2.05161">
        <ele>106</ele>
        <time>2012-08-22T20:27:56Z</time>
      </trkpt>
      <trkpt lat="50.39651" lon="2.05161">
        <ele>106</ele>
        <time>2012-08-22T20:27:58Z</time>
      </trkpt>
      <trkpt lat="50.39647" lon="2.0516">
        <ele>105</ele>
        <time>2012-08-22T20:28:00Z</time>
      </trkpt>
      <trkpt lat="50.39642" lon="2.0516">
        <ele>106</ele>
        <time>2012-08-22T20:28:02Z</time>
      </trkpt>
      <trkpt lat="50.39638" lon="2.05161">
        <ele>111</ele>
        <time>2012-08-22T20:28:04Z</time>
      </trkpt>
      <trkpt lat="50.39637" lon="2.05158">
        <ele>112</ele>
        <time>2012-08-22T20:28:06Z</time>
      </trkpt>
      <trkpt lat="50.39636" lon="2.05157">
        <ele>112</ele>
        <time>2012-08-22T20:28:08Z</time>
      </trkpt>
      <trkpt lat="50.39632" lon="2.05157">
        <ele>113</ele>
        <time>2012-08-22T20:28:10Z</time>
      </trkpt>
      <trkpt lat="50.39626" lon="2.05158">
        <ele>113</ele>
        <time>2012-08-22T20:28:12Z</time>
      </trkpt>
      <trkpt lat="50.39619" lon="2.05159">
        <ele>113</ele>
        <time>2012-08-22T20:28:14Z</time>
      </trkpt>
      <trkpt lat="50.39612" lon="2.05158">
        <ele>114</ele>
        <time>2012-08-22T20:28:16Z</time>
      </trkpt>
      <trkpt lat="50.39605" lon="2.05158">
        <ele>114</ele>
        <time>2012-08-22T20:28:18Z</time>
      </trkpt>
      <trkpt lat="50.39596" lon="2.05159">
        <ele>112</ele>
        <time>2012-08-22T20:28:20Z</time>
      </trkpt>
      <trkpt lat="50.3959" lon="2.05158">
        <ele>113</ele>
        <time>2012-08-22T20:28:22Z</time>
      </trkpt>
      <trkpt lat="50.39581" lon="2.05159">
        <ele>112</ele>
        <time>2012-08-22T20:28:24Z</time>
      </trkpt>
      <trkpt lat="50.39573" lon="2.05159">
        <ele>110</ele>
        <time>2012-08-22T20:28:26Z</time>
      </trkpt>
      <trkpt lat="50.39565" lon="2.05161">
        <ele>109</ele>
        <time>2012-08-22T20:28:28Z</time>
      </trkpt>
      <trkpt lat="50.39556" lon="2.05162">
        <ele>110</ele>
        <time>2012-08-22T20:28:30Z</time>
      </trkpt>
      <trkpt lat="50.3955" lon="2.05162">
        <ele>108</ele>
        <time>2012-08-22T20:28:32Z</time>
      </trkpt>
      <trkpt lat="50.39545" lon="2.05162">
        <ele>106</ele>
        <time>2012-08-22T20:28:34Z</time>
      </trkpt>
      <trkpt lat="50.39541" lon="2.05166">
        <ele>105</ele>
        <time>2012-08-22T20:28:36Z</time>
      </trkpt>
      <trkpt lat="50.39536" lon="2.05172">
        <ele>104</ele>
        <time>2012-08-22T20:28:38Z</time>
      </trkpt>
      <trkpt lat="50.39532" lon="2.05182">
        <ele>103</ele>
        <time>2012-08-22T20:28:40Z</time>
      </trkpt>
      <trkpt lat="50.39528" lon="2.05196">
        <ele>100</ele>
        <time>2012-08-22T20:28:42Z</time>
      </trkpt>
      <trkpt lat="50.39527" lon="2.05208">
        <ele>99</ele>
        <time>2012-08-22T20:28:44Z</time>
      </trkpt>
      <trkpt lat="50.39523" lon="2.05223">
        <ele>100</ele>
        <time>2012-08-22T20:28:46Z</time>
      </trkpt>
      <trkpt lat="50.39521" lon="2.05234">
        <ele>98</ele>
        <time>2012-08-22T20:28:48Z</time>
      </trkpt>
      <trkpt lat="50.39518" lon="2.05242">
        <ele>98</ele>
        <time>2012-08-22T20:28:50Z</time>
      </trkpt>
      <trkpt lat="50.39516" lon="2.05247">
        <ele>99</ele>
        <time>2012-08-22T20:28:52Z</time>
      </trkpt>
      <trkpt lat="50.39515" lon="2.05252">
        <ele>98</ele>
        <time>2012-08-22T20:28:54Z</time>
      </trkpt>
      <trkpt lat="50.39514" lon="2.05257">
        <ele>99</ele>
        <time>2012-08-22T20:28:56Z</time>
      </trkpt>
      <trkpt lat="50.39513" lon="2.0527">
        <ele>99</ele>
        <time>2012-08-22T20:28:58Z</time>
      </trkpt>
      <trkpt lat="50.39506" lon="2.0531">
        <ele>99</ele>
        <time>2012-08-22T20:29:00Z</time>
      </trkpt>
      <trkpt lat="50.39507" lon="2.05333">
        <ele>101</ele>
        <time>2012-08-22T20:29:02Z</time>
      </trkpt>
      <trkpt lat="50.39507" lon="2.05349">
        <ele>102</ele>
        <time>2012-08-22T20:29:04Z</time>
      </trkpt>
      <trkpt lat="50.39508" lon="2.05363">
        <ele>102</ele>
        <time>2012-08-22T20:29:06Z</time>
      </trkpt>
      <trkpt lat="50.39508" lon="2.05375">
        <ele>104</ele>
        <time>2012-08-22T20:29:08Z</time>
      </trkpt>
      <trkpt lat="50.39511" lon="2.05383">
        <ele>104</ele>
        <time>2012-08-22T20:29:10Z</time>
      </trkpt>
      <trkpt lat="50.39513" lon="2.05395">
        <ele>104</ele>
        <time>2012-08-22T20:29:12Z</time>
      </trkpt>
      <trkpt lat="50.39518" lon="2.05409">
        <ele>104</ele>
        <time>2012-08-22T20:29:14Z</time>
      </trkpt>
      <trkpt lat="50.39518" lon="2.05417">
        <ele>104</ele>
        <time>2012-08-22T20:29:16Z</time>
      </trkpt>
      <trkpt lat="50.3952" lon="2.05428">
        <ele>105</ele>
        <time>2012-08-22T20:29:18Z</time>
      </trkpt>
      <trkpt lat="50.39525" lon="2.05439">
        <ele>105</ele>
        <time>2012-08-22T20:29:20Z</time>
      </trkpt>
      <trkpt lat="50.39528" lon="2.05448">
        <ele>103</ele>
        <time>2012-08-22T20:29:22Z</time>
      </trkpt>
      <trkpt lat="50.39534" lon="2.05456">
        <ele>103</ele>
        <time>2012-08-22T20:29:24Z</time>
      </trkpt>
      <trkpt lat="50.39544" lon="2.05462">
        <ele>101</ele>
        <time>2012-08-22T20:29:26Z</time>
      </trkpt>
      <trkpt lat="50.39554" lon="2.05468">
        <ele>97</ele>
        <time>2012-08-22T20:29:28Z</time>
      </trkpt>
      <trkpt lat="50.3956" lon="2.05471">
        <ele>96</ele>
        <time>2012-08-22T20:29:30Z</time>
      </trkpt>
      <trkpt lat="50.39565" lon="2.05477">
        <ele>96</ele>
        <time>2012-08-22T20:29:32Z</time>
      </trkpt>
      <trkpt lat="50.39567" lon="2.05491">
        <ele>92</ele>
        <time>2012-08-22T20:29:34Z</time>
      </trkpt>
      <trkpt lat="50.3957" lon="2.05511">
        <ele>89</ele>
        <time>2012-08-22T20:29:36Z</time>
      </trkpt>
      <trkpt lat="50.39573" lon="2.05532">
        <ele>87</ele>
        <time>2012-08-22T20:29:38Z</time>
      </trkpt>
      <trkpt lat="50.39581" lon="2.05579">
        <ele>86</ele>
        <time>2012-08-22T20:29:40Z</time>
      </trkpt>
      <trkpt lat="50.39579" lon="2.05598">
        <ele>86</ele>
        <time>2012-08-22T20:29:42Z</time>
      </trkpt>
      <trkpt lat="50.39576" lon="2.05621">
        <ele>86</ele>
        <time>2012-08-22T20:29:44Z</time>
      </trkpt>
      <trkpt lat="50.39571" lon="2.05649">
        <ele>82</ele>
        <time>2012-08-22T20:29:46Z</time>
      </trkpt>
      <trkpt lat="50.39565" lon="2.05671">
        <ele>82</ele>
        <time>2012-08-22T20:29:48Z</time>
      </trkpt>
      <trkpt lat="50.3956" lon="2.05695">
        <ele>86</ele>
        <time>2012-08-22T20:29:50Z</time>
      </trkpt>
      <trkpt lat="50.39559" lon="2.05723">
        <ele>82</ele>
        <time>2012-08-22T20:29:52Z</time>
      </trkpt>
      <trkpt lat="50.3956" lon="2.05741">
        <ele>82</ele>
        <time>2012-08-22T20:29:54Z</time>
      </trkpt>
      <trkpt lat="50.39559" lon="2.05761">
        <ele>81</ele>
        <time>2012-08-22T20:29:56Z</time>
      </trkpt>
      <trkpt lat="50.39557" lon="2.05783">
        <ele>81</ele>
        <time>2012-08-22T20:29:58Z</time>
      </trkpt>
      <trkpt lat="50.39553" lon="2.05809">
        <ele>81</ele>
        <time>2012-08-22T20:30:00Z</time>
      </trkpt>
      <trkpt lat="50.3955" lon="2.05829">
        <ele>81</ele>
        <time>2012-08-22T20:30:02Z</time>
      </trkpt>
      <trkpt lat="50.39551" lon="2.05852">
        <ele>78</ele>
        <time>2012-08-22T20:30:04Z</time>
      </trkpt>
      <trkpt lat="50.39547" lon="2.05875">
        <ele>77</ele>
        <time>2012-08-22T20:30:06Z</time>
      </trkpt>
      <trkpt lat="50.39537" lon="2.05898">
        <ele>76</ele>
        <time>2012-08-22T20:30:08Z</time>
      </trkpt>
      <trkpt lat="50.39536" lon="2.05917">
        <ele>76</ele>
        <time>2012-08-22T20:30:10Z</time>
      </trkpt>
      <trkpt lat="50.39535" lon="2.05946">
        <ele>78</ele>
        <time>2012-08-22T20:30:12Z</time>
      </trkpt>
      <trkpt lat="50.39534" lon="2.05975">
        <ele>76</ele>
        <time>2012-08-22T20:30:14Z</time>
      </trkpt>
      <trkpt lat="50.39532" lon="2.05991">
        <ele>75</ele>
        <time>2012-08-22T20:30:16Z</time>
      </trkpt>
      <trkpt lat="50.39525" lon="2.06011">
        <ele>76</ele>
        <time>2012-08-22T20:30:18Z</time>
      </trkpt>
      <trkpt lat="50.39511" lon="2.06037">
        <ele>75</ele>
        <time>2012-08-22T20:30:20Z</time>
      </trkpt>
      <trkpt lat="50.39499" lon="2.0607">
        <ele>73</ele>
        <time>2012-08-22T20:30:22Z</time>
      </trkpt>
      <trkpt lat="50.39488" lon="2.06093">
        <ele>68</ele>
        <time>2012-08-22T20:30:24Z</time>
      </trkpt>
      <trkpt lat="50.39479" lon="2.06121">
        <ele>61</ele>
        <time>2012-08-22T20:30:26Z</time>
      </trkpt>
      <trkpt lat="50.39472" lon="2.06133">
        <ele>59</ele>
        <time>2012-08-22T20:30:28Z</time>
      </trkpt>
      <trkpt lat="50.39467" lon="2.06149">
        <ele>58</ele>
        <time>2012-08-22T20:30:30Z</time>
      </trkpt>
      <trkpt lat="50.39462" lon="2.0616">
        <ele>57</ele>
        <time>2012-08-22T20:30:32Z</time>
      </trkpt>
      <trkpt lat="50.39462" lon="2.06168">
        <ele>57</ele>
        <time>2012-08-22T20:30:34Z</time>
      </trkpt>
      <trkpt lat="50.39459" lon="2.06171">
        <ele>54</ele>
        <time>2012-08-22T20:30:36Z</time>
      </trkpt>
      <trkpt lat="50.39456" lon="2.06171">
        <ele>52</ele>
        <time>2012-08-22T20:30:38Z</time>
      </trkpt>
      <trkpt lat="50.39454" lon="2.06173">
        <ele>52</ele>
        <time>2012-08-22T20:30:40Z</time>
      </trkpt>
      <trkpt lat="50.39454" lon="2.06174">
        <ele>52</ele>
        <time>2012-08-22T20:30:42Z</time>
      </trkpt>
      <trkpt lat="50.39453" lon="2.06175">
        <ele>59</ele>
        <time>2012-08-22T20:30:44Z</time>
      </trkpt>
      <trkpt lat="50.39453" lon="2.0618">
        <ele>55</ele>
        <time>2012-08-22T20:30:46Z</time>
      </trkpt>
      <trkpt lat="50.39452" lon="2.0618">
        <ele>52</ele>
        <time>2012-08-22T20:30:48Z</time>
      </trkpt>
      <trkpt lat="50.39452" lon="2.06181">
        <ele>52</ele>
        <time>2012-08-22T20:30:50Z</time>
      </trkpt>
      <trkpt lat="50.39453" lon="2.06183">
        <ele>51</ele>
        <time>2012-08-22T20:30:52Z</time>
      </trkpt>
      <trkpt lat="50.39453" lon="2.06185">
        <ele>52</ele>
        <time>2012-08-22T20:30:54Z</time>
      </trkpt>
      <trkpt lat="50.39454" lon="2.06185">
        <ele>51</ele>
        <time>2012-08-22T20:30:56Z</time>
      </trkpt>
      <trkpt lat="50.39454" lon="2.06183">
        <ele>51</ele>
        <time>2012-08-22T20:30:58Z</time>
      </trkpt>
      <trkpt lat="50.39454" lon="2.06182">
        <ele>51</ele>
        <time>2012-08-22T20:31:00Z</time>
      </trkpt>
      <trkpt lat="50.39451" lon="2.06186">
        <ele>48</ele>
        <time>2012-08-22T20:31:20Z</time>
      </trkpt>
      <trkpt lat="50.39447" lon="2.06187">
        <ele>45</ele>
        <time>2012-08-22T20:31:22Z</time>
      </trkpt>
      <trkpt lat="50.39442" lon="2.06189">
        <ele>46</ele>
        <time>2012-08-22T20:31:24Z</time>
      </trkpt>
      <trkpt lat="50.39438" lon="2.0619">
        <ele>49</ele>
        <time>2012-08-22T20:31:26Z</time>
      </trkpt>
      <trkpt lat="50.39433" lon="2.06188">
        <ele>53</ele>
        <time>2012-08-22T20:31:28Z</time>
      </trkpt>
      <trkpt lat="50.39427" lon="2.06191">
        <ele>57</ele>
        <time>2012-08-22T20:31:30Z</time>
      </trkpt>
      <trkpt lat="50.3942" lon="2.06197">
        <ele>56</ele>
        <time>2012-08-22T20:31:32Z</time>
      </trkpt>
      <trkpt lat="50.39413" lon="2.06205">
        <ele>55</ele>
        <time>2012-08-22T20:31:34Z</time>
      </trkpt>
      <trkpt lat="50.39402" lon="2.06218">
        <ele>54</ele>
        <time>2012-08-22T20:31:36Z</time>
      </trkpt>
      <trkpt lat="50.39393" lon="2.06226">
        <ele>51</ele>
        <time>2012-08-22T20:31:38Z</time>
      </trkpt>
      <trkpt lat="50.39385" lon="2.06234">
        <ele>51</ele>
        <time>2012-08-22T20:31:40Z</time>
      </trkpt>
      <trkpt lat="50.39376" lon="2.06241">
        <ele>50</ele>
        <time>2012-08-22T20:31:42Z</time>
      </trkpt>
      <trkpt lat="50.39367" lon="2.06247">
        <ele>49</ele>
        <time>2012-08-22T20:31:44Z</time>
      </trkpt>
      <trkpt lat="50.39359" lon="2.06254">
        <ele>49</ele>
        <time>2012-08-22T20:31:46Z</time>
      </trkpt>
      <trkpt lat="50.39351" lon="2.06259">
        <ele>48</ele>
        <time>2012-08-22T20:31:48Z</time>
      </trkpt>
      <trkpt lat="50.39343" lon="2.06265">
        <ele>48</ele>
        <time>2012-08-22T20:31:50Z</time>
      </trkpt>
      <trkpt lat="50.39336" lon="2.0627">
        <ele>47</ele>
        <time>2012-08-22T20:31:52Z</time>
      </trkpt>
      <trkpt lat="50.39327" lon="2.06277">
        <ele>46</ele>
        <time>2012-08-22T20:31:54Z</time>
      </trkpt>
      <trkpt lat="50.39318" lon="2.06283">
        <ele>46</ele>
        <time>2012-08-22T20:31:56Z</time>
      </trkpt>
      <trkpt lat="50.39308" lon="2.06294">
        <ele>45</ele>
        <time>2012-08-22T20:31:58Z</time>
      </trkpt>
      <trkpt lat="50.39295" lon="2.06303">
        <ele>44</ele>
        <time>2012-08-22T20:32:00Z</time>
      </trkpt>
      <trkpt lat="50.39283" lon="2.06314">
        <ele>43</ele>
        <time>2012-08-22T20:32:02Z</time>
      </trkpt>
      <trkpt lat="50.39271" lon="2.06325">
        <ele>43</ele>
        <time>2012-08-22T20:32:04Z</time>
      </trkpt>
      <trkpt lat="50.39257" lon="2.06338">
        <ele>42</ele>
        <time>2012-08-22T20:32:06Z</time>
      </trkpt>
      <trkpt lat="50.39243" lon="2.0635">
        <ele>40</ele>
        <time>2012-08-22T20:32:08Z</time>
      </trkpt>
      <trkpt lat="50.39228" lon="2.06364">
        <ele>38</ele>
        <time>2012-08-22T20:32:10Z</time>
      </trkpt>
      <trkpt lat="50.39212" lon="2.06378">
        <ele>36</ele>
        <time>2012-08-22T20:32:12Z</time>
      </trkpt>
      <trkpt lat="50.39196" lon="2.06391">
        <ele>34</ele>
        <time>2012-08-22T20:32:14Z</time>
      </trkpt>
      <trkpt lat="50.39179" lon="2.06401">
        <ele>33</ele>
        <time>2012-08-22T20:32:16Z</time>
      </trkpt>
      <trkpt lat="50.39162" lon="2.06411">
        <ele>33</ele>
        <time>2012-08-22T20:32:18Z</time>
      </trkpt>
      <trkpt lat="50.39146" lon="2.06424">
        <ele>33</ele>
        <time>2012-08-22T20:32:20Z</time>
      </trkpt>
      <trkpt lat="50.39129" lon="2.06436">
        <ele>32</ele>
        <time>2012-08-22T20:32:22Z</time>
      </trkpt>
      <trkpt lat="50.39113" lon="2.06446">
        <ele>32</ele>
        <time>2012-08-22T20:32:24Z</time>
      </trkpt>
      <trkpt lat="50.391" lon="2.06456">
        <ele>32</ele>
        <time>2012-08-22T20:32:26Z</time>
      </trkpt>
      <trkpt lat="50.39082" lon="2.06463">
        <ele>30</ele>
        <time>2012-08-22T20:32:28Z</time>
      </trkpt>
      <trkpt lat="50.39067" lon="2.06472">
        <ele>30</ele>
        <time>2012-08-22T20:32:30Z</time>
      </trkpt>
      <trkpt lat="50.39051" lon="2.0648">
        <ele>29</ele>
        <time>2012-08-22T20:32:32Z</time>
      </trkpt>
      <trkpt lat="50.39034" lon="2.06482">
        <ele>29</ele>
        <time>2012-08-22T20:32:34Z</time>
      </trkpt>
      <trkpt lat="50.39018" lon="2.06482">
        <ele>29</ele>
        <time>2012-08-22T20:32:36Z</time>
      </trkpt>
      <trkpt lat="50.39005" lon="2.06486">
        <ele>27</ele>
        <time>2012-08-22T20:32:38Z</time>
      </trkpt>
      <trkpt lat="50.38991" lon="2.06486">
        <ele>26</ele>
        <time>2012-08-22T20:32:40Z</time>
      </trkpt>
      <trkpt lat="50.38976" lon="2.06489">
        <ele>26</ele>
        <time>2012-08-22T20:32:42Z</time>
      </trkpt>
      <trkpt lat="50.38963" lon="2.06489">
        <ele>25</ele>
        <time>2012-08-22T20:32:44Z</time>
      </trkpt>
      <trkpt lat="50.38947" lon="2.06487">
        <ele>25</ele>
        <time>2012-08-22T20:32:46Z</time>
      </trkpt>
      <trkpt lat="50.38934" lon="2.06488">
        <ele>25</ele>
        <time>2012-08-22T20:32:48Z</time>
      </trkpt>
      <trkpt lat="50.38923" lon="2.06489">
        <ele>25</ele>
        <time>2012-08-22T20:32:50Z</time>
      </trkpt>
      <trkpt lat="50.38911" lon="2.06493">
        <ele>25</ele>
        <time>2012-08-22T20:32:52Z</time>
      </trkpt>
      <trkpt lat="50.38902" lon="2.06489">
        <ele>23</ele>
        <time>2012-08-22T20:32:54Z</time>
      </trkpt>
      <trkpt lat="50.3889" lon="2.06485">
        <ele>23</ele>
        <time>2012-08-22T20:32:56Z</time>
      </trkpt>
      <trkpt lat="50.38883" lon="2.06477">
        <ele>23</ele>
        <time>2012-08-22T20:32:58Z</time>
      </trkpt>
      <trkpt lat="50.38875" lon="2.06466">
        <ele>25</ele>
        <time>2012-08-22T20:33:00Z</time>
      </trkpt>
      <trkpt lat="50.38867" lon="2.06454">
        <ele>25</ele>
        <time>2012-08-22T20:33:02Z</time>
      </trkpt>
      <trkpt lat="50.38865" lon="2.06441">
        <ele>25</ele>
        <time>2012-08-22T20:33:04Z</time>
      </trkpt>
      <trkpt lat="50.38866" lon="2.06425">
        <ele>26</ele>
        <time>2012-08-22T20:33:06Z</time>
      </trkpt>
      <trkpt lat="50.38869" lon="2.06409">
        <ele>27</ele>
        <time>2012-08-22T20:33:08Z</time>
      </trkpt>
      <trkpt lat="50.38872" lon="2.06394">
        <ele>27</ele>
        <time>2012-08-22T20:33:10Z</time>
      </trkpt>
      <trkpt lat="50.38877" lon="2.06381">
        <ele>26</ele>
        <time>2012-08-22T20:33:12Z</time>
      </trkpt>
      <trkpt lat="50.38883" lon="2.06369">
        <ele>25</ele>
        <time>2012-08-22T20:33:14Z</time>
      </trkpt>
      <trkpt lat="50.38889" lon="2.06359">
        <ele>25</ele>
        <time>2012-08-22T20:33:16Z</time>
      </trkpt>
      <trkpt lat="50.38895" lon="2.06349">
        <ele>26</ele>
        <time>2012-08-22T20:33:18Z</time>
      </trkpt>
      <trkpt lat="50.38902" lon="2.0634">
        <ele>27</ele>
        <time>2012-08-22T20:33:20Z</time>
      </trkpt>
      <trkpt lat="50.38908" lon="2.0633">
        <ele>27</ele>
        <time>2012-08-22T20:33:22Z</time>
      </trkpt>
      <trkpt lat="50.38903" lon="2.06319">
        <ele>29</ele>
        <time>2012-08-22T20:33:24Z</time>
      </trkpt>
      <trkpt lat="50.38899" lon="2.06307">
        <ele>28</ele>
        <time>2012-08-22T20:33:26Z</time>
      </trkpt>
      <trkpt lat="50.38895" lon="2.06296">
        <ele>27</ele>
        <time>2012-08-22T20:33:28Z</time>
      </trkpt>
      <trkpt lat="50.38889" lon="2.06282">
        <ele>27</ele>
        <time>2012-08-22T20:33:30Z</time>
      </trkpt>
      <trkpt lat="50.38883" lon="2.06271">
        <ele>27</ele>
        <time>2012-08-22T20:33:32Z</time>
      </trkpt>
      <trkpt lat="50.38877" lon="2.06257">
        <ele>27</ele>
        <time>2012-08-22T20:33:34Z</time>
      </trkpt>
      <trkpt lat="50.3887" lon="2.0625">
        <ele>27</ele>
        <time>2012-08-22T20:33:36Z</time>
      </trkpt>
      <trkpt lat="50.38867" lon="2.06235">
        <ele>28</ele>
        <time>2012-08-22T20:33:38Z</time>
      </trkpt>
      <trkpt lat="50.38857" lon="2.06218">
        <ele>28</ele>
        <time>2012-08-22T20:33:40Z</time>
      </trkpt>
      <trkpt lat="50.38852" lon="2.06205">
        <ele>28</ele>
        <time>2012-08-22T20:33:42Z</time>
      </trkpt>
      <trkpt lat="50.38847" lon="2.06189">
        <ele>27</ele>
        <time>2012-08-22T20:33:44Z</time>
      </trkpt>
      <trkpt lat="50.38846" lon="2.06178">
        <ele>27</ele>
        <time>2012-08-22T20:33:46Z</time>
      </trkpt>
      <trkpt lat="50.38841" lon="2.06163">
        <ele>26</ele>
        <time>2012-08-22T20:33:48Z</time>
      </trkpt>
      <trkpt lat="50.38836" lon="2.06149">
        <ele>26</ele>
        <time>2012-08-22T20:33:50Z</time>
      </trkpt>
      <trkpt lat="50.38833" lon="2.06129">
        <ele>26</ele>
        <time>2012-08-22T20:33:52Z</time>
      </trkpt>
      <trkpt lat="50.38824" lon="2.06126">
        <ele>32</ele>
        <time>2012-08-22T20:33:54Z</time>
      </trkpt>
      <trkpt lat="50.38818" lon="2.06109">
        <ele>31</ele>
        <time>2012-08-22T20:33:56Z</time>
      </trkpt>
      <trkpt lat="50.38812" lon="2.06097">
        <ele>31</ele>
        <time>2012-08-22T20:33:58Z</time>
      </trkpt>
      <trkpt lat="50.38805" lon="2.06083">
        <ele>30</ele>
        <time>2012-08-22T20:34:00Z</time>
      </trkpt>
      <trkpt lat="50.388" lon="2.06072">
        <ele>31</ele>
        <time>2012-08-22T20:34:02Z</time>
      </trkpt>
      <trkpt lat="50.38794" lon="2.06059">
        <ele>32</ele>
        <time>2012-08-22T20:34:04Z</time>
      </trkpt>
      <trkpt lat="50.38787" lon="2.06047">
        <ele>31</ele>
        <time>2012-08-22T20:34:06Z</time>
      </trkpt>
      <trkpt lat="50.38782" lon="2.06035">
        <ele>31</ele>
        <time>2012-08-22T20:34:08Z</time>
      </trkpt>
      <trkpt lat="50.38776" lon="2.06022">
        <ele>30</ele>
        <time>2012-08-22T20:34:10Z</time>
      </trkpt>
      <trkpt lat="50.38768" lon="2.0601">
        <ele>31</ele>
        <time>2012-08-22T20:34:12Z</time>
      </trkpt>
      <trkpt lat="50.38759" lon="2.06">
        <ele>31</ele>
        <time>2012-08-22T20:34:14Z</time>
      </trkpt>
      <trkpt lat="50.38754" lon="2.05982">
        <ele>30</ele>
        <time>2012-08-22T20:34:16Z</time>
      </trkpt>
      <trkpt lat="50.3875" lon="2.05972">
        <ele>27</ele>
        <time>2012-08-22T20:34:18Z</time>
      </trkpt>
      <trkpt lat="50.38746" lon="2.05977">
        <ele>27</ele>
        <time>2012-08-22T20:34:20Z</time>
      </trkpt>
      <trkpt lat="50.38743" lon="2.05983">
        <ele>26</ele>
        <time>2012-08-22T20:34:22Z</time>
      </trkpt>
      <trkpt lat="50.38736" lon="2.05992">
        <ele>26</ele>
        <time>2012-08-22T20:34:24Z</time>
      </trkpt>
      <trkpt lat="50.38729" lon="2.06">
        <ele>25</ele>
        <time>2012-08-22T20:34:26Z</time>
      </trkpt>
      <trkpt lat="50.38721" lon="2.06012">
        <ele>22</ele>
        <time>2012-08-22T20:34:28Z</time>
      </trkpt>
      <trkpt lat="50.38716" lon="2.06026">
        <ele>21</ele>
        <time>2012-08-22T20:34:30Z</time>
      </trkpt>
      <trkpt lat="50.38709" lon="2.06033">
        <ele>20</ele>
        <time>2012-08-22T20:34:32Z</time>
      </trkpt>
      <trkpt lat="50.38701" lon="2.06041">
        <ele>21</ele>
        <time>2012-08-22T20:34:34Z</time>
      </trkpt>
      <trkpt lat="50.38692" lon="2.06044">
        <ele>21</ele>
        <time>2012-08-22T20:34:36Z</time>
      </trkpt>
      <trkpt lat="50.38681" lon="2.06044">
        <ele>20</ele>
        <time>2012-08-22T20:34:38Z</time>
      </trkpt>
      <trkpt lat="50.3867" lon="2.06044">
        <ele>19</ele>
        <time>2012-08-22T20:34:40Z</time>
      </trkpt>
      <trkpt lat="50.3866" lon="2.06045">
        <ele>19</ele>
        <time>2012-08-22T20:34:42Z</time>
      </trkpt>
      <trkpt lat="50.38649" lon="2.06047">
        <ele>19</ele>
        <time>2012-08-22T20:34:44Z</time>
      </trkpt>
      <trkpt lat="50.38641" lon="2.0605">
        <ele>19</ele>
        <time>2012-08-22T20:34:46Z</time>
      </trkpt>
      <trkpt lat="50.38631" lon="2.06054">
        <ele>18</ele>
        <time>2012-08-22T20:34:48Z</time>
      </trkpt>
      <trkpt lat="50.3862" lon="2.06057">
        <ele>17</ele>
        <time>2012-08-22T20:34:50Z</time>
      </trkpt>
      <trkpt lat="50.38611" lon="2.06062">
        <ele>17</ele>
        <time>2012-08-22T20:34:52Z</time>
      </trkpt>
      <trkpt lat="50.38601" lon="2.06065">
        <ele>18</ele>
        <time>2012-08-22T20:34:54Z</time>
      </trkpt>
      <trkpt lat="50.38592" lon="2.06068">
        <ele>19</ele>
        <time>2012-08-22T20:34:56Z</time>
      </trkpt>
      <trkpt lat="50.3858" lon="2.06072">
        <ele>19</ele>
        <time>2012-08-22T20:34:58Z</time>
      </trkpt>
      <trkpt lat="50.3857" lon="2.06073">
        <ele>19</ele>
        <time>2012-08-22T20:35:00Z</time>
      </trkpt>
      <trkpt lat="50.38561" lon="2.06071">
        <ele>19</ele>
        <time>2012-08-22T20:35:02Z</time>
      </trkpt>
      <trkpt lat="50.38552" lon="2.06074">
        <ele>20</ele>
        <time>2012-08-22T20:35:04Z</time>
      </trkpt>
      <trkpt lat="50.38545" lon="2.06083">
        <ele>20</ele>
        <time>2012-08-22T20:35:06Z</time>
      </trkpt>
      <trkpt lat="50.3854" lon="2.06096">
        <ele>19</ele>
        <time>2012-08-22T20:35:08Z</time>
      </trkpt>
      <trkpt lat="50.38537" lon="2.0611">
        <ele>19</ele>
        <time>2012-08-22T20:35:10Z</time>
      </trkpt>
      <trkpt lat="50.38536" lon="2.06122">
        <ele>21</ele>
        <time>2012-08-22T20:35:12Z</time>
      </trkpt>
      <trkpt lat="50.38534" lon="2.06135">
        <ele>21</ele>
        <time>2012-08-22T20:35:14Z</time>
      </trkpt>
      <trkpt lat="50.38533" lon="2.06141">
        <ele>20</ele>
        <time>2012-08-22T20:35:16Z</time>
      </trkpt>
      <trkpt lat="50.38531" lon="2.06159">
        <ele>19</ele>
        <time>2012-08-22T20:35:18Z</time>
      </trkpt>
      <trkpt lat="50.38528" lon="2.06172">
        <ele>18</ele>
        <time>2012-08-22T20:35:20Z</time>
      </trkpt>
      <trkpt lat="50.38526" lon="2.06185">
        <ele>18</ele>
        <time>2012-08-22T20:35:22Z</time>
      </trkpt>
      <trkpt lat="50.38523" lon="2.06199">
        <ele>17</ele>
        <time>2012-08-22T20:35:24Z</time>
      </trkpt>
      <trkpt lat="50.38522" lon="2.06213">
        <ele>19</ele>
        <time>2012-08-22T20:35:26Z</time>
      </trkpt>
      <trkpt lat="50.38521" lon="2.06225">
        <ele>20</ele>
        <time>2012-08-22T20:35:28Z</time>
      </trkpt>
      <trkpt lat="50.38519" lon="2.06237">
        <ele>21</ele>
        <time>2012-08-22T20:35:30Z</time>
      </trkpt>
      <trkpt lat="50.38519" lon="2.0625">
        <ele>20</ele>
        <time>2012-08-22T20:35:32Z</time>
      </trkpt>
      <trkpt lat="50.38517" lon="2.06262">
        <ele>21</ele>
        <time>2012-08-22T20:35:34Z</time>
      </trkpt>
      <trkpt lat="50.38515" lon="2.06275">
        <ele>20</ele>
        <time>2012-08-22T20:35:36Z</time>
      </trkpt>
      <trkpt lat="50.38515" lon="2.06287">
        <ele>20</ele>
        <time>2012-08-22T20:35:38Z</time>
      </trkpt>
      <trkpt lat="50.38513" lon="2.06297">
        <ele>22</ele>
        <time>2012-08-22T20:35:40Z</time>
      </trkpt>
      <trkpt lat="50.38511" lon="2.06306">
        <ele>21</ele>
        <time>2012-08-22T20:35:42Z</time>
      </trkpt>
      <trkpt lat="50.38508" lon="2.06316">
        <ele>20</ele>
        <time>2012-08-22T20:35:44Z</time>
      </trkpt>
      <trkpt lat="50.38505" lon="2.06327">
        <ele>20</ele>
        <time>2012-08-22T20:35:46Z</time>
      </trkpt>
      <trkpt lat="50.38503" lon="2.06338">
        <ele>20</ele>
        <time>2012-08-22T20:35:48Z</time>
      </trkpt>
      <trkpt lat="50.38501" lon="2.06349">
        <ele>20</ele>
        <time>2012-08-22T20:35:50Z</time>
      </trkpt>
      <trkpt lat="50.385" lon="2.06357">
        <ele>19</ele>
        <time>2012-08-22T20:35:52Z</time>
      </trkpt>
      <trkpt lat="50.385" lon="2.06363">
        <ele>20</ele>
        <time>2012-08-22T20:35:54Z</time>
      </trkpt>
      <trkpt lat="50.38499" lon="2.06363">
        <ele>21</ele>
        <time>2012-08-22T20:35:56Z</time>
      </trkpt>
      <trkpt lat="50.38498" lon="2.06365">
        <ele>22</ele>
        <time>2012-08-22T20:35:58Z</time>
      </trkpt>
      <trkpt lat="50.38496" lon="2.06366">
        <ele>23</ele>
        <time>2012-08-22T20:36:00Z</time>
      </trkpt>
      <trkpt lat="50.38494" lon="2.06364">
        <ele>24</ele>
        <time>2012-08-22T20:36:02Z</time>
      </trkpt>
      <trkpt lat="50.38491" lon="2.06362">
        <ele>24</ele>
        <time>2012-08-22T20:36:04Z</time>
      </trkpt>
      <trkpt lat="50.38487" lon="2.06359">
        <ele>24</ele>
        <time>2012-08-22T20:36:06Z</time>
      </trkpt>
      <trkpt lat="50.38484" lon="2.06355">
        <ele>25</ele>
        <time>2012-08-22T20:36:08Z</time>
      </trkpt>
      <trkpt lat="50.38483" lon="2.06354">
        <ele>25</ele>
        <time>2012-08-22T20:36:10Z</time>
      </trkpt>
      <trkpt lat="50.38483" lon="2.06354">
        <ele>24</ele>
        <time>2012-08-22T20:36:12Z</time>
      </trkpt>
      <trkpt lat="50.38482" lon="2.06361">
        <ele>22</ele>
        <time>2012-08-22T20:36:24Z</time>
      </trkpt>
      <trkpt lat="50.38482" lon="2.06362">
        <ele>21</ele>
        <time>2012-08-22T20:36:34Z</time>
      </trkpt>
      <trkpt lat="50.38482" lon="2.06365">
        <ele>20</ele>
        <time>2012-08-22T20:36:46Z</time>
      </trkpt>
      <trkpt lat="50.38482" lon="2.06367">
        <ele>21</ele>
        <time>2012-08-22T20:36:48Z</time>
      </trkpt>
      <trkpt lat="50.38482" lon="2.06365">
        <ele>20</ele>
        <time>2012-08-22T20:36:50Z</time>
      </trkpt>
      <trkpt lat="50.38483" lon="2.0636">
        <ele>21</ele>
        <time>2012-08-22T20:36:52Z</time>
      </trkpt>
      <trkpt lat="50.38482" lon="2.06357">
        <ele>22</ele>
        <time>2012-08-22T20:36:54Z</time>
      </trkpt>
      <trkpt lat="50.3848" lon="2.06353">
        <ele>23</ele>
        <time>2012-08-22T20:36:56Z</time>
      </trkpt>
      <trkpt lat="50.38478" lon="2.06348">
        <ele>23</ele>
        <time>2012-08-22T20:36:58Z</time>
      </trkpt>
      <trkpt lat="50.38474" lon="2.06344">
        <ele>23</ele>
        <time>2012-08-22T20:37:00Z</time>
      </trkpt>
      <trkpt lat="50.38471" lon="2.06339">
        <ele>23</ele>
        <time>2012-08-22T20:37:02Z</time>
      </trkpt>
      <trkpt lat="50.38466" lon="2.06334">
        <ele>23</ele>
        <time>2012-08-22T20:37:04Z</time>
      </trkpt>
      <trkpt lat="50.38462" lon="2.06327">
        <ele>22</ele>
        <time>2012-08-22T20:37:06Z</time>
      </trkpt>
      <trkpt lat="50.38457" lon="2.0632">
        <ele>22</ele>
        <time>2012-08-22T20:37:08Z</time>
      </trkpt>
      <trkpt lat="50.38452" lon="2.06313">
        <ele>22</ele>
        <time>2012-08-22T20:37:10Z</time>
      </trkpt>
      <trkpt lat="50.38446" lon="2.06306">
        <ele>22</ele>
        <time>2012-08-22T20:37:12Z</time>
      </trkpt>
      <trkpt lat="50.3844" lon="2.063">
        <ele>22</ele>
        <time>2012-08-22T20:37:14Z</time>
      </trkpt>
      <trkpt lat="50.38435" lon="2.06293">
        <ele>22</ele>
        <time>2012-08-22T20:37:16Z</time>
      </trkpt>
      <trkpt lat="50.38429" lon="2.06286">
        <ele>21</ele>
        <time>2012-08-22T20:37:18Z</time>
      </trkpt>
      <trkpt lat="50.38424" lon="2.0628">
        <ele>21</ele>
        <time>2012-08-22T20:37:20Z</time>
      </trkpt>
      <trkpt lat="50.38419" lon="2.06273">
        <ele>21</ele>
        <time>2012-08-22T20:37:22Z</time>
      </trkpt>
      <trkpt lat="50.38414" lon="2.06266">
        <ele>20</ele>
        <time>2012-08-22T20:37:24Z</time>
      </trkpt>
      <trkpt lat="50.38408" lon="2.06259">
        <ele>20</ele>
        <time>2012-08-22T20:37:26Z</time>
      </trkpt>
      <trkpt lat="50.38403" lon="2.06253">
        <ele>19</ele>
        <time>2012-08-22T20:37:28Z</time>
      </trkpt>
      <trkpt lat="50.38397" lon="2.06245">
        <ele>19</ele>
        <time>2012-08-22T20:37:30Z</time>
      </trkpt>
      <trkpt lat="50.38392" lon="2.06238">
        <ele>18</ele>
        <time>2012-08-22T20:37:32Z</time>
      </trkpt>
      <trkpt lat="50.38385" lon="2.0623">
        <ele>18</ele>
        <time>2012-08-22T20:37:34Z</time>
      </trkpt>
      <trkpt lat="50.3838" lon="2.06222">
        <ele>18</ele>
        <time>2012-08-22T20:37:36Z</time>
      </trkpt>
      <trkpt lat="50.38374" lon="2.06214">
        <ele>18</ele>
        <time>2012-08-22T20:37:38Z</time>
      </trkpt>
      <trkpt lat="50.38368" lon="2.06205">
        <ele>18</ele>
        <time>2012-08-22T20:37:40Z</time>
      </trkpt>
      <trkpt lat="50.38361" lon="2.06196">
        <ele>18</ele>
        <time>2012-08-22T20:37:42Z</time>
      </trkpt>
      <trkpt lat="50.38356" lon="2.06186">
        <ele>18</ele>
        <time>2012-08-22T20:37:44Z</time>
      </trkpt>
      <trkpt lat="50.38351" lon="2.06176">
        <ele>19</ele>
        <time>2012-08-22T20:37:46Z</time>
      </trkpt>
      <trkpt lat="50.38346" lon="2.06163">
        <ele>19</ele>
        <time>2012-08-22T20:37:48Z</time>
      </trkpt>
      <trkpt lat="50.38339" lon="2.06151">
        <ele>19</ele>
        <time>2012-08-22T20:37:50Z</time>
      </trkpt>
      <trkpt lat="50.38332" lon="2.06139">
        <ele>19</ele>
        <time>2012-08-22T20:37:52Z</time>
      </trkpt>
      <trkpt lat="50.38327" lon="2.06129">
        <ele>20</ele>
        <time>2012-08-22T20:37:54Z</time>
      </trkpt>
      <trkpt lat="50.38321" lon="2.06115">
        <ele>21</ele>
        <time>2012-08-22T20:37:56Z</time>
      </trkpt>
      <trkpt lat="50.38314" lon="2.06101">
        <ele>22</ele>
        <time>2012-08-22T20:37:58Z</time>
      </trkpt>
      <trkpt lat="50.38307" lon="2.06087">
        <ele>22</ele>
        <time>2012-08-22T20:38:00Z</time>
      </trkpt>
      <trkpt lat="50.383" lon="2.06074">
        <ele>22</ele>
        <time>2012-08-22T20:38:02Z</time>
      </trkpt>
      <trkpt lat="50.38292" lon="2.06061">
        <ele>22</ele>
        <time>2012-08-22T20:38:04Z</time>
      </trkpt>
      <trkpt lat="50.38282" lon="2.06047">
        <ele>20</ele>
        <time>2012-08-22T20:38:06Z</time>
      </trkpt>
      <trkpt lat="50.38273" lon="2.06035">
        <ele>19</ele>
        <time>2012-08-22T20:38:08Z</time>
      </trkpt>
      <trkpt lat="50.38266" lon="2.06023">
        <ele>20</ele>
        <time>2012-08-22T20:38:10Z</time>
      </trkpt>
      <trkpt lat="50.38259" lon="2.06009">
        <ele>19</ele>
        <time>2012-08-22T20:38:12Z</time>
      </trkpt>
      <trkpt lat="50.38252" lon="2.05996">
        <ele>19</ele>
        <time>2012-08-22T20:38:14Z</time>
      </trkpt>
      <trkpt lat="50.38244" lon="2.05983">
        <ele>18</ele>
        <time>2012-08-22T20:38:16Z</time>
      </trkpt>
      <trkpt lat="50.38239" lon="2.0597">
        <ele>18</ele>
        <time>2012-08-22T20:38:18Z</time>
      </trkpt>
      <trkpt lat="50.38232" lon="2.05957">
        <ele>17</ele>
        <time>2012-08-22T20:38:20Z</time>
      </trkpt>
      <trkpt lat="50.38224" lon="2.05942">
        <ele>18</ele>
        <time>2012-08-22T20:38:22Z</time>
      </trkpt>
      <trkpt lat="50.38217" lon="2.0593">
        <ele>18</ele>
        <time>2012-08-22T20:38:24Z</time>
      </trkpt>
      <trkpt lat="50.3821" lon="2.0592">
        <ele>17</ele>
        <time>2012-08-22T20:38:26Z</time>
      </trkpt>
      <trkpt lat="50.38202" lon="2.05908">
        <ele>18</ele>
        <time>2012-08-22T20:38:28Z</time>
      </trkpt>
      <trkpt lat="50.38195" lon="2.05896">
        <ele>18</ele>
        <time>2012-08-22T20:38:30Z</time>
      </trkpt>
      <trkpt lat="50.38189" lon="2.05884">
        <ele>19</ele>
        <time>2012-08-22T20:38:32Z</time>
      </trkpt>
      <trkpt lat="50.38184" lon="2.0587">
        <ele>20</ele>
        <time>2012-08-22T20:38:34Z</time>
      </trkpt>
      <trkpt lat="50.38181" lon="2.05854">
        <ele>21</ele>
        <time>2012-08-22T20:38:36Z</time>
      </trkpt>
      <trkpt lat="50.38177" lon="2.05839">
        <ele>21</ele>
        <time>2012-08-22T20:38:38Z</time>
      </trkpt>
      <trkpt lat="50.38173" lon="2.05824">
        <ele>21</ele>
        <time>2012-08-22T20:38:40Z</time>
      </trkpt>
      <trkpt lat="50.38169" lon="2.0581">
        <ele>21</ele>
        <time>2012-08-22T20:38:42Z</time>
      </trkpt>
      <trkpt lat="50.38165" lon="2.05797">
        <ele>21</ele>
        <time>2012-08-22T20:38:44Z</time>
      </trkpt>
      <trkpt lat="50.3816" lon="2.05784">
        <ele>22</ele>
        <time>2012-08-22T20:38:46Z</time>
      </trkpt>
      <trkpt lat="50.38155" lon="2.0577">
        <ele>22</ele>
        <time>2012-08-22T20:38:48Z</time>
      </trkpt>
      <trkpt lat="50.38151" lon="2.05755">
        <ele>20</ele>
        <time>2012-08-22T20:38:50Z</time>
      </trkpt>
      <trkpt lat="50.38146" lon="2.05744">
        <ele>21</ele>
        <time>2012-08-22T20:38:52Z</time>
      </trkpt>
      <trkpt lat="50.38141" lon="2.0573">
        <ele>22</ele>
        <time>2012-08-22T20:38:54Z</time>
      </trkpt>
      <trkpt lat="50.38136" lon="2.05716">
        <ele>22</ele>
        <time>2012-08-22T20:38:56Z</time>
      </trkpt>
      <trkpt lat="50.3813" lon="2.05703">
        <ele>22</ele>
        <time>2012-08-22T20:38:58Z</time>
      </trkpt>
      <trkpt lat="50.38123" lon="2.05688">
        <ele>22</ele>
        <time>2012-08-22T20:39:00Z</time>
      </trkpt>
      <trkpt lat="50.38121" lon="2.0568">
        <ele>21</ele>
        <time>2012-08-22T20:39:02Z</time>
      </trkpt>
      <trkpt lat="50.38115" lon="2.05667">
        <ele>21</ele>
        <time>2012-08-22T20:39:04Z</time>
      </trkpt>
      <trkpt lat="50.38107" lon="2.05647">
        <ele>22</ele>
        <time>2012-08-22T20:39:06Z</time>
      </trkpt>
      <trkpt lat="50.38101" lon="2.05628">
        <ele>23</ele>
        <time>2012-08-22T20:39:08Z</time>
      </trkpt>
      <trkpt lat="50.38096" lon="2.05611">
        <ele>23</ele>
        <time>2012-08-22T20:39:10Z</time>
      </trkpt>
      <trkpt lat="50.38088" lon="2.056">
        <ele>23</ele>
        <time>2012-08-22T20:39:12Z</time>
      </trkpt>
      <trkpt lat="50.38081" lon="2.0558">
        <ele>23</ele>
        <time>2012-08-22T20:39:14Z</time>
      </trkpt>
      <trkpt lat="50.38073" lon="2.05565">
        <ele>24</ele>
        <time>2012-08-22T20:39:16Z</time>
      </trkpt>
      <trkpt lat="50.3807" lon="2.05551">
        <ele>23</ele>
        <time>2012-08-22T20:39:18Z</time>
      </trkpt>
      <trkpt lat="50.38064" lon="2.05542">
        <ele>23</ele>
        <time>2012-08-22T20:39:20Z</time>
      </trkpt>
      <trkpt lat="50.38057" lon="2.05529">
        <ele>25</ele>
        <time>2012-08-22T20:39:22Z</time>
      </trkpt>
      <trkpt lat="50.38053" lon="2.05517">
        <ele>25</ele>
        <time>2012-08-22T20:39:24Z</time>
      </trkpt>
      <trkpt lat="50.38049" lon="2.05499">
        <ele>25</ele>
        <time>2012-08-22T20:39:26Z</time>
      </trkpt>
      <trkpt lat="50.38049" lon="2.05486">
        <ele>26</ele>
        <time>2012-08-22T20:39:28Z</time>
      </trkpt>
      <trkpt lat="50.38049" lon="2.05462">
        <ele>19</ele>
        <time>2012-08-22T20:39:30Z</time>
      </trkpt>
      <trkpt lat="50.3805" lon="2.05453">
        <ele>18</ele>
        <time>2012-08-22T20:39:32Z</time>
      </trkpt>
      <trkpt lat="50.38044" lon="2.05435">
        <ele>18</ele>
        <time>2012-08-22T20:39:34Z</time>
      </trkpt>
      <trkpt lat="50.38039" lon="2.05417">
        <ele>18</ele>
        <time>2012-08-22T20:39:36Z</time>
      </trkpt>
      <trkpt lat="50.38036" lon="2.05401">
        <ele>18</ele>
        <time>2012-08-22T20:39:38Z</time>
      </trkpt>
      <trkpt lat="50.38031" lon="2.05385">
        <ele>21</ele>
        <time>2012-08-22T20:39:40Z</time>
      </trkpt>
      <trkpt lat="50.38028" lon="2.05371">
        <ele>22</ele>
        <time>2012-08-22T20:39:42Z</time>
      </trkpt>
      <trkpt lat="50.38023" lon="2.05357">
        <ele>22</ele>
        <time>2012-08-22T20:39:44Z</time>
      </trkpt>
      <trkpt lat="50.38021" lon="2.05349">
        <ele>23</ele>
        <time>2012-08-22T20:39:46Z</time>
      </trkpt>
      <trkpt lat="50.38015" lon="2.05335">
        <ele>24</ele>
        <time>2012-08-22T20:39:48Z</time>
      </trkpt>
      <trkpt lat="50.38015" lon="2.0532">
        <ele>23</ele>
        <time>2012-08-22T20:39:50Z</time>
      </trkpt>
      <trkpt lat="50.38013" lon="2.05306">
        <ele>23</ele>
        <time>2012-08-22T20:39:52Z</time>
      </trkpt>
      <trkpt lat="50.38012" lon="2.05269">
        <ele>20</ele>
        <time>2012-08-22T20:39:54Z</time>
      </trkpt>
      <trkpt lat="50.38008" lon="2.05241">
        <ele>19</ele>
        <time>2012-08-22T20:39:56Z</time>
      </trkpt>
      <trkpt lat="50.38004" lon="2.05219">
        <ele>17</ele>
        <time>2012-08-22T20:39:58Z</time>
      </trkpt>
      <trkpt lat="50.37999" lon="2.05202">
        <ele>18</ele>
        <time>2012-08-22T20:40:00Z</time>
      </trkpt>
      <trkpt lat="50.37993" lon="2.05183">
        <ele>19</ele>
        <time>2012-08-22T20:40:02Z</time>
      </trkpt>
      <trkpt lat="50.37989" lon="2.05168">
        <ele>19</ele>
        <time>2012-08-22T20:40:04Z</time>
      </trkpt>
      <trkpt lat="50.37982" lon="2.05151">
        <ele>20</ele>
        <time>2012-08-22T20:40:06Z</time>
      </trkpt>
      <trkpt lat="50.37975" lon="2.05141">
        <ele>20</ele>
        <time>2012-08-22T20:40:08Z</time>
      </trkpt>
      <trkpt lat="50.37972" lon="2.0513">
        <ele>20</ele>
        <time>2012-08-22T20:40:10Z</time>
      </trkpt>
      <trkpt lat="50.37967" lon="2.05117">
        <ele>21</ele>
        <time>2012-08-22T20:40:12Z</time>
      </trkpt>
      <trkpt lat="50.37965" lon="2.05114">
        <ele>22</ele>
        <time>2012-08-22T20:40:14Z</time>
      </trkpt>
      <trkpt lat="50.37964" lon="2.05107">
        <ele>23</ele>
        <time>2012-08-22T20:40:16Z</time>
      </trkpt>
      <trkpt lat="50.37963" lon="2.051">
        <ele>23</ele>
        <time>2012-08-22T20:40:18Z</time>
      </trkpt>
      <trkpt lat="50.37963" lon="2.0509">
        <ele>23</ele>
        <time>2012-08-22T20:40:20Z</time>
      </trkpt>
      <trkpt lat="50.37962" lon="2.05077">
        <ele>23</ele>
        <time>2012-08-22T20:40:22Z</time>
      </trkpt>
      <trkpt lat="50.37963" lon="2.05059">
        <ele>21</ele>
        <time>2012-08-22T20:40:24Z</time>
      </trkpt>
      <trkpt lat="50.37956" lon="2.05014">
        <ele>21</ele>
        <time>2012-08-22T20:40:26Z</time>
      </trkpt>
      <trkpt lat="50.37957" lon="2.0499">
        <ele>21</ele>
        <time>2012-08-22T20:40:28Z</time>
      </trkpt>
      <trkpt lat="50.3796" lon="2.04964">
        <ele>23</ele>
        <time>2012-08-22T20:40:30Z</time>
      </trkpt>
      <trkpt lat="50.37963" lon="2.04946">
        <ele>22</ele>
        <time>2012-08-22T20:40:32Z</time>
      </trkpt>
      <trkpt lat="50.37965" lon="2.0493">
        <ele>23</ele>
        <time>2012-08-22T20:40:34Z</time>
      </trkpt>
      <trkpt lat="50.37969" lon="2.04908">
        <ele>23</ele>
        <time>2012-08-22T20:40:36Z</time>
      </trkpt>
      <trkpt lat="50.37971" lon="2.04888">
        <ele>24</ele>
        <time>2012-08-22T20:40:38Z</time>
      </trkpt>
      <trkpt lat="50.37975" lon="2.04869">
        <ele>22</ele>
        <time>2012-08-22T20:40:40Z</time>
      </trkpt>
      <trkpt lat="50.37975" lon="2.04852">
        <ele>21</ele>
        <time>2012-08-22T20:40:42Z</time>
      </trkpt>
      <trkpt lat="50.37976" lon="2.04831">
        <ele>20</ele>
        <time>2012-08-22T20:40:44Z</time>
      </trkpt>
      <trkpt lat="50.37978" lon="2.04818">
        <ele>20</ele>
        <time>2012-08-22T20:40:46Z</time>
      </trkpt>
      <trkpt lat="50.37979" lon="2.048">
        <ele>22</ele>
        <time>2012-08-22T20:40:48Z</time>
      </trkpt>
      <trkpt lat="50.37982" lon="2.04781">
        <ele>22</ele>
        <time>2012-08-22T20:40:50Z</time>
      </trkpt>
      <trkpt lat="50.37983" lon="2.04763">
        <ele>22</ele>
        <time>2012-08-22T20:40:52Z</time>
      </trkpt>
      <trkpt lat="50.37985" lon="2.04745">
        <ele>22</ele>
        <time>2012-08-22T20:40:54Z</time>
      </trkpt>
      <trkpt lat="50.37987" lon="2.04726">
        <ele>21</ele>
        <time>2012-08-22T20:40:56Z</time>
      </trkpt>
      <trkpt lat="50.37988" lon="2.04709">
        <ele>21</ele>
        <time>2012-08-22T20:40:58Z</time>
      </trkpt>
      <trkpt lat="50.37991" lon="2.04691">
        <ele>22</ele>
        <time>2012-08-22T20:41:00Z</time>
      </trkpt>
      <trkpt lat="50.37993" lon="2.04672">
        <ele>22</ele>
        <time>2012-08-22T20:41:02Z</time>
      </trkpt>
      <trkpt lat="50.37995" lon="2.04655">
        <ele>21</ele>
        <time>2012-08-22T20:41:04Z</time>
      </trkpt>
      <trkpt lat="50.37997" lon="2.04639">
        <ele>22</ele>
        <time>2012-08-22T20:41:06Z</time>
      </trkpt>
      <trkpt lat="50.37999" lon="2.04622">
        <ele>23</ele>
        <time>2012-08-22T20:41:08Z</time>
      </trkpt>
      <trkpt lat="50.38001" lon="2.04606">
        <ele>22</ele>
        <time>2012-08-22T20:41:10Z</time>
      </trkpt>
      <trkpt lat="50.38004" lon="2.0459">
        <ele>23</ele>
        <time>2012-08-22T20:41:12Z</time>
      </trkpt>
      <trkpt lat="50.38005" lon="2.04576">
        <ele>23</ele>
        <time>2012-08-22T20:41:14Z</time>
      </trkpt>
      <trkpt lat="50.38006" lon="2.04563">
        <ele>23</ele>
        <time>2012-08-22T20:41:16Z</time>
      </trkpt>
      <trkpt lat="50.38003" lon="2.04543">
        <ele>23</ele>
        <time>2012-08-22T20:41:18Z</time>
      </trkpt>
      <trkpt lat="50.38003" lon="2.04524">
        <ele>24</ele>
        <time>2012-08-22T20:41:20Z</time>
      </trkpt>
      <trkpt lat="50.38" lon="2.04512">
        <ele>24</ele>
        <time>2012-08-22T20:41:22Z</time>
      </trkpt>
      <trkpt lat="50.38001" lon="2.04497">
        <ele>23</ele>
        <time>2012-08-22T20:41:24Z</time>
      </trkpt>
      <trkpt lat="50.37999" lon="2.04479">
        <ele>23</ele>
        <time>2012-08-22T20:41:26Z</time>
      </trkpt>
      <trkpt lat="50.37999" lon="2.0446">
        <ele>21</ele>
        <time>2012-08-22T20:41:28Z</time>
      </trkpt>
      <trkpt lat="50.37998" lon="2.04444">
        <ele>20</ele>
        <time>2012-08-22T20:41:30Z</time>
      </trkpt>
      <trkpt lat="50.37996" lon="2.04429">
        <ele>20</ele>
        <time>2012-08-22T20:41:32Z</time>
      </trkpt>
      <trkpt lat="50.37995" lon="2.04417">
        <ele>20</ele>
        <time>2012-08-22T20:41:34Z</time>
      </trkpt>
      <trkpt lat="50.37995" lon="2.04399">
        <ele>18</ele>
        <time>2012-08-22T20:41:36Z</time>
      </trkpt>
      <trkpt lat="50.37993" lon="2.04385">
        <ele>18</ele>
        <time>2012-08-22T20:41:38Z</time>
      </trkpt>
      <trkpt lat="50.3799" lon="2.04372">
        <ele>18</ele>
        <time>2012-08-22T20:41:40Z</time>
      </trkpt>
      <trkpt lat="50.37988" lon="2.04365">
        <ele>20</ele>
        <time>2012-08-22T20:41:42Z</time>
      </trkpt>
      <trkpt lat="50.37988" lon="2.0436">
        <ele>20</ele>
        <time>2012-08-22T20:41:44Z</time>
      </trkpt>
      <trkpt lat="50.37989" lon="2.04344">
        <ele>20</ele>
        <time>2012-08-22T20:41:46Z</time>
      </trkpt>
      <trkpt lat="50.37988" lon="2.0433">
        <ele>21</ele>
        <time>2012-08-22T20:41:48Z</time>
      </trkpt>
      <trkpt lat="50.37988" lon="2.04323">
        <ele>21</ele>
        <time>2012-08-22T20:41:50Z</time>
      </trkpt>
      <trkpt lat="50.37987" lon="2.04313">
        <ele>24</ele>
        <time>2012-08-22T20:41:52Z</time>
      </trkpt>
      <trkpt lat="50.37981" lon="2.04299">
        <ele>29</ele>
        <time>2012-08-22T20:41:54Z</time>
      </trkpt>
      <trkpt lat="50.37976" lon="2.04287">
        <ele>29</ele>
        <time>2012-08-22T20:41:56Z</time>
      </trkpt>
      <trkpt lat="50.37969" lon="2.04256">
        <ele>30</ele>
        <time>2012-08-22T20:41:58Z</time>
      </trkpt>
      <trkpt lat="50.37967" lon="2.04247">
        <ele>31</ele>
        <time>2012-08-22T20:42:00Z</time>
      </trkpt>
      <trkpt lat="50.37963" lon="2.04234">
        <ele>29</ele>
        <time>2012-08-22T20:42:02Z</time>
      </trkpt>
      <trkpt lat="50.37959" lon="2.04227">
        <ele>29</ele>
        <time>2012-08-22T20:42:04Z</time>
      </trkpt>
      <trkpt lat="50.37955" lon="2.04214">
        <ele>27</ele>
        <time>2012-08-22T20:42:06Z</time>
      </trkpt>
      <trkpt lat="50.37952" lon="2.04202">
        <ele>25</ele>
        <time>2012-08-22T20:42:08Z</time>
      </trkpt>
      <trkpt lat="50.37949" lon="2.04189">
        <ele>24</ele>
        <time>2012-08-22T20:42:10Z</time>
      </trkpt>
      <trkpt lat="50.37948" lon="2.04175">
        <ele>23</ele>
        <time>2012-08-22T20:42:12Z</time>
      </trkpt>
      <trkpt lat="50.37946" lon="2.04162">
        <ele>22</ele>
        <time>2012-08-22T20:42:14Z</time>
      </trkpt>
      <trkpt lat="50.37944" lon="2.04148">
        <ele>23</ele>
        <time>2012-08-22T20:42:16Z</time>
      </trkpt>
      <trkpt lat="50.37942" lon="2.04135">
        <ele>23</ele>
        <time>2012-08-22T20:42:18Z</time>
      </trkpt>
      <trkpt lat="50.3794" lon="2.04122">
        <ele>23</ele>
        <time>2012-08-22T20:42:20Z</time>
      </trkpt>
      <trkpt lat="50.37938" lon="2.0411">
        <ele>23</ele>
        <time>2012-08-22T20:42:22Z</time>
      </trkpt>
      <trkpt lat="50.37937" lon="2.04099">
        <ele>22</ele>
        <time>2012-08-22T20:42:24Z</time>
      </trkpt>
      <trkpt lat="50.37937" lon="2.04089">
        <ele>22</ele>
        <time>2012-08-22T20:42:26Z</time>
      </trkpt>
      <trkpt lat="50.37937" lon="2.04079">
        <ele>21</ele>
        <time>2012-08-22T20:42:28Z</time>
      </trkpt>
      <trkpt lat="50.37936" lon="2.04069">
        <ele>20</ele>
        <time>2012-08-22T20:42:30Z</time>
      </trkpt>
      <trkpt lat="50.37935" lon="2.04058">
        <ele>20</ele>
        <time>2012-08-22T20:42:32Z</time>
      </trkpt>
      <trkpt lat="50.37934" lon="2.04045">
        <ele>20</ele>
        <time>2012-08-22T20:42:34Z</time>
      </trkpt>
      <trkpt lat="50.37929" lon="2.04031">
        <ele>20</ele>
        <time>2012-08-22T20:42:36Z</time>
      </trkpt>
      <trkpt lat="50.37922" lon="2.04015">
        <ele>20</ele>
        <time>2012-08-22T20:42:38Z</time>
      </trkpt>
      <trkpt lat="50.37915" lon="2.03994">
        <ele>21</ele>
        <time>2012-08-22T20:42:40Z</time>
      </trkpt>
      <trkpt lat="50.37913" lon="2.03979">
        <ele>21</ele>
        <time>2012-08-22T20:42:42Z</time>
      </trkpt>
      <trkpt lat="50.37911" lon="2.03966">
        <ele>20</ele>
        <time>2012-08-22T20:42:44Z</time>
      </trkpt>
      <trkpt lat="50.37911" lon="2.03959">
        <ele>20</ele>
        <time>2012-08-22T20:42:46Z</time>
      </trkpt>
      <trkpt lat="50.3791" lon="2.03939">
        <ele>18</ele>
        <time>2012-08-22T20:42:48Z</time>
      </trkpt>
      <trkpt lat="50.37909" lon="2.03926">
        <ele>19</ele>
        <time>2012-08-22T20:42:50Z</time>
      </trkpt>
      <trkpt lat="50.37908" lon="2.03913">
        <ele>19</ele>
        <time>2012-08-22T20:42:52Z</time>
      </trkpt>
      <trkpt lat="50.37905" lon="2.03901">
        <ele>19</ele>
        <time>2012-08-22T20:42:54Z</time>
      </trkpt>
      <trkpt lat="50.37902" lon="2.03892">
        <ele>19</ele>
        <time>2012-08-22T20:42:56Z</time>
      </trkpt>
      <trkpt lat="50.37896" lon="2.03882">
        <ele>19</ele>
        <time>2012-08-22T20:42:58Z</time>
      </trkpt>
      <trkpt lat="50.37888" lon="2.03867">
        <ele>20</ele>
        <time>2012-08-22T20:43:00Z</time>
      </trkpt>
      <trkpt lat="50.37884" lon="2.03855">
        <ele>20</ele>
        <time>2012-08-22T20:43:02Z</time>
      </trkpt>
      <trkpt lat="50.37883" lon="2.03843">
        <ele>21</ele>
        <time>2012-08-22T20:43:04Z</time>
      </trkpt>
      <trkpt lat="50.37885" lon="2.03833">
        <ele>23</ele>
        <time>2012-08-22T20:43:06Z</time>
      </trkpt>
      <trkpt lat="50.37883" lon="2.03803">
        <ele>20</ele>
        <time>2012-08-22T20:43:08Z</time>
      </trkpt>
      <trkpt lat="50.37883" lon="2.03789">
        <ele>18</ele>
        <time>2012-08-22T20:43:10Z</time>
      </trkpt>
      <trkpt lat="50.37885" lon="2.03776">
        <ele>18</ele>
        <time>2012-08-22T20:43:12Z</time>
      </trkpt>
      <trkpt lat="50.37885" lon="2.03766">
        <ele>21</ele>
        <time>2012-08-22T20:43:14Z</time>
      </trkpt>
      <trkpt lat="50.37884" lon="2.03749">
        <ele>20</ele>
        <time>2012-08-22T20:43:16Z</time>
      </trkpt>
      <trkpt lat="50.3788" lon="2.03735">
        <ele>22</ele>
        <time>2012-08-22T20:43:18Z</time>
      </trkpt>
      <trkpt lat="50.37882" lon="2.03725">
        <ele>24</ele>
        <time>2012-08-22T20:43:20Z</time>
      </trkpt>
      <trkpt lat="50.37882" lon="2.03716">
        <ele>25</ele>
        <time>2012-08-22T20:43:22Z</time>
      </trkpt>
      <trkpt lat="50.37882" lon="2.03706">
        <ele>24</ele>
        <time>2012-08-22T20:43:24Z</time>
      </trkpt>
      <trkpt lat="50.3788" lon="2.037">
        <ele>27</ele>
        <time>2012-08-22T20:43:26Z</time>
      </trkpt>
      <trkpt lat="50.37879" lon="2.03694">
        <ele>26</ele>
        <time>2012-08-22T20:43:28Z</time>
      </trkpt>
      <trkpt lat="50.37878" lon="2.03688">
        <ele>26</ele>
        <time>2012-08-22T20:43:30Z</time>
      </trkpt>
      <trkpt lat="50.37878" lon="2.03688">
        <ele>26</ele>
        <time>2012-08-22T20:43:32Z</time>
      </trkpt>
      <trkpt lat="50.37878" lon="2.03689">
        <ele>26</ele>
        <time>2012-08-22T20:43:34Z</time>
      </trkpt>
      <trkpt lat="50.37879" lon="2.03689">
        <ele>24</ele>
        <time>2012-08-22T20:43:36Z</time>
      </trkpt>
      <trkpt lat="50.3788" lon="2.03688">
        <ele>23</ele>
        <time>2012-08-22T20:43:38Z</time>
      </trkpt>
      <trkpt lat="50.3788" lon="2.03686">
        <ele>24</ele>
        <time>2012-08-22T20:43:40Z</time>
      </trkpt>
      <trkpt lat="50.37879" lon="2.03683">
        <ele>22</ele>
        <time>2012-08-22T20:43:42Z</time>
      </trkpt>
      <trkpt lat="50.37877" lon="2.03682">
        <ele>22</ele>
        <time>2012-08-22T20:43:44Z</time>
      </trkpt>
      <trkpt lat="50.37874" lon="2.03682">
        <ele>23</ele>
        <time>2012-08-22T20:43:46Z</time>
      </trkpt>
      <trkpt lat="50.3787" lon="2.03681">
        <ele>23</ele>
        <time>2012-08-22T20:43:48Z</time>
      </trkpt>
      <trkpt lat="50.37868" lon="2.03679">
        <ele>24</ele>
        <time>2012-08-22T20:43:50Z</time>
      </trkpt>
      <trkpt lat="50.37864" lon="2.03677">
        <ele>24</ele>
        <time>2012-08-22T20:43:52Z</time>
      </trkpt>
      <trkpt lat="50.37859" lon="2.03673">
        <ele>24</ele>
        <time>2012-08-22T20:43:54Z</time>
      </trkpt>
      <trkpt lat="50.37852" lon="2.03669">
        <ele>23</ele>
        <time>2012-08-22T20:43:56Z</time>
      </trkpt>
      <trkpt lat="50.37843" lon="2.03666">
        <ele>22</ele>
        <time>2012-08-22T20:43:58Z</time>
      </trkpt>
      <trkpt lat="50.37835" lon="2.03664">
        <ele>22</ele>
        <time>2012-08-22T20:44:00Z</time>
      </trkpt>
      <trkpt lat="50.37827" lon="2.03662">
        <ele>21</ele>
        <time>2012-08-22T20:44:02Z</time>
      </trkpt>
      <trkpt lat="50.37819" lon="2.03657">
        <ele>21</ele>
        <time>2012-08-22T20:44:04Z</time>
      </trkpt>
      <trkpt lat="50.37812" lon="2.0365">
        <ele>23</ele>
        <time>2012-08-22T20:44:06Z</time>
      </trkpt>
      <trkpt lat="50.37806" lon="2.03646">
        <ele>23</ele>
        <time>2012-08-22T20:44:08Z</time>
      </trkpt>
      <trkpt lat="50.378" lon="2.03645">
        <ele>22</ele>
        <time>2012-08-22T20:44:10Z</time>
      </trkpt>
      <trkpt lat="50.37793" lon="2.03648">
        <ele>22</ele>
        <time>2012-08-22T20:44:12Z</time>
      </trkpt>
      <trkpt lat="50.37786" lon="2.03653">
        <ele>20</ele>
        <time>2012-08-22T20:44:14Z</time>
      </trkpt>
      <trkpt lat="50.37779" lon="2.03659">
        <ele>19</ele>
        <time>2012-08-22T20:44:16Z</time>
      </trkpt>
      <trkpt lat="50.37772" lon="2.03666">
        <ele>20</ele>
        <time>2012-08-22T20:44:18Z</time>
      </trkpt>
      <trkpt lat="50.37764" lon="2.0367">
        <ele>19</ele>
        <time>2012-08-22T20:44:20Z</time>
      </trkpt>
      <trkpt lat="50.3775" lon="2.03666">
        <ele>19</ele>
        <time>2012-08-22T20:44:22Z</time>
      </trkpt>
      <trkpt lat="50.37739" lon="2.03668">
        <ele>17</ele>
        <time>2012-08-22T20:44:24Z</time>
      </trkpt>
      <trkpt lat="50.37731" lon="2.03667">
        <ele>17</ele>
        <time>2012-08-22T20:44:26Z</time>
      </trkpt>
      <trkpt lat="50.3772" lon="2.03667">
        <ele>18</ele>
        <time>2012-08-22T20:44:28Z</time>
      </trkpt>
      <trkpt lat="50.37713" lon="2.03666">
        <ele>18</ele>
        <time>2012-08-22T20:44:30Z</time>
      </trkpt>
      <trkpt lat="50.37705" lon="2.03665">
        <ele>20</ele>
        <time>2012-08-22T20:44:32Z</time>
      </trkpt>
      <trkpt lat="50.37696" lon="2.03663">
        <ele>22</ele>
        <time>2012-08-22T20:44:34Z</time>
      </trkpt>
      <trkpt lat="50.37687" lon="2.03661">
        <ele>23</ele>
        <time>2012-08-22T20:44:36Z</time>
      </trkpt>
      <trkpt lat="50.37677" lon="2.03662">
        <ele>23</ele>
        <time>2012-08-22T20:44:38Z</time>
      </trkpt>
      <trkpt lat="50.37669" lon="2.03662">
        <ele>24</ele>
        <time>2012-08-22T20:44:40Z</time>
      </trkpt>
      <trkpt lat="50.37658" lon="2.03661">
        <ele>23</ele>
        <time>2012-08-22T20:44:42Z</time>
      </trkpt>
      <trkpt lat="50.37649" lon="2.03662">
        <ele>24</ele>
        <time>2012-08-22T20:44:44Z</time>
      </trkpt>
      <trkpt lat="50.3764" lon="2.03662">
        <ele>24</ele>
        <time>2012-08-22T20:44:46Z</time>
      </trkpt>
      <trkpt lat="50.37635" lon="2.03657">
        <ele>28</ele>
        <time>2012-08-22T20:44:48Z</time>
      </trkpt>
      <trkpt lat="50.37624" lon="2.0366">
        <ele>27</ele>
        <time>2012-08-22T20:44:50Z</time>
      </trkpt>
      <trkpt lat="50.37616" lon="2.03665">
        <ele>26</ele>
        <time>2012-08-22T20:44:52Z</time>
      </trkpt>
      <trkpt lat="50.37607" lon="2.03667">
        <ele>26</ele>
        <time>2012-08-22T20:44:54Z</time>
      </trkpt>
      <trkpt lat="50.37598" lon="2.03665">
        <ele>25</ele>
        <time>2012-08-22T20:44:56Z</time>
      </trkpt>
      <trkpt lat="50.37587" lon="2.03658">
        <ele>25</ele>
        <time>2012-08-22T20:44:58Z</time>
      </trkpt>
      <trkpt lat="50.37578" lon="2.03654">
        <ele>25</ele>
        <time>2012-08-22T20:45:00Z</time>
      </trkpt>
      <trkpt lat="50.37568" lon="2.03651">
        <ele>25</ele>
        <time>2012-08-22T20:45:02Z</time>
      </trkpt>
      <trkpt lat="50.37559" lon="2.03646">
        <ele>25</ele>
        <time>2012-08-22T20:45:04Z</time>
      </trkpt>
      <trkpt lat="50.37552" lon="2.03649">
        <ele>25</ele>
        <time>2012-08-22T20:45:06Z</time>
      </trkpt>
      <trkpt lat="50.37544" lon="2.03643">
        <ele>25</ele>
        <time>2012-08-22T20:45:08Z</time>
      </trkpt>
      <trkpt lat="50.37531" lon="2.03643">
        <ele>25</ele>
        <time>2012-08-22T20:45:10Z</time>
      </trkpt>
      <trkpt lat="50.37523" lon="2.0364">
        <ele>25</ele>
        <time>2012-08-22T20:45:12Z</time>
      </trkpt>
      <trkpt lat="50.37516" lon="2.03635">
        <ele>25</ele>
        <time>2012-08-22T20:45:14Z</time>
      </trkpt>
      <trkpt lat="50.37508" lon="2.03633">
        <ele>26</ele>
        <time>2012-08-22T20:45:16Z</time>
      </trkpt>
      <trkpt lat="50.37503" lon="2.03632">
        <ele>26</ele>
        <time>2012-08-22T20:45:18Z</time>
      </trkpt>
      <trkpt lat="50.37496" lon="2.03629">
        <ele>27</ele>
        <time>2012-08-22T20:45:20Z</time>
      </trkpt>
      <trkpt lat="50.3749" lon="2.03626">
        <ele>29</ele>
        <time>2012-08-22T20:45:22Z</time>
      </trkpt>
      <trkpt lat="50.37484" lon="2.03625">
        <ele>32</ele>
        <time>2012-08-22T20:45:24Z</time>
      </trkpt>
      <trkpt lat="50.37474" lon="2.03625">
        <ele>31</ele>
        <time>2012-08-22T20:45:26Z</time>
      </trkpt>
      <trkpt lat="50.37465" lon="2.03625">
        <ele>31</ele>
        <time>2012-08-22T20:45:28Z</time>
      </trkpt>
      <trkpt lat="50.37455" lon="2.03625">
        <ele>30</ele>
        <time>2012-08-22T20:45:30Z</time>
      </trkpt>
      <trkpt lat="50.37443" lon="2.03624">
        <ele>32</ele>
        <time>2012-08-22T20:45:32Z</time>
      </trkpt>
      <trkpt lat="50.37434" lon="2.03623">
        <ele>35</ele>
        <time>2012-08-22T20:45:34Z</time>
      </trkpt>
      <trkpt lat="50.37425" lon="2.03618">
        <ele>33</ele>
        <time>2012-08-22T20:45:36Z</time>
      </trkpt>
      <trkpt lat="50.37418" lon="2.0361">
        <ele>34</ele>
        <time>2012-08-22T20:45:38Z</time>
      </trkpt>
      <trkpt lat="50.37412" lon="2.03602">
        <ele>37</ele>
        <time>2012-08-22T20:45:40Z</time>
      </trkpt>
      <trkpt lat="50.37407" lon="2.03594">
        <ele>34</ele>
        <time>2012-08-22T20:45:42Z</time>
      </trkpt>
      <trkpt lat="50.37404" lon="2.0359">
        <ele>32</ele>
        <time>2012-08-22T20:45:44Z</time>
      </trkpt>
      <trkpt lat="50.374" lon="2.03591">
        <ele>33</ele>
        <time>2012-08-22T20:45:46Z</time>
      </trkpt>
      <trkpt lat="50.37397" lon="2.03596">
        <ele>33</ele>
        <time>2012-08-22T20:45:48Z</time>
      </trkpt>
      <trkpt lat="50.37394" lon="2.03604">
        <ele>32</ele>
        <time>2012-08-22T20:45:50Z</time>
      </trkpt>
      <trkpt lat="50.37389" lon="2.03616">
        <ele>31</ele>
        <time>2012-08-22T20:45:52Z</time>
      </trkpt>
      <trkpt lat="50.37385" lon="2.03628">
        <ele>31</ele>
        <time>2012-08-22T20:45:54Z</time>
      </trkpt>
      <trkpt lat="50.37381" lon="2.03639">
        <ele>32</ele>
        <time>2012-08-22T20:45:56Z</time>
      </trkpt>
      <trkpt lat="50.37375" lon="2.03647">
        <ele>30</ele>
        <time>2012-08-22T20:45:58Z</time>
      </trkpt>
      <trkpt lat="50.37371" lon="2.03652">
        <ele>32</ele>
        <time>2012-08-22T20:46:00Z</time>
      </trkpt>
      <trkpt lat="50.37368" lon="2.03656">
        <ele>32</ele>
        <time>2012-08-22T20:46:02Z</time>
      </trkpt>
      <trkpt lat="50.37365" lon="2.0366">
        <ele>32</ele>
        <time>2012-08-22T20:46:04Z</time>
      </trkpt>
      <trkpt lat="50.37362" lon="2.03664">
        <ele>39</ele>
        <time>2012-08-22T20:46:06Z</time>
      </trkpt>
      <trkpt lat="50.37358" lon="2.03668">
        <ele>37</ele>
        <time>2012-08-22T20:46:08Z</time>
      </trkpt>
      <trkpt lat="50.37354" lon="2.03672">
        <ele>35</ele>
        <time>2012-08-22T20:46:10Z</time>
      </trkpt>
      <trkpt lat="50.3735" lon="2.03679">
        <ele>29</ele>
        <time>2012-08-22T20:46:12Z</time>
      </trkpt>
      <trkpt lat="50.37347" lon="2.0369">
        <ele>28</ele>
        <time>2012-08-22T20:46:14Z</time>
      </trkpt>
      <trkpt lat="50.37344" lon="2.037">
        <ele>29</ele>
        <time>2012-08-22T20:46:16Z</time>
      </trkpt>
      <trkpt lat="50.37341" lon="2.03708">
        <ele>29</ele>
        <time>2012-08-22T20:46:18Z</time>
      </trkpt>
      <trkpt lat="50.37338" lon="2.03712">
        <ele>26</ele>
        <time>2012-08-22T20:46:20Z</time>
      </trkpt>
      <trkpt lat="50.37334" lon="2.03718">
        <ele>24</ele>
        <time>2012-08-22T20:46:22Z</time>
      </trkpt>
      <trkpt lat="50.37331" lon="2.03724">
        <ele>23</ele>
        <time>2012-08-22T20:46:24Z</time>
      </trkpt>
      <trkpt lat="50.37329" lon="2.03729">
        <ele>24</ele>
        <time>2012-08-22T20:46:26Z</time>
      </trkpt>
      <trkpt lat="50.37327" lon="2.03729">
        <ele>25</ele>
        <time>2012-08-22T20:46:28Z</time>
      </trkpt>
      <trkpt lat="50.37325" lon="2.03729">
        <ele>24</ele>
        <time>2012-08-22T20:46:30Z</time>
      </trkpt>
      <trkpt lat="50.37324" lon="2.03723">
        <ele>23</ele>
        <time>2012-08-22T20:46:32Z</time>
      </trkpt>
      <trkpt lat="50.37323" lon="2.03723">
        <ele>23</ele>
        <time>2012-08-22T20:46:34Z</time>
      </trkpt>
      <trkpt lat="50.37322" lon="2.03724">
        <ele>24</ele>
        <time>2012-08-22T20:46:36Z</time>
      </trkpt>
      <trkpt lat="50.37319" lon="2.03731">
        <ele>22</ele>
        <time>2012-08-22T20:46:38Z</time>
      </trkpt>
      <trkpt lat="50.37316" lon="2.03737">
        <ele>23</ele>
        <time>2012-08-22T20:46:40Z</time>
      </trkpt>
      <trkpt lat="50.37314" lon="2.0374">
        <ele>29</ele>
        <time>2012-08-22T20:46:42Z</time>
      </trkpt>
      <trkpt lat="50.37314" lon="2.0374">
        <ele>30</ele>
        <time>2012-08-22T20:46:44Z</time>
      </trkpt>
      <trkpt lat="50.37314" lon="2.03743">
        <ele>30</ele>
        <time>2012-08-22T20:46:46Z</time>
      </trkpt>
      <trkpt lat="50.37315" lon="2.03749">
        <ele>29</ele>
        <time>2012-08-22T20:46:48Z</time>
      </trkpt>
      <trkpt lat="50.37317" lon="2.03761">
        <ele>28</ele>
        <time>2012-08-22T20:46:50Z</time>
      </trkpt>
      <trkpt lat="50.37319" lon="2.03769">
        <ele>27</ele>
        <time>2012-08-22T20:46:52Z</time>
      </trkpt>
      <trkpt lat="50.37325" lon="2.03776">
        <ele>27</ele>
        <time>2012-08-22T20:46:54Z</time>
      </trkpt>
      <trkpt lat="50.37332" lon="2.03784">
        <ele>26</ele>
        <time>2012-08-22T20:46:56Z</time>
      </trkpt>
      <trkpt lat="50.37338" lon="2.03793">
        <ele>25</ele>
        <time>2012-08-22T20:46:58Z</time>
      </trkpt>
      <trkpt lat="50.37341" lon="2.03802">
        <ele>25</ele>
        <time>2012-08-22T20:47:00Z</time>
      </trkpt>
      <trkpt lat="50.37343" lon="2.03811">
        <ele>25</ele>
        <time>2012-08-22T20:47:02Z</time>
      </trkpt>
      <trkpt lat="50.37342" lon="2.03821">
        <ele>25</ele>
        <time>2012-08-22T20:47:04Z</time>
      </trkpt>
      <trkpt lat="50.37346" lon="2.03828">
        <ele>22</ele>
        <time>2012-08-22T20:47:06Z</time>
      </trkpt>
      <trkpt lat="50.37353" lon="2.03833">
        <ele>21</ele>
        <time>2012-08-22T20:47:08Z</time>
      </trkpt>
      <trkpt lat="50.3736" lon="2.03837">
        <ele>20</ele>
        <time>2012-08-22T20:47:10Z</time>
      </trkpt>
      <trkpt lat="50.37364" lon="2.03842">
        <ele>21</ele>
        <time>2012-08-22T20:47:12Z</time>
      </trkpt>
      <trkpt lat="50.37367" lon="2.03844">
        <ele>21</ele>
        <time>2012-08-22T20:47:14Z</time>
      </trkpt>
      <trkpt lat="50.37371" lon="2.03838">
        <ele>22</ele>
        <time>2012-08-22T20:47:16Z</time>
      </trkpt>
      <trkpt lat="50.37368" lon="2.03802">
        <ele>31</ele>
        <time>2012-08-22T20:47:18Z</time>
      </trkpt>
      <trkpt lat="50.37372" lon="2.03788">
        <ele>33</ele>
        <time>2012-08-22T20:47:20Z</time>
      </trkpt>
      <trkpt lat="50.37382" lon="2.03763">
        <ele>28</ele>
        <time>2012-08-22T20:47:22Z</time>
      </trkpt>
      <trkpt lat="50.37387" lon="2.03748">
        <ele>27</ele>
        <time>2012-08-22T20:47:24Z</time>
      </trkpt>
      <trkpt lat="50.37388" lon="2.03735">
        <ele>25</ele>
        <time>2012-08-22T20:47:26Z</time>
      </trkpt>
      <trkpt lat="50.37392" lon="2.03728">
        <ele>25</ele>
        <time>2012-08-22T20:47:28Z</time>
      </trkpt>
      <trkpt lat="50.37398" lon="2.03734">
        <ele>29</ele>
        <time>2012-08-22T20:47:30Z</time>
      </trkpt>
      <trkpt lat="50.37407" lon="2.03739">
        <ele>32</ele>
        <time>2012-08-22T20:47:32Z</time>
      </trkpt>
      <trkpt lat="50.37413" lon="2.03743">
        <ele>32</ele>
        <time>2012-08-22T20:47:34Z</time>
      </trkpt>
      <trkpt lat="50.37419" lon="2.03748">
        <ele>31</ele>
        <time>2012-08-22T20:47:36Z</time>
      </trkpt>
      <trkpt lat="50.37427" lon="2.03753">
        <ele>31</ele>
        <time>2012-08-22T20:47:38Z</time>
      </trkpt>
      <trkpt lat="50.37434" lon="2.03758">
        <ele>29</ele>
        <time>2012-08-22T20:47:40Z</time>
      </trkpt>
      <trkpt lat="50.3746" lon="2.03771">
        <ele>23</ele>
        <time>2012-08-22T20:47:42Z</time>
      </trkpt>
      <trkpt lat="50.37465" lon="2.03777">
        <ele>22</ele>
        <time>2012-08-22T20:47:44Z</time>
      </trkpt>
      <trkpt lat="50.37472" lon="2.03785">
        <ele>22</ele>
        <time>2012-08-22T20:47:46Z</time>
      </trkpt>
      <trkpt lat="50.37478" lon="2.03793">
        <ele>22</ele>
        <time>2012-08-22T20:47:48Z</time>
      </trkpt>
      <trkpt lat="50.37484" lon="2.03803">
        <ele>22</ele>
        <time>2012-08-22T20:47:50Z</time>
      </trkpt>
      <trkpt lat="50.37489" lon="2.03809">
        <ele>22</ele>
        <time>2012-08-22T20:47:52Z</time>
      </trkpt>
      <trkpt lat="50.37492" lon="2.03817">
        <ele>22</ele>
        <time>2012-08-22T20:47:54Z</time>
      </trkpt>
      <trkpt lat="50.37499" lon="2.03823">
        <ele>22</ele>
        <time>2012-08-22T20:47:56Z</time>
      </trkpt>
      <trkpt lat="50.37507" lon="2.03829">
        <ele>22</ele>
        <time>2012-08-22T20:47:58Z</time>
      </trkpt>
      <trkpt lat="50.37517" lon="2.03816">
        <ele>24</ele>
        <time>2012-08-22T20:48:00Z</time>
      </trkpt>
      <trkpt lat="50.37524" lon="2.03803">
        <ele>25</ele>
        <time>2012-08-22T20:48:02Z</time>
      </trkpt>
      <trkpt lat="50.37532" lon="2.03789">
        <ele>22</ele>
        <time>2012-08-22T20:48:04Z</time>
      </trkpt>
      <trkpt lat="50.37538" lon="2.03779">
        <ele>22</ele>
        <time>2012-08-22T20:48:06Z</time>
      </trkpt>
      <trkpt lat="50.37543" lon="2.03767">
        <ele>21</ele>
        <time>2012-08-22T20:48:08Z</time>
      </trkpt>
      <trkpt lat="50.37547" lon="2.03756">
        <ele>20</ele>
        <time>2012-08-22T20:48:10Z</time>
      </trkpt>
      <trkpt lat="50.37553" lon="2.03746">
        <ele>22</ele>
        <time>2012-08-22T20:48:12Z</time>
      </trkpt>
      <trkpt lat="50.37559" lon="2.03733">
        <ele>24</ele>
        <time>2012-08-22T20:48:14Z</time>
      </trkpt>
      <trkpt lat="50.37564" lon="2.03721">
        <ele>25</ele>
        <time>2012-08-22T20:48:16Z</time>
      </trkpt>
      <trkpt lat="50.37569" lon="2.03711">
        <ele>27</ele>
        <time>2012-08-22T20:48:18Z</time>
      </trkpt>
      <trkpt lat="50.37572" lon="2.03701">
        <ele>27</ele>
        <time>2012-08-22T20:48:20Z</time>
      </trkpt>
      <trkpt lat="50.37579" lon="2.03683">
        <ele>27</ele>
        <time>2012-08-22T20:48:22Z</time>
      </trkpt>
      <trkpt lat="50.37589" lon="2.03667">
        <ele>24</ele>
        <time>2012-08-22T20:48:24Z</time>
      </trkpt>
      <trkpt lat="50.37605" lon="2.03669">
        <ele>24</ele>
        <time>2012-08-22T20:48:26Z</time>
      </trkpt>
      <trkpt lat="50.37619" lon="2.03665">
        <ele>27</ele>
        <time>2012-08-22T20:48:28Z</time>
      </trkpt>
      <trkpt lat="50.37631" lon="2.03666">
        <ele>28</ele>
        <time>2012-08-22T20:48:30Z</time>
      </trkpt>
      <trkpt lat="50.3764" lon="2.03666">
        <ele>30</ele>
        <time>2012-08-22T20:48:32Z</time>
      </trkpt>
      <trkpt lat="50.37648" lon="2.03666">
        <ele>32</ele>
        <time>2012-08-22T20:48:34Z</time>
      </trkpt>
      <trkpt lat="50.37661" lon="2.03666">
        <ele>30</ele>
        <time>2012-08-22T20:48:36Z</time>
      </trkpt>
      <trkpt lat="50.37672" lon="2.03666">
        <ele>31</ele>
        <time>2012-08-22T20:48:38Z</time>
      </trkpt>
      <trkpt lat="50.37682" lon="2.03666">
        <ele>32</ele>
        <time>2012-08-22T20:48:40Z</time>
      </trkpt>
      <trkpt lat="50.37695" lon="2.03665">
        <ele>31</ele>
        <time>2012-08-22T20:48:42Z</time>
      </trkpt>
      <trkpt lat="50.37706" lon="2.03666">
        <ele>31</ele>
        <time>2012-08-22T20:48:44Z</time>
      </trkpt>
      <trkpt lat="50.37719" lon="2.03668">
        <ele>31</ele>
        <time>2012-08-22T20:48:46Z</time>
      </trkpt>
      <trkpt lat="50.3773" lon="2.03668">
        <ele>32</ele>
        <time>2012-08-22T20:48:48Z</time>
      </trkpt>
      <trkpt lat="50.37741" lon="2.03669">
        <ele>33</ele>
        <time>2012-08-22T20:48:50Z</time>
      </trkpt>
      <trkpt lat="50.37751" lon="2.03669">
        <ele>35</ele>
        <time>2012-08-22T20:48:52Z</time>
      </trkpt>
      <trkpt lat="50.37763" lon="2.03671">
        <ele>34</ele>
        <time>2012-08-22T20:48:54Z</time>
      </trkpt>
      <trkpt lat="50.37775" lon="2.03671">
        <ele>32</ele>
        <time>2012-08-22T20:48:56Z</time>
      </trkpt>
      <trkpt lat="50.37785" lon="2.0367">
        <ele>33</ele>
        <time>2012-08-22T20:48:58Z</time>
      </trkpt>
      <trkpt lat="50.37796" lon="2.0367">
        <ele>33</ele>
        <time>2012-08-22T20:49:00Z</time>
      </trkpt>
      <trkpt lat="50.37808" lon="2.03669">
        <ele>32</ele>
        <time>2012-08-22T20:49:02Z</time>
      </trkpt>
      <trkpt lat="50.37822" lon="2.03668">
        <ele>29</ele>
        <time>2012-08-22T20:49:04Z</time>
      </trkpt>
      <trkpt lat="50.37834" lon="2.0367">
        <ele>29</ele>
        <time>2012-08-22T20:49:06Z</time>
      </trkpt>
      <trkpt lat="50.37848" lon="2.03671">
        <ele>28</ele>
        <time>2012-08-22T20:49:08Z</time>
      </trkpt>
      <trkpt lat="50.37859" lon="2.03673">
        <ele>29</ele>
        <time>2012-08-22T20:49:10Z</time>
      </trkpt>
      <trkpt lat="50.37869" lon="2.03675">
        <ele>28</ele>
        <time>2012-08-22T20:49:12Z</time>
      </trkpt>
      <trkpt lat="50.37879" lon="2.0368">
        <ele>27</ele>
        <time>2012-08-22T20:49:14Z</time>
      </trkpt>
      <trkpt lat="50.3789" lon="2.03685">
        <ele>26</ele>
        <time>2012-08-22T20:49:16Z</time>
      </trkpt>
      <trkpt lat="50.379" lon="2.0369">
        <ele>26</ele>
        <time>2012-08-22T20:49:18Z</time>
      </trkpt>
      <trkpt lat="50.37911" lon="2.03696">
        <ele>24</ele>
        <time>2012-08-22T20:49:20Z</time>
      </trkpt>
      <trkpt lat="50.37921" lon="2.03703">
        <ele>24</ele>
        <time>2012-08-22T20:49:22Z</time>
      </trkpt>
      <trkpt lat="50.37931" lon="2.03709">
        <ele>23</ele>
        <time>2012-08-22T20:49:24Z</time>
      </trkpt>
      <trkpt lat="50.3794" lon="2.03716">
        <ele>23</ele>
        <time>2012-08-22T20:49:26Z</time>
      </trkpt>
      <trkpt lat="50.37949" lon="2.03722">
        <ele>24</ele>
        <time>2012-08-22T20:49:28Z</time>
      </trkpt>
      <trkpt lat="50.37957" lon="2.0373">
        <ele>24</ele>
        <time>2012-08-22T20:49:30Z</time>
      </trkpt>
      <trkpt lat="50.37965" lon="2.03738">
        <ele>25</ele>
        <time>2012-08-22T20:49:32Z</time>
      </trkpt>
      <trkpt lat="50.37973" lon="2.03748">
        <ele>26</ele>
        <time>2012-08-22T20:49:34Z</time>
      </trkpt>
      <trkpt lat="50.37981" lon="2.03758">
        <ele>26</ele>
        <time>2012-08-22T20:49:36Z</time>
      </trkpt>
      <trkpt lat="50.37989" lon="2.03768">
        <ele>26</ele>
        <time>2012-08-22T20:49:38Z</time>
      </trkpt>
      <trkpt lat="50.37997" lon="2.03778">
        <ele>26</ele>
        <time>2012-08-22T20:49:40Z</time>
      </trkpt>
      <trkpt lat="50.38004" lon="2.03788">
        <ele>27</ele>
        <time>2012-08-22T20:49:42Z</time>
      </trkpt>
      <trkpt lat="50.38011" lon="2.038">
        <ele>28</ele>
        <time>2012-08-22T20:49:44Z</time>
      </trkpt>
      <trkpt lat="50.38018" lon="2.03806">
        <ele>28</ele>
        <time>2012-08-22T20:49:46Z</time>
      </trkpt>
      <trkpt lat="50.38027" lon="2.03807">
        <ele>27</ele>
        <time>2012-08-22T20:49:48Z</time>
      </trkpt>
      <trkpt lat="50.38035" lon="2.03803">
        <ele>28</ele>
        <time>2012-08-22T20:49:50Z</time>
      </trkpt>
      <trkpt lat="50.38042" lon="2.03796">
        <ele>28</ele>
        <time>2012-08-22T20:49:52Z</time>
      </trkpt>
      <trkpt lat="50.38052" lon="2.03793">
        <ele>28</ele>
        <time>2012-08-22T20:49:54Z</time>
      </trkpt>
      <trkpt lat="50.38061" lon="2.03788">
        <ele>28</ele>
        <time>2012-08-22T20:49:56Z</time>
      </trkpt>
      <trkpt lat="50.38073" lon="2.03784">
        <ele>20</ele>
        <time>2012-08-22T20:49:58Z</time>
      </trkpt>
      <trkpt lat="50.38081" lon="2.03779">
        <ele>20</ele>
        <time>2012-08-22T20:50:00Z</time>
      </trkpt>
      <trkpt lat="50.38088" lon="2.03773">
        <ele>19</ele>
        <time>2012-08-22T20:50:02Z</time>
      </trkpt>
      <trkpt lat="50.38095" lon="2.03768">
        <ele>20</ele>
        <time>2012-08-22T20:50:04Z</time>
      </trkpt>
      <trkpt lat="50.381" lon="2.03765">
        <ele>20</ele>
        <time>2012-08-22T20:50:06Z</time>
      </trkpt>
      <trkpt lat="50.38108" lon="2.03755">
        <ele>22</ele>
        <time>2012-08-22T20:50:08Z</time>
      </trkpt>
      <trkpt lat="50.38112" lon="2.03746">
        <ele>27</ele>
        <time>2012-08-22T20:50:10Z</time>
      </trkpt>
      <trkpt lat="50.38119" lon="2.0374">
        <ele>27</ele>
        <time>2012-08-22T20:50:12Z</time>
      </trkpt>
      <trkpt lat="50.38123" lon="2.03731">
        <ele>27</ele>
        <time>2012-08-22T20:50:14Z</time>
      </trkpt>
      <trkpt lat="50.38126" lon="2.03716">
        <ele>25</ele>
        <time>2012-08-22T20:50:16Z</time>
      </trkpt>
      <trkpt lat="50.38126" lon="2.037">
        <ele>24</ele>
        <time>2012-08-22T20:50:18Z</time>
      </trkpt>
      <trkpt lat="50.38127" lon="2.03686">
        <ele>24</ele>
        <time>2012-08-22T20:50:20Z</time>
      </trkpt>
      <trkpt lat="50.38123" lon="2.03669">
        <ele>20</ele>
        <time>2012-08-22T20:50:22Z</time>
      </trkpt>
      <trkpt lat="50.38124" lon="2.03652">
        <ele>20</ele>
        <time>2012-08-22T20:50:24Z</time>
      </trkpt>
      <trkpt lat="50.38124" lon="2.03636">
        <ele>20</ele>
        <time>2012-08-22T20:50:26Z</time>
      </trkpt>
      <trkpt lat="50.38126" lon="2.03617">
        <ele>18</ele>
        <time>2012-08-22T20:50:28Z</time>
      </trkpt>
      <trkpt lat="50.38129" lon="2.03594">
        <ele>19</ele>
        <time>2012-08-22T20:50:30Z</time>
      </trkpt>
      <trkpt lat="50.38131" lon="2.03575">
        <ele>19</ele>
        <time>2012-08-22T20:50:32Z</time>
      </trkpt>
      <trkpt lat="50.38135" lon="2.0356">
        <ele>18</ele>
        <time>2012-08-22T20:50:34Z</time>
      </trkpt>
      <trkpt lat="50.38139" lon="2.03546">
        <ele>18</ele>
        <time>2012-08-22T20:50:36Z</time>
      </trkpt>
      <trkpt lat="50.38143" lon="2.03528">
        <ele>19</ele>
        <time>2012-08-22T20:50:38Z</time>
      </trkpt>
      <trkpt lat="50.38147" lon="2.03512">
        <ele>19</ele>
        <time>2012-08-22T20:50:40Z</time>
      </trkpt>
      <trkpt lat="50.3815" lon="2.03495">
        <ele>19</ele>
        <time>2012-08-22T20:50:42Z</time>
      </trkpt>
      <trkpt lat="50.38152" lon="2.0348">
        <ele>19</ele>
        <time>2012-08-22T20:50:44Z</time>
      </trkpt>
      <trkpt lat="50.38157" lon="2.03462">
        <ele>18</ele>
        <time>2012-08-22T20:50:46Z</time>
      </trkpt>
      <trkpt lat="50.38158" lon="2.03445">
        <ele>18</ele>
        <time>2012-08-22T20:50:48Z</time>
      </trkpt>
      <trkpt lat="50.38162" lon="2.03431">
        <ele>17</ele>
        <time>2012-08-22T20:50:50Z</time>
      </trkpt>
      <trkpt lat="50.38165" lon="2.03413">
        <ele>16</ele>
        <time>2012-08-22T20:50:52Z</time>
      </trkpt>
      <trkpt lat="50.38167" lon="2.03395">
        <ele>17</ele>
        <time>2012-08-22T20:50:54Z</time>
      </trkpt>
      <trkpt lat="50.38166" lon="2.03378">
        <ele>18</ele>
        <time>2012-08-22T20:50:56Z</time>
      </trkpt>
      <trkpt lat="50.38166" lon="2.0336">
        <ele>17</ele>
        <time>2012-08-22T20:50:58Z</time>
      </trkpt>
      <trkpt lat="50.38166" lon="2.03344">
        <ele>16</ele>
        <time>2012-08-22T20:51:00Z</time>
      </trkpt>
      <trkpt lat="50.38164" lon="2.03326">
        <ele>15</ele>
        <time>2012-08-22T20:51:02Z</time>
      </trkpt>
      <trkpt lat="50.38162" lon="2.0331">
        <ele>16</ele>
        <time>2012-08-22T20:51:04Z</time>
      </trkpt>
      <trkpt lat="50.38158" lon="2.03292">
        <ele>16</ele>
        <time>2012-08-22T20:51:06Z</time>
      </trkpt>
      <trkpt lat="50.38155" lon="2.03276">
        <ele>17</ele>
        <time>2012-08-22T20:51:08Z</time>
      </trkpt>
      <trkpt lat="50.38154" lon="2.0326">
        <ele>17</ele>
        <time>2012-08-22T20:51:10Z</time>
      </trkpt>
      <trkpt lat="50.38151" lon="2.03245">
        <ele>18</ele>
        <time>2012-08-22T20:51:12Z</time>
      </trkpt>
      <trkpt lat="50.3815" lon="2.03232">
        <ele>20</ele>
        <time>2012-08-22T20:51:14Z</time>
      </trkpt>
      <trkpt lat="50.38148" lon="2.03217">
        <ele>20</ele>
        <time>2012-08-22T20:51:16Z</time>
      </trkpt>
      <trkpt lat="50.38144" lon="2.03204">
        <ele>20</ele>
        <time>2012-08-22T20:51:18Z</time>
      </trkpt>
      <trkpt lat="50.38142" lon="2.03202">
        <ele>20</ele>
        <time>2012-08-22T20:51:20Z</time>
      </trkpt>
      <trkpt lat="50.38143" lon="2.03176">
        <ele>19</ele>
        <time>2012-08-22T20:51:22Z</time>
      </trkpt>
      <trkpt lat="50.38136" lon="2.03155">
        <ele>21</ele>
        <time>2012-08-22T20:51:24Z</time>
      </trkpt>
      <trkpt lat="50.3813" lon="2.03135">
        <ele>23</ele>
        <time>2012-08-22T20:51:26Z</time>
      </trkpt>
      <trkpt lat="50.38126" lon="2.03119">
        <ele>23</ele>
        <time>2012-08-22T20:51:28Z</time>
      </trkpt>
      <trkpt lat="50.38123" lon="2.03108">
        <ele>24</ele>
        <time>2012-08-22T20:51:30Z</time>
      </trkpt>
      <trkpt lat="50.38119" lon="2.03095">
        <ele>25</ele>
        <time>2012-08-22T20:51:32Z</time>
      </trkpt>
      <trkpt lat="50.38115" lon="2.03083">
        <ele>25</ele>
        <time>2012-08-22T20:51:34Z</time>
      </trkpt>
      <trkpt lat="50.38109" lon="2.03067">
        <ele>25</ele>
        <time>2012-08-22T20:51:36Z</time>
      </trkpt>
      <trkpt lat="50.38104" lon="2.03056">
        <ele>26</ele>
        <time>2012-08-22T20:51:38Z</time>
      </trkpt>
      <trkpt lat="50.38102" lon="2.03037">
        <ele>25</ele>
        <time>2012-08-22T20:51:40Z</time>
      </trkpt>
      <trkpt lat="50.38102" lon="2.03031">
        <ele>26</ele>
        <time>2012-08-22T20:51:42Z</time>
      </trkpt>
      <trkpt lat="50.38101" lon="2.03008">
        <ele>27</ele>
        <time>2012-08-22T20:51:44Z</time>
      </trkpt>
      <trkpt lat="50.38105" lon="2.02996">
        <ele>27</ele>
        <time>2012-08-22T20:51:46Z</time>
      </trkpt>
      <trkpt lat="50.38108" lon="2.0299">
        <ele>29</ele>
        <time>2012-08-22T20:51:48Z</time>
      </trkpt>
      <trkpt lat="50.3811" lon="2.02988">
        <ele>27</ele>
        <time>2012-08-22T20:51:50Z</time>
      </trkpt>
      <trkpt lat="50.38114" lon="2.02986">
        <ele>20</ele>
        <time>2012-08-22T20:51:58Z</time>
      </trkpt>
      <trkpt lat="50.38116" lon="2.02986">
        <ele>21</ele>
        <time>2012-08-22T20:52:00Z</time>
      </trkpt>
      <trkpt lat="50.38116" lon="2.02986">
        <ele>22</ele>
        <time>2012-08-22T20:52:02Z</time>
      </trkpt>
      <trkpt lat="50.38114" lon="2.02994">
        <ele>24</ele>
        <time>2012-08-22T20:52:06Z</time>
      </trkpt>
      <trkpt lat="50.38115" lon="2.02997">
        <ele>25</ele>
        <time>2012-08-22T20:52:08Z</time>
      </trkpt>
      <trkpt lat="50.38116" lon="2.03004">
        <ele>26</ele>
        <time>2012-08-22T20:52:10Z</time>
      </trkpt>
      <trkpt lat="50.38117" lon="2.03008">
        <ele>26</ele>
        <time>2012-08-22T20:52:12Z</time>
      </trkpt>
      <trkpt lat="50.38115" lon="2.03007">
        <ele>28</ele>
        <time>2012-08-22T20:52:14Z</time>
      </trkpt>
      <trkpt lat="50.38112" lon="2.03001">
        <ele>28</ele>
        <time>2012-08-22T20:52:20Z</time>
      </trkpt>
      <trkpt lat="50.38112" lon="2.02997">
        <ele>28</ele>
        <time>2012-08-22T20:52:24Z</time>
      </trkpt>
      <trkpt lat="50.3811" lon="2.02995">
        <ele>28</ele>
        <time>2012-08-22T20:52:26Z</time>
      </trkpt>
      <trkpt lat="50.38109" lon="2.02993">
        <ele>30</ele>
        <time>2012-08-22T20:52:28Z</time>
      </trkpt>
      <trkpt lat="50.38108" lon="2.0299">
        <ele>26</ele>
        <time>2012-08-22T20:52:30Z</time>
      </trkpt>
      <trkpt lat="50.38109" lon="2.02989">
        <ele>22</ele>
        <time>2012-08-22T20:52:32Z</time>
      </trkpt>
      <trkpt lat="50.38112" lon="2.0299">
        <ele>22</ele>
        <time>2012-08-22T20:52:34Z</time>
      </trkpt>
      <trkpt lat="50.38113" lon="2.02989">
        <ele>23</ele>
        <time>2012-08-22T20:52:36Z</time>
      </trkpt>
      <trkpt lat="50.38115" lon="2.02987">
        <ele>22</ele>
        <time>2012-08-22T20:52:38Z</time>
      </trkpt>
      <trkpt lat="50.38115" lon="2.02986">
        <ele>24</ele>
        <time>2012-08-22T20:52:40Z</time>
      </trkpt>
      <trkpt lat="50.38116" lon="2.02984">
        <ele>23</ele>
        <time>2012-08-22T20:52:48Z</time>
      </trkpt>
      <trkpt lat="50.38114" lon="2.0298">
        <ele>21</ele>
        <time>2012-08-22T20:53:02Z</time>
      </trkpt>
      <trkpt lat="50.38113" lon="2.02979">
        <ele>22</ele>
        <time>2012-08-22T20:53:04Z</time>
      </trkpt>
      <trkpt lat="50.38113" lon="2.02977">
        <ele>21</ele>
        <time>2012-08-22T20:53:06Z</time>
      </trkpt>
      <trkpt lat="50.38114" lon="2.02975">
        <ele>21</ele>
        <time>2012-08-22T20:53:08Z</time>
      </trkpt>
      <trkpt lat="50.38114" lon="2.02972">
        <ele>22</ele>
        <time>2012-08-22T20:53:10Z</time>
      </trkpt>
      <trkpt lat="50.38113" lon="2.02971">
        <ele>22</ele>
        <time>2012-08-22T20:53:12Z</time>
      </trkpt>
      <trkpt lat="50.38112" lon="2.02969">
        <ele>22</ele>
        <time>2012-08-22T20:53:14Z</time>
      </trkpt>
      <trkpt lat="50.38112" lon="2.02968">
        <ele>22</ele>
        <time>2012-08-22T20:53:16Z</time>
      </trkpt>
      <trkpt lat="50.38111" lon="2.02968">
        <ele>22</ele>
        <time>2012-08-22T20:53:18Z</time>
      </trkpt>
      <trkpt lat="50.38111" lon="2.0297">
        <ele>22</ele>
        <time>2012-08-22T20:53:20Z</time>
      </trkpt>
      <trkpt lat="50.38112" lon="2.0297">
        <ele>22</ele>
        <time>2012-08-22T20:53:22Z</time>
      </trkpt>
      <trkpt lat="50.38112" lon="2.02969">
        <ele>22</ele>
        <time>2012-08-22T20:53:24Z</time>
      </trkpt>
      <trkpt lat="50.38113" lon="2.02969">
        <ele>21</ele>
        <time>2012-08-22T20:53:26Z</time>
      </trkpt>
      <trkpt lat="50.38113" lon="2.02969">
        <ele>21</ele>
        <time>2012-08-22T20:53:28Z</time>
      </trkpt>
      <trkpt lat="50.38113" lon="2.02969">
        <ele>21</ele>
        <time>2012-08-22T20:53:30Z</time>
      </trkpt>
      <trkpt lat="50.38112" lon="2.02969">
        <ele>21</ele>
        <time>2012-08-22T20:53:32Z</time>
      </trkpt>
      <trkpt lat="50.38111" lon="2.0297">
        <ele>21</ele>
        <time>2012-08-22T20:53:38Z</time>
      </trkpt>
      <trkpt lat="50.38109" lon="2.0297">
        <ele>22</ele>
        <time>2012-08-22T20:53:40Z</time>
      </trkpt>
      <trkpt lat="50.38107" lon="2.02968">
        <ele>23</ele>
        <time>2012-08-22T20:53:44Z</time>
      </trkpt>
    </trkseg>
  </trk>
</gpx>